GFSWCAN_prec_radar_000.txt.gz
Reflectivity
10 12 -13 -20 -3 9 -20 15 11 16 16 15 10 4 2 -13 -20 -20 -20 -20 -20 -20 -20 -20 -20 -20 -20 -20 -20 -20 -20 -20 -20 -20 -20 -20 -20 -20 -20 -20 -20 -20 -20 -20 -20 -20 -20 -20 -20 -20 -20 -20 -20 -20
25 6 6 -20 -19 1 -14 -17 4 11 9 15 15 -16 -20 -2 10 -20 -20 -20 -20 -20 -20 -20 -20 -20 -20 -20 -20 -20 -20 -20 -20 -20 -20 -20 -20 -20 -20 -20 -20 -20 -20 -20 -20 -20 -20 -20 -20 -20 -20 -20 -20 -20
29 -20 -8 -20 -20 2 11 -0 -19 -3 13 1 2 -5 -18 -14 12 -7 -20 -20 -20 -20 -20 -20 -20 -20 -20 -20 -20 -20 -20 -20 -20 -20 -20 -20 -20 -20 -20 -20 -20 -20 -20 -20 -20 -20 -20 -20 -20 -20 -20 -20 -20 -20
25 -13 13 -20 -19 -20 -5 9 8 -0 -20 -20 -20 -20 -20 -19 10 -20 -20 -20 -20 -20 -20 -20 -20 -20 -20 -20 -20 -20 -20 -20 -20 -20 -20 -20 -20 -20 -20 -20 -20 -20 -20 -20 -20 -20 -20 -20 -20 -20 -20 -20 -20 -20
28 -6 20 -20 -18 -20 2 -4 -6 -20 -20 -20 -20 -20 -20 8 -19 -16 -5 -17 -20 -20 -20 -20 -20 -20 -20 -20 -20 -20 -20 -13 -8 9 -1 -9 -20 -20 -20 -20 -20 -20 -20 -20 -20 -20 -20 -20 -20 -20 -20 -20 -20 -20
29 1 17 -20 -0 -19 -17 5 -20 -20 -20 -20 -20 -20 -2 -9 -14 -20 -20 -19 -7 -20 -20 -20 -20 -20 -20 -20 -20 -13 10 6 14 0 -0 -7 -20 -20 -20 -20 -20 -20 -20 -20 -20 -20 -20 -20 -20 -20 -20 -20 -20 -20
15 23 15 -1 9 8 -1 -11 11 -19 -20 -20 -17 -16 -17 4 -13 -20 -20 -20 -7 -17 -20 -19 -20 -20 -20 -20 -5 -20 -9 14 14 3 -20 -20 -20 -16 -20 -20 -20 -20 -20 -20 -20 -20 -20 -20 -20 -20 -20 -20 -6 -15
41 38 40 -6 11 9 -18 -18 -20 -20 -20 -16 -19 11 -0 9 5 -13 -19 3 1 -20 -20 -20 -17 -20 -20 -19 -15 -20 -20 -20 -20 -20 -20 -20 -20 -20 -20 -20 -20 -20 -20 -20 -20 -20 -20 -20 -20 -20 -20 2 -4 -7
33 35 36 40 19 -8 9 -12 -20 -20 -20 -20 3 -0 -18 -20 -18 -20 -0 11 -9 -4 -2 -20 -18 -16 -20 4 12 13 22 7 -13 -15 -20 -20 -20 -20 -20 -20 -20 -20 -20 -20 -20 -20 -20 -20 -20 -20 -20 -20 -20 -20
35 29 34 36 29 25 7 7 -12 -20 -19 -10 -20 -20 -20 -20 -12 -2 2 4 6 8 -14 -20 -20 -4 -19 -10 -5 -7 9 10 -13 -9 -19 -12 -20 -20 -20 -20 -20 -20 -20 -20 -20 -20 -20 -20 -20 -20 -20 -20 -20 -20
30 33 36 35 34 30 25 20 13 2 15 -20 -20 -19 -10 -16 -20 -18 -20 -20 -20 -20 -20 -20 -20 -11 -20 -2 -15 -20 -20 -20 -20 -20 -15 -20 -20 -20 -20 -20 -20 -20 -20 -20 -20 -20 -20 -20 -20 -20 -20 -20 -20 -20
28 28 33 35 35 33 33 34 33 20 6 -11 4 11 3 -20 -20 -20 -20 -20 -20 -20 -20 -13 -12 0 -13 -11 -6 -16 -20 -20 -20 -20 -17 -20 -20 -9 -1 -19 -20 -20 -20 -20 -20 -20 -20 -20 -20 -20 -20 -20 -20 -20
21 28 25 30 31 30 33 36 36 36 30 6 26 23 2 -3 -20 -20 -20 -20 -20 -20 -19 -20 -8 -14 -16 -20 -20 -19 -18 -20 -20 -20 -20 -20 -20 -20 -20 -20 -20 -20 -20 -20 -20 -20 -20 -20 -20 -20 -20 -20 -20 -20
16 21 22 22 27 31 29 34 39 36 32 28 31 12 -0 1 -20 -20 -20 -20 -20 -20 -20 -20 -15 -20 -14 -20 -19 -20 -20 -20 -20 -20 -20 -20 -20 -20 -20 -20 -20 -20 -20 -20 -20 -20 -20 -20 -20 -20 -20 -20 -20 -20
14 15 9 20 22 29 32 32 38 36 35 32 24 7 -17 -20 -20 -20 -20 -20 -20 -20 -20 -20 -20 -20 -20 -20 -20 -20 -19 -20 -20 -5 -14 -20 -20 -20 -20 -20 -20 -20 -20 -20 -20 -20 -20 -20 -20 -20 -20 -20 -20 -20
11 14 -5 16 16 26 33 35 39 36 36 42 6 -20 -20 -20 -20 -20 -20 -20 -20 -20 -20 -20 -20 -20 -20 -20 -20 -20 -18 3 10 3 -20 -20 -20 -20 -20 -20 -20 -20 -20 -20 -20 -20 -20 -20 -20 -20 -20 -20 -20 -20
-5 3 8 -7 19 33 34 38 37 31 32 24 -3 -20 -20 -20 -20 -20 -20 -20 -20 -20 -20 -20 -20 -20 -20 -20 -20 -20 3 7 -4 -20 -20 -20 -20 -20 -20 -20 -20 -20 -20 -20 -20 -20 -20 -20 -20 -20 -20 -20 -20 -20
10 -20 -20 12 17 27 35 36 34 30 24 13 -11 -20 -20 -20 -20 -20 -20 -20 -20 -20 -20 -20 -20 -20 -20 -20 -20 -20 -14 7 -10 -20 -20 -20 -20 -20 -20 -20 -20 -20 -20 -20 -20 -20 -20 -20 -20 -20 -20 -20 -20 -20
-20 -20 -2 -1 23 28 32 29 33 23 18 10 -3 -8 -20 -14 -12 -20 -20 -20 -20 -20 -20 -20 -20 -20 -20 -20 -19 -1 -7 -20 -20 -20 -20 -20 -20 -20 -20 -20 -20 -20 -20 -20 -20 -20 -20 -20 -20 -20 -20 -20 -20 -20
12 -2 -13 10 28 28 23 24 32 19 16 12 -12 3 -3 -7 -8 -13 -20 -20 -20 -20 -20 -20 -20 -20 -20 -20 -14 -10 -20 -20 -20 -20 -20 -20 -20 -20 -20 -20 -20 -20 -20 -20 -20 -20 -20 -20 -20 -20 -20 -20 -20 -20
18 17 13 26 29 6 19 9 17 13 18 21 18 4 12 14 6 -5 -19 -20 -20 -20 -20 -20 -20 -20 -20 -20 -20 -20 -20 -20 -20 -20 -20 -20 -20 -20 -20 -20 -20 -20 -20 -20 -20 -20 -20 -20 -20 -20 -20 -20 -20 -20
-20 27 26 29 29 -4 17 22 9 8 4 12 20 14 7 5 4 -3 -15 -18 -20 -20 -19 -14 -3 -20 -20 -20 -20 -20 -20 -20 -20 -20 -20 -20 -20 -20 -20 -20 -20 -20 -20 -20 -20 -20 -20 -20 -20 -20 -20 -20 -20 -20
7 14 26 25 13 4 14 20 -1 7 3 5 11 7 4 6 6 4 -1 -14 -20 -20 -19 -20 -20 -20 -20 -20 -20 -20 -20 -20 -20 -20 -20 -20 -20 -20 -20 -20 -20 -20 -20 -20 -20 -20 -20 -20 -20 -20 -20 -20 -20 -20
-20 -20 -14 -5 1 9 -16 12 12 1 -3 -3 11 12 2 12 10 11 -8 -20 -13 -0 -9 -20 -20 -20 -20 -20 -20 -20 -20 -20 -20 -20 -20 -20 -20 -20 -20 -20 -20 -20 -20 -20 -20 -20 -20 -20 -20 -20 -20 -20 -20 -20
4 -20 -20 -20 -20 -20 -20 -20 -9 -7 -20 -20 -5 -3 -13 -6 -16 -20 -20 -20 -18 -10 -20 -20 -20 -20 -20 -20 -20 -20 -20 -20 -20 -20 -20 -20 -20 -20 -20 -20 -20 -20 -20 -20 -20 -20 -20 -20 -20 -20 -20 -20 -20 -20
8 -11 -20 -20 -20 -20 -20 -20 -20 -20 -18 -20 -20 -20 -20 -20 -20 -20 -20 -20 -16 -20 -20 -20 -20 -20 -20 -20 -20 -20 -20 -20 -20 -20 -20 -20 -20 -20 -19 -20 -20 -20 -20 -20 -20 -20 -20 -20 -20 -20 -20 -20 -20 -20
-20 -16 -20 -20 -20 -20 -20 -20 -20 -20 -20 -20 -20 -20 -20 -20 -20 -20 -20 -20 -20 -20 -20 -20 -20 -20 -20 -20 -20 -20 -20 -20 -20 -20 -20 -20 -20 -20 -20 -20 -20 -20 -20 -20 -20 -20 -20 -20 -20 -20 -20 -20 -20 -20
-20 -20 -20 -20 -20 -20 -20 -20 -20 -20 -20 -20 -20 -20 -20 -20 -20 -20 -20 -20 -20 -20 -20 -20 -20 -20 -20 -20 -20 -20 -20 -20 -20 -20 -20 -20 -20 -20 -20 -20 -20 -20 -20 -20 -20 -20 -20 -20 -20 -20 -20 -20 -20 -20
-20 -20 -20 -20 -20 -20 -20 -20 -20 -20 -20 -20 -20 -20 -20 -20 -20 -20 -20 -20 -20 -20 -20 -20 -20 -20 -20 -20 -20 -20 -20 -20 -20 -20 -20 -20 -20 -20 -20 -20 -20 -20 -20 -20 -20 -20 -20 -20 -20 -20 -20 -20 -20 -20
-20 -20 -20 -20 -20 -20 -20 -20 -20 -20 -20 -20 -20 -20 -20 -20 -20 -20 -20 -20 -20 -20 -20 -20 -20 -20 -20 -20 -20 -20 -20 -20 -20 -20 -20 -20 -20 -20 -20 -20 -20 -20 -20 -20 -20 -20 -20 -20 -20 -20 -20 -20 -20 -20
-20 -20 -20 -20 -20 -20 -20 -20 -20 -20 -20 -20 -20 -20 -20 -20 -20 -20 -20 -20 -20 -20 -20 -20 -20 -20 -20 -20 -20 -20 -20 -20 -20 -20 -20 -20 -20 -20 -20 -20 -20 -20 -20 -20 -20 -20 -20 -20 -20 -20 -20 -20 -20 -20
-20 -20 -20 -20 -20 -20 -20 -20 -20 -20 -20 -20 -20 -20 -20 -20 -20 -20 -20 -20 -20 -20 -20 -20 -20 -20 -20 -20 -20 -20 -20 -20 -20 -20 -20 -20 -20 -20 -20 -20 -20 -20 -20 -20 -20 -20 -20 -20 -20 -20 -20 -20 -20 -20
-20 -20 -20 -20 -20 -20 -20 -20 -20 -20 -20 -20 -20 -20 -20 -20 -20 -20 -20 -20 -20 -20 -20 -20 -20 -20 -20 -20 -20 -20 -20 -20 -20 -20 -15 -15 -19 -17 -20 -20 -20 -20 -20 -20 -20 -20 -20 -20 -20 -20 -20 -20 -20 -20

GFSWCAN_prec_radar_003.txt.gz
Reflectivity
28 23 20 26 17 5 -2 14 15 2 17 11 15 11 9 11 -20 -20 -20 -20 -20 -20 -20 -20 -20 -20 -20 -20 -20 -20 -20 -20 -20 -20 -20 -20 -20 -20 -20 -20 -20 -20 -20 -20 -20 -20 -20 -20 -20 -20 -20 -20 -20 -20
25 28 19 27 14 -1 -20 14 17 13 18 14 15 12 -8 -13 -20 -20 -20 -20 -20 -20 -20 -20 -20 -20 -20 -20 -20 -20 -20 -20 -20 -20 -20 -20 -20 -20 -20 -20 -20 -20 -20 -20 -20 -20 -20 -20 -20 -20 -20 -20 -20 -20
24 31 20 23 13 -15 -20 4 17 15 18 14 10 14 9 -20 11 -1 -20 -20 -20 -20 -20 -20 -20 -20 -20 -20 -20 -20 -20 -20 -20 -20 -20 -20 -20 -20 -20 -20 -20 -20 -20 -20 -20 -20 -20 -20 -20 -20 -20 -20 -20 -20
23 27 21 19 19 2 -20 -11 14 14 17 16 14 15 15 -12 11 10 -20 -20 -20 -20 -20 -20 -20 -20 -20 -20 -20 -20 -20 -20 -20 -20 -20 -20 -20 -20 -20 -20 -20 -20 -20 -20 -20 -20 -20 -20 -20 -20 -20 -20 -20 -20
9 12 14 18 9 -5 1 -18 13 14 15 -13 -6 -20 12 -14 11 9 -20 -20 -20 -20 -20 -20 -20 -20 -20 -20 -20 -20 -20 -20 -20 -20 -20 -20 -20 -20 -20 -20 -20 -20 -20 -20 -20 -20 -20 -20 -20 -20 -20 -20 -20 -20
12 14 20 19 2 15 -15 -20 6 12 9 -14 -20 -20 10 -15 11 -20 -20 -20 -20 -20 -20 -20 -20 -20 -20 -20 -20 -20 -20 -20 -20 -20 -20 -20 -14 -15 -20 -20 -20 -20 -20 -20 -20 -20 -20 -20 -20 -20 -20 -20 -20 -20
23 18 -2 9 10 19 2 -20 -8 8 -20 -20 -17 2 3 7 -20 -20 -20 -20 -8 -19 -20 -20 -20 -20 -20 -20 -20 -20 -20 -20 -20 6 12 4 -6 -1 -20 -20 -20 -20 -20 -20 -20 -20 -20 -20 -20 -20 -20 -20 -20 -20
25 15 34 20 22 30 9 5 -11 -13 8 10 14 15 16 10 -20 -20 -20 3 -20 -20 -20 -20 1 -20 -20 -20 -18 -20 -20 -15 15 16 2 -15 -20 -20 -20 -20 -20 -20 -20 -20 -20 -20 -20 -20 -20 -20 -20 -20 -20 -20
35 36 36 36 36 35 21 17 -3 7 1 15 14 12 2 -6 -20 -20 5 1 -20 -20 -20 -20 -20 -20 -20 -1 -14 6 7 6 -2 -11 -9 -12 -20 -20 -20 -20 -20 -20 -20 -20 -20 -20 -20 -20 -20 -20 -20 -20 -20 -20
33 39 34 26 25 37 34 27 14 -17 -12 14 -2 -20 -20 -20 -20 -19 -16 -20 -9 -20 -20 -20 -20 -20 -20 -20 -9 -11 -1 4 9 4 -20 -20 -20 -16 -20 -20 -20 -20 -20 -20 -20 -20 -20 -20 -20 -20 -20 -20 -20 -20
32 36 35 33 33 30 35 32 28 14 10 -19 -20 -20 -20 -1 -3 -20 -20 -20 -20 -20 -20 -20 -20 -20 -20 -11 -3 -6 -18 -20 -20 -19 -13 -20 -20 -20 -20 -20 -20 -20 -20 -20 -20 -20 -20 -20 -20 -20 -20 -20 -20 -20
30 32 36 36 34 34 31 34 34 31 20 -18 -18 1 9 16 -0 4 -20 -20 -20 -20 -20 -20 -20 -20 -20 -20 -17 -20 -20 -20 -20 -18 -18 -20 -20 -20 -20 -20 -20 -20 -20 -20 -20 -20 -20 -20 -20 -20 -20 -20 -20 -20
26 29 34 36 36 36 38 35 37 40 34 16 21 27 11 24 -17 -20 -20 -20 -20 -20 -20 -20 -18 -20 -20 -20 -20 -20 -20 -20 -20 -20 -20 -20 -20 -20 -20 -20 -20 -20 -20 -20 -20 -20 -20 -20 -20 -20 -20 -20 -20 -20
15 24 30 31 36 33 35 35 38 39 36 29 29 19 3 3 -20 -20 -20 -20 -11 5 -4 -20 -20 -20 -20 -20 -4 -20 -20 -20 -20 -20 -20 -20 -20 -20 -20 -20 -20 -20 -20 -20 -20 -20 -20 -20 -20 -20 -20 -20 -20 -20
5 14 23 29 31 33 31 33 40 38 35 29 28 9 -5 -20 -20 -20 -20 -20 -20 -8 0 -16 -20 -20 -20 -13 -20 -20 -19 -20 -20 -20 -20 -20 -20 -20 -20 -20 -20 -20 -20 -20 -20 -20 -20 -20 -20 -20 -20 -20 -20 -20
1 6 16 24 29 29 34 35 34 30 34 29 11 -13 -20 -20 -20 -20 -20 -20 -20 -20 -14 -14 -20 -20 -20 -18 -20 -20 -20 -20 -20 -20 -20 -20 -20 -20 -20 -20 -20 -20 -20 -20 -20 -20 -20 -20 -20 -20 -20 -20 -20 -20
-1 -5 7 17 24 25 33 33 35 27 30 24 8 -20 -20 -20 -20 -20 -13 -18 -14 -20 -20 -20 -20 -20 -20 -20 -20 -20 -20 -20 -20 -20 -20 -20 -20 -20 -20 -20 -20 -20 -20 -20 -20 -20 -20 -20 -20 -20 -20 -20 -20 -20
9 -13 13 -1 20 32 33 32 31 24 23 16 0 -20 -20 -20 -20 -20 -20 -20 -20 -20 -20 -20 -20 -20 -20 -20 -20 -20 -20 -20 -20 -20 -20 -20 -20 -20 -20 -20 -20 -20 -20 -20 -20 -20 -20 -20 -20 -20 -20 -20 -20 -20
-20 -20 11 13 27 29 26 28 28 21 14 3 -15 -20 -20 -20 -20 -20 -13 -20 -20 -20 -20 -20 -20 -20 -20 -20 -20 -20 -20 -20 -20 -20 -20 -20 -20 -20 -20 -20 -20 -20 -20 -20 -20 -20 -20 -20 -20 -20 -20 -20 -20 -20
16 16 15 16 23 31 19 21 29 18 11 5 -12 -20 -20 -20 -20 -20 -20 -14 -11 -19 -20 -20 -20 -20 -20 -20 -20 -20 -20 -20 -20 -20 -20 -20 -20 -20 -20 -20 -20 -20 -20 -20 -20 -20 -20 -20 -20 -20 -20 -20 -20 -20
-0 -3 -6 22 35 27 27 12 20 19 13 8 4 5 13 -10 -20 -20 0 14 9 5 -20 -20 -8 -20 -20 -20 -20 -20 -20 -20 -20 -20 -20 -20 -20 -20 -20 -20 -20 -20 -20 -20 -20 -20 -20 -20 -20 -20 -20 -20 -20 -20
-0 9 6 18 20 22 12 17 13 17 12 19 18 6 -9 -2 1 -1 -15 -20 -20 -13 -17 -9 -19 -20 -20 -20 -20 -20 -20 -20 -20 -20 -20 -20 -20 -20 -20 -20 -20 -20 -20 -20 -20 -20 -20 -20 -20 -20 -20 -20 -20 -20
4 3 12 15 14 10 14 22 2 14 13 18 19 17 16 12 12 13 11 3 -19 -17 -2 6 5 -8 -20 -20 -20 -20 -20 -20 -20 -20 -20 -20 -20 -20 -20 -20 -20 -20 -20 -20 -20 -20 -20 -20 -20 -20 -20 -20 -20 -20
-20 -20 -20 -7 9 13 15 14 6 7 6 -1 13 8 0 -13 -15 2 -2 -19 -19 -2 7 2 -18 -20 -20 -20 -20 -20 -20 -20 -20 -20 -20 -20 -20 -20 -20 -20 -20 -20 -20 -20 -20 -20 -20 -20 -20 -20 -20 -20 -20 -20
-20 -20 -20 -20 -20 -20 -20 -20 -18 -7 7 9 10 13 2 3 9 -19 -20 -20 -19 -11 -20 -20 -20 -20 -20 -20 -20 -20 -20 -20 -20 -20 -20 -20 -20 -20 -20 -20 -20 -20 -20 -20 -20 -20 -20 -20 -20 -20 -20 -20 -20 -20
-20 -20 -20 -20 -20 -20 -20 -20 -20 -8 -5 6 5 5 1 1 -13 -20 -20 -20 -13 -20 -20 -20 -20 -20 -20 -20 -20 -20 -20 -20 -20 -20 -20 -20 -20 -20 -20 -20 -20 -20 -20 -20 -20 -20 -20 -20 -20 -20 -20 -20 -20 -20
-20 -20 -20 -20 -20 -20 -20 -20 -20 -20 -13 -14 -17 -17 -20 -20 -20 -20 -20 -20 -20 -20 -20 -20 -20 -20 -20 -20 -20 -20 -20 -20 -20 -20 -20 -20 -20 -20 -20 -20 -20 -20 -20 -20 -20 -20 -20 -20 -20 -20 -20 -20 -20 -20
-20 -20 -20 -20 -20 -20 -20 -20 -20 -20 -20 -20 -20 -20 -20 -20 -20 -20 -20 -20 -20 -20 -20 -20 -20 -20 -20 -20 -20 -20 -20 -20 -20 -20 -20 -20 -20 -20 -20 -20 -20 -20 -20 -20 -20 -20 -20 -20 -20 -20 -20 -20 -20 -20
-20 -20 -20 -20 -20 -20 -20 -20 -20 -20 -20 -20 -20 -20 -20 -20 -20 -20 -20 -20 -20 -20 -20 -20 -20 -20 -20 -20 -20 -20 -20 -20 -20 -20 -20 -20 -20 -20 -20 -20 -20 -20 -20 -20 -20 -20 -20 -20 -20 -20 -20 -20 -20 -20
-20 -20 -20 -20 -20 -20 -20 -20 -20 -20 -20 -20 -20 -20 -20 -20 -20 -20 -20 -20 -20 -20 -20 -20 -20 -20 -20 -20 -20 -20 -20 -20 -20 -20 -20 -20 -20 -20 -20 -20 -20 -20 -20 -20 -20 -20 -20 -20 -20 -20 -20 -20 -20 -20
-20 -20 -20 -20 -20 -20 -20 -20 -20 -20 -20 -20 -20 -20 -20 -20 -20 -20 -20 -20 -20 -20 -20 -20 -20 -20 -20 -20 -20 -20 -20 -20 -20 -20 -20 -20 -20 -20 -20 -20 -20 -20 -20 -20 -20 -20 -20 -20 -20 -20 -20 -20 -20 -20
-20 -20 -20 -20 -20 -20 -20 -20 -20 -20 -20 -20 -20 -20 -20 -20 -20 -20 -20 -20 -20 -20 -20 -20 -20 -20 -20 -20 -20 -20 -20 -20 -20 -20 -20 -20 -20 -20 -20 -20 -20 -20 -20 -20 -20 -20 -20 -20 -20 -20 -20 -20 -20 -20
-20 -20 -20 -20 -20 -20 -20 -20 -20 -20 -20 -20 -20 -20 -20 -20 -20 -20 -20 -20 -20 -20 -20 -20 -20 -20 -20 -20 -20 -20 -20 -20 -20 -18 -6 -19 -20 -18 -20 -20 -20 -20 -20 -20 -20 -20 -20 -20 -20 -20 -20 -20 -20 -20

GFSWCAN_prec_radar_006.txt.gz
Reflectivity
17 20 22 31 20 24 22 -2 13 11 -6 9 15 14 14 0 -4 -20 -20 -20 -20 -20 -20 -20 -20 -20 -20 -20 -20 -20 -20 -20 -20 -20 -20 -20 -20 -20 -20 -20 -20 -20 -20 -20 -20 -20 -20 -20 -20 -20 -20 -20 -20 -20
16 19 26 33 22 22 25 -2 -2 7 -7 13 17 15 14 1 -10 -20 -20 -20 -20 -20 -20 -20 -20 -20 -20 -20 -20 -20 -20 -20 -20 -20 -20 -20 -20 -20 -20 -20 -20 -20 -20 -20 -20 -20 -20 -20 -20 -20 -20 -20 -20 -20
17 21 25 32 24 17 19 17 0 -20 -2 10 17 15 16 6 10 -1 -20 -20 -20 -20 -20 -20 -20 -20 -20 -20 -20 -20 -20 -20 -20 -20 -20 -20 -20 -20 -20 -20 -20 -20 -20 -20 -20 -20 -20 -20 -20 -20 -20 -20 -20 -20
17 22 19 26 25 22 5 26 -20 6 11 13 16 15 16 5 13 5 -20 -20 -20 -20 -20 -20 -20 -20 -20 -20 -20 -20 -20 -20 -20 -20 -20 -20 -20 -20 -20 -20 -20 -20 -20 -20 -20 -20 -20 -20 -20 -20 -20 -20 -20 -20
18 19 13 15 18 14 -3 24 -20 10 -4 14 18 15 16 5 14 12 -17 -20 -20 -20 -20 -20 -20 -20 -20 -20 -20 -20 -20 -20 -20 -20 -20 -20 -20 -20 -20 -20 -20 -20 -20 -20 -20 -20 -20 -20 -20 -20 -20 -20 -20 -20
18 21 21 12 20 4 13 11 -15 6 10 14 15 16 17 11 16 17 -14 -20 -20 -20 -20 -20 -20 -20 -20 -20 -20 -20 -20 -20 -20 -20 -20 -20 -20 -20 -20 -20 -20 -20 -20 -20 -20 -20 -20 -20 -20 -20 -20 -20 -20 -20
17 29 27 16 15 2 24 -7 -11 9 11 11 -9 12 14 11 6 -18 -19 -14 -20 -20 -20 -20 -20 -20 -20 -20 -20 -20 -20 -20 -20 -20 -20 -20 -20 -20 -20 -20 -20 -20 -20 -20 -20 -20 -20 -20 -20 -20 -20 -20 -20 -20
13 23 30 24 26 28 35 -0 0 11 11 -17 5 11 17 14 17 -14 -19 -16 -20 -20 -13 -20 -20 -20 -19 -20 -20 -5 -20 -20 -20 -20 -20 -20 -20 -13 -20 -20 -20 -20 -20 -20 -20 -20 -20 -20 -20 -20 -20 -20 -20 -20
9 22 28 24 34 35 36 33 10 11 -9 -1 6 15 5 -5 -15 -20 9 -17 -20 -20 -10 -10 -20 -20 -20 -20 -20 -20 -20 -20 -20 -20 -20 -20 -20 -20 -20 -20 -20 -20 -20 -20 -20 -20 -20 -20 -20 -20 -20 -20 -20 -20
8 26 29 34 35 39 36 36 31 6 -7 -7 -1 -17 -20 -20 -20 -11 -20 -20 -20 -20 -20 -20 -20 -19 -20 -11 -14 -20 -20 -20 -20 -20 -20 -20 -20 -20 -20 -20 -20 -20 -20 -20 -20 -20 -20 -20 -20 -20 -20 -20 -20 -20
8 29 31 35 35 34 39 39 35 25 22 12 -6 -20 -13 -18 -20 -20 -20 -20 -20 -20 -20 -20 -20 -20 -20 -20 -20 -20 -18 -19 -20 -20 -20 -20 -20 -20 -20 -20 -20 -20 -20 -20 -20 -20 -20 -20 -20 -20 -20 -20 -20 -20
11 25 30 33 35 32 33 37 38 33 28 10 -1 12 2 -19 -20 -20 -20 -20 -20 -20 -20 -20 -20 -20 -20 -20 -20 -20 -20 -20 -20 -20 -20 -20 -20 -20 -20 -20 -20 -20 -20 -20 -20 -20 -20 -20 -20 -20 -20 -20 -20 -20
13 20 30 33 35 31 36 38 39 39 29 12 29 30 14 15 12 -20 -20 -20 -20 -20 -5 -8 -20 -20 -20 -20 -20 -20 -20 -20 -20 -20 -20 -20 -20 -20 -20 -20 -20 -20 -20 -20 -20 -20 -20 -20 -20 -20 -20 -20 -20 -20
11 20 30 32 35 34 37 38 40 39 35 30 27 15 4 14 -20 -20 -20 -20 -20 -20 3 6 -19 -20 -20 -20 -20 -20 -20 -20 -20 -20 -20 -20 -20 -20 -20 -20 -20 -20 -20 -20 -20 -20 -20 -20 -20 -20 -20 -20 -20 -20
10 21 26 31 36 40 41 41 37 35 32 32 27 -5 -20 -20 -20 -20 -20 -20 -17 -16 -20 -20 -20 -20 -20 -20 -20 -20 -14 -20 -20 -20 -20 -20 -20 -20 -20 -20 -20 -20 -20 -20 -20 -20 -20 -20 -20 -20 -20 -20 -20 -20
7 18 28 29 31 37 38 35 32 31 32 29 14 -2 -20 -20 -20 -20 -20 -20 -20 -4 -20 -20 -20 -20 -20 -20 -20 -20 -20 -20 -20 -20 -20 -20 -20 -20 -20 -20 -20 -20 -20 -20 -20 -20 -20 -20 -20 -20 -20 -20 -20 -20
6 21 29 29 28 33 37 36 33 33 32 21 -3 -20 -20 -20 -20 -2 -12 -20 1 6 -14 -20 -20 -20 -20 -20 -20 -20 -20 -20 -20 -20 -20 -20 -20 -20 -20 -20 -20 -20 -20 -20 -20 -20 -20 -20 -20 -20 -20 -20 -20 -20
-14 2 22 26 27 30 31 33 31 27 22 15 -14 -20 -20 -20 -20 -20 -20 -9 11 4 -10 -19 -20 -20 -20 -20 -20 -20 -20 -20 -20 -20 -20 -20 -20 -20 -20 -20 -20 -20 -20 -20 -20 -20 -20 -20 -20 -20 -20 -20 -20 -20
-10 -7 6 8 20 27 21 26 27 19 14 -0 -19 -20 -20 -20 -20 -20 -20 -19 2 11 13 9 3 -16 -20 -20 -20 -20 -20 -20 -20 -20 -20 -20 -20 -20 -20 -20 -20 -20 -20 -20 -20 -20 -20 -20 -20 -20 -20 -20 -20 -20
15 21 3 -3 4 21 15 18 25 13 2 1 -20 -20 -20 -20 -20 -20 -3 -10 -10 5 12 8 -9 -20 -20 -20 -20 -20 -20 -20 -20 -20 -20 -20 -20 -20 -20 -20 -20 -20 -20 -20 -20 -20 -20 -20 -20 -20 -20 -20 -20 -20
-20 -1 -6 -19 13 27 21 11 15 15 10 3 3 -20 -17 -20 -20 -20 -18 -17 -13 -5 6 3 -20 -20 -20 -20 -20 -20 -20 -20 -20 -20 -20 -20 -20 -20 -20 -20 -20 -20 -20 -20 -20 -20 -20 -20 -20 -20 -20 -20 -20 -20
-16 -15 -19 -1 11 18 5 0 12 15 -1 6 11 4 -3 -10 -13 -4 8 8 6 1 10 7 -13 -20 -20 -20 -20 -20 -20 -20 -20 -20 -20 -20 -20 -20 -20 -20 -20 -20 -20 -20 -20 -20 -20 -20 -20 -20 -20 -20 -20 -20
-16 -20 -20 -20 2 -14 10 0 1 14 9 15 5 -5 7 12 17 18 19 18 10 14 15 10 -6 -20 -20 -20 -20 -20 -20 -20 -20 -20 -20 -20 -20 -20 -20 -20 -20 -20 -20 -20 -20 -20 -20 -20 -20 -20 -20 -20 -20 -20
-20 -20 -20 -20 -13 -5 -10 6 -20 4 12 7 11 6 -3 10 8 3 -0 -6 8 17 15 4 -11 -18 -20 -20 -20 -20 -20 -20 -20 -20 -20 -20 -20 -20 -20 -20 -20 -20 -20 -20 -20 -20 -20 -20 -20 -20 -20 -20 -20 -20
-20 -20 -20 -20 -20 -20 -4 6 -9 -14 -3 8 6 12 14 11 10 1 -13 -20 -17 -10 -14 -20 -20 -20 -20 -20 -20 -20 -20 -20 -20 -20 -20 -20 -20 -20 -20 -20 -20 -20 -20 -20 -20 -20 -20 -20 -20 -20 -20 -20 -20 -20
-20 -20 -20 -20 -20 -20 -20 5 8 -19 -18 -0 6 -3 0 3 0 0 -20 -20 -20 -20 -20 -20 -20 -20 -20 -20 -20 -20 -20 -20 -20 -20 -20 -20 -20 -20 -20 -20 -20 -20 -20 -20 -20 -20 -20 -20 -20 -20 -20 -20 -20 -20
-20 -20 -20 -20 -20 -20 -20 -20 -20 -20 -15 -20 -17 -10 -15 -19 -11 -20 -20 -20 -20 -20 -20 -20 -20 -20 -20 -20 -20 -20 -20 -20 -20 -20 -20 -20 -20 -20 -20 -20 -20 -20 -20 -20 -20 -20 -20 -20 -20 -20 -20 -20 -20 -20
-20 -20 -20 -20 -20 -20 -20 -20 -20 -20 -20 -20 -20 -20 -20 -20 -20 -20 -20 -20 -20 -20 -20 -20 -20 -20 -20 -20 -20 -20 -20 -20 -20 -20 -20 -20 -20 -20 -20 -20 -20 -20 -20 -20 -20 -20 -20 -20 -20 -20 -20 -20 -20 -20
-20 -20 -20 -20 -20 -20 -20 -20 -20 -20 -20 -20 -20 -20 -20 -20 -20 -20 -20 -20 -20 -20 -20 -20 -20 -20 -20 -20 -20 -20 -20 -20 -20 -20 -20 -20 -20 -20 -20 -20 -20 -20 -20 -20 -20 -20 -20 -20 -20 -20 -20 -20 -20 -20
-20 -20 -20 -20 -20 -20 -20 -20 -20 -20 -20 -20 -20 -20 -20 -20 -20 -20 -20 -20 -20 -20 -20 -20 -20 -20 -20 -20 -20 -20 -20 -20 -20 -20 -20 -20 -20 -20 -20 -20 -20 -20 -20 -20 -20 -20 -20 -20 -20 -20 -20 -20 -20 -20
-20 -20 -20 -20 -20 -20 -20 -20 -20 -20 -20 -20 -20 -20 -20 -20 -20 -20 -20 -20 -20 -20 -20 -20 -20 -20 -20 -20 -20 -20 -20 -20 -20 -20 -20 -20 -20 -20 -20 -20 -20 -20 -20 -20 -20 -20 -20 -20 -20 -20 -20 -20 -20 -20
-20 -20 -20 -20 -20 -20 -20 -20 -20 -20 -20 -20 -20 -20 -20 -20 -20 -20 -20 -20 -20 -20 -20 -20 -20 -20 -20 -20 -20 -20 -20 -20 -20 -20 -20 -20 -20 -20 -20 -20 -20 -20 -20 -20 -20 -20 -20 -20 -20 -20 -20 -20 -20 -20
-20 -20 -20 -20 -20 -20 -20 -20 -20 -20 -20 -20 -20 -20 -20 -20 -20 -20 -20 -20 -20 -20 -20 -20 -20 -20 -20 -20 -20 -20 -20 -20 -20 -19 -16 -19 -20 -20 -20 -20 -20 -20 -20 -20 -20 -20 -20 -20 -20 -20 -20 -20 -20 -20

GFSWCAN_prec_radar_009.txt.gz
Reflectivity
-10 19 18 21 11 25 22 14 15 30 10 -20 12 -18 10 -7 14 7 -20 -20 -20 -20 -20 -20 -20 -20 -20 -20 -20 6 10 7 16 22 6 -20 -20 -20 -19 -12 -15 -20 -20 -20 -20 -20 -20 -20 -20 -20 -20 -20 -20 -20
-20 20 22 16 16 22 27 19 22 29 3 -20 11 10 10 -14 16 14 -20 -20 -20 -20 -20 -20 -20 -20 -20 -20 -20 -20 -18 -20 -19 -8 -5 -20 -12 12 -20 -20 -5 -17 -20 -20 -20 -20 -20 -20 -20 -20 -20 -20 -20 -20
-20 22 18 16 17 28 24 16 8 29 4 -20 13 13 11 -9 15 15 -20 -20 -20 -20 -20 -20 -20 -20 -20 -20 -20 -20 -20 -20 -20 -20 -20 -20 -20 -20 -20 -20 -20 -20 -20 -20 -20 -20 -20 -20 -20 -20 -20 -20 -20 -20
-20 19 15 15 15 22 15 28 24 16 18 -2 15 10 -7 -10 14 9 -16 -20 -20 -20 -20 -20 -20 -20 -20 -20 -20 -20 -20 -20 -20 -20 -20 -20 -20 -20 -20 -20 -20 -20 -20 -20 -20 -20 -20 -20 -20 -20 -20 -20 -20 -20
-20 15 13 17 14 15 15 16 -2 15 10 12 12 11 11 -9 14 0 -20 1 -20 -20 -19 -20 -20 -20 -20 -20 -20 -20 -20 -20 -20 -20 -20 -20 -20 -20 -20 -20 -20 -20 -20 -20 -20 -20 -20 -20 -20 -20 -20 -20 -20 -20
-20 13 14 16 15 15 15 8 -9 22 -17 11 13 12 11 3 10 -2 2 10 12 -13 -20 -20 -20 -20 -20 -20 -20 -20 -20 -20 -20 -20 -20 -20 -20 -20 -20 -20 -20 -20 -20 -20 -20 -20 -20 -20 -20 -20 -20 -20 -20 -20
-20 11 13 18 24 18 17 18 15 17 15 11 12 10 5 18 4 19 0 -15 14 2 15 12 -11 -20 -20 -20 -20 -20 -20 -20 -20 -20 -20 -20 -20 -20 -20 -20 -20 -20 -20 -20 -20 -20 -20 -20 -20 -20 -20 -20 -20 -20
-20 12 13 19 25 22 28 14 30 13 14 9 12 12 14 18 15 8 -16 -9 -9 8 11 -4 -20 -20 -20 -20 -20 -20 -20 -20 -20 -20 -20 -20 -20 -20 -20 -20 -20 -20 -20 -20 -20 -20 -20 -20 -20 -20 -20 -20 -20 -20
-7 13 14 17 27 27 27 18 33 26 -2 9 10 8 14 -1 -12 -13 -12 9 -0 -7 6 -18 -20 -13 -20 -20 -20 -20 -11 -1 2 -14 -17 -19 -19 -20 -20 -20 -20 -20 -20 -20 -20 -20 -20 -20 -20 -20 -20 -20 -20 -20
-4 12 13 18 28 32 29 36 33 31 7 11 10 6 -3 -13 5 9 -20 -20 -3 -19 -20 -20 -20 -18 -20 -12 -6 7 11 15 3 -20 -20 -20 -20 -20 -20 -20 -20 -20 -20 -20 -20 -20 -20 -20 -20 -20 -20 -20 -20 -20
-8 8 15 20 27 33 33 35 36 39 18 -0 -2 -20 -19 -4 -3 -9 -20 -20 -20 -20 -20 -20 -20 -20 -20 -9 -6 -17 -20 -20 -20 -20 -20 -20 -20 -17 -17 -20 -20 -20 -20 -20 -20 -20 -20 -20 -20 -20 -20 -20 -20 -20
-19 10 16 22 29 36 37 41 40 40 25 5 -6 9 6 5 -8 -18 -20 -20 -20 -20 -20 -20 -20 -20 -20 -20 -20 -20 -20 -20 -20 -20 -20 -20 -20 -20 -20 -20 -20 -20 -20 -20 -20 -20 -20 -20 -20 -20 -20 -20 -20 -20
-20 13 13 21 31 37 36 36 37 38 29 20 15 27 23 24 2 -20 -20 -20 -20 -20 -15 -10 -20 -20 -20 -20 -20 -20 -20 -20 -20 -20 -20 -20 -15 -20 -20 -20 -20 -20 -20 -20 -20 -20 -20 -20 -20 -20 -20 -20 -20 -20
-20 9 4 17 29 33 35 39 37 38 34 29 32 14 1 18 -16 -20 -20 -20 -20 -16 -7 -16 -20 -20 -20 -20 -20 -20 -20 -20 -20 -20 -20 -20 -20 -20 -20 -20 -20 -20 -20 -20 -20 -20 -20 -20 -20 -20 -20 -20 -20 -20
-17 0 5 17 28 32 37 41 40 34 30 33 29 5 -6 -20 -20 -20 -20 -20 -20 -10 -20 -20 -20 -20 -20 -20 -20 -19 -7 -20 -20 -20 -20 -20 -20 -20 -20 -20 -20 -20 -20 -20 -20 -20 -20 -20 -20 -20 -20 -20 -20 -20
-17 -20 19 20 25 33 36 35 38 35 34 30 18 13 -19 -20 -20 -20 -20 -20 -20 1 -17 -20 -20 -20 -20 -20 -16 -20 -20 -20 -20 -20 -20 -20 -20 -20 -20 -20 -20 -20 -20 -20 -20 -20 -20 -20 -20 -20 -20 -20 -20 -20
-20 -3 16 7 22 31 35 33 30 32 31 26 17 1 -20 -20 -20 -20 -20 -20 1 0 -20 -20 -20 -20 -20 -20 -20 -20 -20 -20 -20 -20 -20 -20 -20 -20 -20 -20 -20 -20 -20 -20 -20 -20 -20 -20 -20 -20 -20 -20 -20 -20
-20 -20 3 3 19 28 33 35 33 30 23 17 3 -18 -16 1 -0 -16 -16 -17 -8 -11 -20 -20 -20 -20 -20 -20 -20 -20 -20 -20 -20 -20 -20 -20 -20 -20 -20 -20 -20 -20 -20 -20 -20 -20 -20 -20 -20 -20 -20 -20 -20 -20
-20 -20 6 4 18 26 21 30 29 21 17 12 -7 -17 -7 3 -1 11 17 11 11 8 6 11 -10 -20 -20 -20 -20 -20 -20 -20 -20 -20 -20 -20 -20 -20 -20 -20 -20 -20 -20 -20 -20 -20 -20 -20 -20 -20 -20 -20 -20 -20
-20 -20 -20 -4 7 22 18 19 26 14 6 1 -13 -2 1 -1 -7 -20 -4 4 5 -5 5 4 -19 -20 -20 -20 -20 -20 -20 -20 -20 -20 -20 -20 -20 -20 -20 -20 -20 -20 -20 -20 -20 -20 -20 -20 -20 -20 -20 -20 -20 -20
-20 -20 -20 -20 18 20 12 12 16 14 1 -6 9 -12 -20 -20 -12 -5 -7 -20 8 10 -12 -20 -20 -20 -20 -20 -20 -20 -20 -20 -20 -20 -20 -20 -20 -20 -20 -20 -20 -20 -20 -20 -20 -20 -20 -20 -20 -20 -20 -20 -20 -20
-20 -20 -20 -19 0 3 5 5 13 13 -19 -13 -9 2 5 2 1 10 23 13 11 -18 -20 -20 -20 -20 -20 -20 -20 -20 -20 -20 -20 -20 -20 -20 -20 -20 -20 -20 -20 -20 -20 -20 -20 -20 -20 -20 -20 -20 -20 -20 -20 -20
-20 -20 -20 -20 -19 -20 -7 -12 1 5 9 6 -14 -12 11 14 18 15 22 18 8 -7 -13 -20 -20 -20 -20 -20 -20 -20 -20 -14 -20 -20 -20 -20 -20 -20 -20 -20 -20 -20 -20 -20 -20 -20 -20 -20 -20 -20 -20 -20 -20 -20
-20 -20 -20 -20 -20 -20 -20 -20 -19 -5 5 4 0 -20 -20 4 14 14 10 -4 4 9 -5 -20 -20 -20 -20 -20 -20 -20 -20 -20 -20 -20 -20 -20 -20 -20 -20 -20 -20 -20 -20 -20 -20 -20 -20 -20 -20 -20 -20 -20 -20 -20
-20 -20 -20 -20 -20 -20 -20 -20 -20 -14 -20 1 -7 -16 4 8 10 7 8 7 13 16 13 -8 -20 -20 -20 -20 -20 -20 -20 -20 -20 -20 -20 -20 -20 -20 -20 -20 -20 -20 -20 -20 -20 -20 -20 -20 -20 -20 -20 -20 -20 -20
-20 -20 -20 -20 -20 -20 -20 -17 4 -8 -1 -13 -18 -8 -15 3 9 15 14 15 15 14 11 11 11 8 2 -11 -20 -20 -20 -20 -20 -20 -20 -20 -20 -20 -20 -20 -20 -20 -20 -20 -20 -20 -20 -20 -20 -20 -20 -20 -20 -20
-20 -20 -20 -20 -20 -20 -20 -20 -18 -17 -16 -7 -9 -16 -8 -13 -8 -15 -15 7 13 11 0 -20 -20 -20 -20 -20 -20 -20 -20 -20 -20 -20 -20 -20 -20 -20 -20 -20 -20 -20 -20 -20 -20 -20 -20 -20 -20 -20 -20 -20 -20 -20
-20 -20 -20 -20 -20 -20 -20 -20 -20 -20 -20 -19 0 -2 -18 -20 -20 -20 -20 -20 -20 -20 -20 -20 -20 -20 -20 -20 -20 -20 -20 -20 -20 -20 -20 -20 -20 -20 -20 -20 -20 -20 -20 -20 -20 -20 -20 -20 -20 -20 -20 -20 -20 -20
-20 -20 -20 -20 -20 -20 -20 -20 -20 -20 -20 -20 -20 -20 -20 -20 -20 -20 -20 -20 -20 -20 -20 -20 -20 -20 -20 -20 -20 -20 -20 -20 -20 -20 -20 -20 -20 -20 -20 -20 -20 -20 -20 -20 -20 -20 -20 -20 -20 -20 -20 -20 -20 -20
-20 -20 -20 -20 -20 -20 -20 -20 -20 -20 -20 -20 -20 -20 -20 -20 -20 -20 -20 -20 -20 -20 -20 -20 -20 -20 -20 -20 -20 -20 -20 -20 -20 -20 -20 -20 -20 -20 -20 -20 -20 -20 -20 -20 -20 -20 -20 -20 -20 -20 -20 -20 -20 -20
-20 -20 -20 -20 -20 -20 -20 -20 -20 -20 -20 -20 -20 -20 -20 -20 -20 -20 -20 -20 -20 -20 -20 -20 -20 -20 -20 -20 -20 -20 -20 -20 -20 -20 -20 -20 -20 -20 -20 -20 -20 -20 -20 -20 -20 -20 -20 -20 -20 -20 -20 -20 -20 -20
-20 -20 -20 -20 -20 -20 -20 -20 -20 -20 -20 -20 -20 -20 -20 -20 -20 -20 -20 -20 -20 -20 -20 -20 -20 -20 -20 -20 -20 -20 -20 -20 -20 -20 -20 -20 -20 -20 -20 -20 -20 -20 -20 -20 -20 -20 -20 -20 -20 -20 -20 -20 -20 -20
-20 -20 -20 -20 -20 -20 -20 -20 -20 -20 -20 -20 -20 -20 -20 -20 -20 -20 -20 -20 -20 -20 -20 -20 -20 -20 -20 -20 -20 -20 -20 -20 -20 -19 -20 -20 -20 -20 -20 -20 -20 -20 -20 -20 -20 -20 -20 -20 -20 -20 -20 -20 -20 -20

GFSWCAN_prec_radar_012.txt.gz
Reflectivity
-20 -20 -20 -17 15 17 15 19 31 33 25 24 14 6 -19 5 13 18 -1 -20 -20 -20 -20 -18 -20 -3 24 28 29 -1 18 -4 32 6 -13 5 -0 -20 -20 -20 -20 -20 -20 -20 -20 6 -10 -7 -3 -20 -20 -20 -20 -20
-20 -20 -20 -7 18 20 19 15 33 30 20 25 15 7 10 -8 10 19 9 -20 -20 -20 -20 -3 -20 -20 -2 13 26 23 5 15 -18 7 -7 20 25 15 16 -17 -20 -17 -20 -1 -12 -20 -20 -20 -20 -20 -20 -20 -20 -20
-20 7 -20 -11 20 17 15 15 35 25 15 22 18 7 7 6 16 14 7 -20 -20 -20 -20 -20 2 -20 -20 -15 9 3 0 -18 4 18 24 2 -20 -20 -20 -20 -20 -20 3 -19 -20 -20 -20 -20 -20 -20 -20 -20 -20 -20
-11 -20 -20 -20 17 16 15 17 29 18 17 19 16 11 -9 -17 12 18 12 -20 -20 -20 -20 -20 -13 -15 -20 -20 -20 -20 -16 -20 -20 -20 -20 -14 -4 -20 -20 -20 -20 -19 -20 -20 -20 -20 -20 -20 -20 -20 -20 -20 -20 -20
18 -20 -20 -20 17 15 16 16 24 30 13 3 16 13 8 -15 11 19 7 2 -20 -20 -20 -17 -20 -12 -20 -20 -20 -20 -20 -20 -20 -20 -20 -20 -20 -20 -20 -20 -20 -20 -20 -20 -20 -20 -20 -20 -20 -20 -20 -20 -20 -20
10 -19 -20 -20 18 14 15 15 25 18 -2 -13 10 10 -5 -11 18 14 7 15 -8 -20 -20 -12 -20 -20 -20 -20 -20 -20 -20 -20 -20 -20 -20 -20 -20 -20 -20 -20 -20 -20 -20 -20 -20 -20 -20 -20 -20 -20 -20 -20 -20 -20
5 1 -20 -17 18 14 15 16 19 20 7 21 8 -8 -7 7 18 -2 12 7 26 13 -18 -20 -20 -20 -20 -20 -20 -20 -20 -20 -20 -20 -20 -20 -20 -20 -20 -20 -20 -20 -20 -20 -20 -20 -20 -20 -20 -20 -20 -20 -20 -20
3 5 -18 -10 17 15 14 15 30 31 35 12 10 -14 7 21 20 17 2 -15 3 25 25 23 -17 -20 -20 -20 -20 -20 -20 -20 -20 -20 -20 -20 -20 -20 -20 -20 -20 -20 -20 -20 -20 -20 -20 -20 -20 -20 -20 -20 -20 -20
-0 6 -20 0 16 13 12 13 27 29 33 26 5 7 19 14 6 7 10 1 -5 -2 18 6 -17 -18 -20 -20 -20 -20 -20 -20 -20 -20 -20 -20 -20 -20 -20 -20 -20 -20 -20 -20 -20 -20 -20 -20 -20 -20 -20 -20 -20 -20
-8 5 -20 3 13 9 16 19 29 30 37 28 -4 1 17 1 14 15 10 -16 19 13 -3 -18 -20 -20 -20 -20 -17 15 17 8 8 5 3 1 -20 -20 -20 -20 -20 -20 -20 -20 -20 -20 -20 -20 -20 -20 -20 -20 -20 -20
-5 -13 -20 11 3 14 16 30 36 34 39 9 -19 -20 -10 -20 -16 -20 -20 -20 -20 -3 -8 -20 -20 -20 -20 -14 -8 -20 -15 -20 -20 -20 -20 -20 -20 -20 -20 -20 -20 -20 -20 -20 -20 -20 -20 -20 -20 -20 -20 -20 -20 -20
-20 -20 -20 12 8 16 26 36 39 40 39 12 -9 5 2 1 -7 -20 -20 -20 -20 -20 -20 -20 -20 -20 -20 -20 -16 -9 -20 -20 -20 -20 -16 -20 -19 -20 -20 -20 -20 -20 -20 -20 -20 -20 -20 -20 -20 -20 -20 -20 -20 -20
-13 -20 -13 -2 11 14 30 36 38 36 35 17 -7 8 0 -15 -20 -20 -20 -20 -20 -20 -20 -20 -20 -20 -20 -20 -20 -20 -20 -20 -20 -8 -20 -20 -20 -20 -20 -20 -20 -20 -20 -20 -20 -20 -20 -20 -20 -20 -20 -20 -20 -20
-20 -20 5 -15 14 20 32 36 39 39 37 36 30 18 -8 9 -18 -20 -20 -20 -20 -8 4 -10 -20 -20 -20 -20 -20 -20 -20 -20 -20 -20 -20 -20 -20 -20 -20 -20 -20 -20 -20 -20 -20 -20 -20 -20 -20 -20 -20 -20 -20 -20
-20 -20 -20 7 10 25 36 38 40 38 34 27 18 2 -20 -20 -20 -20 -20 -20 -16 -7 -20 -19 -20 -20 -20 -20 -20 -20 -14 -20 -20 -20 -20 -20 -20 -20 -20 -20 -20 -20 -20 -20 -20 -20 -20 -20 -20 -20 -20 -20 -20 -20
-20 -20 -20 13 13 29 37 36 35 34 34 30 11 -0 -20 -20 -20 -20 -20 -20 -8 -16 -18 -20 -20 -20 -20 -20 -20 -20 -20 -20 -20 -20 -20 -20 -20 -20 -20 -20 -20 -20 -20 -20 -20 -20 -20 -20 -20 -20 -20 -20 -20 -20
-20 -20 -12 12 14 30 35 35 26 31 33 27 12 -17 -20 -20 -20 -20 -20 -20 1 -7 -20 -20 -20 -20 -20 -20 -20 -20 -20 -20 -20 -20 -20 -20 -20 -20 -20 -20 -20 -20 -20 -20 -20 -20 -20 -20 -20 -20 -20 -20 -20 -20
-20 -20 -2 5 14 26 34 36 35 32 23 16 7 -11 -20 -20 -20 -20 -20 -2 -9 -20 -20 -20 -20 -20 -20 -20 -20 -20 -20 -20 -20 -20 -20 -20 -20 -20 -20 -20 -20 -20 -20 -20 -20 -20 -20 -20 -20 -20 -20 -20 -20 -20
-20 -20 -20 -4 16 27 21 30 32 20 14 8 -6 -20 -20 3 -6 -1 -9 -1 6 -0 -1 -12 -20 -20 -20 -20 -20 -20 -20 -20 -20 -20 -20 -20 -20 -20 -20 -20 -20 -20 -20 -20 -20 -20 -20 -20 -20 -20 -20 -20 -20 -20
-20 -20 -20 -17 14 23 16 18 26 13 14 11 5 -2 -20 -18 17 18 12 18 16 9 -6 -18 -20 -20 -20 -20 -20 -20 -20 -20 -20 -20 -20 -20 -20 -20 -20 -20 -20 -20 -20 -20 -20 -20 -20 -20 -20 -20 -20 -20 -20 -20
-20 -20 -20 -20 19 20 11 14 15 14 12 14 15 14 14 18 15 24 16 27 24 15 11 11 14 14 1 -20 -20 -20 -20 -20 -20 -20 -20 -20 -20 -20 -20 -20 -20 -20 -20 -20 -20 -20 -20 -20 -20 -20 -20 -20 -20 -20
-20 -20 -20 -20 -4 4 7 12 11 8 -4 8 14 15 7 8 7 8 22 6 5 -10 -20 -20 -20 -11 -9 -20 -20 -20 -20 -20 -20 -20 -20 -20 -20 -20 -20 -20 -20 -20 -20 -20 -20 -20 -20 -20 -20 -20 -20 -20 -20 -20
-20 -20 -20 -20 -20 -14 7 2 6 -6 7 13 15 15 14 10 14 19 17 14 -10 -20 -20 -20 -20 -20 -20 -20 -20 -20 -20 -20 -20 -20 -20 -18 -20 -20 -20 -20 -20 -20 -20 -20 -20 -20 -20 -20 -20 -20 -20 -20 -20 -20
-20 -20 -20 -20 -20 -20 -6 2 4 1 -1 1 8 -6 -18 5 12 15 3 -18 -18 -20 -20 -20 -15 -18 -20 -20 -20 -20 -20 -20 -20 -20 -20 -20 -20 -20 -20 -20 -20 -20 -20 -20 -20 -20 -20 -20 -20 -20 -20 -20 -20 -20
-20 -20 -20 -20 -20 -20 -20 -2 5 -12 -19 -20 -20 -18 3 7 11 8 -5 -19 -6 7 -19 -20 -20 -20 -20 -19 -20 -20 -20 -20 -20 -20 -20 -20 -20 -20 -20 -20 -20 -20 -20 -20 -20 -20 -20 -20 -20 -20 -20 -20 -20 -20
-20 -20 -20 -20 -20 -20 -20 -20 -10 7 3 -6 1 -5 -7 -2 -4 2 -20 -19 3 12 11 -7 -7 -12 -20 -20 -16 -6 -10 -20 -20 -20 -20 -20 -20 -20 -20 -20 -20 -20 -20 -20 -20 -20 -20 -20 -20 -20 -20 -20 -20 -20
-20 -20 -20 -20 -20 -20 -20 -20 -20 -13 -0 -14 -7 -8 -14 -1 1 -19 -20 1 11 15 14 13 9 -3 -20 -20 -14 -17 -20 -20 -20 -20 -20 -20 -20 -20 -20 -20 -20 -20 -20 -20 -20 -20 -20 -20 -20 -20 -20 -20 -20 -20
-20 -20 -20 -20 -20 -20 -20 -20 -20 -20 -20 -19 -3 -19 -20 -20 -20 -17 6 16 18 18 16 11 4 -4 -20 -20 -20 -20 -20 -20 -20 -20 -20 -20 -20 -20 -20 -20 -20 -20 -20 -20 -20 -20 -20 -20 -20 -20 -20 -20 -20 -20
-20 -20 -20 -20 -20 -20 -20 -20 -20 -20 -20 -20 -20 -20 -20 -20 -20 -2 9 10 8 2 -1 -1 -4 -17 -20 -20 -20 -20 -20 -20 -20 -20 -20 -20 -20 -20 -20 -20 -20 -20 -20 -20 -20 -20 -20 -20 -20 -20 -20 -20 -20 -20
-20 -20 -20 -20 -20 -20 -20 -20 -20 -20 -20 -20 -20 -20 -20 -20 -20 -20 -20 -19 -13 -8 -3 -8 -19 -20 -20 -20 -20 -20 -20 -20 -20 -20 -20 -20 -20 -20 -20 -20 -20 -20 -20 -20 -20 -20 -20 -20 -20 -20 -20 -20 -20 -20
-20 -20 -20 -20 -20 -20 -20 -20 -20 -20 -20 -20 -20 -20 -20 -20 -20 -20 -20 -20 -20 -20 -20 -20 -20 -20 -20 -20 -20 -20 -20 -20 -20 -20 -20 -20 -20 -20 -20 -20 -20 -20 -20 -20 -20 -20 -20 -20 -20 -20 -20 -20 -20 -20
-20 -20 -20 -20 -20 -20 -20 -20 -20 -20 -20 -20 -20 -20 -20 -20 -20 -20 -20 -20 -20 -20 -20 -20 -20 -20 -20 -20 -20 -20 -20 -20 -20 -20 -20 -20 -20 -20 -20 -20 -20 -20 -20 -20 -20 -20 -20 -20 -20 -20 -20 -20 -20 -20
-20 -20 -20 -20 -20 -20 -20 -20 -20 -20 -20 -20 -20 -20 -20 -20 -20 -20 -20 -20 -20 -20 -20 -20 -20 -20 -20 -20 -20 -20 -20 -20 -20 -20 -20 -20 -20 -20 -20 -20 -20 -20 -20 -20 -20 -20 -20 -20 -20 -20 -20 -20 -20 -20

GFSWCAN_prec_radar_015.txt.gz
Reflectivity
17 -16 -17 -20 -20 -20 -9 19 12 19 29 18 29 24 22 -5 13 -0 8 18 19 -1 -20 -20 -20 -19 28 26 19 11 20 -16 -17 -19 -16 -20 -20 -20 -20 -19 -20 -10 -8 11 21 -4 -20 -20 -20 -20 -20 -20 -20 -20
18 9 -20 -20 -20 -20 -4 22 7 19 18 12 26 14 19 -17 11 7 14 14 9 -19 -20 -20 -20 -20 19 23 27 18 16 17 -9 26 -8 -16 -20 -20 -20 -20 -20 -20 -20 -20 -20 -20 -1 -20 -17 -20 -20 -20 -20 -20
18 -10 -11 -20 -20 -20 -14 19 15 15 14 7 22 21 17 -4 15 6 3 25 -7 -12 -20 -20 -20 -20 -12 27 27 29 19 27 8 28 32 10 13 9 -20 -20 -20 -20 -20 -20 -20 -20 -20 -20 -20 -20 -20 -20 -20 -20
18 14 11 7 -20 -20 2 18 14 15 17 15 30 24 15 11 15 -3 -1 26 0 -20 -20 -18 -20 -20 -9 15 14 29 30 25 15 23 19 17 -14 -6 -13 -3 -4 -20 -20 -18 -20 -12 -20 -20 -20 -20 -20 -20 -20 -20
21 15 1 3 -20 -20 6 14 15 16 16 13 21 19 12 12 14 0 -3 24 2 -20 6 -17 -20 -20 -1 -20 9 -12 -19 -7 -19 -15 -4 11 5 1 -20 -20 -20 -18 -8 -17 -20 -20 -20 -20 -20 -20 -20 -20 -20 -20
18 17 5 -20 -12 -20 13 14 14 16 9 29 33 16 14 14 17 -17 9 21 8 -20 -20 -20 -20 -20 4 -19 -20 -13 -19 -12 -20 -20 -20 -20 -20 -20 -20 -20 -20 -20 -20 -20 -20 -20 -20 -20 -20 -20 -20 -20 -20 -20
15 10 1 -6 -20 -20 11 12 15 22 15 19 31 22 12 13 0 4 8 10 24 -18 -20 -9 -10 -20 -19 -5 -20 -20 -20 -20 -20 -20 -20 -20 -20 -20 -20 -20 -20 -20 -20 -20 -20 -20 -20 -20 -20 -20 -20 -20 -20 -20
5 6 3 -5 -14 -20 14 10 12 15 27 24 27 16 15 16 2 9 -7 -9 29 3 -20 -14 -10 -20 -20 -20 -20 -20 -20 -20 -20 -20 -20 -20 -20 -20 -20 -20 -20 -20 -20 -20 -20 -20 -20 -20 -20 -20 -20 -20 -20 -20
7 14 5 -9 -20 -12 14 13 11 13 31 29 30 12 22 16 6 0 5 24 7 28 36 19 -13 -16 -20 -20 -20 -20 -20 -20 -20 -20 -20 -20 -20 -20 -20 -20 -20 -20 -20 -20 -20 -20 -20 -20 -20 -20 -20 -20 -20 -20
8 7 -20 -20 -20 3 3 13 4 18 33 33 33 22 16 8 19 -17 25 33 24 27 17 32 -11 -20 -20 -20 -20 -20 -20 -20 3 -20 -20 -20 -20 -20 -20 -20 -20 -20 -20 -20 -20 -20 -20 -20 -20 -20 -20 -20 -20 -20
12 -4 -20 -20 -17 11 14 13 11 34 37 38 33 16 6 9 8 -4 32 14 14 20 22 5 -2 -20 -17 -20 -11 -20 -8 -5 -13 -20 -20 -16 -20 -20 -20 -20 -20 -20 -20 -20 -20 -20 -20 -20 -20 -20 -20 -20 -20 -20
6 -17 -20 -20 -2 4 17 16 32 40 40 35 26 8 4 7 0 -2 13 13 -20 -20 -20 -20 -20 -20 -20 -20 -20 2 -1 -17 -20 -20 -13 -20 -20 -20 -20 -20 -20 -20 -20 -20 -20 -20 -20 -20 -20 -20 -20 -20 -20 -20
-7 -20 -20 -20 -3 17 8 26 36 35 36 39 25 7 11 14 -19 -20 -20 -5 -20 -3 -13 -3 -10 -20 -20 -20 -12 -19 -20 -20 -20 -20 -20 -20 -20 -20 -20 -20 -20 -20 -20 -20 -20 -20 -20 -20 -20 -20 -20 -20 -20 -20
-20 -20 -20 -10 -1 8 17 31 37 35 39 38 36 20 2 5 -20 -20 -20 -20 -20 -5 8 7 -4 -20 -20 -20 -20 -20 -20 -20 -20 -20 -20 -20 -20 -20 -20 -20 -20 -20 -20 -20 -20 -20 -20 -20 -20 -20 -20 -20 -20 -20
-20 -20 -20 -20 -4 13 21 30 37 41 41 33 27 -3 -14 -20 -20 -20 -20 -20 -8 -5 -3 -4 -20 -20 -20 -20 -20 -14 -15 -20 -20 -20 -20 -20 -20 -20 -20 -20 -20 -20 -20 -20 -20 -20 -20 -20 -20 -20 -20 -20 -20 -20
-20 -20 -20 5 9 6 22 31 39 34 37 28 11 -6 -11 -20 -12 -20 -20 -20 -18 -0 7 -7 -20 -20 -20 -20 -20 -20 -20 -20 -20 -20 -20 -20 -20 -20 -20 -20 -20 -20 -20 -20 -20 -20 -20 -20 -20 -20 -20 -20 -20 -20
-20 -20 2 -18 -3 9 25 36 34 29 33 26 4 -20 -20 -20 -20 -20 -20 -9 13 10 -3 -20 -20 -20 -20 -20 -20 -20 -20 -20 -20 -20 -20 -20 -20 -20 -20 -20 -20 -20 -20 -20 -20 -20 -20 -20 -20 -20 -20 -20 -20 -20
-20 -8 -7 -5 1 16 28 33 34 33 25 19 -2 -20 -20 -20 -20 -20 -16 6 3 -11 -20 -20 -20 -20 -20 -20 -20 -20 -0 -9 -20 -20 -20 -20 -20 -20 -20 -20 -20 -20 -20 -20 -20 -20 -20 -20 -20 -20 -20 -20 -20 -20
-19 -18 -20 -20 -4 29 24 29 32 22 13 7 -3 -4 -20 -17 -20 -20 0 10 -3 -6 -0 -10 -13 -20 -20 -20 -20 -20 -19 -20 -20 -20 -20 -20 -20 -20 -20 -20 -20 -20 -20 -20 -20 -20 -20 -20 -20 -20 -20 -20 -20 -20
-20 -20 -20 -20 -15 25 16 25 30 21 4 -1 -1 -15 -14 -20 -18 -20 3 7 -15 -11 13 11 -15 -20 -20 -20 -20 -20 -19 -20 -20 -20 -20 -20 -20 -20 -20 -20 -20 -20 -20 -20 -20 -20 -20 -20 -20 -20 -20 -20 -20 -20
-20 -20 -20 -20 -20 10 11 8 12 8 -1 -14 -16 1 -16 8 -8 20 22 26 23 26 -1 -12 -17 -20 -20 -20 -20 -20 -20 -17 -9 -20 -20 -20 -20 -20 -20 -20 -20 -20 -20 -20 -20 -20 -20 -20 -20 -20 -20 -20 -20 -20
-20 -20 -20 -20 -20 -15 7 8 10 10 5 -3 -5 10 14 5 -0 9 26 23 16 17 13 7 7 11 10 1 1 2 7 -15 -20 -20 -20 -20 -20 -20 -20 -20 -20 -20 -20 -20 -20 -20 -20 -20 -20 -20 -20 -20 -20 -20
-20 -20 -20 -20 -20 -20 -13 4 8 8 10 5 5 11 17 17 16 22 15 15 6 1 -1 11 12 -0 -17 -20 -16 4 5 -7 -20 -20 -20 -20 -20 -20 -20 -20 -20 -20 -20 -20 -20 -20 -20 -20 -20 -20 -20 -20 -20 -20
-20 -20 -20 -20 -20 -20 -20 -13 -4 3 -8 -9 3 15 14 15 16 17 -4 -15 -13 -10 -9 -10 -18 -20 -20 -20 -20 -20 -20 -20 -20 -20 -20 -20 -20 -20 -20 -20 -20 -20 -20 -20 -20 -20 -20 -20 -20 -20 -20 -20 -20 -20
-20 -20 -20 -20 -20 -20 -20 -20 -16 -6 -1 6 6 7 10 11 11 1 2 -0 9 4 -13 -20 -20 -20 -20 -20 -20 -20 -20 -20 -20 -20 -20 -20 -20 -20 -20 -20 -20 -20 -20 -20 -20 -20 -20 -20 -20 -20 -20 -20 -20 -20
-20 -20 -20 -20 -20 -20 -20 -20 -20 -4 -0 4 6 8 11 10 -7 4 -14 -19 7 14 10 -17 -20 -20 -19 -10 -4 -17 -20 -20 -20 -20 -20 -20 -20 -20 -20 -20 -20 -20 -20 -20 -20 -20 -20 -20 -20 -20 -20 -20 -20 -20
-20 -20 -20 -20 -20 -20 -20 -20 -20 -19 -16 -5 -3 -2 5 6 5 -12 -20 1 13 15 17 17 12 3 -5 -18 -18 -20 -20 -20 -20 -20 -20 -20 -20 -20 -20 -20 -20 -20 -20 -20 -20 -20 -20 -20 -20 -20 -20 -20 -20 -20
-20 -20 -20 -20 -20 -20 -20 -20 -20 -20 -20 -20 -0 -10 -1 -7 -20 -20 -19 -3 15 17 18 18 17 12 7 6 1 -2 1 1 -13 -20 -20 -20 -20 -20 -20 -20 -20 -20 -20 -20 -20 -20 -20 -20 -20 -20 -20 -20 -20 -20
-20 -20 -20 -20 -20 -20 -20 -20 -20 -20 -20 -20 -20 -20 -20 -20 -20 -20 -12 7 14 16 17 15 15 13 10 0 -7 -20 -20 -20 -20 -20 -20 -20 -20 -20 -20 -20 -20 -20 -20 -20 -20 -20 -20 -20 -20 -20 -20 -20 -20 -20
-20 -20 -20 -20 -20 -20 -20 -20 -20 -20 -20 -20 -20 -20 -20 -20 -0 5 6 10 12 14 13 13 10 5 0 -12 -20 -20 -20 -20 -20 -20 -20 -20 -20 -20 -20 -20 -20 -20 -20 -20 -20 -20 -16 -20 -20 -20 -20 -20 -20 -20
-20 -20 -20 -20 -20 -20 -20 -20 -20 -20 -20 -20 -20 -20 -20 -20 -20 -7 5 9 12 13 13 11 5 -5 -16 -20 -20 -20 -20 -20 -20 -20 -20 -20 -20 -20 -20 -20 -20 -20 -20 -20 -20 -20 -20 -20 -20 -20 -20 -20 -20 -20
-20 -20 -20 -20 -20 -20 -20 -20 -20 -20 -20 -20 -20 -20 -20 -20 -20 -20 -20 -20 -20 -20 -19 -19 -20 -20 -20 -20 -20 -20 -20 -20 -20 -20 -20 -20 -20 -20 -20 -20 -20 -20 -20 -20 -20 -20 -20 -20 -20 -20 -20 -20 -20 -20
-20 -20 -20 -20 -20 -20 -20 -20 -20 -20 -20 -20 -20 -20 -20 -20 -20 -20 -20 -20 -20 -20 -20 -20 -20 -20 -20 -20 -20 -20 -20 -20 -20 -20 -20 -20 -20 -20 -20 -20 -20 -20 -20 -20 -20 -20 -20 -20 -20 -20 -20 -20 -20 -20

GFSWCAN_prec_radar_018.txt.gz
Reflectivity
16 14 21 3 22 -20 -20 -17 -18 12 16 12 -2 26 32 17 15 13 10 -15 24 19 24 -15 -20 -19 5 28 29 24 28 14 23 2 2 18 -9 -20 -20 -20 -20 -19 -1 13 -16 -10 -14 -20 -20 -20 -20 -20 -20 -20
3 3 19 18 9 -10 -20 -15 -9 20 15 13 -2 16 32 21 10 16 5 -17 26 20 16 -20 -20 -20 -7 28 31 27 22 17 -4 11 28 -6 -20 -20 -20 -20 -20 -7 -20 -20 -20 -13 -9 -20 -20 -20 -20 -20 -20 -20
9 9 19 19 0 14 -20 -20 -8 15 3 12 8 16 28 12 18 13 1 2 27 22 6 -20 -20 -20 3 24 27 29 20 -1 -20 -20 -19 -20 -20 -20 -20 -20 -20 -20 -20 -20 -20 -20 -20 -20 -20 -20 -20 -20 -20 -20
17 16 18 21 18 -9 -18 -20 -11 17 11 12 11 10 27 -5 15 18 -5 -2 21 27 11 -20 -20 -20 -20 17 20 27 30 27 28 -4 8 -10 -20 -12 8 -18 -20 -20 -20 -20 -20 -20 -20 -20 -20 -20 -20 -20 -20 -20
17 17 12 12 17 -20 -20 -20 -12 17 10 10 11 9 18 -13 15 12 -7 -6 25 26 22 -20 -20 -20 -20 -6 28 33 31 11 25 33 21 25 7 -13 -11 -7 -20 -20 -20 -20 -20 -3 -19 -20 -20 -20 -20 -20 -20 -20
-2 19 17 7 20 -20 4 -20 -18 16 12 14 5 5 19 10 20 15 22 -6 24 27 3 -20 -20 -20 -20 -20 24 14 23 29 -19 -1 -8 -20 -3 -20 -20 -18 -20 -20 -20 -20 1 -20 -20 -20 -20 -20 -20 -20 -20 -20
13 19 19 3 11 1 -20 -20 -3 3 15 6 2 28 25 19 16 12 18 -12 2 25 -0 -20 -1 -20 -20 -20 -20 10 12 -4 -20 -20 -20 -20 -20 -20 -20 -19 -20 -20 -20 -20 -20 -20 -20 -20 -20 -20 -20 -20 -20 -20
14 15 19 15 15 6 -20 -19 9 11 13 4 13 32 22 24 25 14 3 8 10 23 13 -8 -15 -20 -20 -4 -20 -20 -20 -17 -1 -18 -20 -20 -20 -20 -8 -20 -20 -20 -20 -20 -20 -20 -20 -20 -20 -20 -20 -20 -20 -20
17 15 17 13 8 -3 -20 3 13 17 11 7 27 30 26 22 18 5 -9 21 17 26 26 -10 -18 -20 -20 -20 -20 -5 -13 -20 -20 -20 -20 -20 -20 -19 -2 -16 -20 -20 -20 -20 -20 -20 -20 -20 -20 -20 -20 -20 -20 -20
16 15 18 9 -9 -20 -19 11 16 12 -5 30 36 38 32 21 24 -13 -10 18 28 22 29 19 -12 -20 -20 -20 -20 -20 -20 -17 -14 -20 -20 -20 -20 -20 -20 -20 -20 -20 -20 -20 -20 -20 -20 -20 -20 -20 -20 -20 -20 -20
17 16 -0 -6 -8 -20 16 17 7 6 17 38 40 34 27 18 15 15 12 13 21 25 18 8 23 23 -11 -20 -15 -19 -20 -20 -20 -20 -20 -20 -20 2 -12 -20 -20 -20 -20 -20 -20 -20 -20 -20 -20 -20 -20 -20 -20 -20
-14 -14 -20 -20 -20 -4 10 16 13 21 40 38 29 30 18 19 16 25 12 18 11 6 -20 -20 -14 9 15 21 12 -3 -15 -18 -20 -20 -20 -20 -20 -20 -20 -20 -20 -20 -20 -20 -20 -20 -20 -20 -20 -20 -20 -20 -20 -20
-20 -20 -20 -20 -12 10 7 15 12 24 34 31 37 42 33 28 -3 -19 -14 -13 -20 -20 -18 -9 4 -4 -20 -19 -20 -20 -20 -20 -20 -20 -20 -20 -20 -20 -20 -20 -20 -20 -20 -20 -20 -20 -20 -20 -20 -20 -20 -20 -20 -20
-20 -20 -20 -20 -19 14 4 11 10 34 41 35 34 28 -4 11 -20 -20 -20 -20 -20 -20 -5 10 8 -4 -20 -20 -20 -20 -20 -20 -20 -20 -20 -20 -20 -20 -20 -20 -20 -20 -20 -20 -20 -20 -20 -20 -20 -20 -20 -20 -20 -20
-20 -20 -20 -20 -20 -12 7 11 23 35 33 30 33 5 -20 -20 -20 -20 -20 -20 -20 -15 -4 -1 -15 -20 -20 -20 -20 -20 -20 -20 -20 -20 -20 -20 -20 -20 -20 -20 -20 -20 -20 -20 -20 -20 -20 -20 -20 -20 -20 -20 -20 -20
-20 -20 -20 -20 -20 -19 7 -13 25 27 34 25 18 -16 -20 -20 -20 -20 -20 -20 -20 -4 8 2 -17 -20 -20 -20 -20 -20 -20 -20 -20 -20 -20 -20 -20 -20 -20 -20 -20 -20 -20 -20 -20 -20 -20 -20 -20 -20 -20 -20 -20 -20
-20 -20 -20 -20 -20 -18 6 9 31 26 28 23 9 -20 -20 -20 -20 -20 -20 -19 9 11 -2 -20 -20 -20 -20 -20 -20 -20 -20 -20 -20 -20 -20 -20 -20 -20 -20 -20 -20 -20 -20 -20 -20 -20 -20 -20 -20 -20 -20 -20 -20 -20
-20 -20 -20 -20 -17 -7 -6 24 29 28 24 13 -12 -20 -20 -20 -20 -20 -20 5 -5 -20 -20 -20 -20 -20 -20 -20 -20 -20 -20 -20 -20 -20 -20 -20 -20 -20 -20 -20 -20 -20 -20 -20 -20 -20 -20 -20 -20 -20 -20 -20 -20 -20
-20 -20 -20 -20 -10 -7 -19 21 22 19 17 11 -20 -20 -20 -20 -20 -12 10 10 -10 -20 -20 -20 -18 -20 -20 -20 -20 -20 -20 -20 -20 -20 -20 -20 -20 -20 -20 -20 -20 -20 -20 -20 -20 -20 -20 -20 -20 -20 -20 -20 -20 -20
-20 -20 -20 -20 -20 -20 -14 11 24 14 6 8 18 -17 -20 -20 -20 -20 -19 -18 -20 -20 -20 -20 -20 -20 -20 -20 -20 -20 -20 -20 -20 -20 -20 -20 -20 -20 -20 -20 -20 -20 -20 -20 -20 -20 -20 -20 -20 -20 -20 -20 -20 -20
-20 -20 -20 -20 -20 -20 -20 -20 9 12 1 1 13 8 -17 20 16 4 12 24 26 24 -0 -20 -20 -20 -20 -20 -20 -20 -20 -20 -20 -20 -20 -20 -20 -20 -20 -20 -20 -20 -20 -20 -20 -20 -20 -20 -20 -20 -20 -20 -20 -20
-20 -20 -20 -20 -20 -20 -20 -20 5 7 -1 -7 13 19 5 -14 -3 12 25 25 22 10 -9 -18 -17 1 -15 -16 -17 -20 -20 -12 4 -20 -20 -20 -20 -20 -20 -20 -20 -20 -20 -20 -20 -20 -20 -20 -20 -20 -20 -20 -20 -20
-20 -20 -20 -20 -20 -20 -20 -20 -7 7 10 10 13 13 5 -20 -11 10 -3 -2 -12 8 11 9 8 8 8 3 -0 -2 11 13 -2 -20 -20 -20 -20 -20 -20 -20 -20 -20 -20 -20 -20 -20 -20 -20 -20 -20 -20 -20 -20 -20
-20 -20 -20 -20 -20 -20 -20 -20 -15 3 8 9 11 12 3 -11 3 -5 2 -17 -16 -11 14 16 14 12 7 -2 -2 -13 -18 -20 -3 -3 -20 -20 -20 -20 -20 -20 -20 -20 -20 -20 -20 -20 -20 -20 -20 -20 -20 -20 -20 -20
-20 -20 -20 -20 -20 -20 -20 -20 -20 -18 4 8 13 13 13 10 7 4 2 -18 2 6 17 17 5 0 5 2 -19 -20 -20 -20 -16 -19 -20 -20 -20 -20 -20 -20 -20 -20 -20 -20 -20 -20 -20 -20 -20 -20 -20 -20 -20 -20
-20 -20 -20 -20 -20 -20 -20 -20 -20 -20 -9 5 10 11 13 15 12 13 8 16 20 19 18 16 12 -2 -20 -20 -20 -20 -20 -20 -16 -20 -20 -20 -20 -20 -20 -20 -20 -20 -20 -20 -20 -20 -20 -20 -20 -20 -20 -20 -20 -20
-20 -20 -20 -20 -20 -20 -20 -20 -20 -20 -20 -16 1 8 13 15 14 4 -14 4 9 13 14 16 12 8 12 8 7 6 -3 -20 -20 -17 -20 -20 -20 -20 -20 -20 -20 -20 -20 -20 -20 -20 -20 -20 -20 -20 -20 -20 -20 -20
-20 -20 -20 -20 -20 -20 -20 -20 -20 -20 -20 -20 -18 -16 -7 -3 -3 -19 2 6 13 15 16 18 17 13 12 9 4 0 -5 -13 -20 -20 -20 -20 -20 -20 -20 -20 -20 -20 -20 -20 -20 -20 -20 -20 -20 -20 -20 -20 -20 -20
-20 -20 -20 -20 -20 -20 -20 -20 -20 -20 -20 -20 -20 -20 -20 -20 -20 -19 -9 4 11 14 17 18 19 18 13 10 10 7 4 0 -2 -12 -20 -20 -20 -20 -20 -20 -20 -20 -20 -20 -20 -20 -20 -20 -20 -20 -20 -20 -20 -20
-20 -20 -20 -20 -20 -20 -20 -20 -20 -20 -20 -20 -20 -20 -20 -20 -20 -6 8 8 12 16 18 18 18 18 17 15 13 7 -5 -10 -20 -20 -20 -20 -20 -20 -20 -20 -20 -20 -20 -20 -20 -20 -20 -20 -20 -20 -20 -20 -20 -20
-20 -20 -20 -20 -20 -20 -20 -20 -20 -20 -20 -20 -20 -20 -20 -20 -20 -6 5 11 14 15 16 17 17 17 15 13 9 2 -6 -20 -20 -20 -20 -20 -20 -20 -20 -20 -20 -20 -20 -20 -20 -20 -20 -20 -20 -20 -20 -20 -20 -20
-20 -20 -20 -20 -20 -20 -20 -20 -20 -20 -20 -20 -20 -20 -20 -20 -20 -20 -4 5 9 10 11 8 8 7 5 -6 -19 -20 -20 -20 -20 -20 -20 -20 -20 -20 -20 -20 -20 -20 -20 -20 -20 -20 -20 -20 -20 -20 -20 -20 -20 -20
-20 -20 -20 -20 -20 -20 -20 -20 -20 -20 -20 -20 -20 -20 -20 -20 -20 -20 -20 -20 -20 -20 -19 -17 -20 -20 -20 -20 -20 -20 -20 -20 -20 -20 -20 -20 -20 -20 -20 -20 -20 -20 -20 -20 -20 -20 -20 -20 -20 -20 -20 -20 -20 -20

GFSWCAN_prec_radar_021.txt.gz
Reflectivity
17 7 19 2 8 -12 15 14 -20 -20 6 11 5 -6 7 11 32 31 6 19 7 4 -5 3 -14 -3 9 29 29 29 28 25 13 25 24 7 6 -20 -20 -20 -20 -8 -8 9 -15 -20 -20 -20 -20 -20 -20 -20 -20 -20
-11 17 17 6 4 19 -4 -20 -20 -4 -20 11 5 -5 18 32 32 29 1 4 3 18 2 17 -2 -20 -20 21 28 27 25 -8 24 19 -11 -20 -6 -20 -20 -18 -20 -20 -20 -19 -20 -20 -20 -20 -20 -20 -20 -20 -20 -20
8 6 16 16 11 19 2 -20 -20 -20 7 10 14 8 12 23 14 27 2 2 2 16 3 -11 -20 -20 -17 4 24 24 25 27 20 20 -20 -1 -10 -20 -20 -20 -20 -20 -20 -20 -20 -20 -20 -20 -20 -20 -20 -20 -20 -20
13 13 16 18 7 13 11 -20 -20 -20 -7 10 13 13 7 31 20 25 -6 -7 4 16 16 -19 -20 -20 -2 3 18 21 28 25 27 -20 -10 19 -20 -20 -20 -20 -20 -20 -20 -20 -20 -20 -20 -20 -20 -20 -20 -20 -20 -20
18 18 8 16 10 -12 13 3 -20 -20 -18 12 13 -0 16 28 27 14 -15 -2 1 22 26 -1 -20 -20 -20 -9 18 4 25 26 18 9 -20 -20 -16 -20 -20 -20 -20 -20 -20 -20 -20 -20 -20 -20 -20 -20 -20 -20 -20 -20
5 10 7 3 11 10 17 6 -20 -20 -11 -0 11 3 10 31 27 15 22 4 -7 9 30 11 -20 -20 -20 -18 23 25 23 25 23 19 21 14 -9 -14 -18 -20 -19 -20 -20 -20 -20 -20 -20 -20 -20 -20 -20 -20 -20 -20
17 18 8 7 3 3 16 -6 -20 -17 7 16 5 -8 -7 30 25 22 11 -18 -20 6 24 -10 9 -20 -20 -20 7 23 27 22 0 -13 -20 -20 -20 -20 -20 -20 -20 -20 -20 -17 -4 -20 -20 -20 -20 -20 -20 -20 -20 -20
8 8 3 1 1 -2 -3 -20 -20 4 15 -10 -7 -20 2 25 24 17 -5 -0 -4 1 24 -1 -19 -20 -20 -14 -17 -10 23 10 -20 -20 -20 -20 -20 -20 -20 -20 -20 -20 -20 -20 -20 -20 -20 -20 -20 -20 -20 -20 -20 -20
9 5 15 1 -2 -11 -20 -20 4 7 -13 -19 -8 -7 13 21 15 4 6 19 -3 12 30 3 -20 -20 -20 -20 -20 -20 -20 -12 -3 -20 -20 -20 -20 -12 -20 -20 -20 -20 -20 -20 -20 -20 -20 -20 -20 -20 -20 -20 -20 -20
-2 5 9 -13 2 -20 -20 -0 -7 15 -19 -12 6 24 37 21 18 -13 9 31 26 24 4 17 -17 -20 -20 -20 -20 -20 -20 -20 -19 -20 -20 -20 -18 7 -8 -20 -20 -20 -20 -20 -20 -20 -20 -20 -20 -20 -20 -20 -20 -20
-19 -15 -7 -8 -20 -20 -15 6 1 9 11 19 37 32 25 26 8 16 17 3 23 27 10 3 -18 -20 -20 -20 -20 -20 -20 -20 -20 -20 -20 -20 5 13 -1 -20 -20 -20 -20 -20 -20 -20 -20 -20 -20 -20 -20 -20 -20 -20
-20 -20 -20 -20 -20 -20 4 10 5 8 17 31 38 33 36 29 26 25 25 18 -14 -19 -13 -20 -20 -20 1 9 -12 -20 -20 -20 -20 -20 -20 -20 5 -9 -20 -20 -20 -20 -20 -20 -20 -20 -20 -20 -20 -20 -20 -20 -20 -20
-20 -20 -20 -20 -16 -18 -10 14 10 15 20 33 37 39 38 20 13 -1 -18 -10 -15 -19 -19 -20 -20 -20 6 32 29 10 -10 -20 -20 -20 -20 -16 -13 -20 -20 -20 -20 -20 -20 -20 -20 -20 -20 -20 -20 -20 -20 -20 -20 -20
-20 -20 -20 -20 -20 -20 0 10 14 -3 34 37 28 28 23 -11 -20 -20 -20 -20 -20 -20 -14 4 -11 -20 -20 -20 -20 -20 -20 -20 -20 -20 -19 -19 -20 -20 -20 -20 -20 -20 -20 -20 -20 -20 -20 -20 -20 -20 -20 -20 -20 -20
-20 -20 -20 -20 -20 -20 -1 9 2 10 34 22 27 24 4 -19 -20 -20 -20 -20 -20 -16 0 -2 -15 -19 -20 -20 -20 -20 -20 -20 -20 -10 -20 -20 -20 -20 -20 -20 -20 -20 -20 -20 -20 -20 -20 -20 -20 -20 -20 -20 -20 -20
-20 -20 -20 -20 -20 -20 1 4 -15 23 25 22 22 16 -7 -20 -20 0 -20 -20 -20 -19 -6 -13 -20 -20 -20 -20 -20 -20 -20 -20 -11 -19 -20 -20 -20 -20 -20 -20 -20 -20 -20 -20 -20 -20 -20 -20 -20 -20 -20 -20 -20 -20
-20 -20 -20 -20 -20 -20 4 -9 10 22 21 20 12 -5 -20 -20 -20 -20 -20 4 6 -4 -20 -20 -20 -20 -20 -20 -20 -20 -20 -20 -20 -20 -20 -20 -20 -20 -20 -20 -20 -20 -20 -20 -20 -20 -20 -20 -20 -20 -20 -20 -20 -20
-20 -20 -20 -20 -20 -20 -5 5 3 17 17 11 -14 -19 -20 -20 -20 -20 -14 -6 3 -20 -20 -20 -20 -20 -20 -20 -20 -20 -20 -20 -20 -20 -20 -20 -20 -20 -20 -20 -20 -20 -20 -20 -20 -20 -20 -20 -20 -20 -20 -20 -20 -20
-20 -20 -20 -20 -20 -17 -4 -19 -2 6 9 4 -19 15 -3 -20 -20 -20 -2 -2 -7 -19 -20 -20 -20 -20 -20 -20 -20 -20 -20 -20 -20 -20 -20 -20 -20 -20 -20 -20 -20 -20 -20 -20 -20 -20 -20 -20 -20 -20 -20 -20 -20 -20
-20 -20 -20 -20 -20 -19 -20 -20 -6 -6 6 6 -12 3 -2 -19 -20 -20 -20 -20 -8 -20 -20 -20 -20 -20 -20 -20 -20 -20 -20 -20 -20 -20 -20 -20 -20 -20 -20 -20 -20 -20 -20 -20 -20 -20 -20 -20 -20 -20 -20 -20 -20 -20
-20 -20 -20 -20 -20 -20 -20 -20 -20 -4 4 5 14 3 7 26 17 15 2 -4 8 -1 -20 -20 -20 -20 -20 -20 -20 -20 -20 -20 -20 -20 -20 -20 -20 -20 -20 -20 -20 -20 -20 -20 -20 -20 -20 -20 -20 -20 -20 -20 -20 -20
-20 -20 -20 -20 -20 -20 -20 -20 -20 -9 9 12 15 18 12 18 19 12 19 -5 -2 -5 -19 -20 -20 -20 -20 -20 -20 -20 -20 -9 -6 -19 -20 -20 -20 -20 -20 -20 -20 -20 -20 -20 -20 -20 -20 -20 -20 -20 -20 -20 -20 -20
-20 -20 -20 -20 -20 -20 -20 -20 -20 -20 -18 8 9 15 17 11 14 24 22 16 -1 -17 -7 6 -13 -20 -20 -20 -20 -20 -16 -20 -20 -20 -12 4 -20 -20 -20 -20 -20 -20 -20 -20 -20 -20 -20 -20 -20 -20 -20 -20 -20 -20
-20 -20 -20 -20 -20 -20 -20 -20 -20 -20 -20 -19 4 12 11 16 19 19 8 -19 -18 -15 -6 8 4 -0 -1 -11 -20 -20 -20 -20 -14 -2 7 -8 -10 -16 -18 -20 -20 -20 -20 -20 -20 -20 -20 -20 -20 -20 -20 -20 -20 -20
-20 -20 -20 -20 -20 -20 -20 -20 -20 -20 -20 -20 -20 7 10 15 18 8 -20 -20 -20 -18 -17 -18 -19 -11 -2 -17 -14 -7 -14 3 5 -5 0 12 0 -12 -10 -16 -20 -20 -20 -20 -20 -20 -20 -20 -20 -20 -20 -20 -20 -20
-20 -20 -20 -20 -20 -20 -20 -20 -20 -20 -20 -20 -19 -5 8 10 11 13 -1 -20 -20 -18 5 13 14 13 1 -17 3 18 16 14 16 13 5 5 3 4 2 -13 -20 -20 -20 -20 -20 -20 -20 -20 -20 -20 -20 -20 -20 -20
-20 -20 -20 -20 -20 -20 -20 -20 -20 -20 -20 -20 -20 -16 2 6 9 6 -15 -17 -15 -5 13 16 16 17 18 10 0 -13 1 9 12 13 10 8 7 4 -3 -3 2 -10 -20 -20 -20 -20 -20 -20 -20 -20 -20 -20 -20 -20
-20 -20 -20 -20 -20 -20 -20 -20 -20 -20 -20 -20 -20 -20 -20 -12 -4 -2 6 15 15 14 16 18 20 21 18 16 12 6 5 6 4 5 6 6 5 4 2 -1 -19 -20 -20 -20 -20 -20 -20 -20 -20 -20 -20 -20 -20 -20
-20 -20 -20 -20 -20 -20 -20 -20 -20 -20 -20 -20 -20 -20 -20 -20 -20 -8 4 11 16 17 18 17 15 13 17 18 15 9 -2 -10 -3 -15 -8 1 -1 0 -4 -20 -20 -20 -20 -20 -20 -20 -20 -20 -20 -20 -20 -20 -20 -20
-20 -20 -20 -20 -20 -20 -20 -20 -20 -20 -20 -20 -20 -20 -20 -20 -20 -20 -10 7 12 17 19 17 16 17 17 16 16 18 19 18 16 12 10 7 0 -20 -20 -20 -20 -20 -20 -20 -20 -20 -20 -20 -20 -20 -20 -20 -20 -20
-20 -20 -20 -20 -20 -20 -20 -20 -20 -20 -20 -20 -20 -20 -20 -20 -20 -20 -5 5 11 13 15 16 18 20 18 16 15 13 10 7 -0 -5 -16 -20 -20 -20 -20 -20 -20 -20 -20 -20 -20 -20 -20 -20 -20 -20 -20 -20 -20 -20
-20 -20 -20 -20 -20 -20 -20 -20 -20 -20 -20 -20 -20 -20 -20 -20 -20 -20 -16 7 11 13 16 18 17 16 16 14 9 5 3 -1 -3 -18 -20 -20 -20 -20 -20 -20 -20 -20 -20 -20 -20 -20 -20 -20 -20 -20 -20 -20 -20 -20
-20 -20 -20 -20 -20 -20 -20 -20 -20 -20 -20 -20 -20 -20 -20 -20 -15 -6 -5 4 8 12 13 14 14 13 11 5 -6 -20 -20 -20 -20 -20 -20 -20 -20 -20 -20 -20 -20 -20 -20 -20 -20 -20 -20 -20 -20 -20 -20 -20 -20 -20

GFSWCAN_prec_radar_024.txt.gz
Reflectivity
5 19 -20 9 14 17 18 15 5 -20 -20 -11 -17 11 12 21 26 25 29 -5 -13 7 -1 -12 7 -12 12 24 28 26 30 6 17 14 20 3 -6 -20 -20 -20 -20 -3 -17 -18 -20 -20 -20 -20 -20 -20 -20 -20 -20 -20
8 4 16 13 13 17 17 14 1 -20 -20 -6 -9 14 12 14 28 29 16 -19 4 13 2 -5 0 -12 8 22 27 23 21 -3 3 -17 -20 -19 -7 -20 -20 -20 -20 -20 -20 -20 -20 -20 -20 -20 -20 -20 -20 -20 -20 -20
1 16 16 9 16 17 3 5 9 -13 -20 -20 -9 13 11 9 20 24 29 -20 5 4 -10 -20 -5 -20 -18 21 28 28 5 19 16 13 14 -3 -20 -20 -20 -20 -20 -20 -20 -20 -20 -20 -20 -20 -20 -20 -20 -20 -20 -20
11 4 10 17 14 10 -1 -4 -12 3 -20 -20 -4 1 9 6 18 32 29 -20 9 0 -9 -19 -20 -20 -13 16 18 25 30 30 26 22 24 3 -20 -10 -20 -20 -20 -20 -20 -20 -20 -20 -20 -20 -20 -20 -20 -20 -20 -20
11 7 11 10 -2 4 5 8 -3 -10 -20 -20 -6 14 -2 -12 17 17 14 -0 0 0 19 11 -19 -20 -14 -19 8 25 23 26 33 26 22 -18 15 12 -19 -20 -20 -20 -20 -20 -20 -20 -20 -20 -20 -20 -20 -20 -20 -20
7 3 3 15 10 19 8 -0 1 -20 -20 -20 -12 6 -20 1 33 33 24 -19 -5 8 13 17 -20 -20 -20 -20 3 10 17 20 19 17 2 -20 -20 -20 -20 -20 -20 -20 -20 -20 -20 -20 -20 -20 -20 -20 -20 -20 -20 -20
8 9 13 13 18 17 5 -4 -20 -20 2 -20 9 -3 -18 16 18 22 15 2 3 -17 16 2 -20 7 -20 -20 4 21 25 27 25 18 15 4 -13 -9 -13 -20 -20 -20 -20 -20 -20 -20 -17 -20 -20 -15 -20 -20 -20 -20
7 1 3 -1 4 -0 7 -20 -20 -12 4 -0 2 -12 -10 18 17 31 4 -4 -20 -12 0 2 -20 -20 -3 -9 0 20 29 23 14 0 1 -19 -20 -20 -20 -20 -19 -20 -20 -20 -12 -20 -20 -20 -20 -20 -20 -20 -20 -20
-16 -11 -3 -4 -20 -15 -20 -20 -12 3 -14 -20 -20 -19 6 12 25 15 32 15 -20 -20 -4 -0 -20 -20 -20 10 -20 -20 10 17 -14 -18 -20 -20 -20 -16 -20 -20 -20 -20 -20 -20 -20 -20 -20 -20 -20 -20 -20 -20 -20 -20
-20 -20 -20 -20 -20 -20 -20 5 -8 -2 -20 11 -8 4 13 6 13 -14 -6 24 29 -3 -9 -6 -20 -20 -20 -15 -19 -20 -20 -20 -20 -19 -20 -20 -20 -20 -20 -20 -20 -20 -20 -20 -20 -20 -20 -20 -20 -20 -20 -20 -20 -20
-20 -20 -20 -20 -20 -20 -7 -20 -9 4 11 -2 23 29 26 33 13 32 18 20 26 23 13 -20 -20 -20 -20 -20 -2 -20 -20 -20 -20 -19 -20 -20 -20 -20 -20 -20 -20 -20 -20 -20 -20 -20 -20 -20 -20 -20 -20 -20 -20 -20
-20 -20 -20 -20 -20 -20 -20 -18 6 -9 16 6 19 30 34 34 29 39 26 21 9 -17 -20 -10 -20 -20 -20 -19 -20 -4 -20 -20 -20 -20 -20 -1 7 -20 -20 -20 -20 -20 -20 -20 -20 -20 -20 -20 -20 -20 -20 -20 -20 -20
-20 -20 -20 -20 -20 -20 -20 0 4 11 11 11 31 25 34 25 31 3 -20 -11 -20 -19 -20 -18 -20 -20 -13 17 10 -20 -20 -20 -20 -20 -20 -19 -20 -20 -20 -20 -20 -20 -20 -20 -20 -20 -20 -20 -20 -20 -20 -20 -20 -20
-20 -20 -20 -20 -20 -20 -20 -4 14 6 -11 16 24 25 19 12 -20 -0 -20 -20 -20 -20 -18 5 -2 -20 -20 -19 28 -7 -20 -20 -20 -20 -2 -20 -20 -20 -20 -20 -20 -20 -20 -20 -20 -20 -20 -20 -20 -20 -20 -20 -20 -20
-20 -20 -20 -20 -20 -20 -20 2 12 -15 -1 15 22 23 14 -11 -20 -20 -20 -20 -20 -20 -20 -5 -15 -20 -20 -20 -20 -20 -20 -20 -20 -14 -20 -20 -20 -20 -20 -20 -20 -20 -20 -20 -20 -20 -20 -20 -20 -20 -20 -20 -20 -20
-20 -20 -20 -20 -20 -20 -20 7 -9 -6 -13 15 10 12 12 -20 -20 -4 -20 -20 -20 -13 -20 -18 -20 -20 -20 -20 -20 -20 -20 -20 -20 -20 -20 -20 -20 -20 -20 -20 -20 -20 -20 -20 -20 -20 -20 -20 -20 -20 -20 -20 -20 -20
-20 -20 -20 -20 -20 -20 -3 -3 11 -4 -15 8 -1 -16 -17 -20 -20 -20 -20 -20 -10 -15 -20 -20 -20 -20 -20 -20 -20 -20 -20 -20 -20 -20 -20 -20 -20 -20 -20 -20 -20 -20 -20 -20 -20 -20 -20 -20 -20 -20 -20 -20 -20 -20
-20 -20 -20 -20 -20 -20 -10 9 -5 -20 -20 -4 -20 -20 -9 -18 -17 -20 -20 -20 -20 -20 -20 -20 -20 -20 -20 -20 -20 -20 -20 -20 -20 -20 -20 -20 -20 -20 -20 -20 -20 -20 -20 -20 -20 -20 -20 -20 -20 -20 -20 -20 -20 -20
-20 -20 -20 -20 -20 -20 -20 -14 -5 -20 -20 -20 -20 -20 -15 9 -19 -7 -20 -20 -20 -20 -20 -11 2 -20 -20 -20 -20 -20 -20 -20 -20 -20 -20 -20 -20 -20 -20 -20 -20 -20 -20 -20 -20 -20 -20 -20 -20 -20 -20 -20 -20 -20
-20 -20 -20 -20 -20 -20 -20 -20 -19 -20 -20 -20 -14 -20 -20 -7 10 10 -14 -20 -20 -20 -20 -20 -20 -20 -20 -20 -20 -20 -20 -20 -20 -20 -20 -20 -20 -20 -20 -20 -20 -20 -20 -20 -20 -20 -20 -20 -20 -20 -20 -20 -20 -20
-20 -20 -20 -20 -20 -20 -20 -20 -20 -20 -20 -20 -20 -20 -20 14 12 15 13 -13 -20 -15 -20 -20 -20 -20 -20 -20 -20 -20 -20 -20 -20 -20 -20 -20 -20 -20 -20 -20 -20 -20 -20 -20 -20 -20 -20 -20 -20 -20 -20 -20 -20 -20
-20 -20 -20 -20 -20 -20 -20 -20 -20 -20 -20 -20 -20 -9 1 9 22 18 24 17 -9 -18 -20 -20 -20 -20 -20 -20 -20 -20 -20 -20 -20 -20 -20 -20 -20 -20 -20 -20 -20 -20 -20 -20 -20 -20 -20 -20 -20 -20 -20 -20 -20 -20
-20 -20 -20 -20 -20 -20 -20 -20 -20 -20 -20 -20 -20 -4 12 14 15 24 22 20 13 0 -14 -20 -20 -20 -20 -20 -20 -20 -20 -20 -20 -20 -20 -20 -19 -19 -20 -20 -20 -20 -20 -20 -20 -20 -20 -20 -20 -20 -20 -20 -20 -20
-20 -20 -20 -20 -20 -20 -20 -20 -20 -20 -20 -20 -20 -19 9 19 19 15 21 9 -6 -10 -5 -1 -1 -20 -20 -20 -19 -20 -18 -15 -20 -20 -19 -8 -19 -14 -1 -7 -20 -17 -16 -20 -20 -20 -20 -20 -20 -20 -20 -20 -20 -20
-20 -20 -20 -20 -20 -20 -20 -20 -20 -20 -20 -20 -20 -20 -13 5 17 14 -4 3 15 14 14 14 4 -10 -19 -20 -12 -20 -20 -20 -20 -20 -19 -12 17 14 10 7 -4 -19 -20 -20 -20 -20 -20 -20 -20 -20 -20 -20 -20 -20
-20 -20 -20 -20 -20 -20 -20 -20 -20 -20 -20 -20 -20 -20 -20 -11 1 7 5 4 1 8 12 -8 -10 -9 -8 -19 -20 -20 -20 -20 -6 -16 17 19 17 18 15 7 -8 -20 -20 -20 -18 -14 -20 -20 -20 -20 -20 -20 -20 -20
-20 -20 -20 -20 -20 -20 -20 -20 -20 -20 -20 -20 -20 -20 -20 -20 -20 -10 -7 9 14 13 4 -1 -14 -15 -16 -7 3 10 11 13 17 19 20 20 13 4 5 3 -19 -15 5 10 -2 -20 -20 -20 -20 -20 -20 -20 -20 -20
-20 -20 -20 -20 -20 -20 -20 -20 -20 -20 -20 -20 -20 -20 -20 -20 -20 -20 -20 -5 7 -10 5 15 14 2 7 13 15 16 20 24 25 21 11 -3 -19 -8 4 8 7 10 9 -15 -20 -20 -20 -20 -20 -20 -20 -20 -20 -20
-20 -20 -20 -20 -20 -20 -20 -20 -20 -20 -20 -20 -20 -20 -20 -20 -20 -20 -20 -20 -20 -14 0 12 14 14 14 15 17 22 21 17 13 9 10 13 12 11 10 11 12 5 -18 -20 -20 -20 -20 -20 -20 -20 -20 -20 -20 -20
-20 -20 -20 -20 -20 -20 -20 -20 -20 -20 -20 -20 -20 -20 -20 -20 -20 -20 -20 -20 -17 3 12 16 18 17 15 16 19 22 22 21 22 19 16 15 15 14 12 3 -16 -20 -20 -20 -20 -20 -20 -20 -20 -20 -20 -20 -20 -20
-20 -20 -20 -20 -20 -20 -20 -20 -20 -20 -20 -20 -20 -20 -20 -20 -20 -20 -20 -20 -9 8 13 17 18 19 18 20 21 20 19 17 16 18 16 11 7 8 2 -19 -20 -20 -20 -20 -20 -20 -20 -20 -20 -20 -20 -20 -20 -20
-20 -20 -20 -20 -20 -20 -20 -20 -20 -20 -20 -20 -20 -20 -20 -20 -20 -20 -20 -20 -10 5 12 15 16 16 17 17 17 17 19 18 16 13 8 2 -6 -14 -20 -20 -20 -20 -20 -20 -20 -20 -20 -20 -20 -20 -20 -20 -20 -20
-20 -20 -20 -20 -20 -20 -20 -20 -20 -20 -20 -20 -20 -20 -20 -20 -20 -20 -20 -20 -20 -0 7 11 13 14 14 13 12 10 8 6 4 4 3 -1 -10 -19 -20 -20 -20 -20 -20 -20 -20 -20 -20 -20 -20 -20 -20 -20 -20 -20

GFSWCAN_prec_radar_027.txt.gz
Reflectivity
11 12 16 18 9 13 11 17 -5 3 6 -20 -16 -20 9 11 17 16 3 23 22 4 -19 -10 -12 1 22 17 25 14 30 24 4 19 31 12 -9 -20 -20 -20 -20 -18 -19 -20 -20 -20 -20 -20 -20 -20 -20 -20 -20 -20
15 13 6 9 16 11 4 -3 -4 14 -4 -20 -20 3 6 6 20 15 20 34 -10 23 7 -20 -6 17 20 22 25 17 17 4 19 -4 -5 -9 3 -20 -20 -20 -20 -20 -20 -20 -20 -20 -20 -20 -20 -20 -20 -20 -20 -20
12 10 18 11 6 17 4 3 -18 5 -3 -20 -20 9 2 6 17 21 16 26 10 23 -2 -6 -5 15 -15 12 24 29 4 20 7 7 -6 -19 -20 -20 -20 -20 -20 -20 -20 -20 -20 -20 -20 -20 -20 -20 -20 -20 -20 -20
13 9 7 4 4 16 2 17 8 5 -1 -20 -6 8 5 -2 6 9 9 -4 10 26 -16 -13 -9 2 -18 6 26 29 27 24 28 19 3 -16 -20 -20 -20 -20 -20 -20 -20 -20 -20 -20 -20 -20 -20 -20 -20 -20 -20 -20
7 8 12 7 3 0 11 -6 1 7 -20 -20 -20 -19 14 -16 6 -5 -14 8 -19 24 19 15 -7 -20 -20 -11 26 28 28 24 26 31 22 7 -20 -20 -20 -20 -20 -20 -20 -20 -20 -20 -20 -20 -20 -20 -20 -20 -20 -20
9 6 4 4 -3 17 -11 7 2 -20 -20 -20 3 -20 -15 3 -2 -3 16 24 -4 8 17 1 -12 -20 -20 -20 -12 24 20 23 24 28 15 19 -19 -20 -20 -20 0 -20 -20 -20 -20 -20 -20 -20 -20 -20 -20 -20 -20 -20
7 -2 -15 -3 4 4 -4 -7 -20 -20 -15 6 -13 -20 -11 -16 5 13 1 -19 14 -10 19 9 -20 -20 -20 -20 -20 14 15 22 26 27 29 23 -19 -20 -20 -20 -20 -20 -20 -20 -20 -20 -20 -20 -20 -20 -20 -20 -20 -20
-7 -20 -20 -20 -12 -15 -20 -20 -13 4 -20 -20 -20 -14 5 -12 10 4 -20 -20 9 -1 6 15 -18 -20 -18 -20 -20 18 15 23 20 19 -2 7 -0 -18 -19 -20 -20 -20 -20 -20 -20 -20 -20 -20 5 -4 -0 -19 -20 -20
-20 -20 -20 -20 -20 -20 -20 1 -5 -20 -16 -20 -20 4 -15 -6 -7 -20 -20 -3 -16 -11 0 -16 -20 -20 -20 -20 -20 -17 18 25 12 5 -3 -14 -1 -8 -17 -20 -20 -20 -20 -20 -20 -20 -20 -20 -20 -20 -20 -20 -20 -20
-20 -20 -20 -20 -20 -20 -20 1 -9 8 -20 12 0 -0 -13 1 22 22 32 26 -14 -11 -12 -20 -20 -20 -20 -20 -20 -20 -19 -17 -20 -20 -20 -20 -19 -20 -20 -20 -20 -20 -20 -20 -20 -20 -20 -11 -20 -20 -20 -20 -20 -20
-20 -20 -20 -20 -20 -20 -20 -9 1 3 -20 8 12 13 20 10 28 31 38 27 17 15 -19 -20 -20 -20 -20 -20 1 -20 -20 -20 1 -20 -20 -20 -20 -20 -20 -20 -20 -20 -20 -20 -20 -20 -20 -20 -20 -20 -20 -20 -20 -20
-20 -20 -20 -20 -20 -20 -20 -18 1 -12 10 12 12 5 30 27 33 21 21 5 -7 -13 -20 -20 -20 -20 -20 -20 -20 -20 -20 -20 -20 -20 -20 -20 -20 -20 -20 -20 -20 -20 -20 -20 -20 -20 -20 -20 -20 -20 -20 -20 -20 -20
-20 -20 -20 -20 -20 -20 -20 -20 -5 5 4 -17 10 20 30 28 23 -4 -5 -5 -20 -20 -20 -5 -20 -20 -20 -20 -20 -20 -20 -20 -20 -20 -20 -20 -20 -20 -20 -20 -20 -20 -20 -20 -20 -20 -20 -20 -20 -20 -20 -20 -20 -20
-20 -20 -20 -20 -20 -20 -20 -20 -13 -9 -20 -20 4 16 10 14 -9 -10 -20 -20 -20 -20 1 11 7 -20 -20 -20 -17 -20 -20 -20 -20 -20 -20 -20 -20 -20 -20 -20 -20 -20 -20 -20 -20 -20 -20 -20 -20 -20 -20 -20 -20 -20
-20 -20 -20 -20 -20 -20 -20 -20 -13 -18 -20 -20 14 10 10 17 -14 -10 -11 -20 -20 -20 -20 -20 -20 -20 -20 -16 -20 -20 -20 -20 -20 -20 -20 -20 -20 -20 -20 -20 -20 -20 -20 -20 -20 -20 -20 -20 -20 -20 -20 -20 -20 -20
-20 -20 -20 -20 -20 -20 -20 -9 -11 -12 -19 -20 -2 4 8 -20 -18 -20 5 -20 -20 -20 -16 -20 -19 -20 -19 -20 -20 -20 -20 -20 -7 -20 -20 -20 -20 -20 -20 -20 -20 -20 -20 -20 -20 -20 -20 -20 -20 -20 -20 -20 -20 -20
-20 -20 -20 -20 -20 -20 -8 -10 -3 -1 -6 -19 -16 -10 -19 -20 -20 2 -20 6 -20 -20 -20 -20 -20 -20 -20 -20 -20 -20 -20 -20 -20 -20 -20 -20 -20 -20 -20 -20 -20 -20 -20 -20 -20 -20 -20 -20 -20 -20 -20 -20 -20 -20
-20 -20 -20 -20 -20 -20 -20 6 -6 -20 -20 -20 -20 -20 -20 -17 -9 13 -6 -20 -20 -20 -20 -20 -20 -20 -20 -20 -20 -20 -20 -20 -20 -20 -20 -20 -20 -20 -20 -20 -20 -20 -20 -20 -20 -20 -20 -20 -20 -20 -20 -20 -20 -20
-20 -20 -20 -20 -20 -20 -20 -20 -10 -20 -20 -20 -20 -20 -20 -20 -16 3 3 -20 -20 -0 8 -18 -20 -20 -20 -20 -20 -20 -20 -20 -20 -20 -20 -20 -20 -20 -20 -20 -20 -20 -20 -20 -20 -20 -20 -20 -20 -20 -20 -20 -20 -20
-20 -20 -20 -20 -20 -20 -20 -20 -20 -20 -20 -20 -20 -20 -20 -20 -20 14 20 6 -19 6 21 -10 -20 -20 -20 -20 -10 -20 -20 -20 -20 -20 -20 -20 -20 -20 -20 -20 -20 -20 -20 -20 -20 -20 -20 -20 -20 -20 -20 -20 -20 -20
-20 -20 -20 -20 -20 -20 -20 -20 -20 -20 -20 -20 -20 -20 -20 -0 -20 -19 25 28 22 30 14 -3 -20 -20 -3 4 5 -20 -20 -20 -20 -20 -20 -20 -20 -20 -20 -20 -20 -20 -20 -20 -20 -20 -20 -20 -20 -20 -20 -20 -20 -20
-20 -20 -20 -20 -20 -20 -20 -20 -20 -20 -20 -20 -20 -20 -20 -20 -14 1 10 21 23 12 -12 -15 -20 -20 -11 6 -4 -20 -20 -20 -20 -20 -20 -20 -20 -20 -20 -20 -20 -20 -20 -20 -20 -20 -20 -20 -20 -20 -20 -20 -20 -20
-20 -20 -20 -20 -20 -20 -20 -20 -20 -20 -20 -20 -20 -20 -20 -20 -3 11 17 15 -0 -4 -7 -15 -20 -19 -17 -2 -20 -20 -20 -20 -20 -20 -20 -20 -20 -20 -20 -20 -20 -20 -20 -20 -20 -20 -20 -20 -20 -20 -20 -20 -20 -20
-20 -20 -20 -20 -20 -20 -20 -20 -20 -20 -20 -20 -20 -20 -20 -20 -20 8 12 8 9 -9 -13 -14 -19 -20 -14 -20 -20 -20 -20 -20 -20 -20 -20 -20 -20 -20 -20 -20 -20 -20 -17 -17 -20 -20 -20 -20 -20 -20 -20 -20 -20 -20
-20 -20 -20 -20 -20 -20 -20 -20 -20 -20 -20 -20 -20 -20 -20 -20 -20 -16 2 4 14 15 16 15 14 16 11 -7 -9 -20 -20 -20 -20 -20 -20 -20 -5 -5 -15 -3 7 -2 -3 -18 -20 -20 -20 -20 -20 -20 -20 -20 -20 -20
-20 -20 -20 -20 -20 -20 -20 -20 -20 -20 -20 -20 -20 -20 -20 -20 -20 -20 -20 -2 9 13 7 8 11 13 14 9 4 9 6 6 -16 -20 -20 -20 -6 5 0 9 8 9 -3 -18 -10 -19 -20 -17 7 -1 -20 -20 -20 -20
-20 -20 -20 -20 -20 -20 -20 -20 -20 -20 -20 -20 -20 -20 -20 -20 -20 -20 -20 -19 1 7 7 9 17 20 21 19 17 16 16 9 -16 -20 -3 8 15 19 20 15 15 12 3 -1 -17 -15 11 12 -13 -20 -20 -20 -20 -20
-20 -20 -20 -20 -20 -20 -20 -20 -20 -20 -20 -20 -20 -20 -20 -20 -20 -20 -20 -20 -19 -1 7 10 9 12 16 16 13 15 14 12 10 11 15 20 22 22 21 17 10 3 -9 10 15 15 -7 -20 -20 -20 -20 -20 -20 -20
-20 -20 -20 -20 -20 -20 -20 -20 -20 -20 -20 -20 -20 -20 -20 -20 -20 -20 -20 -20 -20 -20 -15 1 11 10 11 8 12 11 14 15 12 12 2 11 18 12 -4 5 10 16 16 14 7 -20 -20 -20 -20 -20 -20 -20 -20 -20
-20 -20 -20 -20 -20 -20 -20 -20 -20 -20 -20 -20 -20 -20 -20 -20 -20 -20 -20 -20 -20 -20 -20 -5 4 7 1 6 6 7 7 7 19 17 14 9 5 8 12 20 21 17 13 2 -20 -20 -20 -20 -18 -19 -20 -20 -20 -20
-20 -20 -20 -20 -20 -20 -20 -20 -20 -20 -20 -20 -20 -20 -20 -20 -20 -20 -20 -20 -20 -20 -20 -20 -16 -7 7 13 14 14 16 20 21 20 19 18 18 19 19 17 14 7 -13 -20 -20 -20 -20 -20 -20 -20 -20 -20 -20 -20
-20 -20 -20 -20 -20 -20 -20 -20 -20 -20 -20 -20 -20 -20 -20 -20 -20 -20 -20 -20 -20 -20 -10 -0 8 8 11 14 16 18 19 16 14 17 21 21 19 17 13 7 1 -2 -13 -17 -20 -20 -20 -20 -20 -20 -20 -20 -20 -20
-20 -20 -20 -20 -20 -20 -20 -20 -20 -20 -20 -20 -20 -20 -20 -20 -20 -20 -20 -20 -20 -18 -1 6 9 11 14 16 17 18 19 20 20 21 22 20 17 13 8 1 -16 -20 -20 -20 -20 -20 -20 -20 -20 -20 -20 -20 -20 -20

GFSWCAN_prec_radar_030.txt.gz
Reflectivity
-6 7 7 12 11 11 5 4 12 -10 3 6 0 -20 -9 9 11 3 22 -0 17 -13 -20 -20 -4 -2 -11 -12 27 22 25 30 24 -0 12 -3 -19 -20 -20 -20 -20 -20 -20 -14 -6 -18 -20 -20 -20 -20 -20 -20 -20 -20
5 4 8 4 6 -18 2 -6 17 14 -3 5 -19 -20 13 11 17 -1 8 -3 -1 6 -6 -20 -20 -20 -8 21 28 27 23 31 12 -12 -14 -17 -19 -16 -20 -20 -20 -20 -20 -20 -20 -20 -20 -20 -20 -20 -20 -20 -20 -20
8 5 3 9 9 9 4 -2 20 -8 -1 -2 -20 -20 13 10 10 6 14 0 11 25 -20 -20 -20 -20 -4 5 29 31 24 24 24 -19 -1 -8 -20 -20 -20 -20 -20 -20 -20 -20 -20 -20 -20 -20 -20 -20 -20 -20 -20 -20
8 2 -7 6 -5 6 8 -9 5 4 3 -20 -20 -16 7 4 9 12 5 -1 18 -12 -20 -20 -18 -5 24 17 24 32 29 22 9 24 18 -10 -20 -20 -20 -20 -20 -20 -20 -20 -20 -20 -20 -20 -20 -20 -20 -20 -20 -20
8 -20 -9 -8 -6 -1 2 7 8 -16 -20 -20 -20 -1 2 -16 -12 -8 16 1 7 12 11 -3 -9 7 18 -6 25 30 28 28 21 18 -11 15 -8 3 -9 -20 -20 -20 -20 -20 -20 -20 -20 -20 -20 -20 -20 -20 -20 -20
7 -20 -20 -20 -20 -20 -20 -20 -20 -20 -20 5 5 -19 -20 -20 -20 -20 -17 -20 -5 -20 19 17 13 -20 13 -11 11 26 26 25 23 22 21 20 23 -2 -15 -20 -20 -20 -20 -20 -20 -20 -20 -20 -20 -20 -20 -20 -20 -20
5 -20 -20 -20 -20 -20 -20 -20 -20 3 -20 -16 2 -14 -8 7 -12 -1 3 17 6 17 16 -1 -3 -20 -20 -20 -20 15 24 26 21 18 6 9 -17 5 -19 -20 -20 -20 -20 -20 -20 -20 -20 -20 -20 -20 -20 -20 -20 -20
2 -20 -20 -20 -20 -20 -20 -20 -11 -14 11 8 3 9 11 8 -4 -2 -1 12 -5 21 -20 21 -2 -20 -20 -12 -20 -3 16 20 26 25 1 -10 -12 -16 -20 -20 -20 -20 -20 -20 -20 -2 -19 -20 -20 -20 -20 -17 -17 -16
-1 -7 -19 -20 -20 -20 -20 -20 -20 -3 -3 -20 0 8 -8 -7 -16 2 27 5 -10 0 3 -19 -20 -20 -20 0 -20 -20 10 21 24 19 -10 -10 -1 -20 -20 -20 -20 -20 -20 -20 -20 -18 -20 -20 -20 -2 -15 -19 -18 -20
-20 -5 -20 -20 -20 -20 -20 -20 -20 -1 -20 -5 8 16 -19 -20 14 26 32 17 21 -1 8 10 -20 -20 -20 -20 -20 -20 -20 15 -20 -20 -20 -20 -20 -20 -20 -20 -20 -20 -20 -20 -20 -14 -20 -20 -20 -20 -20 -20 -20 -20
-20 -20 -20 -20 -20 -20 -20 -20 -18 -7 -20 -4 13 10 14 3 26 16 27 25 19 -12 -13 -20 -20 -20 -20 -20 -20 -20 -20 -20 -9 -20 -20 -6 -20 -20 -20 -20 -20 -20 -20 -20 -20 -20 -20 -20 -20 -20 -20 -20 -20 -20
-20 -20 -20 -20 -20 -20 -20 -20 -15 -19 -9 2 9 4 14 18 24 31 27 20 -5 -17 3 -20 -20 -20 -20 -20 -20 -20 -20 -20 -20 -20 -20 -20 -20 -20 -20 -20 -20 -20 -20 -20 -20 -20 -20 -20 -20 -20 -20 -20 -20 -20
-20 -20 -20 -20 -20 -20 -20 -20 -20 3 -17 -20 -7 18 18 19 13 7 -17 7 -16 -20 -20 3 -17 -20 -20 -20 -20 -20 -20 -17 -20 -20 -20 -20 -20 -20 -20 -20 -20 -20 -20 -20 -20 -20 -20 -20 -20 -20 -20 -20 -20 -20
-20 -20 -20 -20 -20 -20 -20 -20 -20 9 -14 -20 -20 7 1 0 10 11 -15 -16 -20 -20 -7 -16 -20 -20 -20 -20 -20 -20 -20 -20 -20 -20 -20 -20 -20 -20 -20 -20 -20 -20 -20 -20 -20 -20 -20 -20 -20 -20 -20 -20 -20 -20
-20 -20 -20 -20 -20 -20 -20 -20 7 -15 4 -20 -20 -19 -17 16 12 -1 5 -20 -20 -20 -20 -20 -20 -20 -20 -20 -20 -20 -20 -20 -20 -20 -20 -20 -20 -20 -20 -20 -20 -20 -20 -20 -20 -20 -20 -20 -20 -20 -20 -20 -20 -20
-20 -20 -20 -20 -20 -20 -20 -19 -7 7 9 -19 -20 -20 -13 -18 -20 -20 -20 -20 -20 -20 -20 -17 -15 -18 -17 -20 -20 -20 -20 -20 -20 -20 -20 -20 -20 -20 -20 -20 -20 -20 -20 -20 -20 -20 -20 -20 -20 -20 -20 -20 -20 -20
-20 -20 -20 -20 -20 -20 -20 -10 0 -18 -0 8 -19 -20 -20 -20 -20 -20 26 -20 -20 -20 -9 -5 -20 -20 -20 -20 -20 -20 -20 -20 -20 -20 -20 -20 -20 -20 -20 -20 -20 -20 -20 -20 -20 -20 -20 -20 -20 -20 -20 -20 -20 -20
-20 -20 -20 -20 -20 -20 -20 -20 -6 -2 1 -20 -20 -20 -20 -20 -20 -20 21 23 -6 15 20 -0 -20 -20 -20 -20 -20 -20 -20 -20 -20 -20 -20 -20 -20 -20 -20 -20 -20 -20 -20 -20 -20 -20 -20 -20 -20 -20 -20 -20 -20 -20
-20 -4 -20 -20 -20 -20 -20 -20 -20 -20 -20 -20 -20 -20 -20 -20 -20 -20 -20 28 25 13 24 9 -19 -20 -20 -20 -20 -20 -20 -20 -20 -20 -20 -20 -20 -20 -20 -20 -20 -20 -20 -20 -20 -20 -20 -20 -20 -20 -20 -20 -20 -20
-20 -20 -20 -20 -20 -20 -20 -20 -20 -20 -20 -20 -20 -20 -20 -20 -20 -20 -17 -12 27 26 16 19 -3 -20 -20 -20 -20 -20 -20 -20 -20 -20 -20 -20 -20 -20 -20 -20 -20 -20 -20 -20 -20 -20 -20 -20 -20 -20 -20 -20 -20 -20
-20 -20 -20 -20 -20 -20 -20 -20 -20 -20 -20 -20 -20 -20 -20 -20 -20 -20 -8 7 9 24 19 13 -3 -17 -19 -20 -20 -20 -20 -20 -20 -20 -20 -20 -20 -20 -20 -20 -20 -20 -20 -20 -20 -20 -20 -20 -20 -20 -20 -20 -20 -20
-20 -20 -20 -20 -20 -20 -20 -20 -20 -20 -20 -20 -20 -20 -20 -20 -20 -20 -20 -12 17 5 5 8 7 1 -16 -20 -20 -20 -17 -15 -20 -20 -20 -20 -20 -20 -20 -20 -20 -20 -20 -20 -20 -20 -20 -20 -20 -20 -20 -20 -20 -20
-20 -20 -20 -20 -20 -20 -20 -20 -20 -20 -20 -20 -20 -20 -20 -20 -20 -20 -19 -20 7 13 0 -3 7 14 19 11 -13 -20 -7 5 -20 -20 -20 -20 -20 -20 -20 -20 -20 -20 -20 -20 -20 -20 -20 -20 -20 -20 -20 -20 -20 -20
-20 -20 -20 -20 -20 -20 -20 -20 -20 -20 -20 -20 -20 -20 -20 -20 -20 -20 -20 -20 -20 7 15 12 14 14 18 20 21 17 8 -5 -15 -20 -20 -20 -20 -20 -20 -20 -20 -20 -8 -10 -20 -10 -1 -13 -20 -20 -20 -20 -20 -20
-20 -20 -20 -20 -20 -20 -20 -20 -20 -20 -20 -20 -20 -20 -20 -20 -20 -20 -20 -20 -20 -14 5 14 7 -10 4 8 9 18 17 11 1 -20 -20 -20 -20 -20 -20 -20 -1 7 -9 -10 8 4 -8 -4 -9 -18 -20 -19 4 -10
-20 -20 -20 -20 -20 -20 -20 -20 -20 -20 -20 -20 -20 -20 -20 -20 -20 -20 -20 -20 -20 -20 -17 3 9 4 -17 6 13 15 16 8 -9 -20 -20 -20 -20 -20 -16 -14 -7 -17 1 8 12 5 -3 -10 -4 -11 -11 14 -0 -20
-20 -20 -20 -20 -20 -20 -20 -20 -20 -20 -20 -20 -20 -20 -20 -20 -20 -20 -20 -20 -20 -20 -20 -19 -2 -6 -20 -18 -4 7 19 20 11 -20 -20 -20 -20 -13 10 16 14 12 13 18 13 1 0 -1 -15 10 16 -9 -20 -20
-20 -20 -20 -20 -20 -20 -20 -20 -20 -20 -20 -20 -20 -20 -20 -20 -20 -20 -20 -20 -20 -20 -20 -20 -14 4 3 3 9 17 18 16 6 -4 1 -1 6 16 19 20 21 19 22 15 8 -9 -4 7 15 8 -19 -20 -20 -20
-20 -20 -20 -20 -20 -20 -20 -20 -20 -20 -20 -20 -20 -20 -20 -20 -20 -20 -20 -20 -20 -20 -20 -20 -20 5 11 12 11 12 18 16 14 7 -7 -19 -8 14 21 21 22 20 -2 -17 7 12 16 14 -7 -20 -20 -20 -20 -20
-20 -20 -20 -20 -20 -20 -20 -20 -20 -20 -20 -20 -20 -20 -20 -20 -20 -20 -20 -20 -20 -20 -20 -20 -20 -20 4 12 13 15 15 14 12 12 9 3 9 12 15 21 10 6 14 17 16 13 12 -11 -20 -20 -20 -20 -20 -20
-20 -20 -20 -20 -20 -20 -20 -20 -20 -20 -20 -20 -20 -20 -20 -20 -20 -20 -20 -20 -20 -20 -20 -20 -20 -20 -10 5 12 13 14 14 14 13 13 18 19 19 19 13 15 20 20 17 19 12 -11 -20 -20 -20 -20 -20 -20 -20
-20 -20 -20 -20 -20 -20 -20 -20 -20 -20 -20 -20 -20 -20 -20 -20 -20 -20 -20 -20 -20 -20 -20 -20 -20 -20 -6 8 14 14 12 14 15 13 13 14 13 17 18 20 20 18 16 7 -2 -20 -20 -20 -20 -20 -20 -20 -20 -20
-20 -20 -20 -20 -20 -20 -20 -20 -20 -20 -20 -20 -20 -20 -20 -20 -20 -20 -20 -20 -20 -20 -20 -17 -8 -6 1 6 11 14 17 20 22 22 23 22 20 20 17 11 4 1 4 3 -4 -14 -15 -20 -20 -20 -20 -20 -20 -20

GFSWCAN_prec_radar_033.txt.gz
Reflectivity
-12 -10 15 15 10 8 5 6 4 17 -18 -11 10 -20 -20 -20 13 -6 25 28 14 -19 -20 -20 -20 -20 -20 -14 -10 8 25 9 26 27 10 -8 -18 -2 -20 -20 -20 -20 -8 -12 -16 -18 -20 -20 -20 -20 -20 -20 -20 -18
-19 -4 13 8 7 -3 2 1 7 3 -19 0 -19 -20 -20 -13 15 10 4 9 -8 -20 -20 -20 -20 -20 -20 -5 7 22 23 26 29 23 -18 -20 -19 -20 -20 -20 -20 -20 -20 -20 -20 -20 -20 -20 -20 -20 -20 -20 -20 -20
-20 2 4 7 -11 -6 -6 4 10 9 6 -20 -20 -20 -20 1 -0 6 19 19 -6 3 -20 -20 -20 -20 -10 -16 -12 30 23 20 25 -20 -15 -20 10 -20 -18 -20 -20 -20 -20 -20 -20 -20 -20 -20 -20 -20 -20 -20 -20 -20
-12 3 -1 1 -20 -20 -20 -20 -15 -20 -20 -20 -20 -11 2 -20 -20 -20 -1 13 7 18 -20 -20 -20 -20 -2 -3 27 22 23 12 12 24 -8 -0 -15 -20 -20 -20 -20 -20 -20 -20 -20 -20 -20 -20 -20 -20 -20 -20 -20 -20
1 6 -7 -3 -20 -20 -20 -20 -20 -20 -20 -1 -16 -20 -20 -20 -20 -20 -8 -13 20 11 19 7 -2 -20 -20 4 24 22 29 22 10 26 26 13 -20 -20 -20 -20 -20 -20 -20 -20 -20 -20 -20 -20 -20 -20 -20 -20 -20 -20
3 5 -5 -1 -20 -20 -20 -20 -20 -20 -20 -20 -0 9 1 -20 -20 -0 25 23 30 24 3 4 -12 -20 -20 11 16 24 26 24 11 8 -6 -8 -19 -20 -20 -20 -20 -20 -20 -20 -20 -20 -20 -20 -20 -20 -20 -20 -20 -19
4 -1 -1 -0 -20 -20 -20 -20 -20 -20 -16 8 11 13 15 7 -20 -5 6 4 7 12 9 -4 -6 -20 -20 0 -20 11 27 25 19 22 24 27 5 -10 11 -19 -20 -20 -20 -20 -20 -20 -20 -20 -20 -20 -20 -20 7 -7
3 -6 -9 1 -20 -20 -20 -20 -20 -20 -5 -1 2 9 12 13 -7 -11 -5 13 -17 22 -7 -2 -20 -20 -20 -14 -20 -20 21 22 22 22 18 -6 -4 15 -9 -20 -20 -20 -20 -20 -20 -20 -20 5 -20 -13 -20 -16 -17 -20
4 -5 -3 1 -20 -20 -20 -20 -20 -20 -20 -6 8 11 -12 -20 -9 25 19 15 19 6 -20 -19 -17 -20 -20 -6 -20 -20 -11 19 13 19 22 21 -4 -15 -20 -20 -20 -20 -20 -20 -20 -20 -7 14 -12 5 8 9 23 -6
1 -7 -2 -2 -20 -20 -20 -20 -20 -20 -20 -20 -7 -12 19 -7 24 24 21 9 8 -16 2 4 -20 -20 -20 -20 -4 -20 -20 19 20 -2 -3 -3 -16 -7 -20 -20 -20 -20 -20 -20 -20 -20 22 -6 -20 -20 -20 -20 -20 -20
-20 -18 1 -3 -20 -20 -20 -20 -20 -20 -20 -20 -8 -2 -0 21 24 26 32 7 21 18 -20 -20 -20 -20 -20 -20 -20 -20 -5 -12 -20 -19 -18 -20 -20 -20 -20 -20 -20 -20 -20 -20 -20 -20 -19 -20 -20 -20 -20 -20 -20 -20
-20 -5 -4 -1 -20 -20 -20 -20 -20 -20 -20 -9 6 -6 -18 16 1 -20 8 21 -14 -19 -20 -20 -20 -20 -20 -20 -20 -16 -20 -20 -20 -20 -20 -20 -20 -20 -20 -20 -20 -20 -20 -20 -20 -20 -20 -20 -20 -20 -20 -20 -20 -20
-20 -13 -4 -17 -20 -20 -20 -20 -20 -10 -19 -20 -20 1 -18 22 19 18 -19 -2 -20 -20 -20 -20 -20 -20 -20 -20 -20 -20 3 -9 -20 -20 -20 -20 -20 -20 -20 -20 -20 -20 -20 -20 -20 -20 -20 -20 -20 -20 -20 -20 -20 -20
-20 -20 -8 -20 -20 -20 -20 -20 -20 5 -20 -20 -18 -20 -20 -6 5 2 -9 -20 -20 -20 -20 7 0 -20 -20 -20 -20 -7 -20 -20 -20 -20 -20 -20 -20 -20 -20 -20 -20 -20 -20 -20 -20 -20 -20 -20 -20 -20 -20 -20 -20 -20
-20 -20 -20 -20 -20 -20 -20 -20 7 -18 -20 -14 -18 -20 -20 -1 -2 10 14 -18 -20 -20 -20 16 8 -2 -20 -20 -20 -20 -9 -20 -20 -20 -20 -20 -20 -20 -20 -20 -20 -20 -20 -20 -20 -20 -20 -20 -20 -20 -20 -20 -20 -20
-20 -20 -20 -20 -20 -20 -20 -20 -10 -20 -12 -20 -20 -20 -20 -20 -20 -20 -20 -20 -20 -20 -20 -1 3 -5 -2 -20 -20 -20 -20 -20 -20 -20 -20 -20 -20 -20 -20 -20 -20 -20 -20 -20 -20 -20 -20 -20 -20 -20 -20 -20 -20 -20
-20 -20 -20 -20 -20 -20 -20 -20 -19 -19 -20 -20 -20 -19 -20 -20 -20 -20 -19 -20 -16 -2 12 18 2 -20 -20 -20 -20 -20 -20 -20 -20 -20 -20 -20 -20 -20 -20 -20 -20 -20 -20 -20 -20 -20 -20 -20 -20 -20 -20 -20 -20 -20
-20 -20 -20 -20 -20 -20 -20 -20 -7 2 -20 -17 -20 -20 -20 -20 -20 -20 -20 -20 9 25 12 20 -15 -19 -20 -20 -20 -20 -20 -20 -20 -20 -20 -20 -20 -20 -20 -20 -20 -20 -20 -20 -20 -20 -20 -20 -20 -20 -20 -20 -20 -20
-20 -20 -20 -20 -20 -20 -20 -20 -20 -20 -20 -19 -15 -20 -20 -20 -20 -20 -20 -20 -15 21 19 19 17 -15 -20 -20 -20 -20 -20 -20 -20 -20 -20 -20 -20 -20 -20 -20 -20 -20 -20 -20 -20 -20 -20 -20 -8 -20 -20 -20 -20 -20
-16 -20 -20 -20 -20 -20 -20 -20 -20 -20 -20 -20 -20 -20 -20 -20 -20 -20 -20 -3 -14 5 2 13 5 5 -20 -20 -20 -20 -20 -20 -20 -20 -20 -20 -20 -20 -20 -20 -20 -20 -20 -20 -20 -20 -20 -20 -20 -20 -12 -20 -20 -20
-20 -20 -20 -20 -20 -20 -20 -20 -20 -20 -20 -20 -20 -20 -20 -20 -20 -20 1 -4 11 -15 -16 -18 -20 -20 14 15 -6 -20 -20 -20 -20 -20 -20 -20 -20 -20 -20 -20 -20 -20 -20 -20 -20 -20 -19 -19 -17 -20 -20 -20 -20 -20
-20 -20 -20 -20 -20 -20 -20 -20 -20 -20 -20 -20 -18 -20 -20 -20 -20 -20 -20 -20 -20 -20 -20 -20 -20 -1 -5 14 20 17 -19 -20 -20 -20 -20 -20 -20 -20 -20 -20 -20 -20 -20 -20 -20 -20 -20 -20 -20 -20 -20 -20 -20 -20
-20 -20 -20 -20 -20 -20 -20 -20 -20 -20 -20 -20 -20 -20 -20 -20 -20 -20 -20 -20 -20 -20 -20 -20 -20 -4 9 -2 13 9 18 2 -19 -20 6 -18 -20 -20 -20 -20 -20 -20 -20 -20 -20 -20 3 -16 -20 -20 -20 -20 -20 -20
-20 -20 -20 -20 -20 -20 -20 -20 -20 -20 -20 -20 -20 -20 -20 -20 -20 -20 -20 -20 -20 -20 -20 -20 -20 -20 6 10 7 13 11 15 14 0 19 17 -20 -20 -20 -20 -20 -20 -20 -9 -20 -17 -20 -20 -18 -8 -20 -20 -20 -20
-20 -20 -20 -20 -20 -20 -20 -20 -20 -20 -20 -20 -20 -20 -20 -20 -20 -20 -20 -20 -20 -20 -20 -20 -20 -20 -19 3 7 -9 16 21 18 16 21 16 -9 -20 -20 -20 -20 -20 -7 -10 -20 -20 -20 -4 -0 -1 -4 -19 -20 -20
-20 -20 -20 -20 -20 -20 -20 -20 -20 -20 -20 -20 -20 -20 -20 -20 -20 -20 -20 -20 -20 -20 -20 -20 -20 -20 -20 -8 -1 9 7 11 10 12 19 18 2 -20 -20 -20 -20 -20 -7 4 15 1 7 3 5 -10 -12 -15 -14 15
-20 -20 -20 -20 -20 -20 -20 -20 -20 -20 -20 -20 -20 -20 -20 -20 -20 -20 -20 -20 -20 -20 -20 -20 -20 -20 -20 -20 -10 -1 10 13 13 9 10 15 11 -20 -20 -18 -8 -5 6 14 5 11 9 9 4 -20 -20 -3 11 8
-20 -20 -20 -20 -20 -20 -20 -20 -20 -20 -20 -20 -20 -20 -20 -20 -20 -20 -20 -20 -20 -20 -20 -20 -20 -20 -20 -20 -20 -10 -5 3 13 16 17 18 11 -13 -5 -5 8 22 24 16 17 13 8 -4 -20 -6 8 10 1 -20
-20 -20 -20 -20 -20 -20 -20 -20 -20 -20 -20 -20 -20 -20 -20 -20 -20 -20 -20 -20 -20 -20 -20 -20 -20 -20 -20 -20 -20 -8 4 6 13 15 15 14 12 -6 7 11 16 20 15 16 19 13 1 -7 10 12 13 -1 -20 -20
-20 -20 -20 -20 -20 -20 -20 -20 -20 -20 -20 -20 -20 -20 -20 -20 -20 -20 -20 -20 -20 -20 -20 -20 -20 -20 -20 -20 -20 -12 8 11 12 14 15 16 11 9 12 11 13 14 18 19 9 -8 -1 15 15 8 -11 -20 -20 -20
-20 -20 -20 -20 -20 -20 -20 -20 -20 -20 -20 -20 -20 -20 -20 -20 -20 -20 -20 -20 -20 -20 -20 -20 -20 -20 -20 -20 -20 5 8 11 11 14 17 18 16 18 17 18 20 21 20 10 14 19 20 15 15 4 -19 -20 -20 -20
-20 -20 -20 -20 -20 -20 -20 -20 -20 -20 -20 -20 -20 -20 -20 -20 -20 -20 -20 -20 -20 -20 -20 -20 -20 -20 -20 -20 -20 -0 12 17 18 18 16 14 12 17 20 20 18 14 17 18 20 20 19 14 -13 -20 -20 -20 -20 -20
-20 -20 -20 -20 -20 -20 -20 -20 -20 -20 -20 -20 -20 -20 -20 -20 -20 -20 -20 -20 -20 -20 -20 -20 -20 -20 -20 -17 -15 4 11 14 18 21 22 21 19 17 19 18 20 21 20 17 14 8 6 0 -20 -20 -20 -20 -20 -20

GFSWCAN_prec_radar_036.txt.gz
Reflectivity
-20 -20 -19 5 -1 -15 -20 -20 1 -2 1 3 1 -20 -20 -20 -20 -12 9 17 8 13 -12 -10 -15 -20 -20 -13 -7 -3 4 3 17 25 19 -7 -20 -17 -20 -20 -20 -20 -11 -7 2 13 -20 -20 -20 -20 -20 -20 -20 13
-20 1 18 5 -8 -20 -20 -20 -18 -17 -19 -20 -20 -20 -20 -20 -14 -14 7 8 10 -2 -17 -20 -20 -20 -14 -15 -18 -20 -7 -20 -10 11 0 -6 -20 -19 -20 -3 -20 -19 -20 -17 -20 -20 -20 -20 -20 -20 -20 -20 -20 -20
-11 -1 17 -1 -20 -20 -20 -20 -20 -20 -20 -20 -20 -17 -4 -17 -20 -20 -1 9 -20 3 6 -20 -20 -20 -20 -20 -20 -12 -2 13 5 3 22 -18 14 -15 7 -20 -20 -20 -20 -20 -20 -20 -20 -20 -20 -20 -20 -20 -20 -20
-12 -0 7 -1 -20 -20 -20 -20 -20 -20 -20 -20 -20 -17 -20 -20 -20 -20 -10 3 -20 11 5 -20 -20 -20 -17 8 -6 17 17 18 21 15 7 8 -3 -20 -14 -20 -20 -20 -20 -20 -20 -20 -20 -20 -20 -20 -20 -20 -20 -20
-1 10 8 1 -20 -20 -20 -20 -20 -20 -20 -20 10 -16 -14 7 -20 -20 -17 8 -0 16 17 -8 -20 -20 -20 -12 15 26 26 28 23 15 13 5 -12 -12 -20 -20 -20 -20 -20 -20 -20 -20 -20 -20 -20 -20 -20 -20 -20 -20
-20 12 1 -0 -20 -20 -20 -20 -2 -5 -20 -1 13 10 6 5 7 -20 -1 6 20 10 20 1 6 -20 -20 -20 13 28 26 27 21 19 21 -3 -2 -6 3 -19 -20 -20 -20 -20 -20 -20 -20 -20 -20 -20 -20 -20 -20 -20
-12 7 -5 -19 -20 -20 -20 -6 -20 -9 -20 -2 15 11 8 8 1 1 2 14 20 8 19 -2 -13 -20 -20 -20 -7 18 27 28 19 18 5 7 -16 -18 -3 -15 -20 -20 -20 -20 -20 -20 -20 -20 -20 -20 -20 -20 -20 -4
-8 7 3 -20 -20 -20 -12 -8 -20 -20 -20 -5 -10 -9 13 13 3 19 5 13 -14 -1 0 -19 -19 -12 -20 -19 -20 -19 21 25 25 20 19 4 -12 16 -13 -20 -20 -20 -20 -20 -20 -20 -20 -20 -20 -16 -20 -20 -20 -7
-11 0 -13 -20 -20 -20 -11 -20 -20 -20 -20 -6 9 8 -6 -15 -20 -15 8 16 -20 20 -6 -8 -20 -20 -20 -20 -20 -20 -8 27 18 18 -2 12 8 -7 -20 -20 -20 -20 -20 -20 -20 -20 -20 -20 -1 -15 -20 -20 -20 20
-14 6 -20 -1 -20 -20 -14 -20 -20 -20 -20 -20 -20 -20 1 -9 18 16 12 13 1 28 -13 -8 -20 -20 -20 -20 -20 -20 -12 -0 30 24 19 6 -20 -20 -20 -20 -20 -20 -20 -20 -20 -20 -20 -20 -20 -20 -20 -20 -20 -20
-20 -2 -7 -10 -20 -20 -20 -20 -20 -20 -20 -20 -20 -20 -12 27 29 31 18 -12 9 -10 -6 -10 -20 -20 -20 -20 -20 -20 -19 -11 -13 -20 -15 -20 -20 -20 -20 -20 -20 -20 -20 -20 -20 -20 13 -20 -20 -20 -20 -20 -20 -20
7 -20 -16 -20 -17 -20 -20 -20 -20 -20 -3 4 6 -20 22 16 19 1 15 -0 18 -19 -20 -20 -18 -20 -20 -20 -20 -20 -15 -11 -11 -20 -17 -20 -20 -20 -20 -20 -20 -20 -20 -20 -20 -20 -20 -20 -20 -20 -20 -20 -20 -20
6 -20 -20 -20 -20 -20 -20 -20 -20 -20 -20 -20 -18 -19 -17 -5 4 -0 -17 -20 -14 -20 -20 -1 -2 -20 -20 -20 -20 -20 -16 -17 -20 -18 -20 -20 -20 -20 -20 -20 -20 -20 -20 -20 -20 -20 -20 -20 -20 -20 -20 -20 -20 -20
-7 -20 -20 -20 -20 -20 -20 -20 -20 -16 -20 -20 -20 -20 -20 -20 -20 -20 -20 -20 -20 -20 -17 14 11 -7 -6 -18 -20 -20 -20 -20 -20 -20 -20 -20 -20 -20 -20 -20 -20 -20 -20 -20 -20 -20 -20 -20 -20 -20 -20 -20 -20 -20
-20 -20 -20 -20 -20 -20 -20 -20 -12 -20 -20 -13 -20 -20 -20 -18 -20 -15 -7 -13 -20 -20 -20 2 9 -13 4 -18 -20 -20 -20 -20 -20 -20 -20 -20 -20 -20 -20 -20 -20 -20 -20 -20 -20 -20 -20 -20 -20 -20 -20 -20 -20 -20
-20 -20 -20 -20 -20 -20 -20 -20 -20 -18 0 -20 -20 -20 -20 -20 -20 -20 -20 -20 -20 -20 -20 -8 5 -16 -17 -20 -20 -20 -20 -20 -20 -20 -20 -20 -20 -20 -20 -20 -20 -20 -20 -20 -20 -20 -20 -20 -20 -20 -20 -20 -20 -14
-9 -20 -20 -20 -20 -20 -20 -20 -20 -20 -20 -20 -20 -20 -20 -20 -20 -20 -20 -20 -20 -20 -20 1 12 -16 -20 -20 -20 -20 -20 -20 -20 -20 -20 -20 -20 -20 -20 -20 -20 -20 -20 -20 -20 -20 -20 -20 -20 -20 -20 -20 -20 -14
-20 -20 -20 -20 -20 -20 -20 -20 -19 -20 -20 -20 -20 -20 -20 -20 -20 -20 -20 -18 -10 4 26 -6 -12 12 -15 -20 -20 -20 -20 -20 -20 -20 -20 -20 -20 -20 -20 -20 -20 -20 -20 -20 -20 -20 -20 -20 -20 -20 -20 -9 -18 -20
-20 -20 -20 -20 -20 -20 -20 -20 -20 -20 -20 -20 -20 -20 -20 -20 -20 -20 -20 -20 -16 -14 -13 7 -15 -20 -20 -17 -17 -20 -20 -20 -20 -20 -20 -20 -20 -20 -20 -20 -20 -20 -20 -20 -20 -20 -20 -20 -16 -17 -16 2 -20 -20
3 -20 -20 -20 -20 -20 -20 -20 -20 -20 -20 -20 -20 -20 -20 -20 -20 -20 -20 -20 -17 -0 -17 -18 -20 -20 -20 -6 0 -8 -20 -20 -20 -20 -20 -20 -20 -20 -20 -20 -20 -20 -20 -20 -20 -20 -20 -20 -17 -19 9 -5 -4 -20
0 -9 -20 -20 -20 -20 -20 -20 -20 -20 -20 -20 -20 -20 -20 -20 -20 -20 -20 -20 1 -6 1 -20 -20 -20 -20 -20 -20 -19 1 -10 -20 -20 -20 -20 -20 -20 -20 -20 -20 -20 -20 -20 -20 -20 -20 -20 -19 -1 -18 -20 -9 -20
7 -14 -20 -20 -20 -20 -20 -20 -20 -20 -20 -20 -20 -20 -20 -20 -20 -20 -20 -20 -20 -20 -20 -20 -20 -20 -20 -20 -20 -20 -20 -8 -1 -20 -20 -20 -20 -20 -20 -20 -20 -20 -20 -20 -20 -20 -20 -20 -5 -20 -19 -11 -20 -20
-0 -9 -19 -20 -20 -20 -20 -20 -20 -20 -20 -20 -20 -20 -20 -20 -20 -20 -20 -20 -20 -20 -20 -20 -20 -20 -20 -20 -20 -20 -13 -20 -6 -1 -2 -20 -20 -20 -20 -20 -20 -20 -20 -20 -20 -20 -20 -20 -20 -20 -20 -20 -20 -20
9 2 -15 -20 -20 -20 -20 -20 -20 -20 -20 -20 -20 -20 -20 -20 -20 -20 -20 -20 -20 -20 -20 -20 -20 -20 -20 -20 -20 -20 -20 -20 -17 7 8 20 10 -20 -20 -20 -20 -20 -20 -20 -13 -17 -19 -10 -19 -19 -20 -20 -18 -20
-18 -20 -20 -20 -20 -20 -20 -20 -20 -20 -20 -20 -20 -20 -20 -20 -20 -20 -20 -20 -20 -20 -20 -20 -20 -20 -20 -20 -20 -20 -20 -20 -20 -19 7 12 15 18 13 8 -20 -20 -20 -20 -5 -15 -17 -19 -8 -1 4 -14 -20 -20
-20 -20 -20 -20 -20 -20 -20 -20 -20 -20 -20 -20 -20 -20 -20 -20 -20 -20 -20 -20 -20 -20 -20 -20 -20 -20 -20 -20 -20 -20 -20 -20 -20 -11 4 17 15 14 14 5 -20 -20 -17 -20 -16 -6 5 8 7 3 -12 -20 -20 -20
-20 -20 -20 -20 -20 -20 -20 -20 -20 -20 -20 -20 -20 -20 -20 -20 -20 -20 -20 -20 -20 -20 -20 -20 -20 -20 -20 -20 -20 -20 -20 -20 -20 -20 7 17 20 23 24 19 -13 -14 1 -4 -12 12 20 6 5 5 3 2 -1 -1
-20 -20 -20 -14 -20 -20 -20 -20 -20 -20 -20 -20 -20 -20 -20 -20 -20 -20 -20 -20 -20 -20 -20 -20 -20 -20 -20 -20 -20 -20 -20 -20 -20 -20 -10 13 18 22 24 23 13 2 8 15 20 24 17 10 6 6 9 -1 1 7
-19 0 -7 -20 -20 -20 -20 -20 -20 -20 -20 -20 -20 -20 -20 -20 -20 -20 -20 -20 -20 -20 -20 -20 -20 -20 -20 -20 -20 -20 -20 -20 -20 -20 -20 -3 16 18 16 14 18 17 15 18 23 18 10 15 13 13 -1 4 9 -1
-3 -20 -20 -20 -20 -20 -20 -20 -20 -20 -20 -20 -20 -20 -20 -20 -20 -20 -20 -20 -20 -20 -20 -20 -20 -20 -20 -20 -20 -20 -20 -20 -20 -20 -20 -20 9 16 18 19 20 19 20 19 17 20 20 13 15 6 8 13 -0 -20
-20 -20 -20 -20 -20 -20 -20 -20 -20 -20 -20 -20 -20 -20 -20 -20 -20 -20 -20 -20 -20 -20 -20 -20 -20 -20 -20 -20 -20 -20 -20 -20 -20 -20 -10 -6 10 13 14 16 17 18 19 22 21 11 13 12 10 18 23 16 3 -20
-20 -20 -20 -20 -20 -20 -20 -20 -20 -20 -20 -20 -20 -20 -20 -20 -20 -20 -20 -20 -20 -20 -20 -20 -20 -20 -20 -20 -20 -20 -5 -20 -20 -20 -4 6 -5 3 14 18 19 19 21 21 21 19 14 18 20 21 15 8 -7 -20
-20 -20 -20 -20 -20 -20 -20 -20 -20 -20 -20 -20 -20 -20 -20 -20 -20 -20 -20 -20 -20 -20 -20 -20 -20 -20 -20 -20 -20 -20 -20 -20 -12 3 7 14 16 16 15 18 18 18 21 21 18 17 18 18 16 14 7 -1 -4 -20

GFSWCAN_prec_radar_039.txt.gz
Reflectivity
-6 -0 -2 11 11 -12 -20 -20 -20 -20 -20 -20 -20 -20 -20 -20 -17 -19 2 19 8 2 11 4 -9 8 -20 9 -11 -3 -20 -1 11 19 16 3 -11 2 -20 -4 1 -9 -11 -11 11 12 -6 -20 -20 -20 -20 -20 -20 22
-15 -19 1 10 13 -7 -14 -20 -20 -20 -20 -20 -20 -20 -20 -20 -20 -20 -2 1 1 -2 7 -11 -13 -20 -19 -12 -19 -20 -20 -18 1 2 12 8 9 2 -3 -3 -20 -4 -20 15 -16 3 -20 -20 -20 -20 -20 -20 -20 -20
-10 1 -2 7 3 -4 -4 -20 -20 -20 -20 -20 -20 -20 -8 -20 -20 -10 -17 2 16 -3 -11 -11 -14 -20 -20 -20 -20 -17 -18 5 -7 -1 12 12 15 12 10 -19 -20 -20 -20 -20 -20 -20 -20 -20 -20 -20 -20 -20 -20 -20
-7 1 3 10 4 1 2 -2 -20 -13 -20 3 -14 7 -20 -20 -20 -20 -14 -2 -8 -5 -10 12 -20 -20 -20 -20 -16 7 21 25 10 14 16 31 9 -20 12 -17 -20 -20 -20 -20 -20 -20 -20 -20 -20 -20 -20 -20 -20 -20
-2 1 3 10 3 1 5 2 -14 -2 5 5 -20 10 9 0 -10 -20 -20 -1 -20 15 11 1 -20 -20 -20 -17 16 19 26 26 20 20 9 12 -18 1 -20 -20 -20 -20 -20 -20 -20 -20 -20 -20 -20 -20 -20 -20 -20 -20
-4 -4 10 10 -12 1 10 0 -2 -2 2 -0 -2 12 2 8 -12 -20 2 4 -3 14 22 15 -20 -20 -20 -17 -20 17 27 23 23 21 14 14 7 19 10 -20 -20 -20 -20 -20 -20 -20 -20 -20 -20 -20 -20 -20 -20 -20
-4 3 -8 8 -3 -6 2 -9 -20 -12 -16 2 6 -7 -7 3 -1 -19 -4 10 11 -0 3 -10 8 -20 -20 -20 -20 15 19 23 23 20 16 21 19 6 -2 -16 -20 -20 -20 -20 -20 -20 -20 -20 -20 -20 -20 -20 -20 -20
-5 -1 3 7 -15 -8 2 -20 -20 -20 -20 -2 -4 9 14 4 -5 -17 -5 -4 2 21 3 9 -13 -20 -9 -13 3 -11 21 28 25 22 13 0 -5 -20 1 -20 -20 -20 -20 -20 -20 -20 -20 -20 -20 -20 -20 -14 -20 -18
-1 -20 1 5 -3 2 0 -20 -20 -20 -20 -20 -20 -18 -9 -15 -4 0 21 10 -3 16 19 -13 -10 -12 -14 -14 -15 -19 20 30 27 21 1 8 -2 -3 -20 -20 -20 -20 -20 -20 -20 -20 -20 -20 -20 -20 -14 -16 -20 -20
-0 -17 10 -17 4 -1 -20 -20 -20 -20 -20 -20 -20 -20 2 -6 -20 7 9 9 5 2 2 3 -20 5 -20 1 14 -17 -16 24 27 25 21 6 -19 -20 -20 -20 -20 -20 -20 -20 -20 -20 -20 -20 -20 -20 -20 -20 -20 -20
-20 -19 8 -13 6 3 -20 -20 -20 -20 -20 -20 -20 -20 -20 -19 -3 8 17 -11 -13 7 6 -8 -20 2 -20 -11 9 -20 -20 -20 -2 -20 7 -9 -20 -20 -20 -20 -20 -20 -20 -20 -20 -20 -20 -20 -20 -20 -20 -20 -20 -20
-20 -6 -9 -3 4 -1 -20 -20 -20 -20 -16 -10 -10 -11 11 4 4 -18 11 -15 -5 2 -11 11 4 -20 -20 -20 -20 -20 -16 -20 -13 -20 -13 -18 -12 -20 -20 -19 -18 -20 5 -6 -15 -8 -20 -18 -11 -10 -20 -20 -20 -20
-20 6 -17 5 3 -20 -20 -20 -20 -20 -20 -20 -20 -1 -20 -19 -15 -19 -20 -3 7 -20 1 12 -9 -20 -20 -20 -20 -20 -19 -20 -20 -18 -20 -20 -20 -20 -20 -19 -18 -17 -5 -20 -20 -20 -20 -20 -20 -20 -20 -20 -20 -20
-20 5 -16 0 -19 -20 -20 -20 -20 -19 -20 -20 -20 -20 -20 -20 -20 -20 -20 -20 -20 -20 -5 -6 -3 -19 -16 -20 -20 -16 -20 -20 -20 -8 -20 -20 -20 -20 -20 -20 -20 -20 -20 -20 -9 -6 -17 -20 -19 -13 -20 -20 -20 -20
-13 3 -20 -20 -20 -20 -20 -20 -20 -20 -12 -20 -20 -20 -20 -20 -20 -20 -20 -20 -13 -20 -20 -20 -11 -14 -1 -8 -20 -20 -20 -20 -20 -20 -20 -20 -20 -20 -20 -20 -20 -20 -20 -20 -20 -20 -20 -20 -20 -20 -20 -20 -20 -20
2 -20 -20 -20 -20 -20 -20 -20 -16 -12 -6 -20 -20 -20 -20 -20 -1 -19 -20 -20 -20 -15 -20 -20 -20 -14 -20 -20 -20 -20 -20 -20 -20 -20 -20 -20 -20 -20 -20 -20 -20 -20 -20 -20 -20 -20 -20 -20 -20 -20 -20 -20 -20 -20
6 -20 -20 -20 -20 -20 -20 -20 -9 -18 -20 -20 -18 -20 -20 -20 -19 -20 -18 -18 -20 -20 -9 -20 1 -20 -20 -20 -20 -20 -20 -20 -20 -20 -20 -20 -20 -20 -20 -20 -20 -20 -20 -20 -20 -20 -20 -20 -20 -20 -20 -20 -20 -20
2 -20 -20 -20 -20 -20 -20 -9 -20 -20 -20 -18 -20 -20 -20 -20 -20 -20 -20 -20 -16 -20 -20 4 -13 -15 -19 -20 -20 -20 -20 -20 -20 -20 -20 -20 -20 -20 -20 -20 -20 -20 -20 -20 -20 -20 -20 -20 -20 -20 -20 -20 -20 -20
-9 -14 -15 -18 -20 -20 -20 -20 -16 -20 -20 -20 -20 -20 -20 -20 -20 -20 -20 -20 -20 -20 -13 7 -13 -17 -19 -19 -20 -20 -20 -20 -19 -20 -20 -20 -20 -20 -20 -20 -20 -20 -20 -20 -20 -20 -20 -20 -20 -20 -20 -20 -20 -14
16 -2 1 -14 -18 -18 -20 -20 -20 -20 -20 -20 -20 -20 -20 -20 -20 -20 -20 -20 -5 -20 -4 2 -20 -20 -20 -20 -18 -16 -20 -20 -20 -20 -20 -20 -20 -20 -20 -20 -20 -20 -20 -20 -20 -20 -20 -20 -20 -20 -20 -20 -20 -12
-1 -9 -20 -5 9 -0 -20 -20 -14 -20 -20 -17 -20 -20 -20 -20 -20 -20 -7 -20 2 -20 -20 -20 -20 -20 -20 -20 -20 -20 -20 -20 -20 -20 -20 -20 -20 -20 -20 -20 -20 -20 -20 -20 -20 -20 -20 -20 -20 -20 -19 -20 -5 -11
6 2 -11 -6 6 0 -20 -16 -3 -19 -20 -20 -20 -20 -20 -20 -20 -15 -20 -20 -20 -20 -20 -20 -20 -20 -20 -20 -20 -20 -20 -20 -20 -15 -14 -12 -20 -20 -20 -20 -20 -20 -20 -20 -20 -20 -20 -20 -20 -16 -17 -17 6 -4
8 -1 4 -1 -1 -16 -20 1 2 -20 -20 -20 -20 -20 -20 -20 -20 -20 -20 -20 -19 -20 -20 -20 -20 -20 -20 -20 -20 -20 -20 -20 -20 -20 -20 -20 -20 -20 -20 -20 -20 -20 -20 -20 -20 -20 -20 -14 -13 -20 -11 3 -5 -20
4 8 3 1 -12 -20 -20 4 2 -20 -20 -20 -20 -20 -20 -20 -20 -20 -20 -20 -20 -20 -20 -20 -20 -20 -20 -20 -20 -20 -20 -20 -20 -20 -20 -20 -20 -20 -15 -18 -20 -20 -20 -20 -20 -19 -15 -15 -19 -13 3 -17 -19 -12
10 7 2 -15 -20 -20 -4 2 -14 -20 -20 -20 -20 -20 -20 -20 -20 -20 -20 -20 -20 -20 -20 -20 -20 -20 -20 -20 -20 -20 -20 -20 -20 -20 -20 -20 -20 -20 -20 11 7 -20 -20 -20 -16 -17 -14 -14 -2 0 -20 3 11 1
8 -11 -20 -20 -20 2 0 -20 -20 -20 -20 -20 -20 -20 -20 -20 -20 -20 -20 -20 -20 -20 -20 -20 -20 -20 -20 -20 -20 -20 -20 -20 -20 -20 -20 -20 -20 -5 -8 -3 12 19 3 -14 -15 -15 -7 14 17 4 11 15 -0 1
-0 -15 -20 -18 -1 4 -12 -20 -20 -20 -20 -20 -20 -20 -20 -20 -20 -20 -20 -20 -20 -20 -20 -20 -20 -20 -20 -20 -20 -20 -20 -20 -20 -20 -20 -20 -20 -20 -15 1 0 15 26 23 7 -7 3 8 19 17 19 12 14 10
-20 -20 -4 4 -7 -20 -20 -20 -20 -20 -20 -20 -20 -20 -20 -20 -20 -20 -20 -20 -20 -20 -20 -20 -20 -20 -20 -20 -20 -20 -20 -20 -20 -20 -20 -20 -20 -20 -20 -1 12 19 20 20 6 14 17 18 21 25 21 13 10 10
-8 -1 -7 -20 -20 -20 -20 -20 -20 -20 -20 -20 -20 -20 -20 -20 -20 -20 -20 -20 -20 -20 -20 -20 -20 -20 -20 -20 -20 -20 -20 -20 -18 -20 -20 -20 -20 -20 3 10 11 17 18 21 19 16 18 20 23 23 17 18 6 -2
-13 -20 -20 -20 -20 -20 -20 -20 -20 -20 -20 -20 -20 -20 -20 -20 -20 -20 -20 -20 -20 -20 -20 -20 -20 -20 -20 -20 -20 -20 -20 -20 -20 -20 -20 -20 -20 -18 9 11 15 17 19 25 25 21 23 24 24 14 13 10 4 4
-20 -19 -20 -20 -20 -20 -20 -20 -20 -20 -20 -20 -20 -20 -20 -20 -20 -20 -20 -20 -20 -20 -20 -20 -20 -20 -20 -20 -20 -20 -20 -20 -20 -19 -20 -17 -20 -20 -14 8 16 22 24 25 25 23 13 6 6 6 1 -0 9 22
-8 -19 -20 -20 -20 -20 -20 -20 -20 -20 -20 -20 -20 -20 -20 -20 -20 -20 -20 -20 -20 -20 -20 -20 -20 -20 -20 -20 -20 -20 -20 -20 -20 -20 -20 -20 -20 -20 1 8 17 20 19 19 18 13 19 22 20 17 15 16 22 19
-20 -20 -20 -20 -20 -20 -20 -20 -20 -20 -20 -20 -20 -20 -20 -20 -20 -20 -20 -20 -20 -20 -20 -20 -20 -20 -20 -20 -20 -20 -8 -20 -20 -14 -0 -0 1 -15 5 8 13 14 10 15 21 22 23 22 18 17 20 21 14 10

GFSWCAN_prec_radar_042.txt.gz
Reflectivity
-4 -12 -6 1 -0 9 -5 3 -20 -20 -20 -20 -20 -8 -20 -20 -20 -20 -17 8 3 -0 -9 -6 -17 11 4 9 -15 -20 -20 -14 19 -11 -5 -20 -20 -18 -20 -2 -20 -17 -15 -9 -2 3 -18 -20 -20 -20 -20 -20 -20 -17
-2 -9 -8 -4 -10 12 -3 4 -2 -20 1 -12 -20 4 -20 -19 -20 -20 2 4 3 3 10 -18 -20 -19 -15 -19 5 -20 -17 -20 -20 -13 -9 -20 -20 -20 -10 -8 -20 -6 -20 -1 -20 -20 -20 -20 -20 -20 -20 -20 -20 -20
7 10 -3 2 -11 11 10 9 4 3 2 -20 -5 -16 8 -20 -20 -12 -6 -7 -5 -1 -15 6 -19 -20 -20 -20 -20 -20 -20 -20 -20 -19 10 7 -13 2 8 -17 -0 -20 -20 -20 -20 -20 -20 -20 -20 -20 -20 -20 -20 -20
20 6 -4 -3 -16 12 10 12 6 3 3 5 0 4 -5 10 -20 -20 -4 -5 17 -20 -20 15 -20 -20 -20 -20 -20 -20 -20 -15 0 17 -3 8 11 11 -12 -16 -20 -17 -20 -20 -20 -20 -20 -20 -20 -20 -20 -20 -20 -20
10 -8 0 -3 -11 12 5 15 16 3 5 6 4 -13 5 11 8 -8 -20 -7 -17 -20 -13 -8 -20 -20 -20 -20 -20 -15 14 22 16 17 10 8 -18 -20 -20 -20 -20 -20 -20 -20 -20 -20 -20 -20 -20 -20 -20 -20 -20 -20
8 7 2 -1 5 10 4 1 4 4 5 4 12 17 10 13 7 -20 -1 2 -20 -9 7 -2 -18 -20 -20 -20 -20 11 2 25 24 23 16 3 -20 17 -20 -20 -20 -20 -20 -20 -20 -20 -20 -20 -20 -20 -20 -20 -20 -20
2 8 -2 1 4 10 2 -1 1 3 2 0 9 4 11 8 1 -15 5 12 -1 -13 -19 -15 11 -20 -20 -20 -20 -20 24 23 19 17 11 10 12 -7 -6 -20 -20 -20 -20 -20 -20 -20 -20 -20 -20 -20 -20 -20 -20 -20
1 2 -2 -12 1 3 1 -1 -2 -8 -20 -20 -16 -0 14 4 -6 -0 3 6 -6 -12 -17 1 -11 -20 -19 14 -2 -5 23 21 20 20 10 -7 17 19 -7 -20 -20 -19 -20 -20 -20 -20 -20 -20 -20 -20 -20 -20 -20 -20
6 1 -1 -17 11 -14 3 -1 -12 -20 -20 -20 -18 -3 -4 -3 19 -12 12 0 -20 10 18 -6 -13 -20 -19 11 7 17 24 28 23 28 21 11 10 -4 -20 -20 -20 -20 -20 -20 -20 -20 -20 -20 -20 -20 -20 -20 -20 -20
9 2 -18 -18 9 -20 -0 -4 -20 -20 -20 -20 -5 -4 7 0 24 17 22 21 -18 -1 -1 -11 -8 -8 -16 -20 5 -18 -13 25 36 18 27 18 -1 -20 -20 -20 -20 -20 -20 -20 -20 -20 -20 -20 -20 -20 -20 -13 -20 -20
13 -3 -20 4 -10 -2 -4 -20 -20 -20 -20 -20 -20 -20 -17 2 -1 -7 6 -5 1 -10 -1 0 -20 -14 -20 -20 1 -20 -20 6 25 13 19 28 16 -20 -20 -20 -20 -20 -20 -20 -20 -20 -20 -20 -20 -18 -20 -20 -20 -20
9 -17 -20 8 2 -2 -20 -20 -20 -20 -20 -12 -20 -20 -20 3 -15 -20 -7 -13 3 6 -5 -2 4 -20 -20 -20 -20 -20 -10 -18 5 14 24 -20 -0 -4 -20 -20 -20 -20 -20 -20 -20 -20 -17 -8 18 13 11 -20 -20 -20
11 -15 -20 10 4 -17 -20 -20 -20 -20 -20 -19 -20 -18 -19 -20 -14 -19 -19 11 -1 -20 -15 -20 -17 -20 -20 -20 -20 -20 -20 -19 -20 -20 -1 6 3 -20 -20 -20 -20 -20 -5 16 13 -2 -15 15 7 -19 -12 -20 -20 -20
5 0 -20 7 5 -20 -20 -20 -20 -20 -20 -20 -20 -20 -20 -20 -20 -20 -20 -20 -20 -20 -5 -13 -16 -20 -14 -20 -20 -20 -20 -20 -20 -20 -20 -17 -1 -8 -20 -20 -20 -19 -5 -20 -20 -4 4 3 -18 -20 -20 -20 -20 -20
11 3 -2 -6 -12 -20 -20 -20 -20 -20 -20 -20 -20 -20 -20 -20 -20 -20 -16 -20 -20 -20 -20 -20 -20 -20 -20 -20 -20 -20 -20 -20 -20 -20 -20 -20 -20 -20 -20 -20 -20 -20 -20 -20 -20 -20 -20 -20 -20 -20 -20 -20 -20 -20
10 10 -1 -18 -16 -20 -20 -20 -20 2 -20 -20 -20 -15 -20 -18 -20 2 -20 -20 -20 -20 -20 -20 -11 -3 -20 -20 -20 -20 -20 -20 -20 -20 -20 -20 -20 -20 -20 -20 -20 -20 -20 -20 -20 -20 -20 -20 -20 -20 -20 -20 -20 -20
7 6 7 -2 -15 -20 -20 -20 -20 -20 -20 -20 -20 -20 -20 -20 -20 -20 -20 -20 -20 -20 -9 -12 -10 -20 -11 -20 -13 -20 -20 -20 -20 -20 -20 -20 -20 -20 -20 -20 -20 -20 -20 -20 -20 -20 -20 -20 -20 -20 -20 -20 -20 -20
-3 -2 -7 -11 4 -3 -20 -20 -20 -20 -20 -20 -20 -20 12 -9 -10 -20 -20 -20 -11 -20 -13 -12 -20 -20 -20 -20 -20 -20 -20 -20 -20 -20 -20 -20 -20 -20 -20 -20 -20 -20 -20 -20 -20 -20 -20 -20 -20 -20 -20 -20 -20 -20
17 20 -4 -13 4 -3 -20 -20 -20 -20 -20 -20 -20 -7 -1 -10 -17 -20 -20 -20 -20 -20 -20 -20 -20 -13 -20 -20 -20 -20 -20 -20 -20 -20 -20 -20 -20 -20 -20 -20 -20 -20 -20 -20 -20 -20 -20 -20 -20 -20 -20 -20 -20 -20
23 27 10 -20 -19 -15 -13 -20 -18 -20 -20 -14 -20 -20 -15 -18 -20 -20 -20 -20 -20 -9 -17 -20 -20 -20 -20 -20 -20 -20 -20 -20 -20 -20 -20 -20 -20 -20 -20 -20 -20 -20 -20 -20 -20 -20 -20 -20 -20 -20 -20 -20 -18 -20
22 22 15 -11 -18 -20 -20 -20 -15 -20 -20 -18 -9 -20 -20 -20 -20 -20 -20 -20 -1 -20 -20 -20 -20 -20 -20 -20 -20 -20 -20 -20 -20 -20 -20 -20 -20 -20 -20 -20 -20 -20 -20 -20 -20 -20 -20 -20 -20 -20 -20 -20 -20 -20
24 13 2 -20 -20 -20 -20 -20 -20 -13 -20 -20 -12 -19 -20 -20 -20 -20 -20 -20 -20 -20 -20 -20 -20 -20 -20 -20 -20 -20 -20 -20 -20 -20 -10 -20 -20 -20 -20 -19 -20 -20 -20 -20 -20 -20 -20 -20 -20 -20 -20 -20 -20 -5
14 0 -10 -20 -13 -19 -20 -20 -20 -20 -20 -19 -3 -12 -17 -20 -20 -20 -20 -20 -20 -20 -20 -20 -20 -20 -20 -20 -20 -20 -20 -20 -20 -20 -20 -20 -20 -20 -20 -20 -20 -20 -20 -20 -20 -20 -20 -5 -6 -6 -20 -19 -19 -15
4 10 4 9 2 -19 -20 -20 -20 -20 -14 -20 -20 -20 -20 -20 -20 -20 -20 -20 -20 -20 -20 -20 -20 -20 -20 -20 -20 -20 -20 -20 -20 -20 -20 -20 -20 -20 -20 -20 -16 -20 -20 -20 -20 -20 -20 -20 -7 -12 -19 -18 -17 -13
11 5 0 -20 -20 -20 -20 -20 -20 -20 -20 -18 -20 -20 -20 -20 -20 -20 -20 -20 -20 -20 -20 -20 -20 -20 -20 -20 -20 -20 -20 -20 -20 -20 -20 -20 -20 -20 -20 -20 -20 -20 -20 -18 -19 -20 -20 -20 -20 -19 -12 -11 -19 17
-0 -12 -13 -20 -20 -20 -20 -20 -20 -14 -10 -20 -20 -20 -20 -20 -20 -20 -20 -20 -20 -20 -20 -20 -20 -20 -20 -20 -20 -20 -20 -20 -20 -20 -20 -20 -20 -20 -20 -20 -20 -20 -20 -20 -15 5 4 -17 -17 -16 2 3 12 24
-19 -20 -20 -20 -20 -20 -20 -15 0 -5 -20 -20 -20 -20 -20 -20 -20 -20 -20 -20 -20 -20 -20 -20 -20 -20 -20 -20 -20 -20 -20 -20 -20 -20 -20 -20 -20 -20 -20 -20 -20 -20 -20 -20 -2 6 13 14 -4 1 5 14 22 23
-20 -20 -20 -20 -20 -20 -14 -3 -19 -20 -20 -20 -20 -20 -20 -20 -20 -20 -20 -20 -20 -20 -20 -20 -20 -20 -20 -20 -20 -20 -20 -20 -20 -20 -20 -20 -20 -20 -20 -20 -20 -20 -20 -3 -2 10 11 18 17 17 14 16 24 23
-20 -20 -20 -20 -5 2 -12 -20 -20 -20 -20 -20 -20 -20 -20 -20 -20 -20 -20 -20 -20 -20 -20 -20 -20 -20 -20 -20 -20 -20 -20 -20 -20 -20 -20 -20 -20 -20 -20 -20 -20 -19 -18 -17 7 14 9 11 21 21 18 17 25 20
-20 -20 -16 -12 -20 -20 -20 -20 -20 -20 -20 -20 -20 -20 -20 -20 -20 -20 -20 -20 -20 -20 -20 -20 -20 -20 -20 -20 -20 -20 -20 -20 -20 -20 -20 -20 -20 -20 -20 -20 -20 -20 1 -18 1 14 21 22 24 24 21 23 23 22
3 2 -7 -20 -20 -20 -20 -20 -20 -20 -20 -20 -20 -20 -20 -20 -20 -20 -20 -20 -20 -20 -20 -20 -20 -20 -20 -20 -20 -20 -20 -20 -20 -20 -20 -20 -20 -20 -20 -20 -20 -20 -17 2 10 16 18 18 12 18 19 15 17 3
-5 -12 -20 -20 -20 -20 -20 -20 -20 -20 -20 -20 -20 -20 -20 -20 -20 -20 -20 -20 -20 -20 -20 -20 -20 -20 -20 -20 -20 -20 -20 -20 -20 -20 -20 -20 -20 -20 -20 -20 -20 -4 -8 13 18 16 9 16 21 23 18 20 17 18
-20 -20 -19 -16 -20 -20 -20 -20 -20 -20 -20 -20 -20 -20 -20 -20 -20 -20 -20 -20 -20 -20 -20 -20 -20 -20 -20 -20 -20 -20 -20 -20 -17 4 10 4 -2 -9 -20 -20 -19 -18 7 11 14 16 18 22 23 22 23 23 21 21

GFSWCAN_prec_radar_045.txt.gz
Reflectivity
-11 -11 9 7 -6 -0 -19 11 11 -0 -8 -10 -20 -7 -20 -20 -20 -20 -17 2 11 9 2 -16 3 9 -16 -12 -20 -20 -20 -16 -5 -12 -16 -18 -20 -20 -20 -20 -16 -18 -16 -6 5 -19 -20 -20 -20 -20 -20 -20 -20 -20
-20 -11 9 10 4 -12 4 10 10 12 2 10 -14 -14 -8 -4 -18 -20 -19 11 -3 18 4 -20 -20 -11 -20 -20 -13 -20 -20 -20 4 5 -20 -20 -20 -20 -20 9 -20 -20 -20 -20 -20 -20 -20 -20 -20 -20 -20 -20 -20 -20
-20 -6 10 22 2 -19 -20 9 9 13 11 10 13 9 12 11 12 -20 -20 14 10 23 16 16 -12 -17 -15 -14 -20 -20 -20 -20 -20 -19 -20 -3 -20 -20 -20 -20 -20 3 -20 -20 -20 -20 -20 -20 -20 -20 -20 -20 -20 -20
-20 11 13 21 -1 -4 -19 10 11 8 12 0 15 13 -8 11 10 -11 -20 11 11 -2 22 17 -4 -17 -20 -20 -20 -20 -20 -20 -20 -4 -2 -14 12 -16 -13 -20 -15 -20 -18 -17 -20 -20 -20 -20 -20 -20 -20 -20 -20 -20
-8 17 18 24 -0 5 8 12 11 12 11 10 13 -15 1 -15 10 3 -20 -8 20 -20 -6 4 -19 -20 -20 -20 -20 -20 -20 -6 14 14 7 -5 1 -20 -20 -20 -20 -20 -20 -20 -20 -20 -20 -20 -20 -20 -20 -20 -20 -20
13 11 18 24 -11 -0 10 -19 6 16 6 11 5 20 10 3 12 -20 -15 8 -20 -16 10 -4 -13 -20 -20 -20 -20 -20 -20 -19 9 11 17 16 -20 17 5 -20 -20 -20 -20 -20 -20 -20 -20 -20 -20 -20 -20 -20 -20 -20
14 22 28 16 6 2 13 -3 13 10 6 -3 -17 10 2 4 -20 -18 4 11 -4 -14 -19 5 -11 -17 -20 -20 -20 -20 15 21 4 3 1 -0 7 19 1 -18 -20 -20 -20 -20 -20 -20 -20 -20 -20 -20 -20 -20 -20 -20
19 18 20 4 -2 -6 9 9 12 3 -20 -20 -15 -0 10 -17 -7 -9 -12 -4 -4 -13 -2 -8 -20 -20 -19 3 25 19 29 20 19 13 12 -0 -1 -17 18 -20 -20 -20 -20 -20 -20 -20 -20 -20 -20 -20 -20 -20 -20 -20
20 20 17 13 -2 5 -15 4 7 -19 -20 -20 -18 6 -20 17 1 -3 12 10 -16 10 0 -17 -4 -4 -20 -18 -11 -11 8 18 16 21 20 17 24 10 -11 -20 -20 -20 -20 -20 -20 -20 -20 -20 -20 -20 -20 -20 -20 -20
18 13 14 9 -19 10 -20 9 -10 -20 -20 -20 -20 5 1 17 5 7 1 -4 -13 11 1 -0 -20 -19 -20 -20 -20 -20 -9 2 21 28 25 28 22 28 8 -20 -20 -20 -20 -20 -20 -20 -20 -20 -20 -20 -20 -20 -20 -17
18 11 18 8 -12 -14 -7 -0 -20 -20 -20 -20 -20 -20 12 24 19 19 20 4 -3 -6 -1 -1 -20 -20 -20 -20 -4 -20 -19 3 2 27 28 31 27 12 -20 -20 -20 -20 -20 -20 -20 -20 -20 -20 -20 -20 -20 -11 -13 -20
22 5 17 8 8 -9 -8 -11 -20 -20 -20 -20 -19 -20 -0 17 6 2 5 -16 -8 -18 -18 -20 -18 -19 -20 -20 -20 -20 -13 -14 3 11 20 13 24 -19 -20 -20 -20 -20 -20 -20 -20 -20 -18 -20 -20 -20 1 -14 3 -20
27 17 16 13 7 -20 -20 -20 -20 -20 -20 -20 -12 8 -11 -1 5 -16 -20 -1 3 -20 -20 -20 -20 -20 -20 -20 -20 -20 -20 -20 -18 4 10 26 6 -18 -20 -20 -20 -20 -16 2 2 -5 15 -4 19 29 14 9 -15 -20
30 25 27 24 9 -20 -20 -20 -20 -20 -20 -20 -20 -20 -20 -20 -20 -20 -20 -20 -20 -20 -20 -13 -6 -20 -3 -20 -20 -20 -20 -20 -20 -9 -20 -13 -19 -15 -1 -12 -20 -20 -20 -20 11 21 3 14 23 12 20 5 1 -6
25 25 26 26 8 -9 -20 -20 -20 -20 -20 -20 -19 -20 -20 -20 -20 -20 -20 -20 -20 -17 -9 -20 -20 -20 -20 -20 -20 -20 -20 -20 -20 -20 -15 -20 -20 -20 -20 -20 -8 -2 -16 -12 -14 -19 -6 -16 -20 -20 -20 -20 -20 -20
28 26 28 25 17 6 -15 -20 -20 -20 -20 -20 -20 -20 -20 -20 -20 -2 -20 -19 -20 -9 1 -17 -20 -20 -20 -15 -19 -20 -20 -20 -20 -20 -20 -20 -20 -20 -20 -20 -20 -20 -20 -19 -6 -18 -20 -20 -20 -20 -20 -20 -20 -20
18 23 23 15 5 6 3 -6 -20 -20 -20 -20 -20 -20 -20 -20 -20 -20 -20 -20 -20 1 9 -12 -14 -20 -14 -20 -8 -20 -20 -20 -20 -20 -20 -20 -20 -20 -20 -20 -20 -20 -20 -20 -20 -20 -20 -20 -20 -20 -20 -20 -20 -20
9 15 9 -0 -3 -13 -9 -8 -6 -19 -20 -20 -20 -20 -20 -20 -20 -20 8 7 -20 6 3 8 -20 -20 -20 -19 -20 -20 9 9 -16 -20 -20 -20 -20 -20 -20 -20 -20 -20 -20 -20 -20 -20 -20 -20 -20 -20 -20 -20 -20 -20
11 12 16 1 -18 -14 -11 -20 -20 -20 -7 -20 -20 -20 -20 -12 -7 -20 -20 -20 -20 -20 -18 -5 -20 -20 -20 -20 -20 -20 -20 -20 -20 -20 -20 -20 -20 -20 -20 -20 -20 -20 -20 -20 -20 -20 -20 -20 -20 -20 -20 -20 -20 -20
12 15 19 13 -20 -20 -20 -20 -20 -20 0 -8 -20 -20 -6 -19 -17 -10 -20 -20 -20 -20 -20 -20 -20 -20 -20 -20 -20 -20 -20 -20 -20 -20 -20 -20 -20 -20 -20 -20 -20 -20 -20 -20 -20 -20 -20 -20 -20 -20 -20 -20 -20 -20
15 10 17 6 -1 -20 -20 -20 -20 -20 -20 -20 -20 -20 -20 -20 -20 -20 -20 -20 -20 -20 -20 -20 -20 -20 -20 -20 -20 -20 -20 -20 -20 -20 -20 -20 -20 -20 -20 -20 -20 -20 -20 -20 -20 -20 -20 -20 -20 -20 -20 -20 -20 -20
5 16 3 -20 -20 -20 -20 -20 -20 -20 -20 -20 -20 -20 -20 -20 -20 -10 -20 -20 -20 -20 -20 -20 -20 -20 -20 -20 -20 -20 -20 -20 -20 -20 -20 -20 -20 -20 -20 -20 -20 -20 -20 -20 -20 -20 -20 -20 -20 -20 -20 -20 -20 -20
-13 -20 -7 -20 -20 -20 -20 -20 -20 -20 -20 -20 -20 -20 -20 -18 -20 -20 -20 -11 -20 -20 -20 -20 -20 -20 -20 -20 -20 -20 -20 -20 -20 -20 -20 -20 -20 -20 -20 -20 -20 -20 -20 -20 -20 -20 -20 -20 -20 -20 -20 -11 -17 -20
-17 5 -14 -20 -20 -20 -20 -20 -20 -20 -20 -20 -20 -20 -20 -20 -20 -20 -20 -15 -20 -20 -20 -20 -20 -20 -20 -20 -20 -20 -20 -20 -20 -20 -20 -20 -20 -20 -20 -20 -20 -20 -20 -20 -20 -20 -20 -20 -17 -19 -20 -20 -20 -20
8 -3 -20 -20 -20 -20 -20 -20 -20 -20 -20 -18 -9 -20 -20 -20 -20 -20 -20 -8 -20 -20 -20 -20 -20 -20 -20 -20 -20 -20 -20 -20 -20 -20 -20 -20 -20 -20 -20 -20 -20 -20 -20 -20 -20 -20 -20 -20 -20 -20 -20 -17 -15 -19
-1 -20 -20 -20 -20 -20 -20 -20 -20 -20 -20 -20 -11 -20 -20 -20 -20 -20 -6 -17 -20 -20 -20 -20 -20 -20 -20 -20 -20 -20 -20 -20 -20 -20 -20 -20 -20 -20 -20 -20 -20 -20 -20 -20 -15 -20 -20 -19 -17 -16 -16 -17 -7 2
-20 -20 -20 -20 -20 -20 -20 -20 -20 -20 -20 -20 -20 -20 -20 -20 -20 -20 -20 -20 -20 -20 -20 -20 -20 -20 -20 -20 -20 -20 -20 -20 -20 -20 -20 -20 -20 -20 -20 -20 -20 -20 -20 -20 -20 -5 -17 -19 -18 -17 -5 -7 9 7
-20 -20 -20 -20 -20 -20 -20 -20 -20 -20 -20 -20 -20 -20 -20 -20 -20 -20 -20 -20 -20 -20 -20 -20 -20 -20 -20 -20 -20 -20 -20 -20 -20 -20 -20 -20 -20 -20 -20 -20 -20 -20 -20 -20 -20 -20 -20 -16 -16 -15 2 -9 10 14
-20 -20 -20 -20 -20 -20 -20 -20 -20 -20 -20 -20 -20 -20 -20 -20 -20 -20 -20 -20 -20 -20 -20 -20 -20 -20 -20 -20 -20 -20 -20 -20 -20 -20 -20 -20 -20 -20 -20 -20 -20 -20 -20 -20 -20 -4 -14 -20 -17 -17 6 12 17 19
-20 -20 -20 -20 -20 -20 -20 -20 -20 -20 -17 -20 -20 -20 -20 -20 -20 -20 -20 -20 -20 -20 -20 -20 -20 -20 -20 -20 -20 -20 -20 -20 -20 -20 -20 -20 -20 -20 -20 -20 -20 -20 -20 -20 -20 -20 -15 13 9 16 15 15 20 22
-20 -20 -20 -20 -20 -20 -20 -20 -20 -20 -20 -20 -20 -20 -20 -20 -20 -20 -20 -20 -20 -20 -20 -20 -20 -20 -20 -20 -20 -20 -20 -20 -20 -20 -20 -20 -20 -20 -20 -20 -20 -20 -20 -20 -20 -20 -14 5 -5 -13 8 18 22 20
-20 -20 -20 -20 -20 -20 -20 -20 -20 -20 -20 -20 -20 -20 -20 -20 -20 -20 -20 -20 -20 -20 -20 -20 -20 -20 -20 -20 -20 -20 -20 -20 -20 -20 -20 -20 -20 -20 -20 -20 -20 -20 -20 -20 -20 -13 1 -19 -7 10 15 21 21 17
-20 -20 -20 -20 -20 -20 -20 -20 -20 -20 -20 -20 -20 -20 -20 -20 -20 -20 -20 -20 -20 -20 -20 -20 -20 -20 -20 -20 -20 -20 -20 -20 -20 -18 -3 4 -1 9 -19 -20 -20 -20 -20 -19 -17 -9 -7 0 10 14 18 21 21 23

GFSWCAN_prec_radar_048.txt.gz
Reflectivity
-9 -5 -2 -3 -20 -12 16 -5 9 -15 -2 -3 9 -20 -20 -20 -20 -20 -20 -9 -1 1 -12 -20 -20 -20 -20 -20 -20 -20 -5 -19 -20 -20 -20 -20 -20 -20 -20 -20 -20 -20 -20 -3 -8 -18 -20 -20 -20 -20 -20 -20 -20 -20
0 -1 -18 -4 -20 1 13 5 9 -20 11 -4 1 -19 -13 2 9 -19 -20 -5 8 -7 -9 -20 -20 -20 -20 -20 -20 -8 -20 -20 -20 -20 -9 -20 -20 -20 -20 10 -20 -20 -20 -20 -20 -20 -20 -20 -20 -20 -20 -20 -20 -20
-20 -20 -20 -20 -1 -12 5 4 13 8 8 9 10 -11 -12 7 10 10 -20 -20 2 1 -4 -18 -20 2 -20 -20 -20 -10 -8 -20 -20 -20 -20 -20 -20 -20 -20 -20 -20 -16 -18 -20 -20 -20 -20 -20 -20 -20 -20 -20 -20 -20
-7 9 -19 -19 -18 1 7 1 13 5 5 12 7 -6 -8 -17 11 12 -20 0 20 23 32 27 -16 -4 -20 -19 -6 -17 -19 -20 -20 -20 -19 -11 -9 -20 -8 -20 -20 -20 -13 -20 -20 -20 -20 -20 -20 -20 -20 -20 -20 -20
14 5 -9 9 13 11 9 6 13 8 6 13 1 18 -19 9 5 8 -19 9 26 22 -7 -1 -20 -20 -20 -20 -20 -20 -20 -20 -15 -8 19 3 -19 -20 -20 -20 -20 -20 -20 -18 -20 -0 -20 -20 -20 -20 -20 -20 -20 -20
14 11 19 7 9 9 8 14 11 9 12 7 -3 2 -19 7 14 -15 6 16 23 11 5 18 -18 -20 -20 -20 -8 7 -20 -15 1 15 12 14 1 0 7 1 -20 -20 -20 -20 -20 -20 -20 -20 -20 -20 -20 -20 -20 -20
16 14 1 11 5 6 17 12 -8 14 15 -1 9 14 21 15 -11 -20 27 23 24 -5 2 -13 -18 -17 -20 -20 -20 -20 -13 8 23 21 -1 10 14 9 -12 -1 -20 -7 -20 -20 -20 -20 -20 -20 -20 -20 -20 -20 -20 -20
18 13 -9 5 -1 8 17 6 10 14 -2 -16 6 8 6 3 -20 -5 3 8 8 0 -0 -9 -20 -11 -20 -16 7 22 29 27 24 25 20 -15 -7 -7 16 17 -15 -12 -7 -8 -20 -20 -20 -20 -20 -20 -20 -20 -20 -20
19 12 11 2 9 18 11 -19 7 -17 -20 -20 -20 8 -20 -5 -4 -8 13 13 15 12 -9 -17 -20 -13 -18 14 4 -4 9 17 15 25 27 26 14 31 14 -9 -20 -14 2 -14 -20 -20 -20 -20 -20 -20 -20 -20 -20 -20
3 7 -12 8 -3 13 5 -3 -10 -20 -20 -20 -20 7 17 23 11 6 9 8 2 3 -4 -1 -20 -20 -20 -20 -20 6 14 26 30 17 22 24 22 18 12 -18 -20 -20 -20 -20 -20 -20 -20 -20 -20 -20 -20 -20 -20 -20
7 3 -7 13 6 16 -4 0 -20 -20 -20 -20 -20 -13 1 9 17 24 16 1 -11 -14 -12 -16 -20 -20 -20 -20 -16 -20 -12 10 2 24 23 24 28 18 -20 -20 -20 -20 -20 -20 -20 -20 -20 -20 -20 -20 -20 -20 -20 -14
13 -13 11 23 18 16 -10 -20 -20 -20 -20 -20 -20 -6 24 26 22 13 23 -4 3 -14 -20 -1 -6 -20 -20 -20 -20 -19 -13 -12 -6 16 27 4 -5 -20 -20 -20 -20 -20 -20 -20 -20 -20 -20 -20 -20 -20 -20 -17 -8 1
-6 20 20 28 19 17 -8 -20 -20 -20 1 -20 -20 -18 -5 -13 11 -18 -19 -20 -20 -20 -20 -20 -20 -20 -20 -20 -20 -20 -18 -20 -19 -1 -19 21 -1 -20 -11 -20 -20 -20 3 15 -13 -20 -20 -20 -20 -20 -3 25 7 4
12 24 30 27 20 16 1 -20 -20 -20 -20 -20 -20 -20 -20 -20 -20 -20 -20 -20 -20 -20 -20 -20 -20 -20 -20 -20 -20 -17 -20 -20 -20 -20 -16 -16 -20 -20 -7 6 -2 -20 -13 -7 25 22 18 21 22 24 30 29 29 14
18 27 28 25 27 17 2 -20 -20 -20 -20 -20 -20 -20 -20 -18 -19 -20 -20 -20 -20 -20 -17 -20 -20 -20 -20 -18 -12 -20 -20 -20 -20 -20 -20 -20 -20 -20 -20 -20 -20 -3 -8 -18 11 13 -9 -16 1 -0 7 7 -13 -20
23 28 28 30 24 20 13 1 -20 -20 -20 -20 -20 -20 -20 -20 -20 -17 -16 13 -5 -20 -10 -17 -20 -20 -20 -14 -16 -20 -20 -20 -20 -20 -20 -20 -20 -20 -20 -20 -20 -20 -19 -16 -16 -13 -19 -20 -20 -10 2 21 8 -19
26 26 27 26 20 19 13 13 6 -20 -20 -20 -20 -20 -20 -20 -20 -20 -20 -10 -20 -20 -20 -20 -20 -20 -12 -20 -13 -20 -20 -20 -20 -20 -20 -20 -20 -20 -20 -20 -20 -20 -20 -20 -20 -20 -20 -20 -19 -11 -14 -19 -20 -20
24 21 26 22 15 -2 1 5 4 -12 -18 -10 -20 -20 -20 -20 -20 -20 -20 -7 -19 -13 -5 10 -20 -20 -20 -20 -20 -20 -20 -17 -4 -20 -20 -20 -20 -20 -20 -20 -20 -20 -20 -20 -20 -20 -20 -20 -20 -20 -20 -20 -20 -20
14 24 24 20 4 -4 -0 -1 -6 -17 -20 3 -15 -20 -20 -20 -20 -20 -20 -2 -12 -4 -15 -17 -20 -20 -20 -20 -20 -20 -20 -3 -20 -20 -20 -20 -20 -20 -20 -20 -20 -20 -20 -20 -20 -20 -20 -20 -20 -20 -20 -20 -20 -20
16 21 23 16 -15 -5 -1 -15 -19 -20 -19 -9 -12 -20 -20 -20 -20 -20 -20 -20 -20 -20 -20 -20 -20 -20 -20 -20 -20 -20 -20 -20 -20 -20 -20 -20 -20 -20 -20 -20 -20 -20 -20 -20 -20 -20 -20 -20 -20 -20 -20 -20 -20 -20
17 12 10 3 -20 -20 -20 -20 -20 -20 -20 -20 -20 -20 -20 -20 -20 -20 -20 -16 -20 -20 -20 -20 -20 -20 -20 -20 -20 -20 -20 -20 -20 -20 -20 -20 -20 -20 -20 -20 -20 -20 -20 -20 -20 -13 -19 -20 -20 -20 -20 -20 -20 -20
3 3 -17 -20 -20 -20 -20 -20 -20 -20 -20 -20 -20 -20 -20 -20 -20 -20 -20 -17 -20 -19 -20 -20 -20 -20 -20 -20 -20 -20 -20 -20 -20 -20 -20 -20 -20 -20 -20 -20 -20 -20 -20 -20 -20 -20 -20 -20 -20 -20 -20 -20 -20 -20
6 -20 -20 -20 -20 -20 -20 -20 -20 -20 -20 -20 -20 -20 -20 -20 -20 -20 -20 -20 -8 3 -2 -20 -20 -20 -20 -20 -20 -20 -20 -20 -20 -20 -20 -20 -20 -20 -20 -20 -20 -20 -20 -20 -20 -20 -20 -20 -20 -20 -20 -14 -20 -20
-14 -19 -20 -20 -20 -20 -20 -20 -20 -20 -20 -20 -20 -20 -20 -15 -20 -20 -20 -19 9 -6 -20 -20 -20 -20 -20 -20 -20 -20 -20 -20 -20 -20 -20 -20 -20 -20 -20 -20 -20 -20 -20 -20 -20 -20 -20 -20 -20 -20 -20 -20 -20 -20
14 -12 -20 -20 -20 -20 -20 -20 -20 -20 -20 -20 -20 -20 -20 -20 -20 -20 -20 1 -7 -17 -20 -20 -20 -20 -20 -20 -20 -20 -20 -20 -20 -20 -20 -20 -20 -20 -20 -20 -20 -20 -20 -20 -20 -20 -20 -20 -20 -20 -20 -20 -20 -20
6 -20 -20 -20 -20 -20 -20 -20 -20 -20 -20 -20 -20 -20 -20 -20 -20 -20 -20 -17 -15 -20 -20 -20 -20 -20 -20 -20 -20 -20 -20 -20 -20 -20 -20 -20 -20 -20 -20 -20 -20 -20 -20 -20 -20 -20 -20 -20 -20 -20 -18 -20 -16 2
1 -20 -20 -20 -20 -20 -20 -20 -20 -20 -20 -20 -20 -20 -20 -20 -20 -20 -20 -20 -20 -20 -20 -20 -20 -20 -20 -20 -20 -20 -20 -20 -20 -20 -20 -20 -20 -20 -20 -20 -20 -20 -20 -20 -20 -20 -20 -20 -20 -20 -20 -19 -19 -8
-16 -20 -20 -20 -20 -20 -20 -20 -20 -20 -20 -20 -20 -20 -20 -20 -20 -20 -20 -20 -20 -20 -20 -20 -20 -20 -20 -20 -20 -20 -20 -20 -20 -20 -20 -20 -20 -20 -20 -20 -20 -20 -20 -20 -20 -20 -20 -20 -20 -20 -20 -20 -20 -17
-17 -20 -20 -20 -20 -20 -20 -20 -20 -20 -20 -20 -20 -20 -20 -20 -20 -20 -20 -20 -20 -20 -20 -20 -20 -20 -20 -20 -20 -20 -20 -20 -20 -20 -20 -20 -20 -20 -20 -20 -20 -20 -20 -20 -20 -9 -20 -20 -19 -20 -20 -20 -19 -18
-20 -20 -20 -20 -20 -20 -20 -20 -20 -20 -20 -20 -20 -20 -20 -20 -20 -20 -20 -20 -20 -20 -20 -20 -20 -20 -20 -20 -20 -20 -20 -20 -20 -20 -20 -20 -20 -20 -20 -20 -20 -20 -20 -20 -20 -20 -20 -20 -19 -2 7 -10 -10 -18
-20 -20 -20 -20 -20 -20 -20 -20 -20 -20 -20 -20 -20 -20 -20 -20 -20 -20 -20 -20 -20 -20 -20 -20 -20 -20 -20 -20 -20 -20 -20 -20 -20 -20 -20 -20 -20 -20 -20 -20 -20 -20 -20 -20 -20 -20 -20 -20 -20 -16 -14 -20 -19 -9
-20 -20 -20 -20 -20 -15 -13 -20 -20 -20 -20 -20 -20 -20 -20 -20 -20 -20 -20 -20 -20 -20 -20 -20 -20 -20 -20 -20 -20 -20 -20 -20 -20 -20 -20 -20 -20 -20 -20 -20 -20 -18 -20 -20 -20 -20 -20 -20 -20 -19 -17 -17 -3 -7
-20 -20 -20 -20 -20 -20 -20 -20 -20 -20 -20 -20 -20 -20 -20 -20 -20 -20 -20 -20 -20 -20 -20 -20 -20 -20 -20 -20 -20 -20 -20 -20 -20 -18 -5 -0 2 1 8 -18 -17 -20 -20 -20 -20 -20 -19 -19 -18 -12 -4 -16 -20 -14

GFSWCAN_prec_radar_051.txt.gz
Reflectivity
11 -2 4 6 -10 -20 -20 -12 -1 -1 -20 4 6 8 -20 1 -1 -19 -20 -15 2 -6 -20 -20 -20 -20 -20 -20 -20 -20 -20 -18 -20 -6 -20 -17 -20 -20 -20 -20 -20 -20 -4 -15 4 -8 -20 -20 -20 -20 -20 -20 -20 -20
14 12 11 -18 -20 -20 -20 2 -20 8 -20 -13 -1 4 -20 6 5 4 -20 -16 12 16 -20 -20 -20 -20 -20 -20 -20 -20 -20 -8 -20 -17 -20 -20 -20 -20 -20 -17 -20 -20 -20 -20 -20 -20 -20 -20 -20 -20 -20 -20 -20 -20
8 0 5 -20 -20 -20 -5 -3 -20 -19 14 -20 -20 7 -20 6 11 7 -20 -16 12 18 -19 -11 -20 -20 -20 -20 -20 -20 -20 -20 -20 -20 -20 -20 -20 -20 -20 -20 -20 -20 -20 -20 -20 -20 -20 -17 -20 -20 -20 -20 -20 -20
-20 -12 1 -1 -18 -20 -7 -20 -20 5 15 -20 -20 -0 -20 12 13 8 -13 -19 3 32 25 -10 -20 23 -16 -20 -20 -20 -20 -20 -20 -2 -13 -11 -9 -20 -20 -20 -20 -14 -20 -20 -20 -20 -20 -20 -20 -20 -20 -20 -20 -20
-20 9 9 7 -1 -1 -1 -20 -20 -3 -0 -17 10 -13 13 -20 14 17 -19 -18 7 33 27 12 -0 -20 11 -20 -20 -20 -20 -20 -20 -6 -19 -11 -17 -20 -20 -20 -20 -20 -20 -20 -20 -10 -20 -20 -20 -20 -20 -20 -20 -20
-5 15 13 1 12 -1 -20 -20 -20 15 -11 9 11 -13 -20 -8 22 -20 -0 -12 16 34 25 16 -13 -9 -19 -20 -20 -16 -20 -20 -6 1 16 18 -20 3 6 5 -20 -20 -20 -20 -20 -20 -20 -20 -20 -20 -20 -20 -20 -20
9 18 8 -12 3 5 -20 -20 5 -0 14 14 -0 1 -15 6 -2 -20 11 32 33 30 27 35 -7 -18 -20 -20 -20 -16 -7 -4 8 19 13 5 4 9 20 -19 -20 -20 -20 -20 -20 -20 -20 -20 -20 -20 -20 -20 -20 -20
21 17 -11 -16 8 -15 -20 8 14 -9 13 -6 -15 9 14 0 -10 -20 7 24 27 21 16 -5 -20 19 -16 -20 -8 -15 2 19 27 21 19 -6 10 9 27 -11 -20 -20 -20 -20 -20 -20 -20 -20 -20 -20 -20 -20 -20 -20
18 17 1 8 11 -20 -3 17 7 -12 -16 -20 -2 1 -14 -6 -2 14 22 27 24 18 -1 -5 -20 -20 0 16 16 11 22 19 19 18 24 29 16 13 -20 -20 -14 -15 -20 -20 -20 -3 -20 -20 -20 -20 -20 -20 -20 -20
16 -0 6 7 -20 -20 13 12 4 -20 -20 -20 -17 10 17 19 20 25 22 24 19 20 -0 8 -20 -12 -20 -20 -0 -15 17 32 20 21 26 26 16 8 2 -3 -20 -7 -20 -20 -20 -20 -20 -20 -20 -20 -20 -20 -20 -20
4 5 3 -20 -20 -7 24 6 -14 -20 -20 -20 5 5 17 13 3 17 1 -3 -8 -20 -10 -14 -20 -20 -20 -20 -20 -19 8 -11 17 20 26 18 12 12 -20 -20 -20 -20 -20 -20 -20 -20 -20 -20 -20 -20 -20 -20 -20 -20
14 1 1 -20 4 14 24 2 -20 -20 -20 -20 -20 15 3 2 25 19 26 -18 20 -20 -20 11 -20 -20 -20 -20 -20 -20 -12 -17 -9 -1 22 -16 -16 -20 -20 -20 -20 -20 -20 -20 -20 -20 -20 -20 -20 -20 -20 -20 -20 -20
12 4 2 -20 6 18 21 -4 -20 -20 -20 -20 -20 13 15 17 4 -2 -17 -17 -2 -16 10 -20 -10 -20 -20 -20 -20 -17 -5 -20 -13 -3 -20 -17 -20 -20 -20 -20 -20 -17 27 9 13 -11 -20 -20 -20 -20 -20 -20 -20 10
-2 15 -8 22 25 26 19 3 -20 -20 -13 -20 -19 -12 -20 -20 -20 -20 -20 -20 -20 -20 -8 -11 -11 -20 -20 -17 -17 -10 -17 -17 -20 -20 -20 -20 -20 -20 -15 -18 1 -3 -20 9 27 15 13 1 17 13 7 -1 23 18
5 8 18 20 24 28 24 11 -11 -20 -20 -20 -20 -20 -20 -19 -20 -20 -20 -20 -20 -20 -20 -20 -17 -13 -12 2 -11 -14 -18 -20 -20 -20 -20 -20 -20 -20 -20 -20 -7 -8 -1 2 6 -2 13 24 19 19 13 25 21 21
18 20 21 23 24 27 26 13 3 -20 -20 -20 -20 -20 -20 -18 -20 -20 -20 -20 -20 -18 -19 -20 9 -20 -17 -14 -8 -7 -20 -20 -20 -20 -20 -20 -20 -20 -20 -20 -20 -20 -13 -13 -19 1 1 4 -5 -1 17 30 27 17
19 21 23 23 23 26 24 25 19 -1 -20 -20 -20 -20 -20 -20 -20 -20 -19 2 -17 -13 -9 -14 -20 -20 -7 -17 -20 -20 -20 -20 -20 -20 -20 -20 -20 -20 -20 -20 -20 -20 -20 -20 -20 -20 -20 -20 -20 -19 -19 -20 -20 -14
20 23 23 23 24 23 11 13 14 7 -11 -8 -20 -20 -20 -20 -20 -20 -20 -20 -1 2 4 7 -18 -20 -20 -20 -20 -20 -20 -20 -20 -20 -20 -20 -20 -20 -20 -20 -20 -20 -20 -20 -20 -20 -20 -20 -20 -20 -20 -20 -20 -20
18 22 20 22 21 21 12 9 6 6 -4 8 -6 -20 -20 -20 -20 -20 -20 -20 -17 -9 -18 -20 -20 -20 -20 -20 -20 -20 -20 -20 -20 -20 -20 -20 -20 -20 -20 -20 -20 -20 -20 -20 -20 -20 -20 -20 -20 -20 -20 -20 -20 -20
14 21 23 23 16 10 12 7 7 6 6 4 -2 -1 -18 -20 -20 -20 -20 -20 -20 -18 -20 -20 -20 -20 -20 -20 -20 -20 -20 -20 -20 -20 -20 -20 -20 -20 -20 -20 -20 -20 -20 -20 -20 -20 -20 -20 -20 -20 -20 -20 -20 -20
7 18 22 15 -5 0 -8 -0 6 5 7 4 7 4 -7 -17 -20 -20 -20 -20 -20 -20 -20 -20 -20 -20 -20 -20 -20 -20 -20 -20 -20 -20 -20 -20 -20 -20 -20 -20 -20 -20 -20 -20 -20 -20 -20 -20 -20 -20 -20 -20 -20 -20
2 14 -4 -20 -20 -20 -12 -18 -20 -5 -12 -6 -6 -1 -12 -20 -20 -20 -20 -20 -20 -20 -20 -20 -20 -20 -20 -20 -20 -20 -20 -20 -20 -20 -20 -20 -20 -20 -20 -20 -20 -20 -20 -20 -20 -20 -20 -20 -20 -20 -20 -20 -20 -20
9 -15 -20 -20 -20 -20 -20 -20 -20 -20 -20 -20 -20 -20 -20 -20 -20 -20 -20 -20 -15 2 -20 -20 -20 -20 -20 -20 -20 -20 -20 -20 -20 -20 -20 -20 -20 -20 -20 -20 -20 -20 -20 -20 -20 -20 -20 -20 -20 -20 -20 -20 -20 -20
-16 -20 -20 -20 -20 -20 -20 -20 -20 -20 -20 -20 -20 -20 -20 -20 -20 -20 -20 -20 6 4 -15 -20 -20 -20 -20 -20 -20 -20 -20 -20 -20 -20 -20 -20 -20 -20 -20 -20 -20 -20 -20 -20 -20 -20 -20 -20 -20 -20 -20 -20 -20 -20
-4 -20 -20 -20 -20 -20 -20 -20 -20 -20 -20 -20 -20 -20 -20 -20 -20 -20 -20 -20 -20 -20 -20 -20 -20 -20 -20 -20 -20 -20 -20 -20 -20 -20 -20 -20 -20 -20 -20 -20 -20 -20 -20 -20 -20 -20 -20 -20 -20 -20 -20 -20 -20 -20
-4 -20 -20 -20 -20 -20 -20 -20 -20 -20 -20 -20 -20 -20 -20 -20 -20 -20 -20 -20 -20 -20 -20 -20 -20 -20 -20 -20 -20 -20 -20 -20 -20 -20 -20 -20 -20 -20 -20 -20 -20 -20 -20 -20 -20 -20 -20 -20 -20 -20 -20 -20 -20 -13
-20 -20 -20 -20 -20 -20 -20 -20 -20 -20 -20 -20 -20 -20 -20 -20 -20 -20 -20 -20 -20 -20 -20 -20 -20 -20 -20 -20 -20 -20 -20 -20 -20 -20 -20 -20 -20 -20 -20 -20 -20 -20 -20 -20 -20 -20 -20 -20 -20 -20 -20 -20 -20 -20
-20 -20 -20 -20 -20 -20 -20 -20 -20 -20 -20 -20 -20 -20 -20 -20 -20 -20 -20 -20 -20 -20 -20 -20 -20 -20 -20 -20 -20 -20 -20 -20 -20 -20 -20 -20 -20 -20 -20 -20 -20 -20 -20 -20 -20 -20 -20 -20 -20 -20 -20 -20 -20 -20
-20 -20 -20 -20 -20 -20 -20 -20 -20 -20 -20 -20 -20 -20 -20 -20 -20 -20 -20 -20 -20 -20 -20 -20 -20 -20 -20 -20 -20 -20 -20 -20 -20 -20 -20 -20 -20 -20 -20 -20 -20 -20 -20 -20 -20 -20 -4 -8 -20 -18 -20 -20 -20 -20
-20 -20 -20 -20 -20 -20 -20 -20 -20 -20 -20 -20 -20 -20 -20 -20 -20 -20 -20 -20 -20 -20 -20 -20 -20 -20 -20 -20 -20 -20 -20 -20 -20 -20 -20 -20 -20 -20 -20 -20 -20 -20 -20 -20 -20 -20 -20 -20 -20 -20 -20 -20 -20 -19
-20 -20 -20 -20 -20 -20 -20 -20 -20 -20 -20 -20 -20 -20 -20 -20 -20 -20 -20 -20 -20 -20 -20 -20 -20 -20 -20 -20 -20 -20 -20 -20 -20 -20 -20 -20 -20 -20 -20 -20 -20 -20 -20 -20 -20 -20 -20 -20 -20 -20 -20 -20 -20 -18
-20 -20 -20 -20 -20 -20 -20 -20 -20 -20 -20 -20 -20 -20 -20 -20 -20 -20 -20 -20 -20 -20 -20 -20 -20 -20 -20 -20 -20 -20 -20 -20 -20 -20 -20 -20 -20 -20 -20 -20 -20 -20 -20 -20 -20 -20 -20 -20 -20 -20 -20 -20 -19 -16
-20 -20 -20 -20 -20 -20 -20 -20 -20 -20 -20 -20 -20 -20 -20 -20 -20 -20 -20 -20 -20 -20 -20 -20 -20 -20 -20 -20 -20 -20 -20 -20 -20 -18 -4 -3 -1 0 -16 -20 -20 -19 -16 -17 -20 -20 -20 -20 -20 -20 -20 -20 -20 -18

GFSWCAN_prec_radar_054.txt.gz
Reflectivity
1 13 16 11 -4 12 5 -18 -4 -20 8 -20 -16 -1 -20 -1 -3 -19 -20 6 -6 -6 -20 -20 -20 -20 -20 -20 -20 -20 -20 -20 -20 -11 -20 -20 -20 -17 -19 -20 -20 -20 -20 -6 -6 -10 -20 -20 -17 -18 -20 -20 -20 -20
-0 8 15 13 15 -14 -20 -20 -20 -20 -20 -0 -20 -20 10 -16 -1 3 -20 -18 -6 11 -10 -20 -20 -20 -20 -20 -20 -20 -20 -20 -20 -18 -20 -20 -20 -11 -20 -20 -20 -20 -20 -20 -20 -20 -20 -20 -20 -13 -20 -20 -20 -20
1 2 11 6 8 -20 -20 -20 -13 -15 -20 7 -8 -20 -15 10 -20 -16 -20 -20 -20 1 -20 -15 -20 -20 -20 -20 -20 -20 -20 -20 -20 -20 -20 -20 -20 -20 -20 -20 -20 -20 -20 -20 -20 -20 -19 -19 -20 -20 -20 -20 -20 -20
20 -5 7 3 -20 -20 -11 -20 -14 -13 -20 13 -20 -20 10 -6 -12 19 -12 -20 -20 4 7 -20 -17 -7 -2 -20 -20 -20 -20 -20 -20 -20 -20 -20 1 -20 -20 -20 -20 -20 -18 -20 -20 -15 -7 -19 -20 -20 -20 -20 -20 -20
-2 17 9 7 -1 -10 -3 -1 11 -18 -20 8 -19 -20 -18 -3 -19 21 18 -3 -12 -20 15 20 17 -13 6 -20 -20 -20 -20 -20 -13 -6 -5 1 -12 -15 -20 -20 -20 -20 -19 -2 -20 -20 -20 -20 -20 -20 -20 -20 -20 -20
28 18 -10 13 0 -20 -8 12 -7 -20 -19 -19 -11 -0 -20 -20 22 -20 -20 -20 -20 -11 33 23 23 -17 -20 -3 -14 -20 -20 -18 -9 -9 13 -4 -20 15 21 -1 -20 -20 -20 -20 -20 -20 -20 -20 -20 -20 -20 -20 -20 -20
19 23 -0 3 -18 6 12 8 -20 -20 14 -8 11 3 -20 18 -9 -20 -17 21 -6 21 36 33 39 31 20 4 -16 -16 -19 -20 -15 11 4 3 -14 15 27 -18 -20 -20 -20 -15 -17 -20 -20 -20 -20 -20 -20 -20 -20 -20
21 20 13 9 -19 -10 12 -14 -20 -9 -7 9 -14 -1 6 7 -20 -20 -18 20 29 32 34 26 27 15 2 -15 -12 -20 -16 -1 11 -3 13 10 20 21 22 -19 -20 -20 -20 -20 -20 -20 -20 -20 -20 -20 -20 -20 -20 -20
19 18 15 8 1 -0 -19 -20 -20 9 -18 -20 8 5 -20 -3 -20 1 18 28 32 24 26 6 -14 12 -19 -14 -20 5 13 24 10 19 18 23 23 7 -20 -18 -20 -20 -20 -20 -20 -20 -20 -20 -20 -20 -20 -20 -20 -20
29 17 10 14 5 -9 -20 -20 9 -4 0 -20 -20 7 19 14 17 18 22 24 24 21 9 13 -20 9 17 18 18 16 15 21 26 18 20 23 -4 -20 -20 -19 -20 -20 -20 -20 -20 -20 -20 -20 -20 -20 -20 -20 -20 -20
18 9 3 -3 -6 -20 -20 -2 -20 -18 1 -20 -20 21 16 17 22 26 19 21 8 -1 14 -12 -20 -16 -17 -16 7 -20 4 3 -7 9 28 13 -17 -20 -20 -20 -20 -20 -20 -20 -20 -20 -20 -20 -20 -20 -20 -20 -20 -20
11 3 7 -20 -20 -20 -20 -11 -15 -4 -7 -20 -20 14 12 2 15 20 20 3 10 -20 -19 -9 -20 -19 -14 -20 -20 -20 -20 -17 -12 5 12 -20 -20 -20 -20 -20 -20 -20 -20 -18 -17 -20 -20 -20 -20 -20 -20 -20 -20 -20
11 9 -20 -20 -20 -20 4 14 -6 3 -14 -20 -20 27 13 19 5 -17 -14 4 5 -20 -4 -14 9 -10 -20 -20 -20 -20 11 -19 -18 -16 -20 -20 -20 -20 -20 -20 -20 -20 20 38 27 13 -8 -11 -20 -20 -20 -20 -20 -20
10 4 -10 -18 -2 -17 -20 9 3 2 -20 -20 -20 -4 -20 -6 -20 -20 -20 -20 -20 -20 7 -20 21 -20 -20 -19 7 10 -16 -8 -20 -20 -20 -20 -20 -20 -20 -20 -20 -17 -4 -19 -5 22 28 19 20 12 0 -20 -20 0
-10 15 13 9 17 19 13 2 3 -1 -16 -20 -20 -20 -16 -18 -19 3 -16 -20 -20 -20 -14 -14 -19 -20 -20 9 -14 -19 -19 -20 -20 -20 -20 -20 -20 -20 -20 -20 -20 -20 -20 -1 7 -1 -10 -1 25 30 10 14 17 18
14 16 11 18 16 13 23 -2 11 -1 -20 -20 -20 -20 -20 -20 -20 -20 -20 -19 -20 3 -10 -12 18 -20 -20 -20 -20 -20 -20 -20 -20 -20 -20 -20 -20 -20 -20 -20 -20 -20 -20 -20 -20 -9 -7 -7 9 12 5 14 26 29
15 3 16 15 16 22 19 1 16 -1 -10 -20 -20 -20 -20 -20 -20 -20 -20 -8 -20 24 18 11 -20 -20 -18 -19 -20 -20 -20 -20 -20 -20 -20 -20 -20 -20 -20 -20 -20 -20 -20 -20 -20 -20 -20 -20 -19 -15 -19 -20 -12 -4
-2 -1 18 18 14 1 28 3 6 -0 -10 -16 -14 -20 -20 -20 -20 -20 -20 -20 -1 16 17 21 -12 -18 -20 -20 -20 -20 -20 -20 -20 -20 -20 -20 -20 -20 -20 -20 -20 -20 -20 -20 -20 -20 -20 -20 -20 -20 -20 -20 -20 -20
2 7 13 15 12 9 3 10 -1 -12 -20 6 5 -20 -20 -20 -20 -20 -20 -20 -6 23 1 5 -20 -20 -20 -20 -20 -20 -20 -20 -20 -20 -20 -20 -20 -20 -20 -20 -20 -20 -20 -20 -20 -20 -20 -20 -20 -20 -20 -20 -20 -20
18 15 20 14 12 -5 -7 -4 4 4 -3 -13 0 4 -20 -20 -20 -20 -20 -20 -20 -20 -20 -20 -20 -20 -20 -20 -20 -20 -20 -20 -20 -20 -20 -20 -20 -20 -20 -20 -20 -20 -20 -20 -20 -20 -20 -20 -20 -20 -20 -20 -20 -20
18 23 20 10 -8 -12 2 5 5 6 10 5 9 7 -2 -20 -20 -20 -20 -20 -20 -20 -20 -20 -20 -20 -20 -20 -20 -20 -20 -20 -20 -20 -20 -20 -20 -20 -20 -20 -20 -20 -20 -20 -20 -20 -20 -20 -20 -20 -20 -20 -20 -20
-9 12 -6 -20 -20 -20 -15 -9 -3 -2 -1 6 6 9 4 -2 -12 -20 -20 -20 -20 -17 -20 -20 -20 -20 -20 -20 -20 -20 -20 -20 -20 -20 -20 -20 -20 -20 -20 -20 -20 -20 -20 -20 -20 -20 -20 -20 -20 -20 -20 -20 -5 -20
-5 -20 -20 -20 -20 -20 -20 -20 -20 -20 -16 -9 -7 -5 -7 -19 -20 -20 -20 -20 -14 12 4 -18 -20 -20 -20 -20 -20 -20 -20 -20 -20 -20 -20 -20 -20 -20 -20 -20 -20 -20 -20 -20 -20 -20 -20 -20 -20 -20 -20 -20 -20 -20
-20 -20 -20 -20 -20 -20 -20 -20 -20 -20 -20 -20 -20 -20 -20 -20 -20 -20 -20 -20 -4 -17 -19 -20 -20 -20 -20 -20 -20 -20 -20 -20 -20 -20 -20 -20 -20 -20 -20 -20 -20 -20 -20 -20 -20 -20 -20 -20 -20 -20 -20 -20 -20 -20
-20 -20 -20 -20 -20 -20 -20 -20 -20 -20 -20 -20 -20 -20 -20 -20 -20 -20 -20 -20 -20 -20 -20 -20 -20 -20 -20 -20 -20 -20 -20 -20 -20 -20 -20 -20 -20 -20 -20 -20 -20 -20 -20 -20 -20 -20 -20 -20 -20 -20 -20 -20 -20 -20
-20 -20 -20 -20 -20 -20 -20 -20 -20 -20 -20 -20 -20 -20 -20 -20 -20 -20 -20 -20 -20 -20 -20 -20 -20 -20 -20 -20 -20 -20 -20 -20 -20 -20 -20 -20 -20 -20 -20 -20 -20 -20 -20 -20 -20 -20 -20 -20 -20 -20 -20 -20 -20 -20
-20 -20 -20 -20 -20 -20 -20 -20 -20 -20 -20 -20 -20 -20 -20 -20 -20 -20 -20 -20 -20 -20 -20 -20 -20 -20 -20 -20 -20 -20 -20 -20 -20 -20 -20 -20 -20 -20 -20 -20 -20 -20 -20 -20 -20 -20 -20 -20 -20 -20 -20 -20 -20 -20
-20 -20 -20 -20 -20 -20 -20 -20 -20 -20 -20 -20 -20 -20 -20 -20 -20 -20 -20 -20 -20 -20 -20 -20 -20 -20 -20 -20 -20 -20 -20 -20 -20 -20 -20 -20 -20 -20 -20 -20 -20 -20 -20 -20 -20 -20 -20 -20 -20 -20 -20 -20 -20 -20
-20 -20 -20 -20 -20 -20 -20 -20 -20 -20 -20 -20 -20 -20 -20 -20 -20 -20 -20 -20 -20 -20 -20 -20 -20 -20 -20 -20 -20 -20 -20 -20 -20 -20 -20 -20 -20 -20 -20 -20 -20 -20 -20 -20 -20 -20 -18 -20 -20 -19 -18 -20 -20 -20
-20 -20 -20 -20 -20 -20 -20 -20 -20 -20 -20 -20 -20 -20 -20 -20 -20 -20 -20 -20 -20 -20 -20 -20 -20 -20 -20 -20 -20 -20 -20 -20 -20 -20 -20 -20 -20 -20 -20 -20 -20 -20 -20 -20 -20 -20 -20 -20 -20 -20 -20 -20 -20 -20
-20 -20 -20 -20 -20 -20 -20 -20 -20 -20 -20 -20 -20 -20 -20 -20 -20 -20 -20 -20 -20 -20 -20 -20 -20 -20 -20 -20 -20 -20 -20 -20 -20 -20 -20 -20 -20 -20 -20 -20 -20 -20 -20 -20 -20 -20 -20 -20 -20 -20 -20 -20 -20 -20
-20 -20 -20 -20 -20 -20 -20 -20 -20 -20 -20 -20 -20 -20 -20 -20 -20 -20 -20 -20 -20 -20 -20 -20 -20 -20 -20 -20 -20 -20 -20 -20 -20 -20 -20 -20 -20 -20 -20 -20 -20 -20 -20 -20 -20 -20 -20 -20 -20 -20 -20 -20 -20 -20
-20 -20 -20 -20 -20 -20 -20 -20 -20 -20 -20 -20 -20 -20 -20 -20 -20 -20 -20 -20 -20 -20 -20 -20 -20 -20 -20 -20 -20 -20 -20 -20 -20 -20 -13 -6 -1 -4 -16 -19 -20 -20 -20 -20 -20 -20 -20 -20 -20 -20 -20 -20 -20 -20

GFSWCAN_prec_radar_057.txt.gz
Reflectivity
14 1 -17 -8 11 9 10 -11 -20 -20 -3 -20 9 -20 -19 -20 -20 -20 -20 -13 -20 -3 -18 -20 -20 -18 -20 -20 -20 -20 -20 -20 -20 -20 -20 -20 -20 -20 -20 -20 -20 -20 -20 -18 -20 -12 -20 -20 -20 -20 8 -20 -20 -20
13 4 14 -12 -0 -6 -17 -20 -20 -20 -10 -6 -3 9 -20 4 -20 -9 4 -20 -16 -20 -5 -20 -20 -20 -20 -11 -20 -20 -20 -20 -20 -20 -20 -20 -20 -16 -20 -20 -20 -20 -20 -20 -20 -20 -20 -20 -9 -18 -2 -20 -20 -20
16 27 10 17 14 -19 -4 -17 -17 -15 -19 -7 0 15 -15 -19 13 5 -16 1 -1 -12 -3 -18 -20 -20 -20 -20 -17 -20 -20 -20 -20 -20 -20 -20 -20 -20 -20 -20 -20 -20 -20 -20 -20 -20 -20 -20 -17 -1 -20 -20 -20 -20
14 20 24 4 -20 8 7 -16 -20 -5 -20 -20 -5 16 -20 7 -1 -6 -20 -10 -19 -20 4 -20 -8 -20 -20 -14 -11 -20 -20 -20 -20 -20 -20 -20 -19 -20 -20 -20 -20 -20 -20 -20 -20 -20 -16 -16 19 -12 -20 -20 -20 -20
4 3 22 13 15 12 13 -16 -8 3 5 -20 13 -18 -20 -18 -20 15 -20 -20 -20 -20 8 -20 -16 -10 8 -1 10 -20 -20 -20 -20 -19 -20 6 -20 -20 -20 -20 -20 -20 -20 -20 -2 -20 -20 -20 16 19 -20 -20 -20 -20
18 12 -5 30 28 13 16 -11 -4 -4 -20 -12 12 -20 8 -20 19 -20 -5 -20 -20 -20 -20 -13 14 27 12 19 17 20 19 -20 -20 4 6 -10 -20 -19 -11 -19 -20 -20 -20 -20 -20 -20 -20 -20 -20 -20 -20 -20 -20 -20
17 26 14 20 13 13 15 -16 -15 -18 -20 14 -20 -3 -20 8 -18 -17 -20 -1 1 -19 1 13 37 19 22 36 3 13 -20 -20 -20 3 3 -5 7 -3 16 3 -20 -20 -20 -20 -20 -20 -20 -20 -20 -20 -20 -20 -20 -20
8 17 20 27 22 9 20 -16 -8 -20 -20 -5 -20 -20 11 9 -6 -9 -9 -20 0 13 31 23 36 26 21 0 16 -1 4 -10 -1 -4 8 -14 -18 17 23 -19 -20 -20 -20 -20 -20 -20 -20 -20 -20 -20 -20 -20 -20 -20
19 19 12 24 20 23 3 -20 -20 -20 8 -20 -15 13 -18 -16 -18 -0 2 14 22 22 28 32 27 33 18 18 11 -12 -20 -18 -4 2 2 20 23 10 -17 -20 -20 -20 -20 -20 -20 -20 -20 -20 -20 -20 -20 -20 -20 -20
19 15 32 19 26 22 6 -20 -20 3 -20 3 -3 -0 22 12 23 28 28 23 26 28 21 28 13 29 -12 -3 -20 9 25 20 17 8 22 16 5 -16 -14 -20 -20 -20 -20 -20 -20 -20 -20 -20 -20 -20 -20 -20 -19 -20
25 18 36 27 30 18 -20 -20 -11 -20 -20 -14 -14 5 13 21 27 26 22 18 20 20 10 -19 -20 19 14 28 32 6 14 24 8 -7 21 -5 -19 -20 -20 -20 -20 -20 -20 -20 -20 -20 -20 -20 -20 -20 -20 -20 -20 -19
24 35 35 30 29 -16 -20 1 -20 -20 -20 -10 -15 5 20 22 28 18 -1 1 13 -20 -16 6 -20 -1 -3 -12 -14 -13 -20 -20 -19 5 11 -15 -20 -20 -20 -20 -20 -20 -20 -20 -12 3 6 -16 -20 -20 -20 -20 -20 -14
32 26 32 32 -7 -20 6 3 -20 -20 -20 -4 -19 28 8 6 10 -5 -19 -18 -12 -16 -14 -4 -2 -9 -18 -20 -20 -20 -20 -2 -12 1 -20 -20 -20 -20 -20 -20 -20 -20 -6 15 28 25 9 -6 0 -7 -20 -20 -20 -20
32 32 33 28 11 -20 9 16 -19 -20 -20 -2 -19 3 -10 -6 -20 -19 -20 -20 -20 -20 -6 -20 15 22 -16 -20 -20 1 -17 -5 -20 -20 -20 -20 -20 -20 -20 -20 -20 -9 -18 -1 2 -15 6 22 24 19 6 -7 -18 -20
32 33 30 17 -18 5 16 21 -9 -20 -20 -10 -20 -20 -16 -16 -19 -20 10 -10 -20 -20 -16 -18 30 -20 -20 -1 -17 -20 -20 -20 -20 -20 -20 -20 -20 -20 -20 -20 -20 -20 -20 -20 -20 -3 -20 -4 16 2 15 22 12 3
33 31 25 -5 14 21 9 -6 -13 -19 -20 -20 -20 -20 -20 -20 -20 -20 -9 19 -8 -20 13 17 -8 -20 -20 -20 -20 -20 -20 -20 -20 -20 -20 -20 -20 -20 -20 -20 -20 -20 -20 -20 -20 -19 -20 -17 3 6 -6 -18 -20 -8
27 13 1 20 14 22 25 -6 -19 -20 -9 -20 -20 -20 -20 -20 -20 -20 -20 -17 -12 7 23 -14 -20 -20 -19 -20 -20 -20 -20 -20 -20 -20 -20 -20 -20 -20 -20 -20 -20 -20 -20 -20 -20 -20 -20 -20 -20 -19 -8 3 -16 -20
-5 6 16 17 5 16 28 -12 -3 -19 -20 -20 -14 -12 -19 -20 -20 -20 -20 -20 -12 9 16 19 -8 -18 -20 -20 -20 -20 -20 -20 -20 -20 -20 -20 -20 -20 -20 -20 -20 -20 -20 -20 -20 -20 -20 -20 -20 -20 -20 -20 -20 -20
-12 13 15 1 3 -7 -3 -17 -20 -20 -20 -17 -7 -4 -9 -20 -20 -20 -20 -20 -16 -5 -14 -14 -20 -20 -20 -20 -20 -20 -20 -20 -20 -20 -20 -20 -20 -20 -20 -20 -20 -20 -20 -20 -20 -20 -20 -20 -20 -20 -20 -20 -20 -20
15 16 15 15 10 -14 -20 -20 -19 -15 -20 -20 -20 -9 -16 -9 -20 -20 -20 -20 -20 -20 -20 -20 -20 -20 -20 -20 -20 -20 -20 -20 -20 -20 -20 -20 -20 -20 -20 -20 -20 -20 -20 -20 -20 -20 -20 -20 -20 -20 -20 -20 -20 -20
24 24 23 13 -20 -16 -7 -8 -10 -16 -8 1 5 4 -20 -19 -20 -20 -20 -20 -20 -20 -20 -20 -20 -20 -20 -20 -20 -20 -20 -20 -20 -20 -20 -20 -20 -20 -20 -20 -20 -20 -20 -20 -20 -20 -20 -20 -20 -20 -20 -20 -20 -20
11 20 -15 -20 -20 -20 -11 -12 2 3 -4 -1 5 3 -11 -20 -20 -20 -20 -20 -20 -20 -20 -20 -20 -20 -20 -20 -20 -20 -20 -20 -20 -20 -20 -20 -20 -20 -20 -20 -20 -20 -20 -20 -20 -20 -20 -20 -20 -20 -20 -20 -20 -20
-15 -20 -20 -20 -20 -20 -20 -20 -20 -20 -12 -1 3 3 4 -7 -18 -20 -20 -20 -7 12 6 -13 -20 -20 -20 -20 -20 -20 -20 -20 -20 -20 -20 -20 -20 -20 -20 -20 -20 -20 -20 -20 -20 -20 -20 -20 -20 -20 -20 -20 -20 -20
-20 -20 -20 -20 -20 -20 -20 -20 -20 -20 -20 -20 -20 -14 -9 -16 -20 -20 -20 -6 -7 -19 -20 -20 -20 -20 -20 -20 -20 -20 -20 -20 -20 -20 -20 -20 -20 -20 -20 -20 -20 -20 -20 -20 -20 -20 -20 -20 -20 -20 -20 -20 -20 -20
-20 -20 -20 -20 -20 -20 -20 -20 -20 -20 -20 -20 -20 -20 -20 -20 -20 -6 -11 -20 -20 -20 -20 -20 -20 -20 -20 -20 -20 -20 -20 -20 -20 -20 -20 -20 -20 -20 -20 -20 -20 -20 -20 -20 -20 -20 -20 -20 -20 -20 -20 -20 -20 -20
-20 -20 -20 -20 -20 -20 -20 -20 -20 -20 -20 -20 -20 -20 -20 -20 -20 -20 -20 -20 -20 -20 -20 -20 -20 -20 -20 -20 -20 -20 -20 -20 -20 -20 -20 -20 -20 -20 -20 -20 -20 -20 -20 -20 -20 -20 -20 -20 -20 -20 -20 -20 -20 -20
-20 -20 -20 -20 -20 -20 -20 -20 -20 -20 -20 -20 -20 -20 -20 -20 -20 -20 -20 -20 -20 -20 -20 -20 -20 -20 -20 -20 -20 -20 -20 -20 -20 -20 -20 -20 -20 -20 -20 -20 -20 -20 -20 -20 -20 -20 -20 -20 -20 -20 -20 -20 -20 -20
-20 -20 -20 -20 -20 -20 -20 -20 -20 -20 -20 -20 -20 -20 -20 -20 -20 -20 -20 -20 -20 -20 -20 -20 -20 -20 -20 -20 -20 -20 -20 -20 -20 -20 -20 -20 -20 -20 -20 -20 -20 -20 -20 -20 -20 -20 -20 -20 -20 -20 -20 -20 -20 -20
-20 -20 -20 -20 -20 -20 -20 -20 -20 -20 -20 -20 -20 -20 -20 -20 -20 -20 -20 -20 -20 -20 -20 -20 -20 -20 -20 -20 -20 -20 -20 -20 -20 -20 -20 -20 -20 -20 -20 -20 -20 -20 -20 -20 -20 -20 -20 -20 -20 -20 -20 -20 -20 -20
-20 -20 -20 -20 -20 -20 -20 -20 -20 -20 -20 -20 -20 -20 -20 -20 -20 -20 -20 -20 -20 -20 -20 -20 -20 -20 -20 -20 -20 -20 -20 -20 -20 -20 -20 -20 -20 -20 -20 -20 -20 -20 -20 -20 -20 -20 -20 -20 -20 -20 -20 -20 -20 -20
-20 -20 -20 -20 -20 -20 -20 -20 -20 -20 -20 -20 -20 -20 -20 -20 -20 -20 -20 -20 -20 -20 -20 -20 -20 -20 -20 -20 -20 -20 -20 -20 -20 -20 -20 -20 -20 -20 -20 -20 -20 -20 -20 -20 -20 -20 -20 -20 -20 -20 -20 -20 -20 -20
-20 -20 -20 -20 -20 -20 -20 -20 -20 -20 -20 -20 -20 -20 -20 -20 -20 -20 -20 -20 -20 -20 -20 -20 -20 -20 -20 -20 -20 -20 -20 -20 -20 -20 -20 -20 -20 -20 -20 -20 -20 -20 -20 -20 -20 -20 -20 -20 -20 -20 -20 -20 -20 -20
-20 -20 -20 -20 -20 -20 -20 -20 -20 -20 -20 -20 -20 -20 -20 -20 -20 -20 -20 -20 -20 -20 -20 -20 -20 -20 -20 -20 -20 -20 -20 -20 -20 -20 -20 -20 -8 -9 -17 -20 -20 -20 -20 -20 -20 -20 -20 -20 -20 -20 -20 -20 -20 -20

GFSWCAN_prec_radar_060.txt.gz
Reflectivity
8 6 19 12 6 -20 12 -11 -11 -12 -20 -20 -20 -3 -20 -20 -14 -20 -20 -20 -20 -3 -5 -20 -20 -12 -9 -20 -20 -20 -20 -20 -20 6 -14 -20 -20 -20 -20 -20 -20 -20 -11 -11 -19 -3 -20 -20 -20 -6 -12 -20 -20 -20
1 9 1 -0 -18 10 2 10 -16 -19 -2 -4 -20 -20 6 -20 -5 -16 -20 -20 -20 -20 -16 4 -16 -20 -20 -20 -9 -20 -20 -20 -20 1 -20 -20 -20 -4 -9 6 -20 -20 -20 -20 -20 -20 -20 -20 -20 -20 -5 -20 -20 -20
10 -1 14 19 12 5 19 -2 4 -16 18 -15 -20 -20 11 13 -20 14 -20 -20 -10 5 -20 -20 -18 -4 -11 -20 -19 -19 -20 -20 -20 -20 -7 -13 -20 -20 -8 -19 -20 -20 -20 -20 -20 -20 -20 -20 -20 -20 -17 -8 -20 -20
-4 1 3 4 11 7 -9 -9 -1 7 -20 -19 14 -2 9 -16 -20 10 12 1 -0 -6 -3 -8 2 10 9 7 -0 10 -20 -20 -20 -20 8 9 1 -20 -20 -20 -20 -20 -20 -20 -20 -20 -20 -20 -20 -19 -10 -20 -20 -20
12 12 -2 -1 -19 -15 -18 5 8 7 -20 -16 -4 -20 14 -7 4 13 11 -15 -0 -20 -11 -20 -20 -20 -16 7 1 30 -14 -20 11 16 12 11 -9 -2 -20 -20 -20 -20 -20 -20 -20 -20 -20 -20 -20 -10 -19 -20 -20 -20
6 -20 5 16 5 14 -2 3 -2 -20 -3 -20 -20 8 -19 -20 8 12 -20 -20 -20 -20 12 -20 -20 -20 -20 -2 14 24 12 0 -19 19 -19 -8 -20 2 -20 -5 -20 -20 -20 -20 -20 -20 -20 -20 -20 -20 -20 -19 -20 -20
1 10 13 15 22 18 20 7 7 1 -20 -20 -18 -15 -20 7 -14 12 -20 -10 11 -6 4 10 -10 -15 0 4 20 20 25 12 16 16 -12 -2 -20 -4 7 -5 -20 -20 -20 -20 -20 -20 -20 -20 -20 -20 -20 -20 -20 -20
-20 -17 18 14 17 -9 25 14 5 -20 -20 -20 -3 -20 -12 -5 -5 -13 -8 -20 -20 12 12 10 17 32 27 39 29 33 28 20 -2 21 -20 -5 -19 -16 14 -20 -20 -20 -20 -20 -20 -20 -20 -20 -20 -20 -20 -20 -20 -20
-20 -20 -12 1 12 16 30 7 -18 -20 -12 -20 -20 -3 -13 -13 -16 -20 -20 4 -3 9 11 25 27 21 34 31 23 27 19 17 -7 18 14 -19 17 4 -20 -17 -20 -20 -20 -20 -20 -20 -20 -20 -20 -20 -20 -20 -20 -20
-20 -20 1 5 27 18 31 26 -17 -12 -3 -20 -20 -19 0 -15 -19 21 19 27 27 19 22 -0 31 21 19 13 31 3 -4 2 7 3 -2 15 3 -20 -20 -20 -20 -13 -20 -20 -20 -20 -20 -20 -20 -20 -20 -20 -20 -20
-17 -16 3 23 21 36 24 26 21 15 -16 -20 -12 3 3 26 20 19 29 16 20 12 15 13 26 28 9 6 -3 0 30 19 13 -4 18 0 14 -12 -20 -18 -15 -14 -1 -20 -20 -20 -20 -20 -20 -20 -20 -20 -20 -20
-7 -16 19 30 26 39 16 10 15 11 -20 -20 -20 -20 13 27 26 17 13 2 18 -20 -18 8 -20 16 10 1 24 10 -15 -13 7 7 14 -1 -15 -20 -20 -20 -16 -20 -20 -20 -20 -20 -9 -6 -8 -20 -20 -20 -20 -20
-3 15 -10 25 32 34 30 15 22 7 -20 -20 -12 12 22 21 15 -1 -16 2 -0 -9 -20 -8 -6 17 18 -16 -20 -0 -20 -8 -14 4 -6 -20 -16 -16 -20 -20 -20 -20 -6 24 4 13 12 4 -0 9 4 -19 -20 -20
-17 22 25 36 34 24 15 23 22 3 -20 -11 -11 -18 -19 0 -17 -20 -20 -20 -20 -20 -20 11 16 -13 -20 -20 -20 -19 -17 -3 8 8 -20 -20 -20 -20 -20 -20 -20 18 -2 10 1 6 16 23 23 21 21 -1 -20 -20
27 39 39 38 25 11 21 26 22 -7 -20 -20 -19 -20 -19 -18 -17 -20 -20 -20 -20 -20 -20 -13 14 -5 -13 -20 -20 -19 -2 -7 -8 -20 -20 -20 -20 -20 -20 -20 -20 -20 -19 -20 -20 -20 -20 -19 -18 -1 13 5 19 21
31 39 35 27 15 21 28 26 10 -15 -20 -20 -19 -20 -20 -14 -19 -20 -10 -20 -16 -20 5 -0 16 -18 -18 -20 -18 -20 -18 -20 -20 -20 -20 -20 -20 -20 -20 -20 -20 -20 -20 -20 -20 -20 -20 -20 -20 -13 -20 -20 -19 -20
33 30 27 26 29 27 25 5 4 -9 -20 -20 -20 -20 -20 -6 -20 -15 -11 -2 -1 -19 9 19 -19 -20 -19 -20 -20 -20 -20 -20 -20 -20 -20 -20 -20 -20 -20 -20 -20 -20 -20 -20 -20 -20 -20 -20 -20 -20 -9 -20 -20 -20
19 28 30 29 19 8 23 -20 -17 -20 -20 -20 -20 -20 -10 2 -11 -20 -5 20 18 13 1 19 -17 -20 -19 -20 -20 -20 -20 -20 -20 -20 -20 -20 -20 -20 -20 -20 -20 -20 -20 -20 -20 -20 -20 -20 -20 -20 -20 -20 -20 -20
23 24 22 10 -17 -20 -11 -19 -20 -20 -20 -20 -20 -20 -20 -19 -5 -20 -20 8 20 21 5 -0 -17 -20 -20 -20 -20 -20 -20 -20 -20 -20 -20 -20 -20 -20 -20 -20 -20 -20 -20 -20 -20 -20 -20 -20 -20 -20 -20 -20 -20 -20
18 18 12 -9 -20 -20 -20 -20 -20 -20 -20 -20 -20 -20 -20 -20 -20 -20 -20 -20 -20 -19 -20 -20 -20 -20 -20 -20 -20 -20 -20 -20 -20 -20 -20 -20 -20 -20 -20 -20 -20 -20 -20 -20 -20 -20 -20 -20 -20 -20 -20 -20 -20 -20
23 15 5 -17 -20 -20 -20 -20 -20 -20 -20 -20 -20 -20 -20 -20 -20 -20 -20 -20 -20 -20 -20 -20 -20 -20 -20 -20 -20 -20 -20 -20 -20 -20 -20 -20 -20 -20 -20 -20 -20 -20 -20 -20 -20 -20 -20 -20 -20 -20 -20 -20 -20 -20
-4 -1 -19 -12 -20 -20 -20 -20 -20 -20 -20 -20 -20 -20 -20 -20 -20 -20 -20 -20 -20 -20 -20 -20 -20 -20 -20 -20 -20 -20 -20 -20 -20 -20 -20 -20 -20 -20 -20 -20 -20 -20 -20 -20 -20 -20 -20 -20 -20 -20 -20 -20 -20 -20
-8 -20 -20 -20 -20 -20 -20 -20 -20 -20 -20 -14 -15 -7 3 4 1 -0 -4 -20 -20 -18 -20 -20 -20 -20 -20 -20 -20 -20 -20 -20 -20 -20 -20 -20 -20 -20 -20 -20 -20 -20 -20 -20 -20 -20 -20 -20 -20 -20 -20 -20 -20 -20
-20 -20 -20 -20 -20 -20 -20 -20 -20 -20 -20 -20 -20 -16 -7 1 -2 2 3 4 -18 -20 -19 -20 -20 -20 -20 -20 -20 -20 -20 -20 -20 -20 -20 -20 -20 -20 -20 -20 -20 -20 -20 -20 -20 -20 -20 -20 -20 -20 -20 -20 -20 -20
-20 -20 -20 -20 -20 -20 -20 -20 -20 -20 -20 -20 -20 -20 -20 -20 -20 -11 -14 -19 -20 -20 -20 -20 -20 -20 -20 -20 -20 -20 -20 -20 -20 -20 -20 -20 -20 -20 -20 -20 -20 -20 -20 -20 -20 -20 -20 -20 -20 -20 -20 -20 -20 -20
-20 -20 -20 -20 -20 -20 -20 -20 -20 -20 -20 -20 -20 -20 -20 -20 -20 -20 -20 -20 -20 -20 -20 -20 -20 -20 -20 -20 -20 -20 -20 -20 -20 -20 -20 -20 -20 -20 -20 -20 -20 -20 -20 -20 -20 -20 -20 -20 -20 -20 -20 -20 -20 -20
-20 -20 -20 -20 -20 -20 -20 -20 -20 -20 -20 -20 -20 -20 -20 -20 -20 -20 -20 -20 -20 -20 -20 -20 -20 -20 -20 -20 -20 -20 -20 -20 -20 -20 -20 -20 -20 -20 -20 -20 -20 -20 -20 -20 -20 -20 -20 -20 -20 -20 -20 -20 -20 -20
-20 -20 -20 -20 -20 -20 -20 -20 -20 -20 -20 -20 -20 -20 -20 -20 -20 -20 -20 -20 -20 -20 -20 -20 -20 -20 -20 -20 -20 -20 -20 -20 -20 -20 -20 -20 -20 -20 -20 -20 -20 -20 -20 -20 -20 -20 -20 -20 -20 -20 -20 -20 -20 -20
-20 -20 -20 -20 -20 -20 -20 -20 -20 -20 -20 -20 -20 -20 -20 -20 -20 -20 -20 -20 -20 -20 -20 -20 -20 -20 -20 -20 -20 -20 -20 -20 -20 -20 -20 -20 -20 -20 -20 -20 -20 -20 -20 -20 -20 -20 -20 -20 -20 -20 -20 -20 -20 -20
-20 -20 -20 -20 -20 -20 -20 -20 -20 -20 -20 -20 -20 -20 -20 -20 -20 -20 -20 -20 -20 -20 -20 -20 -20 -20 -20 -20 -20 -20 -20 -20 -20 -20 -20 -20 -20 -20 -20 -20 -20 -20 -20 -20 -20 -20 -20 -20 -20 -20 -20 -20 -20 -20
-20 -20 -20 -20 -20 -20 -20 -20 -20 -20 -20 -20 -20 -20 -20 -20 -20 -20 -20 -20 -20 -20 -20 -20 -20 -20 -20 -20 -20 -20 -20 -20 -20 -20 -20 -20 -20 -20 -20 -20 -20 -20 -20 -20 -20 -20 -20 -20 -20 -20 -20 -20 -20 -20
-20 -20 -20 -20 -20 -20 -20 -20 -20 -20 -20 -20 -20 -20 -20 -20 -20 -20 -20 -20 -20 -20 -20 -20 -20 -20 -20 -20 -20 -20 -20 -20 -20 -20 -20 -20 -20 -20 -20 -20 -20 -20 -20 -20 -20 -20 -20 -20 -20 -20 -20 -20 -20 -20
-20 -20 -20 -20 -20 -20 -20 -20 -20 -20 -20 -20 -20 -20 -20 -20 -20 -20 -20 -20 -20 -20 -20 -20 -20 -20 -20 -20 -20 -20 -20 -20 -20 -20 -20 -20 -20 -20 -20 -20 -20 -20 -20 -20 -20 -20 -20 -20 -20 -20 -20 -20 -20 -20

GFSWCAN_prec_radar_063.txt.gz
Reflectivity
-3 -4 8 3 -5 4 -20 -12 -14 -3 -20 -20 -20 -20 -20 -20 -20 -20 -8 -20 -8 -20 -20 -20 -20 -20 -10 -4 -10 -2 -7 -13 3 -1 -16 -20 -20 -20 -20 -20 -20 -20 -16 -12 -14 -15 -20 -20 -20 -20 -5 -14 -20 -20
9 9 5 0 -20 -19 -19 -20 -19 -20 -20 -20 -20 -20 -20 -18 11 -1 -6 -7 -1 8 -20 -20 -20 -13 -20 13 13 -20 -16 -17 -3 -7 -4 5 -6 -17 -14 -18 -20 -20 -20 -20 -20 -20 -20 -20 -20 -20 -20 -20 -20 -20
5 10 2 8 4 12 -20 -12 2 -20 -18 -20 -20 -17 -20 -20 13 5 6 -3 -8 4 -20 -20 -20 -8 -12 -20 13 28 -9 -8 -16 -20 13 9 -2 2 1 -20 1 -20 -20 -20 -20 -20 -20 -20 -20 -20 -20 -20 -20 -20
-20 -4 12 1 10 13 11 3 -6 -14 -20 -20 -20 9 10 -20 17 6 17 11 14 14 10 -15 -16 -20 -20 -20 -20 11 0 -20 -20 -18 10 4 3 -20 3 -20 -20 -8 -20 -20 -20 -20 -20 -20 -20 -20 -20 -20 -20 -20
-20 -20 -13 8 0 13 15 4 12 13 3 -18 3 -3 0 -8 8 0 -10 0 13 16 10 -9 -20 -20 -20 -20 -20 0 24 -3 -6 23 1 -7 7 -20 -20 -16 -20 -20 -20 -20 -20 -20 -20 -13 -20 -20 -20 -20 -19 -20
-20 -20 -20 -19 14 -7 12 7 -13 12 18 -12 -7 -20 -20 14 -7 9 6 -20 -1 21 26 -8 -20 -20 -20 -20 -20 9 31 15 7 23 12 11 -18 -20 0 -4 -20 -20 -20 -20 -20 -20 -20 -20 -20 -20 -20 -20 -20 -20
-20 -20 -20 -20 -18 -8 17 17 20 29 17 10 -9 -20 -20 2 12 -12 -4 10 -20 13 14 9 1 16 -20 -11 6 15 35 35 14 24 11 15 -19 -1 -2 -15 -20 -20 -20 -20 -20 -20 -20 -20 -20 -20 -20 -20 -20 -20
-20 -20 -20 -20 -20 -6 15 20 17 22 12 18 -0 -20 -20 -20 12 16 -20 6 -15 4 11 9 -16 33 6 15 18 25 19 37 29 16 4 17 17 3 3 -20 -20 -20 -20 -20 -20 -20 -20 -20 -20 -20 -20 -20 -20 -20
-20 -20 -20 -20 -20 -0 8 17 18 20 30 20 13 -8 9 14 14 9 -0 10 14 14 13 11 8 31 -1 -19 33 37 24 37 28 30 19 -5 4 4 -20 -20 -20 -20 -20 -20 -20 -20 -20 -20 -20 -20 -20 -20 -20 -20
-20 -20 -20 -20 -20 -20 -17 22 27 24 27 22 20 11 6 1 -20 5 24 26 21 15 7 1 13 29 25 32 34 34 36 35 23 1 -3 17 4 -20 -20 -20 -20 -20 -20 -20 -20 -20 -20 -20 -20 -20 -20 -20 -20 -20
-20 -20 -20 -16 -12 -10 5 31 33 23 25 24 18 13 3 25 22 25 29 11 -4 8 -1 -10 17 32 28 17 9 -14 -3 -5 -4 -15 5 5 -20 -20 -20 -20 -20 -10 -6 -4 -19 -20 -20 -20 -20 -20 -20 -20 -20 -20
-20 -17 -20 -19 -6 -20 -19 32 27 33 4 20 17 12 8 27 28 18 11 1 5 -3 6 14 11 29 21 22 17 8 13 25 13 2 20 -10 -14 -2 -16 -20 -20 -18 -20 -20 -20 -20 -20 -20 -20 -18 -15 -20 -20 -20
-6 1 -17 6 -1 17 36 22 26 30 29 25 14 26 11 16 16 13 8 8 12 -20 -14 -5 5 30 18 3 -4 15 -16 -2 -3 12 -17 -19 -20 -9 -15 -16 -13 -20 -20 -13 -9 -7 -3 2 -2 -8 2 7 -7 -20
-6 -17 -17 -15 -1 24 28 25 29 26 27 17 9 11 -5 5 1 -1 -18 5 -20 -20 -20 -20 20 32 9 12 9 -17 5 8 5 7 -14 -20 -20 -20 -20 -20 -17 17 -3 8 -18 -4 -11 10 3 11 18 23 13 2
-0 3 -2 14 4 13 32 40 27 27 22 17 10 -3 -5 -16 -10 -20 -20 -20 -12 -20 -18 11 27 9 4 6 -19 -19 -6 -2 -1 -20 -20 -20 -20 -20 -20 -20 -15 -15 -14 -20 -20 -20 -20 -20 -20 -20 -20 -5 -4 18
9 13 27 22 27 36 34 31 32 22 18 15 -7 -20 -20 -16 0 -3 -15 -20 -20 -19 14 13 22 -8 -20 -20 -17 -20 -20 -20 -20 -20 -20 -20 -20 -20 -20 -20 -20 -20 -20 -20 -20 -20 -20 -20 -20 -20 -20 -20 -20 -20
-0 20 33 35 35 34 22 29 30 7 3 -2 -20 -20 -20 -20 4 14 2 15 24 20 5 28 -11 -18 -20 -20 -20 -20 -20 -20 -20 -20 -20 -20 -20 -20 -20 -20 -20 -20 -20 -20 -20 -20 -20 -20 -20 -20 -20 -20 -20 -20
12 29 29 21 20 25 31 26 8 -5 -20 -13 -20 -20 -20 -19 21 9 1 29 29 27 -6 24 1 -17 -20 -20 -20 -20 -20 -20 -20 -20 -20 -20 -20 -20 -20 -20 -20 -20 -20 -20 -20 -20 -20 -20 -20 -20 -20 -20 -20 -20
27 22 18 28 24 8 5 10 -2 -17 -20 -20 -20 -20 -20 -20 -15 10 -1 25 30 32 31 5 -15 -20 -20 -20 -20 -20 -20 -20 -20 -20 -20 -20 -20 -20 -20 -20 -20 -20 -20 -20 -20 -20 -20 -20 -20 -20 -20 -20 -20 -20
26 26 23 18 -10 3 -4 -18 -20 -20 -20 -20 -20 -10 -20 -20 -20 -18 -17 -20 -12 15 9 -20 -20 -20 -20 -20 -20 -20 -20 -20 -20 -20 -20 -20 -20 -20 -20 -20 -20 -20 -20 -20 -20 -20 -20 -20 -20 -20 -20 -20 -20 -20
18 22 18 -3 -20 -20 -20 -20 -20 -20 -20 -20 -20 -20 -20 -20 -20 -20 -20 -20 -20 -20 -20 -20 -14 -15 -20 -20 -20 -20 -20 -20 -20 -20 -20 -20 -20 -20 -20 -20 -20 -20 -20 -20 -20 -20 -20 -20 -20 -20 -20 -20 -20 -20
-0 -20 -20 -20 -20 -20 -20 -20 -20 -20 -8 -20 -20 -20 -20 -20 -20 -20 -20 -20 -20 -20 -20 -20 -20 -20 -20 -20 -20 -20 -20 -20 -20 -20 -20 -20 -20 -20 -20 -20 -20 -20 -20 -20 -20 -20 -20 -20 -20 -20 -20 -20 -20 -20
-20 -20 -20 -20 -20 -20 -20 -20 -20 -20 -20 -20 -20 -20 -20 -20 -20 -20 -16 -20 -20 -18 -20 -20 -20 -20 -20 -20 -20 -20 -20 -20 -20 -20 -20 -20 -20 -20 -20 -20 -20 -20 -20 -20 -20 -20 -20 -20 -20 -20 -20 -20 -20 -20
-20 -20 -20 -20 -20 -20 -20 -20 -20 -20 -20 -20 -20 -20 -20 -20 -20 -19 -20 -20 -20 -20 -20 -20 -20 -20 -20 -20 -20 -20 -20 -20 -20 -20 -20 -20 -20 -20 -20 -20 -20 -20 -20 -20 -20 -20 -20 -20 -20 -20 -20 -20 -20 -20
-20 -20 -20 -20 -20 -20 -20 -20 -20 -20 -20 -20 -20 -20 -20 -20 -20 -4 -0 -1 -4 -8 -16 -20 -20 -20 -20 -20 -20 -20 -20 -20 -20 -20 -20 -20 -20 -20 -20 -20 -20 -20 -20 -20 -20 -20 -20 -20 -20 -20 -20 -20 -20 -20
-20 -20 -20 -20 -20 -20 -20 -20 -20 -20 -20 -20 -20 -20 -20 -20 -20 -20 -20 -20 -20 -20 -20 -20 -20 -20 -20 -20 -20 -20 -20 -20 -20 -20 -20 -20 -20 -20 -20 -20 -20 -20 -20 -20 -20 -20 -20 -20 -20 -20 -20 -20 -20 -20
-20 -20 -20 -20 -20 -20 -20 -20 -20 -20 -20 -20 -20 -20 -20 -20 -20 -20 -20 -20 -20 -20 -20 -20 -20 -20 -20 -20 -20 -20 -20 -20 -20 -20 -20 -20 -20 -20 -20 -20 -20 -20 -20 -20 -20 -20 -20 -20 -20 -20 -20 -20 -20 -20
-20 -20 -20 -20 -20 -20 -20 -20 -20 -20 -20 -20 -20 -20 -20 -20 -20 -20 -20 -20 -20 -20 -20 -20 -20 -20 -20 -20 -20 -20 -20 -20 -20 -20 -20 -20 -20 -20 -20 -20 -20 -20 -20 -20 -20 -20 -20 -20 -20 -20 -20 -20 -20 -20
-20 -20 -20 -20 -20 -20 -20 -20 -20 -20 -20 -20 -20 -20 -20 -20 -20 -20 -20 -20 -20 -20 -20 -20 -20 -20 -20 -20 -20 -20 -20 -20 -20 -20 -20 -20 -20 -20 -20 -20 -20 -20 -20 -20 -20 -20 -20 -20 -20 -20 -20 -20 -20 -20
-20 -20 -20 -20 -20 -20 -20 -20 -20 -20 -20 -20 -20 -20 -20 -20 -20 -20 -20 -20 -20 -20 -20 -20 -20 -20 -20 -20 -20 -20 -20 -20 -20 -20 -20 -20 -20 -20 -20 -20 -20 -20 -20 -20 -20 -20 -20 -20 -20 -20 -20 -20 -20 -20
-20 -20 -20 -20 -20 -20 -20 -20 -20 -20 -20 -20 -20 -20 -20 -20 -20 -20 -20 -20 -20 -20 -20 -20 -20 -20 -20 -20 -20 -20 -20 -20 -20 -20 -20 -20 -20 -20 -20 -20 -20 -20 -20 -20 -20 -20 -20 -20 -20 -20 -20 -20 -20 -20
-20 -20 -20 -20 -20 -20 -20 -20 -20 -20 -20 -20 -20 -20 -20 -20 -20 -20 -20 -20 -20 -20 -20 -20 -20 -20 -20 -20 -20 -20 -20 -20 -20 -20 -20 -20 -20 -20 -20 -20 -20 -20 -20 -20 -20 -20 -20 -20 -20 -20 -20 -20 -20 -20
-20 -20 -20 -20 -20 -20 -20 -20 -20 -20 -20 -20 -20 -20 -20 -20 -20 -20 -20 -20 -20 -20 -20 -20 -20 -20 -20 -20 -20 -20 -20 -20 -20 -20 -20 -20 -20 -20 -20 -20 -20 -20 -20 -20 -20 -20 -20 -20 -20 -20 -20 -20 -20 -20

GFSWCAN_prec_radar_066.txt.gz
Reflectivity
13 4 -11 -1 -1 -12 -8 -19 4 -14 -20 -20 -20 -20 -20 -20 -2 -20 -20 -20 -20 -20 -20 -20 -20 -20 -20 -17 21 15 23 -13 -17 13 5 -20 -20 -9 -20 -20 -20 -20 -15 -19 -19 -5 -20 -20 -20 -20 -20 -20 -20 -20
-15 2 -3 8 6 14 14 12 -14 -15 -20 -20 -20 -20 -20 -20 -18 17 2 -10 -19 12 -20 -20 -20 -20 -20 -20 -9 21 25 -17 22 2 -19 -20 -18 -20 -20 -19 -20 -20 -20 -20 -20 -20 -20 -20 -20 -20 -20 -20 -20 -20
-20 -20 -15 3 -4 -16 -7 -19 16 6 -11 -11 7 -20 -20 -20 -16 17 -7 10 7 12 -20 -20 -18 -3 -20 -20 -20 -14 21 25 -16 -20 -4 4 -2 -20 -20 -20 -17 -20 -20 -20 -20 -20 -20 -20 -20 -20 -20 -20 -20 -20
-13 -20 -20 -20 7 8 7 -3 5 -11 -10 8 2 -3 -20 10 -7 12 -4 14 8 14 1 -20 -15 -20 -20 -20 -20 -20 2 27 5 -9 -5 7 -20 -20 -16 -20 -20 -18 -20 -20 -20 -20 -20 -20 -20 -20 -20 -20 -20 -20
-20 -20 -20 -20 -20 -12 13 9 2 -5 17 14 17 6 9 14 13 15 12 -11 -2 2 -4 -11 -17 -20 -20 -14 -20 -20 -9 16 30 4 11 -20 -20 -20 -20 -20 -20 -20 -20 -20 -20 -20 -20 -20 -20 -20 -20 -20 -20 -20
-9 -20 -20 -20 -20 -20 -7 15 17 8 16 11 24 24 18 8 14 5 4 -20 11 -2 22 -4 -20 -20 -20 -20 -20 -20 14 7 35 31 18 9 -6 -20 -20 -20 -20 -20 -20 -20 -20 -20 -20 -20 -20 -20 -20 -20 -20 -20
2 -18 -20 -20 -20 -20 -20 -20 10 18 16 22 21 26 15 6 14 3 -12 4 -20 -20 -4 -17 -20 -20 -8 -15 -20 -20 12 17 28 37 20 2 18 -10 -18 -20 -20 -20 -20 -20 -20 -20 -20 -20 -20 -20 -20 -20 -20 -20
-11 -20 -20 -20 -20 -20 -20 -20 -20 -0 -5 23 25 24 16 12 13 0 -7 1 -20 -20 12 -11 -20 -10 -17 11 9 -2 7 17 29 38 18 5 14 18 0 -20 -20 -20 -20 -20 -20 -20 -20 -20 -20 -20 -20 -20 -20 -20
-20 -20 -20 -20 -20 -20 -20 -20 -20 -19 17 15 25 15 9 -4 1 8 -20 10 0 -15 13 9 6 5 27 6 19 9 19 21 25 23 21 20 -11 -17 -20 -12 -20 -20 -20 -20 -20 -20 -20 -20 -20 -20 -20 -20 -20 -20
-20 -20 -20 -20 -20 -16 -1 -20 -18 12 28 32 21 -2 9 7 -5 -4 -0 30 28 24 15 3 -3 1 28 13 23 23 32 18 16 30 7 -19 -19 -20 -20 -20 -20 -20 -20 -20 -20 -20 -20 -20 -20 -20 -20 -20 -20 -20
-20 -20 -20 -20 -20 -20 -20 4 -1 20 30 30 28 -19 -6 22 21 23 15 7 1 8 -0 -13 -9 15 25 32 35 25 29 10 -1 24 4 10 -20 4 -20 -20 -20 -20 -20 -19 -17 -20 -20 -20 -20 -20 -20 -20 -20 -20
-20 -20 -20 -20 -15 -2 9 13 27 34 32 23 -3 15 17 26 27 14 -1 -14 3 -20 -1 13 7 24 27 30 19 -13 25 15 4 -7 13 -17 -20 -20 -20 -20 -20 -20 -13 -10 -17 -19 -20 -20 -20 -20 -20 -20 -20 -10
-20 -20 -20 -20 -17 16 17 20 18 22 33 21 28 32 15 20 9 6 -19 7 6 -4 -14 21 28 29 29 24 -8 20 -20 -20 -18 2 1 -20 -20 -20 -11 -20 -20 -19 -10 -20 -20 -20 -20 -5 -12 -13 -3 -13 -4 -7
1 -12 -20 -4 15 11 -20 20 21 25 33 28 4 8 -8 1 -3 -9 -4 -1 -20 -20 -20 13 37 35 13 21 13 -19 4 -10 -20 -17 -15 -20 -20 -20 -20 -20 -20 -18 17 20 14 -0 12 -1 4 12 12 3 10 13
-8 1 12 -20 1 15 11 16 35 32 19 -2 1 -5 -13 -18 6 11 7 -20 -20 -20 -19 18 29 31 29 15 -3 -2 -20 -20 -16 -20 -20 -20 -20 -20 -20 -20 -20 -20 9 9 -9 -20 -20 -20 -20 -20 -20 -20 -20 -20
10 18 8 -19 14 30 36 19 19 32 30 22 -7 -20 -20 -20 -20 -11 26 9 13 14 3 24 25 19 0 -20 -12 -16 -20 -20 -20 -20 -20 -20 -20 -20 -20 -20 -20 -20 -20 -20 -20 -20 -20 -20 -20 -20 -20 -20 -20 -20
16 -3 -3 9 18 24 19 23 34 13 0 7 -20 -15 -15 2 -20 1 15 24 -13 8 20 28 10 -4 2 -20 -20 -20 -20 -20 3 -20 -20 -20 -20 -20 -20 -20 -20 -20 -20 -20 -20 -20 -20 -20 -20 -20 -20 -20 -20 -20
1 14 23 19 17 22 31 31 14 4 -6 -18 -9 -12 -20 -20 -20 14 11 25 23 24 24 26 20 7 -20 9 -20 -20 -20 -20 -20 -20 -20 -20 -20 -20 -20 -20 -20 -20 -20 -20 -20 -20 -20 -20 -20 -20 -20 -20 -20 -20
13 19 18 21 12 3 6 13 -0 -20 -20 -20 -20 -20 -20 -20 -20 -20 -12 3 23 30 24 22 8 -20 -5 5 -15 -20 -20 -20 -20 -20 -20 -20 -20 -20 -20 -20 -20 -20 -20 -20 -20 -20 -20 -20 -20 -20 -20 -20 -20 -20
29 29 27 16 -13 -13 -6 -16 -20 -20 -20 -20 -20 -20 -20 -20 -20 -20 -20 -20 -20 -1 10 3 -17 -20 28 9 -20 -20 -20 -20 -20 -20 -20 -20 -20 -20 -20 -20 -20 -20 -20 -20 -20 -20 -20 -20 -20 -20 -20 -20 -20 -20
8 21 18 -12 -10 -17 -20 -20 -20 -20 -20 -20 -16 -15 -20 -20 -20 -20 -20 -20 -20 -20 -20 -20 -20 -20 1 3 -20 -20 -20 -20 -20 -20 -20 -20 -20 -20 -20 -20 -20 -20 -20 -20 -20 -20 -20 -20 -20 -20 -20 -20 -20 -20
20 12 -6 -20 -20 -20 -20 -20 -20 -20 -20 -20 -20 -20 -20 -20 -20 -20 -20 -20 -20 -20 -20 -20 -20 -20 -20 -20 -20 -20 -20 -20 -20 -20 -20 -20 -20 -20 -20 -20 -20 -20 -20 -20 -20 -20 -20 -20 -20 -20 -20 -20 -20 -20
-15 -20 -20 -20 -20 -20 -20 -20 -20 -20 -20 -20 -20 -20 -20 -20 -20 -20 -20 -20 -20 -20 -19 -20 -20 -20 -20 -20 -20 -20 -20 -20 -20 -20 -20 -20 -20 -20 -20 -20 -20 -20 -20 -20 -20 -20 -20 -20 -20 -20 -20 -20 -20 -20
-2 -14 -14 -20 -20 -20 -20 -20 -20 -20 -20 -20 -20 -20 -20 -20 -20 -20 -20 -20 -20 -20 -20 -20 -20 -20 -20 -20 -20 -20 -20 -20 -20 -20 -20 -20 -20 -20 -20 -20 -20 -20 -20 -20 -20 -20 -20 -20 -20 -20 -20 -20 -20 -20
-2 -7 -20 -20 -20 -20 -20 -20 -20 -20 -20 -20 -20 -20 -20 -20 -20 -20 -20 -20 -20 -12 -7 -8 -16 -12 -19 -20 -20 -20 -20 -20 -20 -20 -20 -20 -20 -20 -20 -20 -20 -20 -20 -20 -20 -20 -20 -20 -20 -20 -20 -20 -20 -20
-20 -20 -20 -20 -20 -20 -20 -20 -20 -20 -20 -20 -20 -20 -20 -20 -20 -20 -20 -20 -20 -20 -20 -20 -20 -20 -20 -20 -20 -20 -20 -20 -20 -20 -20 -20 -20 -20 -20 -20 -20 -20 -20 -20 -20 -20 -20 -20 -20 -20 -20 -20 -20 -20
-20 -20 -20 -20 -20 -20 -20 -20 -20 -20 -20 -20 -20 -20 -20 -20 -20 -20 -20 -20 -20 -20 -20 -20 -20 -20 -20 -20 -20 -20 -20 -20 -20 -20 -20 -20 -20 -20 -20 -20 -20 -20 -20 -20 -20 -20 -20 -20 -20 -20 -20 -20 -20 -20
-20 -20 -20 -20 -20 -20 -20 -20 -20 -20 -20 -20 -20 -20 -20 -20 -20 -20 -20 -20 -20 -20 -20 -20 -20 -20 -20 -20 -20 -20 -20 -20 -20 -20 -20 -20 -20 -20 -20 -20 -20 -20 -20 -20 -20 -20 -20 -20 -20 -20 -20 -20 -20 -20
-20 -20 -20 -20 -20 -20 -20 -20 -20 -20 -20 -20 -20 -20 -20 -20 -20 -20 -20 -20 -20 -20 -20 -20 -20 -20 -20 -20 -20 -20 -20 -20 -20 -20 -20 -20 -20 -20 -20 -20 -20 -20 -20 -20 -20 -20 -20 -20 -20 -20 -20 -20 -20 -20
-20 -20 -20 -20 -20 -20 -20 -20 -20 -20 -20 -20 -20 -20 -20 -20 -20 -20 -20 -20 -20 -20 -20 -20 -20 -20 -20 -20 -20 -20 -20 -20 -20 -20 -20 -20 -20 -20 -20 -20 -20 -20 -20 -20 -20 -20 -20 -20 -20 -20 -20 -20 -20 -20
-20 -20 -20 -20 -20 -20 -20 -20 -20 -20 -20 -20 -20 -20 -20 -20 -20 -20 -20 -20 -20 -20 -20 -20 -20 -20 -20 -20 -20 -20 -20 -20 -20 -20 -20 -20 -20 -20 -20 -20 -20 -20 -20 -20 -20 -20 -20 -20 -20 -20 -20 -20 -20 -20
-20 -20 -20 -20 -20 -20 -20 -20 -20 -20 -20 -20 -20 -20 -20 -20 -20 -20 -20 -20 -20 -20 -20 -20 -20 -20 -20 -20 -20 -20 -20 -20 -20 -20 -20 -20 -20 -20 -20 -20 -20 -20 -20 -20 -20 -20 -20 -20 -20 -20 -20 -20 -20 -20
-20 -20 -20 -20 -20 -20 -20 -20 -20 -20 -20 -20 -20 -20 -20 -20 -20 -20 -20 -20 -20 -20 -20 -20 -20 -20 -20 -20 -20 -20 -20 -20 -20 -20 -20 -20 -20 -20 -20 -20 -20 -20 -20 -20 -20 -20 -20 -20 -20 -20 -20 -20 -20 -20

GFSWCAN_prec_radar_069.txt.gz
Reflectivity
-6 16 10 -20 -3 2 -2 8 -12 -20 -20 -20 -20 -20 -20 -20 -20 -19 -20 -20 -20 -20 -20 -20 -20 -20 -20 -20 -20 -13 -14 7 25 -1 10 -4 -20 -1 -20 -20 -20 -20 -20 -20 -19 4 -20 -20 -20 -20 -20 -20 -20 -20
12 12 6 7 6 12 15 18 16 14 -20 -5 -20 -20 -20 -20 -20 9 1 -20 -13 17 -17 -20 -20 -20 -20 -20 -20 -20 7 28 36 21 -20 -20 -20 -20 -20 -20 -20 -20 -20 -20 -20 -20 -20 -20 -20 -20 -20 -20 -20 -20
-20 -20 -5 2 11 1 8 13 12 -10 3 7 -20 -18 -20 -16 -14 8 -20 -20 -6 9 -20 -20 -20 -20 -20 -20 -20 -20 -20 -2 39 33 5 18 -20 -20 -20 -20 -20 -20 -20 -20 -20 -20 -20 -20 -20 -20 -20 -20 -20 -20
-20 -20 -20 -16 -20 -7 6 9 7 10 4 9 -8 12 -20 3 11 10 -18 -8 14 24 16 -17 -20 -20 -20 -20 -20 -20 -16 -0 8 34 21 -0 11 -20 -20 -20 -20 -20 -20 -20 -20 -20 -20 -20 -20 -20 -20 -20 -20 -20
-7 -12 -10 -20 -20 -20 -20 -20 -2 2 12 14 6 17 7 5 9 -2 -20 -20 -20 24 -3 -13 -20 -20 -20 -20 -20 -16 -14 -20 -14 22 37 28 -20 -20 -20 -20 -20 -20 -20 -20 -20 -20 -20 -20 -20 -20 -20 -20 -20 -20
-20 -20 -20 -19 1 -20 -20 -20 -20 -20 3 8 -14 28 10 18 12 -20 -20 -20 -20 9 10 -11 -20 -20 -3 -20 -20 -20 -7 -20 7 -6 16 14 -20 -15 -20 -20 -20 -20 -20 -20 -20 -20 -20 -20 -20 -20 -20 -20 -20 -20
-19 -15 -7 2 -14 -14 -20 -20 -20 -20 -20 -20 -5 27 24 17 2 -20 -20 -20 -20 -20 -16 -15 -20 -20 -20 -10 -20 -17 -10 -6 5 -19 6 20 12 22 -1 -20 -12 -20 -20 -20 -20 -20 -20 -20 -20 -20 -20 -20 -20 -20
-20 -20 -14 -20 -20 -20 -20 -20 -20 -20 -20 -15 14 10 23 24 8 -4 -15 11 -20 -20 -2 -5 -20 -20 -17 -14 -20 -20 14 16 12 9 11 21 27 27 -9 -16 -0 -20 -20 -20 -20 -20 -20 -20 -20 -20 -20 -20 -20 -20
-5 -12 -20 -20 -20 -20 -20 -20 -20 -20 -20 6 23 29 23 21 -14 -20 -20 -6 -20 -15 4 -8 -20 -20 -16 28 6 -20 5 12 5 14 23 28 35 -13 -20 -7 13 -20 -20 -20 -20 -20 -20 -20 -20 -20 -20 -20 -20 -20
2 -13 -7 -18 -20 -20 -20 -14 -14 -19 -8 19 18 14 25 -1 0 -17 3 25 28 27 19 8 -20 -20 -17 20 22 -5 -16 29 3 12 17 23 30 -20 -15 6 -1 -20 -20 -20 -20 -20 -20 -20 -20 -20 -20 -20 -20 -20
-4 -9 -20 -20 -20 -20 -20 -6 1 12 1 6 17 28 26 9 16 -3 3 8 6 -0 -16 -12 -20 -20 2 23 32 24 30 13 16 11 -10 15 -18 -8 -15 -20 -20 -20 -20 -20 -20 -20 -17 -19 -20 -20 -20 -20 -20 -20
-20 -20 -20 -20 -20 -20 0 14 -6 -17 -20 -13 17 26 23 28 11 -0 -1 -10 -7 -20 3 4 13 19 15 30 30 27 27 13 -13 -2 15 -15 4 -16 -20 -20 -20 -20 -20 -20 -20 -20 -10 2 -5 -19 -20 -20 -20 -20
-20 -20 -20 -20 -10 0 -17 24 4 18 15 32 33 29 23 16 10 -2 -20 -5 5 -8 24 29 32 25 27 23 25 21 -20 -12 9 -3 -20 -20 -20 -20 -20 -20 -20 -20 -20 -20 -20 -20 -20 -20 -20 -20 -1 12 -8 -13
-20 -20 -20 -1 -20 7 -18 15 -20 -20 4 -18 -20 -7 3 -11 -20 -20 -20 -7 7 28 19 11 30 29 30 27 23 -20 -5 1 -20 -20 -17 -20 -20 -20 -20 -9 19 18 18 22 28 30 31 29 31 26 9 -16 -12 -10
-20 -7 -6 -6 5 10 10 -5 16 12 33 -11 -1 -5 -14 -20 -8 -14 4 16 13 -20 -17 7 21 26 28 24 28 -16 -20 -20 -20 -20 -20 -14 -16 -20 -20 -20 8 19 24 16 11 9 7 6 -12 -19 -20 -20 -20 -20
4 16 11 -20 -20 -7 10 12 -2 11 28 -7 -20 -1 -20 -20 -20 -12 -18 -14 27 11 23 28 25 12 12 0 -18 -17 -20 -20 -19 -20 -20 -20 -20 -20 -20 -20 -18 -13 -20 -20 -20 -20 -20 -20 -20 -20 -20 -20 -20 -20
11 18 23 5 11 18 6 16 23 9 -19 -16 -20 -20 -20 -20 -20 -20 27 4 8 30 20 18 14 -20 14 -20 -20 -20 9 9 -20 -20 -20 -20 -20 -20 -20 -20 -20 -20 -20 -20 -20 -20 -20 -20 -20 -20 -20 -20 -20 -20
-2 16 17 16 18 16 20 27 14 -16 -18 -20 -20 -12 -20 -20 -20 -20 -9 8 25 21 14 14 22 -20 -20 -1 -1 10 -12 -20 -20 -20 -20 -20 -20 -20 -20 -20 -20 -20 -20 -20 -20 -20 -20 -20 -20 -20 -20 -20 -20 -20
-20 -8 20 16 6 6 7 13 21 3 -20 -20 -20 -20 -20 -20 -20 -20 -20 -19 -1 21 14 14 12 -10 -20 -13 12 8 -20 -20 -20 -20 -20 -20 -20 -20 -20 -20 -20 -20 -20 -20 -20 -20 -20 -20 -20 -20 -20 -20 -20 -20
24 24 22 26 18 5 -2 -4 -16 -19 -20 -20 -20 -20 -20 -20 -20 -20 -20 -20 -20 -20 -20 -16 -20 -20 -20 -20 -20 -12 -13 -20 -20 -20 -20 -20 -20 -20 -20 -20 -20 -20 -20 -20 -20 -20 -20 -20 -20 -20 -20 -20 -20 -20
-2 20 24 13 5 4 7 -5 -20 -20 -20 -20 -20 -20 -20 -20 -20 -20 -20 -20 -20 -20 -20 -20 -20 -20 -20 -20 -20 -20 -20 -20 -20 -20 -20 -20 -20 -20 -20 -20 -20 -20 -20 -20 -20 -20 -20 -20 -20 -20 -20 -20 -20 -20
28 24 25 14 14 6 -8 -20 -20 -19 -20 -20 -13 -20 -20 -20 -20 -20 -20 -20 -20 -20 -20 -20 -20 -20 -20 -20 -20 -20 -20 -20 -20 -20 -20 -20 -20 -20 -20 -20 -20 -20 -20 -20 -20 -20 -20 -20 -20 -20 -20 -20 -20 -20
17 17 11 6 -3 -9 2 -17 -20 -20 -20 -20 -20 -20 -20 -20 -20 -20 -20 -20 -20 -20 -20 -20 -20 -20 -20 -20 -20 -20 -20 -20 -20 -20 -20 -20 -20 -20 -20 -20 -20 -20 -20 -20 -20 -20 -20 -20 -20 -20 -20 -20 -20 -20
12 13 4 0 -5 -2 -20 -19 -20 -20 -20 -20 -20 -20 -20 -20 -20 -20 -20 -20 -20 -20 -20 -20 -20 -20 -20 -20 -20 -20 -20 -20 -20 -20 -20 -20 -20 -20 -20 -20 -20 -20 -20 -20 -20 -20 -20 -20 -20 -20 -20 -20 -20 -20
12 13 6 -5 -19 -19 -20 -20 -20 -20 -20 -20 -20 -20 -20 -20 -20 -20 -20 -20 -20 -20 -20 -20 -9 1 -2 -19 -20 -20 -20 -20 -20 -20 -20 -20 -20 -20 -20 -20 -20 -20 -20 -20 -20 -20 -20 -20 -20 -20 -20 -20 -20 -20
3 -18 -20 -20 -14 -20 -20 -20 -20 -20 -20 -20 -20 -20 -20 -20 -20 -20 -20 -20 -20 -20 -20 -20 -20 -20 -20 -20 -20 -20 -20 -20 -20 -20 -20 -20 -20 -20 -20 -20 -20 -20 -20 -20 -20 -20 -20 -20 -20 -20 -20 -20 -20 -20
-20 -20 -20 -20 -20 -20 -20 -20 -20 -20 -20 -20 -20 -20 -20 -20 -20 -20 -20 -20 -20 -20 -20 -20 -20 -20 -20 -20 -20 -20 -20 -20 -20 -20 -20 -20 -20 -20 -20 -20 -20 -20 -20 -20 -20 -20 -20 -20 -20 -20 -20 -20 -20 -20
-20 -20 -20 -20 -20 -20 -20 -20 -20 -20 -20 -20 -20 -20 -20 -20 -20 -20 -20 -20 -20 -20 -20 -20 -20 -20 -20 -20 -20 -20 -20 -20 -20 -20 -20 -20 -20 -20 -20 -20 -20 -20 -20 -20 -20 -20 -20 -20 -20 -20 -20 -20 -20 -20
-20 -20 -20 -20 -20 -20 -20 -20 -20 -20 -20 -20 -20 -20 -20 -20 -20 -20 -20 -20 -20 -20 -20 -20 -20 -20 -20 -20 -20 -20 -20 -20 -20 -20 -20 -20 -20 -20 -20 -20 -20 -20 -20 -20 -20 -20 -20 -20 -20 -20 -20 -20 -20 -20
-20 -20 -20 -20 -20 -20 -20 -20 -20 -20 -20 -20 -20 -20 -20 -20 -20 -20 -20 -20 -20 -20 -20 -20 -20 -20 -20 -20 -20 -20 -20 -20 -20 -20 -20 -20 -20 -20 -20 -20 -20 -20 -20 -20 -20 -20 -20 -20 -20 -20 -20 -20 -20 -20
-20 -20 -20 -20 -20 -20 -20 -20 -20 -20 -20 -20 -20 -20 -20 -20 -20 -20 -20 -20 -20 -20 -20 -20 -20 -20 -20 -20 -20 -20 -20 -20 -20 -20 -20 -20 -20 -20 -20 -20 -20 -20 -20 -20 -20 -20 -20 -20 -20 -20 -20 -20 -20 -20
-20 -20 -20 -20 -20 -20 -20 -20 -20 -20 -20 -20 -20 -20 -20 -20 -20 -20 -20 -20 -20 -20 -20 -20 -20 -20 -20 -20 -20 -20 -20 -20 -20 -20 -20 -20 -20 -20 -20 -20 -20 -20 -20 -20 -20 -20 -20 -20 -20 -20 -20 -20 -20 -20
-20 -20 -20 -20 -20 -20 -20 -20 -20 -20 -20 -20 -20 -20 -20 -20 -20 -20 -20 -20 -20 -20 -20 -20 -20 -20 -20 -20 -20 -20 -20 -20 -20 -20 -20 -20 -20 -20 -20 -20 -20 -20 -20 -20 -20 -20 -20 -20 -20 -20 -20 -20 -20 -20

GFSWCAN_prec_radar_072.txt.gz
Reflectivity
-18 -20 -20 -20 -20 -20 9 13 13 -9 6 -20 -20 -20 -20 -20 -20 -20 -20 -20 -20 -20 -20 -20 -20 -20 -20 -20 -20 -20 -20 -6 23 31 2 -5 -20 -20 -20 -20 -20 -20 -20 -10 -20 -1 -16 -20 -20 -20 -20 -20 -20 -20
-20 -18 -20 0 -1 5 14 13 14 10 -3 -20 3 -20 -20 -20 -19 2 -20 -20 -20 12 -8 -20 -20 -20 -20 -20 -20 -20 -20 14 35 26 32 -4 -20 -20 -20 -20 -20 -20 -20 -20 -20 -20 -20 -20 -20 -20 -20 -20 -20 -20
-5 -17 -7 -19 6 14 11 12 13 2 6 -20 -17 -9 -20 -8 -20 -3 -11 -20 -20 3 -1 -20 -20 -20 -20 -20 -20 -20 -20 -20 9 24 32 22 -20 -20 -20 -20 -20 -20 -20 -20 -20 -20 -20 -20 -20 -20 -20 -20 -20 -10
4 4 -10 11 11 10 12 6 1 5 6 12 8 13 -6 7 -3 1 -18 -20 -20 10 6 -20 -20 -20 -20 -20 -20 -20 -20 -20 -19 11 17 25 30 -20 -20 -20 -20 -20 -20 -20 -20 -20 -20 -20 -20 -20 -20 -20 -20 -20
-1 -18 6 16 -13 -20 -20 -20 -20 -20 -6 0 5 15 6 17 7 -12 -17 -20 -20 15 6 -11 -20 -20 -20 -20 -20 -20 -20 -20 -20 1 0 7 27 27 -20 -20 -20 -20 -20 -20 -20 -20 -20 -20 -20 -20 -20 -20 -20 -20
-5 12 13 -10 -13 -18 -20 -20 -20 -20 -20 -20 -3 13 12 20 18 -13 -8 -20 -20 5 24 -19 -20 -20 -20 -20 -20 -20 -20 -20 -4 -19 -4 -7 4 34 16 -20 -20 -20 -20 -20 -20 -20 -20 -20 -20 -20 -20 -20 -20 -20
12 16 1 -20 -18 -19 -20 -20 -20 -20 -20 -20 -20 -20 17 20 22 5 -19 -20 -20 -9 12 -20 -20 -20 -20 -20 -20 -20 -20 -20 5 3 7 5 19 36 36 -18 6 -20 -20 -20 -20 -20 -20 -20 -20 -20 -20 -20 -20 -20
9 3 -1 -4 -19 -20 -20 -20 -20 -20 -20 -20 -20 2 -2 26 0 7 15 17 -19 2 -9 -20 -20 -20 -20 -6 -20 -20 -12 16 13 10 8 -17 17 25 20 -11 11 -8 -20 -20 -20 -20 -20 -20 -20 -20 -20 -20 -20 -20
7 5 -2 -9 -16 -20 -20 -20 -20 -20 -20 -1 -9 20 19 10 22 -8 -20 -9 -20 -12 -19 -20 -20 -20 -3 21 22 -20 -7 -3 -20 -19 5 0 -11 27 4 -7 1 -15 -20 -20 -20 -20 -20 -20 -20 -20 -20 -20 -20 -20
3 -3 1 -18 -14 -20 -20 -20 -20 6 -19 -20 -20 -11 -1 1 -19 -6 25 12 19 29 28 9 -20 -20 -20 4 25 4 15 14 0 -6 13 -10 4 -16 -20 -5 -20 -20 -20 -20 -20 -20 -20 -20 -20 -20 -20 -20 -20 -20
4 -10 -14 2 -17 -20 -20 -17 -12 -20 -20 -20 -20 -11 15 18 0 22 -13 -6 -12 -20 -16 -19 -2 -19 5 1 27 25 22 26 28 16 24 20 12 -8 -20 -20 -20 -20 -20 -20 -20 -20 -20 -20 -20 -18 -18 -20 -20 -20
-12 -5 -14 -20 -20 -20 -20 -20 6 -20 -20 -20 -17 9 2 -3 16 -0 -11 -3 -20 -20 -19 8 13 17 19 25 28 28 24 25 13 7 -1 6 6 -20 -20 -20 -20 -20 -20 -20 -20 -18 0 3 -20 -20 -12 -12 -11 -20
-4 -20 -20 -20 -20 -20 -20 4 -20 -20 -20 -18 -20 -16 -4 15 16 -20 -20 -20 -20 -20 4 38 31 34 28 31 29 25 -13 -6 20 11 -20 -20 -20 -20 -20 -20 -20 -20 -20 -20 -20 -20 -16 -11 -18 -20 -20 -20 -13 12
5 -20 -20 -20 -20 -20 -20 15 20 -16 -20 -20 -20 -20 -20 -20 -20 -20 -20 -11 -12 -1 14 25 14 31 25 33 28 7 16 11 -20 -20 -20 -20 -20 -20 -20 -20 -1 15 -6 -14 -6 10 5 20 25 27 27 20 18 -1
-20 -20 -20 -16 -9 -20 -20 20 24 -16 -20 -20 -20 -20 -20 -20 -20 -20 -20 -20 -20 -10 -7 8 6 25 25 17 24 -6 -18 -20 -20 -20 -20 -20 -20 -20 -20 -13 25 22 6 -14 -8 -1 4 13 12 12 11 12 11 4
-20 0 2 -16 -20 -15 11 30 10 -17 6 -3 -19 -10 -20 -20 -20 -20 -20 -20 -20 -13 -3 21 17 -9 -3 7 1 -5 -12 -20 -1 -19 -20 -20 -20 -20 -20 -20 20 21 -13 -19 -20 -20 -20 -20 -20 -20 -20 -20 -16 -20
-9 12 7 -20 -20 12 2 18 15 8 -5 -6 -20 -20 -20 -20 -20 -20 -2 -4 -9 9 1 10 19 -20 5 -20 -20 -20 -20 12 17 -20 -20 -20 -20 -20 -20 -20 20 -20 -20 -20 -20 -20 -20 -20 -20 -20 -20 -20 -20 -20
-0 -6 -14 3 16 23 25 16 -1 -4 -16 -20 -20 -20 -20 -20 -20 -20 -19 -20 -20 -3 9 13 -14 -20 -19 -20 -20 -20 -20 -17 6 -20 -20 -20 -20 -20 -20 -20 -20 -20 -20 -20 -20 -20 -20 -20 -20 -20 -20 -20 -20 -20
-8 8 19 12 9 12 7 -4 14 1 -20 -20 -20 -20 -20 -20 -20 -20 -20 -20 -19 5 -11 -4 5 -12 -20 -20 -20 17 -15 -10 -18 -20 -20 -20 -20 -20 -20 -20 -20 -20 -20 -20 -20 -20 -20 -20 -20 -20 -20 -20 -20 -20
11 21 22 24 18 -13 -17 -5 -3 -8 -20 -20 -20 -20 -20 -20 -20 -20 -20 -20 -20 -20 -20 -20 -20 -20 -20 -20 -18 -17 -20 -7 -2 -15 -20 -20 -20 -20 -20 -20 -20 -20 -20 -20 -20 -20 -20 -20 -20 -20 -20 -20 -20 -20
22 30 27 15 12 -2 -5 -5 -20 -20 -20 -20 -20 -20 -20 -20 -20 -20 -20 -20 -20 -20 -20 -20 -20 -20 -20 21 10 -20 -20 -20 -18 -20 -20 -20 -20 -20 -20 -20 -20 -20 -20 -20 -20 -20 -20 -20 -20 -20 -20 -20 -20 -20
14 22 30 30 22 16 8 -6 2 -16 -20 -20 -20 -20 -20 -20 -20 -20 -20 -20 -20 -20 -20 -20 -20 -20 -20 -20 -20 -20 -20 -20 -20 -20 -20 -20 -20 -20 -20 -20 -20 -20 -20 -20 -20 -20 -20 -20 -20 -20 -20 -20 -20 -20
28 25 19 20 18 8 11 -8 -1 -20 -20 -20 -20 -20 -20 -20 -20 -20 -20 -20 -20 -20 -20 -20 -20 -20 -20 -20 -20 -20 -20 -20 -20 -20 -20 -20 -20 -20 -20 -20 -20 -20 -20 -20 -20 -20 -20 -20 -20 -20 -20 -20 -20 -20
24 21 20 16 9 5 -16 -20 -20 -20 -20 -20 -20 -20 -20 -20 -20 -20 -20 -20 -20 -20 -20 -20 -20 -20 -20 -20 -20 -20 -20 -20 -20 -20 -20 -20 -20 -20 -20 -20 -20 -20 -20 -20 -20 -20 -20 -20 -20 -20 -20 -20 -20 -20
19 16 7 -9 -20 -20 -20 -20 -20 -20 -20 -20 -20 -20 -20 -20 -20 -20 -20 -20 -20 -20 -20 -20 -20 -20 -20 -20 -20 -20 -20 -20 -20 -20 -20 -20 -20 -20 -20 -20 -20 -20 -20 -20 -20 -20 -20 -20 -20 -20 -20 -20 -20 -20
0 -18 -20 -20 -20 -20 -20 -9 -19 -20 -20 -20 -20 -20 -20 -20 -20 -20 -20 -20 -20 -20 -20 -20 -20 -20 -20 -20 -20 -20 -20 -20 -20 -20 -20 -20 -20 -20 -20 -20 -20 -20 -20 -20 -20 -20 -20 -20 -20 -20 -20 -20 -20 -20
-18 -20 -20 -20 -20 -15 -7 -17 -20 -20 -20 -20 -20 -20 -20 -20 -20 -20 -20 -20 -20 -20 -20 -20 -20 -20 -20 -20 -20 -20 -20 -20 -20 -20 -20 -20 -20 -20 -20 -20 -20 -20 -20 -20 -20 -20 -20 -20 -20 -20 -20 -20 -20 -20
-20 -20 -20 -20 -18 -18 -20 -20 -20 -20 -20 -20 -20 -20 -20 -20 -20 -20 -20 -20 -20 -20 -20 -20 -20 -20 -20 -20 -20 -20 -20 -20 -20 -20 -20 -20 -20 -20 -20 -20 -20 -20 -20 -20 -20 -20 -20 -20 -20 -20 -20 -20 -20 -20
-20 -20 -20 -20 -20 -20 -20 -20 -20 -20 -20 -20 -20 -20 -20 -20 -20 -20 -20 -20 -20 -20 -20 -20 -20 -20 -20 -20 -20 -20 -20 -20 -20 -20 -20 -20 -20 -20 -20 -20 -20 -20 -20 -20 -20 -20 -20 -20 -20 -20 -20 -20 -20 -20
-20 -20 -20 -20 -20 -20 -20 -20 -20 -20 -20 -20 -20 -20 -20 -20 -20 -20 -20 -20 -20 -20 -20 -20 -20 -20 -20 -20 -20 -20 -20 -20 -20 -20 -20 -20 -20 -20 -20 -20 -20 -20 -20 -20 -20 -20 -20 -20 -20 -20 -20 -20 -20 -20
-20 -20 -20 -20 -20 -20 -20 -20 -20 -20 -20 -20 -20 -20 -20 -20 -20 -20 -20 -20 -20 -20 -20 -20 -20 -20 -20 -20 -20 -20 -20 -20 -20 -20 -20 -20 -20 -20 -20 -20 -20 -20 -20 -20 -20 -20 -20 -20 -20 -20 -20 -20 -20 -20
-20 -20 -20 -20 -20 -20 -20 -20 -20 -20 -20 -20 -20 -20 -20 -20 -20 -20 -20 -20 -20 -20 -20 -20 -20 -20 -20 -20 -20 -20 -20 -20 -20 -20 -20 -20 -20 -20 -20 -20 -20 -20 -20 -20 -20 -20 -20 -20 -20 -20 -20 -20 -20 -20
-20 -20 -20 -20 -20 -20 -20 -20 -20 -20 -20 -20 -20 -20 -20 -20 -20 -20 -20 -20 -20 -20 -20 -20 -20 -20 -20 -20 -20 -20 -20 -20 -20 -20 -20 -20 -20 -20 -20 -20 -20 -20 -20 -20 -20 -20 -20 -20 -20 -20 -20 -20 -20 -20

GFSWCAN_prec_radar_075.txt.gz
Reflectivity
29 25 4 -20 -20 -20 -20 -20 -20 -7 -20 -20 -20 -20 -20 -20 -20 -20 -20 -20 -20 -20 -20 -20 -20 -20 -20 -20 -20 -20 -20 -12 -1 18 7 31 -18 -20 -20 -20 -20 -20 -20 -11 -4 -5 -16 -20 -20 -20 -20 -20 -20 -20
28 13 5 -20 -20 -20 -20 -16 -11 -1 11 -3 -20 -20 -20 -20 -20 -20 -20 -20 -20 -14 -20 -20 -20 -20 -20 -20 -14 -20 -20 -20 1 -17 13 21 19 -20 -20 -20 -20 -20 -20 -20 -20 -20 -20 -20 -20 -20 -20 -20 -20 -20
24 10 11 5 -20 1 8 8 5 7 -7 -5 -12 -20 -20 -20 -20 -18 -20 -20 -10 -6 -20 -14 -20 -20 -20 -20 -20 -6 -20 -20 -20 -18 -14 -18 12 32 -20 -20 -20 -20 -20 -20 -20 -20 -20 -20 -20 -20 -20 -20 -20 -18
11 -0 -11 7 -6 7 7 5 5 9 -8 -2 -6 6 -9 -8 1 7 -6 -17 -17 2 10 -20 -20 -20 -20 -20 -20 -20 -20 -20 -19 -8 -20 -20 -20 23 18 -6 -20 -20 -20 -20 -20 -20 -20 -20 -20 -20 -20 -20 -20 -20
17 8 3 -6 10 10 3 3 7 -13 -10 4 -20 -20 11 -14 13 -12 -13 -20 -20 -16 -8 -20 -20 -20 -20 -20 -20 -20 -20 -20 -20 -1 -20 -19 -8 12 9 12 -20 -20 -20 -20 -20 -20 -20 -20 -20 -20 -20 -20 -20 -20
16 4 -1 13 -6 -16 -20 12 9 7 -15 -20 -20 -18 10 20 20 -3 25 -19 -20 2 17 -20 -20 -20 -20 -20 -20 -20 -20 -18 -5 2 4 -19 0 28 9 20 -20 -20 -20 -20 -20 -20 -20 -20 -20 -20 -20 -20 -20 -20
18 16 10 7 -2 -20 8 13 4 -3 -14 -20 -20 -20 -20 -19 -19 -19 10 -8 -20 17 14 -20 -20 -20 -20 -20 -20 -20 -20 -20 -16 8 -2 -20 -10 35 22 -8 -6 8 16 -16 -20 -20 -20 -20 -20 -20 -20 -20 -20 -20
23 14 -8 -15 -11 8 13 9 2 7 -14 -20 -20 -20 -0 9 19 13 11 -15 2 12 -14 -14 -20 -20 -20 5 -17 -20 -19 -12 -4 6 -6 -2 2 -20 -17 -20 -8 -1 -12 -17 -20 -20 -20 -20 -20 -20 -20 -20 -20 -20
15 -2 -5 -7 11 13 10 -0 -0 -18 -20 -3 -16 -14 5 -2 3 11 4 -7 -16 -10 -20 -15 -20 -20 -20 -5 11 -5 -19 5 -20 -12 -8 2 -15 17 -20 -20 -19 4 -20 -20 -20 -20 -20 -20 -20 -20 -20 -20 -20 -20
9 -0 5 13 14 14 -3 -1 -18 -20 -20 -7 -20 -20 -20 -12 5 -18 9 25 32 24 21 -9 -16 -3 -3 4 -5 -18 6 -13 -20 -14 -19 3 -19 -20 -20 -20 -9 -7 -20 -20 -20 -20 -20 -20 -20 -20 -20 -20 -20 -20
9 14 12 14 18 12 1 -20 -14 -16 -20 -20 -20 -10 3 7 -7 12 -19 -10 -18 -20 -19 -8 4 8 20 3 -2 23 -5 14 17 9 -8 16 5 -20 4 -20 -20 -20 -20 -20 -20 -20 -20 -20 -20 -20 -20 -20 -20 -20
13 5 9 18 19 -1 -19 -12 -17 -20 -20 -20 -20 11 10 11 4 -19 -20 -5 -20 -20 -20 -17 10 12 -13 24 7 14 -6 22 23 0 14 20 36 24 -6 -8 -20 -20 -20 -20 -20 -20 -20 -20 -20 -17 -18 -20 -20 -15
12 19 18 12 7 -6 -20 9 -20 -20 -20 -20 -20 -16 -9 -9 -12 -20 -20 -20 -20 -20 -6 26 -10 10 27 35 26 23 10 16 23 20 17 -0 -20 -20 -19 -20 -20 -20 -20 -20 -20 -20 -20 -20 -19 -20 -11 -10 -20 -20
19 10 7 -3 11 2 -20 2 -20 -20 -20 -20 -20 -20 -20 -20 -20 -20 -20 -20 -20 -20 -20 -18 -1 -14 12 17 28 17 25 20 -18 -20 -20 -9 -20 -20 -20 -20 -20 -13 -18 -15 -20 -20 -20 -20 -18 -13 -5 7 2 -9
2 -5 9 17 14 3 2 -20 -20 -20 -20 -20 -20 -20 -20 -20 -20 -20 -20 -20 -20 -20 -20 -1 -12 20 8 -14 21 6 -20 -20 -20 -20 -20 -20 -20 -19 -20 27 34 29 30 13 -18 -19 -20 -7 -12 -20 -19 -16 -11 -6
0 3 10 17 -3 11 15 8 -11 -11 -20 -20 -20 -20 -20 -20 -20 -20 -20 -20 -20 -19 5 8 4 -6 -20 -19 -15 -20 -20 -20 -4 -15 -20 -12 -20 -20 -18 5 27 19 -12 -19 -20 -20 -20 -20 -20 -20 -20 -20 -20 -20
1 4 24 12 -20 19 14 -9 18 22 -20 -20 -20 -20 -20 -20 -20 -20 -20 -17 1 -1 -15 -0 -9 -5 -1 -20 -20 -20 -20 -20 12 18 -20 -2 -20 -17 -20 9 27 -2 -20 -20 -20 -20 -20 -20 -20 -20 -20 -20 -20 -20
6 14 10 -20 -2 14 16 5 18 -2 -11 -20 -20 -20 -20 -20 -20 -20 -20 11 -8 7 -20 1 -20 -16 -20 -20 -20 -20 -8 -20 -20 -20 -6 -20 -6 -20 -20 -15 -12 -20 -20 -20 -20 -20 -20 -20 -20 -20 -20 -20 -20 -20
2 1 4 22 2 -4 9 6 15 -1 -20 -20 -20 -20 -20 -20 -20 -20 -20 -20 -20 -3 -6 -18 -20 -20 -20 -20 -20 -15 -1 -20 -5 -1 -20 -20 -20 -20 -20 -20 -20 -20 -20 -20 -20 -20 -20 -20 -20 -20 -20 -20 -20 -20
-15 -20 22 21 15 19 9 13 10 -7 -20 -20 -20 -20 -20 -20 -20 -20 -20 -20 -20 -20 -13 -5 -20 -20 -20 -20 -17 -11 -18 -20 -20 -6 -4 -10 -12 -20 -20 -20 -20 -20 -20 -20 -20 -20 -20 -20 -20 -20 -20 -20 -20 -20
2 29 33 30 26 13 -15 -20 -20 -20 -20 -20 -20 -20 -20 -20 -20 -20 -20 -20 -6 -20 -20 -20 -20 -20 -20 -20 -20 -2 -13 -20 -20 -20 -20 1 3 -18 -20 -20 -20 -20 -20 -20 -20 -20 -20 -20 -20 -20 -20 -20 -20 -20
20 25 22 25 20 11 -20 -20 -20 -20 -20 -20 -20 -20 -20 -20 -20 -20 -20 -20 -20 -20 -12 -20 -20 -20 -20 -20 -20 -20 -20 -20 -20 -20 -20 -20 -20 -20 -20 -20 -20 -20 -20 -20 -20 -20 -20 -20 -20 -20 -20 -20 -20 -20
23 21 15 15 7 -6 -2 -20 -16 -20 -20 -20 -20 -20 -20 -20 -20 -20 -20 -20 -20 -20 -20 -20 -20 -20 -20 -20 -20 -20 -20 -20 -20 -20 -20 -20 -20 -20 -20 -20 -20 -20 -20 -20 -20 -20 -20 -20 -20 -20 -20 -20 -20 -20
6 19 16 9 5 2 -19 -20 -20 -20 -20 -20 -20 -20 -20 -20 -20 -20 -20 -20 -20 -20 -20 -20 -20 -20 -20 -20 -20 -20 -20 -20 -20 -20 -20 -20 -20 -20 -20 -20 -20 -20 -20 -20 -20 -20 -20 -20 -20 -20 -20 -20 -20 -20
16 9 7 0 -20 -20 -20 -20 -20 -20 -20 -12 -3 -20 -20 -20 -20 -20 -20 -20 -20 -20 -20 -20 -20 -20 -20 -20 -20 -20 -20 -20 -20 -20 -20 -20 -20 -20 -20 -20 -20 -20 -20 -20 -20 -20 -20 -20 -20 -20 -20 -20 -20 -20
-20 -18 -20 -20 -20 -20 -20 -20 -20 -20 2 1 -20 -20 -20 -20 -20 -20 -20 -20 -20 -20 -20 -20 -20 -20 -20 -20 -20 -20 -20 -20 -20 -20 -20 -20 -20 -20 -20 -20 -20 -20 -20 -20 -20 -20 -20 -20 -20 -20 -20 -20 -20 -20
-20 -20 -20 -20 -20 -20 -20 -8 3 10 1 -20 -20 -20 -20 -20 -20 -20 -20 -20 -20 -20 -20 -20 -20 -20 -20 -20 -20 -20 -20 -20 -20 -20 -20 -20 -20 -20 -20 -20 -20 -20 -20 -20 -20 -20 -20 -20 -20 -20 -20 -20 -20 -20
-20 -20 -20 -20 -19 -3 10 7 -4 -19 -20 -20 -20 -20 -20 -20 -20 -20 -20 -20 -20 -20 -20 -20 -20 -20 -20 -20 -20 -20 -20 -20 -20 -20 -20 -20 -20 -20 -20 -20 -20 -20 -20 -20 -20 -20 -20 -20 -20 -20 -20 -20 -20 -20
-20 -20 -20 2 10 7 7 -15 -20 -20 -20 -20 -20 -20 -20 -20 -20 -20 -20 -20 -20 -20 -20 -20 -20 -20 -20 -20 -20 -20 -20 -20 -20 -20 -20 -20 -20 -20 -20 -20 -20 -20 -20 -20 -20 -20 -20 -20 -20 -20 -20 -20 -20 -20
-20 -20 -20 -20 -20 -20 -20 -20 -20 -20 -20 -20 -20 -20 -20 -20 -20 -20 -20 -20 -20 -20 -20 -20 -20 -20 -20 -20 -20 -20 -20 -20 -20 -20 -20 -20 -20 -20 -20 -20 -20 -20 -20 -20 -20 -20 -20 -20 -20 -20 -20 -20 -20 -20
-20 -20 -20 -20 -20 -20 -20 -20 -20 -20 -20 -20 -20 -20 -20 -20 -20 -20 -20 -20 -20 -20 -20 -20 -20 -20 -20 -20 -20 -20 -20 -20 -20 -20 -20 -20 -20 -20 -20 -20 -20 -20 -20 -20 -20 -20 -20 -20 -20 -20 -20 -20 -20 -20
-20 -20 -20 -20 -20 -20 -20 -20 -20 -20 -20 -20 -20 -20 -20 -20 -20 -20 -20 -20 -20 -20 -20 -20 -20 -20 -20 -20 -20 -20 -20 -20 -20 -20 -20 -20 -20 -20 -20 -20 -20 -20 -20 -20 -20 -20 -20 -20 -20 -20 -20 -20 -20 -20
-20 -20 -20 -20 -20 -20 -20 -20 -20 -20 -20 -20 -20 -20 -20 -20 -20 -20 -20 -20 -20 -20 -20 -20 -20 -20 -20 -20 -20 -20 -20 -20 -20 -20 -20 -20 -20 -20 -20 -20 -20 -20 -20 -20 -20 -20 -20 -20 -20 -20 -20 -20 -20 -20

GFSWCAN_prec_radar_078.txt.gz
Reflectivity
29 26 29 5 23 7 -3 -20 -20 -20 -20 -20 -20 -20 -20 -20 -20 -20 -20 -20 -20 -20 -20 -20 -20 -20 -20 -20 -20 -20 -20 -12 -20 0 29 -3 -19 -16 7 -19 -20 -20 -20 -9 -19 3 -20 -20 -20 -20 -20 -20 -20 -20
28 26 30 19 24 17 -1 -19 -20 -20 -20 -10 -20 -20 -20 -20 -20 -20 -20 -20 -20 -20 -20 -20 -20 -20 -20 -20 -20 -17 -20 -20 -20 -17 -7 2 20 21 -13 1 -20 -20 -20 -20 -20 -20 -20 -20 -20 -20 -20 -20 -20 -20
25 22 34 20 20 18 3 0 -20 -20 11 9 -16 -20 -20 -20 -20 -20 -20 -20 -20 9 -19 -20 -20 -20 -20 -20 -20 4 -9 -20 -20 -20 -20 -6 17 10 20 11 -13 -20 -20 -20 -20 -20 -20 -20 -20 -20 -20 -20 -20 -20
29 27 23 13 10 18 11 10 -6 -5 -6 -18 2 5 -9 -20 -18 -18 -20 -20 -19 -2 12 -20 -20 -20 -20 -20 -20 -20 -20 -20 -8 -4 -9 -20 -20 -20 -14 -2 6 -20 -20 -20 -20 -20 -20 -20 -20 -20 -20 -20 -20 -20
35 28 17 26 28 24 8 5 6 5 3 1 4 14 15 -20 14 -13 9 -18 10 -3 -12 -20 -20 -20 -20 -20 -20 -20 -20 -20 -20 -5 -17 -20 -0 -14 -11 -3 -13 -20 -20 -20 -20 -20 -20 -20 -20 -20 -20 -20 -20 -20
36 33 35 24 27 16 7 2 7 6 -19 9 9 14 -13 -8 12 -8 9 -18 0 -20 2 -20 -20 -20 -20 -20 -20 -20 -20 -20 -20 -19 -20 -20 -20 14 -20 -20 -20 -20 -3 -20 -20 -20 -20 -20 -20 -20 -20 -20 -20 -20
24 35 26 20 27 16 11 13 -4 -20 5 5 5 2 -20 -16 -20 -20 -20 -20 -14 -20 -14 -20 -20 -20 -20 -20 -20 -20 -20 -20 -20 -14 -4 -20 -20 29 9 0 -19 -20 -5 -20 -20 -20 -20 -20 -20 -20 -20 -20 -20 -20
29 18 25 25 24 16 7 4 -6 -13 -4 7 10 -15 15 8 -11 -5 2 11 16 -12 -9 -20 -20 -20 -20 4 -20 -20 -20 -11 3 -18 -4 -2 -20 -20 -15 -20 6 -10 -0 -20 -20 -20 -20 -20 -20 -20 -20 -20 -20 -20
31 24 25 26 17 13 11 4 -20 1 12 14 5 -15 -19 -17 -20 -20 -10 26 9 -19 -20 -13 -19 -20 -20 -13 -2 0 4 1 -7 8 8 6 -17 6 -20 -20 7 8 -9 -19 -20 -20 -20 -20 -20 -20 -20 -20 -20 -20
31 24 19 14 7 13 7 -18 -8 12 16 -1 -20 -20 -20 -10 7 2 13 25 23 30 4 -20 -20 -20 -20 -20 -20 3 -12 -14 -20 -10 -11 6 -20 -20 -20 -19 -17 -20 -20 -20 -20 -20 -20 -20 -20 -20 -20 -20 -20 -20
22 12 7 11 12 4 -15 7 16 28 10 -19 -20 -8 0 15 -4 10 -20 -20 -14 -20 -18 -20 -20 -20 -20 -14 -20 12 -19 -17 -14 1 15 -5 19 13 -20 -19 -20 -20 -20 -20 -20 -20 -20 -20 -20 -20 -20 -20 -20 -20
15 12 8 9 3 -1 8 16 28 12 -12 -20 -16 5 5 -7 1 -20 -20 -14 -20 -20 -20 -20 -20 -20 -20 11 5 -7 -6 -7 -5 14 3 20 35 32 5 -20 -20 -20 -20 -20 -20 -20 -20 -20 -20 -20 -20 -20 -20 -20
21 15 11 -1 13 12 19 25 7 -1 2 -12 -20 -20 -20 -20 -20 -20 -20 -20 -20 -20 -20 -14 -0 -11 19 24 -11 8 9 4 20 -9 -7 17 25 18 15 21 -1 -20 -20 -20 -20 -20 -20 -20 -20 -20 -20 -20 -20 -20
10 -2 7 14 21 27 21 4 -15 -19 -20 -20 -20 -20 -20 -20 -20 -20 -20 -20 -20 -20 3 -3 -20 -20 -17 13 13 7 20 16 -20 -20 -20 -13 2 -20 -20 16 4 -3 -20 -19 -19 -19 -5 -7 -20 -19 -15 -20 -20 -20
17 18 22 29 21 8 12 -1 -14 -20 -20 -20 -20 -20 -20 -20 -20 -20 -20 -20 -15 -19 -19 -20 -16 6 4 6 -4 7 -20 -18 -20 -20 -20 -20 -14 -15 -20 18 28 22 23 5 -17 3 21 10 0 -17 -20 -20 -20 -20
22 21 17 12 10 8 12 -11 -20 -20 -20 -20 -20 -20 -20 -20 -20 -20 -20 -20 -20 -20 -20 -3 -10 3 6 -16 -11 -20 -20 -17 -20 -16 -20 -20 -14 -20 16 32 31 23 19 -17 -20 -18 -5 3 -0 -13 -20 -20 -20 -20
5 12 12 2 -9 17 9 3 2 -2 -20 -20 -13 -20 -20 -20 -20 -20 -20 -20 -20 -20 -20 -20 -4 -19 7 -7 -20 -20 -20 -20 -20 12 -20 -20 2 -7 11 27 30 29 16 4 -20 -20 -20 -20 -20 -20 -20 -20 -20 -20
9 14 11 -6 11 13 21 14 -18 16 -16 -19 -20 -20 -20 -20 -20 -20 -20 -20 -20 -6 -19 -20 -20 -20 -20 -20 -20 -20 -20 -20 -20 -19 -19 -20 -20 -4 4 24 30 20 -20 -20 -20 -20 -20 -20 -20 -20 -20 -20 -20 -20
2 -15 -8 13 3 9 17 -0 8 -4 -20 -20 -20 -20 -20 -20 -20 -20 -20 -20 -20 -0 -15 -20 -18 -20 -20 -20 -20 -20 -20 -19 -20 -11 -9 -20 -20 -20 -19 -20 -20 -20 -20 -20 -20 -20 -20 -20 -20 -20 -20 -20 -20 -20
10 15 12 5 -6 -7 -15 -4 -17 -20 -20 -20 -20 -20 -20 -20 -20 -20 -20 -20 -20 -20 -20 -20 -20 -20 -20 -20 -20 -20 -20 -20 -20 -20 -20 -7 -6 -20 -20 -20 -20 -20 -20 -20 -20 -20 -20 -20 -20 -20 -20 -20 -20 -20
10 22 31 28 28 1 -20 -20 -20 -20 -20 -20 -20 -20 -20 -20 -20 -20 -20 -20 -20 -20 -20 -20 -20 -20 -20 -20 -20 -20 -19 -20 -20 -20 -20 -20 -20 -20 -20 -20 -20 -20 -20 -20 -20 -20 -20 -20 -20 -20 -20 -20 -20 -20
14 22 27 30 21 6 -20 -20 -20 -20 -20 -20 -20 -20 -20 -20 -20 -20 -20 -20 -20 -20 -20 -20 -20 -20 -20 -20 -20 -20 -20 -20 -20 -20 -20 -20 -20 -20 -20 -20 -20 -20 -20 -20 -20 -20 -20 -20 -20 -20 -20 -20 -20 -20
19 15 9 18 13 1 7 -19 -20 -20 -20 -20 -20 -20 -20 -20 -20 -20 -20 -20 -20 -20 -20 -20 -20 -20 -20 -20 -20 -20 -20 -20 -20 -20 -20 -20 -20 -20 -20 -20 -20 -20 -20 -20 -20 -20 -20 -20 -20 -20 -20 -20 -20 -20
18 16 16 13 0 1 5 -19 -20 -20 -20 -20 -20 -20 -20 -20 -20 -20 -20 -20 -20 -20 -20 -20 -20 -20 -20 -20 -20 -20 -20 -20 -20 -20 -20 -20 -20 -20 -20 -20 -20 -20 -20 -20 -20 -20 -20 -20 -20 -20 -20 -20 -20 -20
20 14 11 6 -3 -10 -20 -20 -20 -20 -20 -20 -20 -20 -20 -20 -20 -20 -20 -20 -20 -20 -20 -20 -20 -20 -20 -20 -20 -20 -20 -20 -20 -20 -20 -20 -20 -20 -20 -20 -20 -20 -20 -20 -20 -20 -20 -20 -20 -20 -20 -20 -20 -20
-20 -20 -20 -20 -20 -20 -20 -20 -20 -20 -20 -20 -20 -20 -20 -20 -20 -20 -20 -20 -20 -20 -20 -20 -20 -20 -20 -20 -20 -20 -20 -20 -20 -20 -20 -20 -20 -20 -20 -20 -20 -20 -20 -20 -20 -20 -20 -20 -20 -20 -20 -20 -20 -20
-20 -20 -20 -20 -20 -20 -20 -20 -20 -20 -20 -20 -20 -20 -20 -20 -20 -20 -20 -20 -20 -20 -20 -20 -20 -20 -20 -20 -20 -20 -20 -20 -20 -20 -20 -20 -20 -20 -20 -20 -20 -20 -20 -20 -20 -20 -20 -20 -20 -20 -20 -20 -20 -20
-20 -20 -20 -20 -20 -20 -20 -20 -20 -20 -20 -20 -20 -20 -20 -20 -20 -20 -20 -20 -20 -20 -20 -20 -20 -20 -20 -20 -20 -20 -20 -20 -20 -20 -20 -20 -20 -20 -20 -20 -20 -20 -20 -20 -20 -20 -20 -20 -20 -20 -20 -20 -20 -20
-20 -20 -20 -20 -20 -20 -20 -20 -20 -20 -20 -20 -20 -20 -20 -20 -20 -20 -20 -20 -20 -20 -20 -20 -20 -20 -20 -20 -20 -20 -20 -20 -20 -20 -20 -20 -20 -20 -20 -20 -20 -20 -20 -20 -20 -20 -20 -20 -20 -20 -20 -20 -20 -20
-20 -20 -20 -20 -20 -20 -20 -20 -20 -20 -20 -20 -20 -20 -20 -20 -20 -20 -20 -20 -20 -20 -20 -20 -20 -20 -20 -20 -20 -20 -20 -20 -20 -20 -20 -20 -20 -20 -20 -20 -20 -20 -20 -20 -20 -20 -20 -20 -20 -20 -20 -20 -20 -20
-20 -20 -20 -20 -20 -20 -20 -20 -20 -20 -20 -20 -20 -20 -20 -20 -20 -20 -20 -20 -20 -20 -20 -20 -20 -20 -20 -20 -20 -20 -20 -20 -20 -20 -20 -20 -20 -20 -20 -20 -20 -20 -20 -20 -20 -20 -20 -20 -20 -20 -20 -20 -20 -20
-20 -20 -20 -20 -20 -20 -20 -20 -20 -20 -20 -20 -20 -20 -20 -20 -20 -20 -20 -20 -20 -20 -20 -20 -20 -20 -20 -20 -20 -20 -20 -20 -20 -20 -20 -20 -20 -20 -20 -20 -20 -20 -20 -20 -20 -20 -20 -20 -20 -20 -20 -20 -20 -20
-20 -20 -20 -20 -20 -20 -20 -20 -20 -20 -20 -20 -20 -20 -20 -20 -20 -20 -20 -20 -20 -20 -20 -20 -20 -20 -20 -20 -20 -20 -20 -20 -20 -19 -16 -19 -17 -16 -20 -20 -20 -20 -20 -20 -20 -20 -20 -20 -20 -20 -20 -20 -20 -20

GFSWCAN_prec_radar_081.txt.gz
Reflectivity
12 30 21 9 30 17 20 19 18 3 0 -20 -20 -20 -20 -20 -20 -20 -20 -20 -20 -20 -20 -20 -20 -20 -20 -20 -20 -20 -20 -20 -20 -20 -14 13 8 -14 -19 -20 -20 -16 -20 -12 -20 -20 -0 -20 -20 -20 -20 -20 -20 -20
14 18 30 23 26 17 25 21 14 12 12 -13 -20 -20 -20 -20 -20 -1 -8 -20 -20 -20 -20 -20 -20 -20 -20 -20 -20 -20 -20 -20 -20 -20 -20 -20 -5 10 9 5 4 2 -20 -20 -20 -20 -20 -20 -20 -20 -20 -20 -20 -20
21 19 41 29 24 28 26 29 16 12 -8 -20 -20 -20 -20 -20 -20 6 -4 -20 -20 -20 -20 -20 -20 -20 -20 -20 -20 -1 -20 -20 -20 -20 -15 -20 -20 -19 4 -5 -7 29 11 -20 -20 -20 -20 -20 -20 -20 -20 -20 -20 -20
15 16 39 35 28 18 16 18 19 10 -15 -19 -20 -20 -20 -20 -13 14 -15 -20 -20 -14 -19 -20 -20 -20 -20 -20 -20 -20 -20 -20 -20 -6 -9 -20 -20 -16 -20 -20 -20 0 5 -20 -20 -20 -20 -20 -20 -20 -20 -20 -20 -20
13 17 36 37 26 16 21 25 23 12 -18 -11 -13 -20 -19 -20 13 11 12 -1 -17 6 -20 -20 -20 -20 -20 -20 -20 -20 -20 -20 -20 -17 -15 -16 -20 -20 -20 -5 -20 -20 -20 -20 -20 -8 -13 -20 -20 -20 -20 -20 -20 -20
18 24 30 41 31 18 29 19 8 9 1 -16 -20 -1 8 15 19 18 -1 -20 11 -20 -20 -20 -20 -20 -20 -20 -20 -20 -20 -15 -15 -11 -7 -20 -20 -20 -20 -19 -20 -20 -20 -20 -20 -17 -20 -20 -20 -20 -20 -20 -20 -20
20 23 36 38 32 31 31 14 5 7 8 6 6 10 10 19 0 -14 -20 -20 -20 -20 -20 -20 -20 -20 -20 -20 -20 -20 -11 2 -5 6 2 -20 -20 3 -13 -16 -20 -16 -20 -7 12 3 -20 -20 -20 -20 -20 -20 -20 -20
20 28 39 33 32 32 28 15 10 13 3 1 -7 -20 14 16 -9 -10 -6 12 -14 -20 -20 -20 -20 -20 -20 -20 -20 -19 -19 0 7 -20 -12 -20 -20 -20 -16 -20 -20 -20 -19 -20 5 -20 -20 -20 -20 -20 -20 -20 -20 -20
18 35 35 37 29 20 9 18 16 14 11 -4 -19 9 17 -13 -20 -20 7 1 -20 -20 -20 -20 -20 -20 -20 -20 -17 15 22 -15 -20 -17 -20 -2 -20 -20 -20 -20 -20 -20 -20 -20 14 -20 -8 -20 -20 -20 -20 -20 -20 -20
31 36 31 33 35 26 8 17 17 5 -20 -20 -2 21 6 -4 -3 13 28 12 -10 8 -8 -20 -20 -20 -20 -20 -20 -9 -3 -12 -20 -20 -14 -7 -20 3 -16 -20 -20 -20 -20 -20 3 -20 -18 -20 -20 -20 -20 -20 -20 -20
36 31 31 36 14 -0 12 8 6 -3 -20 -19 24 21 -3 12 -20 -20 -20 -20 -15 -20 -8 -20 -20 -20 -20 -20 -20 -19 -20 -20 -20 -20 -20 -20 -11 30 4 -20 -20 -20 -20 -13 -20 -20 3 4 -20 -20 -20 -20 -20 -20
36 32 35 27 -4 3 13 6 -7 -11 -20 14 22 5 -8 -6 -14 -20 -20 -20 -20 -20 -20 -20 -20 -18 -18 -7 2 -19 -17 -10 -20 -16 -1 -20 25 29 18 -13 -1 -13 -20 -20 -20 -14 -20 -20 -20 -20 -20 -20 -20 -20
37 36 23 17 19 18 11 9 0 -6 21 25 12 -9 -20 -5 -20 -20 -20 -20 -20 -20 -20 -20 -18 3 2 22 -6 -3 -14 -19 -6 -20 -17 13 14 4 18 22 -9 11 -20 -20 -20 -20 -20 -20 -20 -20 -20 -20 -20 -20
31 26 29 26 15 12 11 4 -12 25 29 9 -1 -20 -18 -20 -20 -20 -20 -20 -20 -20 -20 -18 -20 -1 -20 12 -1 -8 4 18 -2 -20 -15 -20 -20 -20 -20 29 26 15 -11 -13 -18 -0 -6 -20 -19 -2 2 -16 -20 -20
25 18 17 16 11 3 8 21 28 21 -7 -20 -20 -20 -20 -20 -20 -20 -20 -20 -20 -3 -3 -20 -20 -3 -14 -1 -12 -20 -20 -20 -20 -18 -20 -20 -13 -14 -12 27 20 24 26 22 8 8 23 21 14 -9 -18 -19 -20 -20
22 14 10 12 16 21 33 22 2 -19 -20 -20 -11 -6 -15 -20 -20 -20 -20 -20 -20 -20 11 -20 -20 -20 -16 -18 -6 -20 -20 -11 -20 -18 -20 -20 -20 -5 25 28 30 28 25 8 -5 -20 -20 -9 1 1 -7 -20 -20 -20
18 27 31 29 34 29 8 -20 -20 -20 -20 -12 7 -2 -20 -20 -20 -20 -20 -20 -20 -20 -20 -20 -20 -20 -20 -18 -20 -20 -20 -20 -20 -20 -20 -20 -20 -18 23 30 27 25 27 23 9 -20 -20 -20 -20 -20 -20 -20 -20 -20
29 31 32 21 12 15 -18 -19 -20 -19 -4 9 7 -13 -20 -20 -20 -20 -20 -20 -20 -20 -20 -20 -20 -20 -20 -20 -20 -20 -7 -20 -20 -20 -20 -20 -20 -20 -19 28 28 28 28 15 -20 -20 -20 -20 -20 -20 -20 -20 -20 -20
21 11 14 2 -18 -6 0 -11 -20 -15 -19 8 4 -17 -20 -20 -20 -20 -20 -20 -19 -3 -20 -20 -20 -20 -20 -20 -20 -20 -20 -20 -20 -20 -20 -16 -7 -11 -20 -20 -15 3 14 6 -20 -20 -20 -20 -20 -20 -20 -20 -20 -20
-20 -15 15 8 -2 -19 -20 -20 -20 -20 -20 6 2 -18 -20 -20 -20 -20 -20 -20 -20 -17 -11 -16 -20 -20 -20 -20 -20 -20 -20 -20 -20 -20 -20 -20 -20 -16 -4 -14 -19 -20 -20 -20 -20 -20 -20 -20 -20 -20 -20 -20 -20 -20
16 12 14 -13 -13 -20 -20 -20 -20 -20 -20 -20 -20 -20 -20 -20 -20 -20 -20 -20 -20 -20 -20 -20 -20 -20 -20 -20 -20 -20 -20 -20 -20 -20 -20 -20 -20 -20 -20 -20 -20 -20 -20 -20 -20 -20 -20 -20 -20 -20 -20 -20 -20 -20
28 28 28 25 9 -20 -20 -20 -20 -20 -20 -20 -20 -20 -20 -20 -20 -20 -20 -20 -20 -20 -20 -20 -20 -20 -20 -20 -20 -20 -20 -20 -20 -20 -20 -20 -20 -20 -20 -20 -20 -20 -20 -20 -20 -20 -20 -20 -20 -20 -20 -20 -20 -20
22 20 20 16 0 -20 -20 -20 -20 -20 -20 -20 -20 -20 -20 -20 -20 -20 -20 -20 -20 -20 -20 -20 -20 -20 -20 -20 -20 -20 -20 -20 -20 -20 -20 -20 -20 -20 -20 -20 -20 -20 -20 -20 -20 -20 -20 -20 -20 -20 -20 -20 -20 -20
-7 -9 -11 -14 -20 -19 -20 -20 -20 -20 -20 -20 -20 -20 -20 -20 -20 -20 -20 -20 -20 -20 -20 -20 -20 -20 -20 -20 -20 -20 -20 -20 -20 -20 -20 -20 -20 -20 -20 -20 -20 -20 -20 -20 -20 -20 -20 -20 -20 -20 -20 -20 -20 -20
12 8 -19 -20 -20 -20 -20 -20 -20 -20 -20 -20 -20 -20 -20 -20 -20 -20 -20 -20 -20 -20 -20 -20 -20 -20 -20 -20 -20 -20 -20 -20 -20 -20 -20 -20 -20 -20 -20 -20 -20 -20 -20 -20 -20 -20 -20 -20 -20 -20 -20 -20 -20 -20
-20 -20 -20 -20 -20 -20 -20 -20 -20 -20 -20 -20 -20 -20 -20 -20 -20 -20 -20 -20 -20 -20 -20 -20 -20 -20 -20 -20 -20 -20 -20 -20 -20 -20 -20 -20 -20 -20 -20 -20 -20 -20 -20 -20 -20 -20 -20 -20 -20 -20 -20 -20 -20 -20
-20 -20 -20 -20 -20 -20 -20 -20 -20 -20 -20 -20 -20 -20 -20 -20 -20 -20 -20 -20 -20 -20 -20 -20 -20 -20 -20 -20 -20 -20 -20 -20 -20 -20 -20 -20 -20 -20 -20 -20 -20 -20 -20 -20 -20 -20 -20 -20 -20 -20 -20 -20 -20 -20
-20 -20 -20 -20 -20 -20 -20 -20 -20 -20 -20 -20 -20 -20 -20 -20 -20 -20 -20 -20 -20 -20 -20 -20 -20 -20 -20 -20 -20 -20 -20 -20 -20 -20 -20 -20 -20 -20 -20 -20 -20 -20 -20 -20 -20 -20 -20 -20 -20 -20 -20 -20 -20 -20
-20 -20 -20 -20 -20 -20 -20 -20 -20 -20 -20 -20 -20 -20 -20 -20 -20 -20 -20 -20 -20 -20 -20 -20 -20 -20 -20 -20 -20 -20 -20 -20 -20 -20 -20 -20 -20 -20 -20 -20 -20 -20 -20 -20 -20 -20 -20 -20 -20 -20 -20 -20 -20 -20
-20 -20 -20 -20 -20 -20 -20 -20 -20 -20 -20 -20 -20 -20 -20 -20 -20 -20 -20 -20 -20 -20 -20 -20 -20 -20 -20 -20 -20 -20 -20 -20 -20 -20 -20 -20 -20 -20 -20 -20 -20 -20 -20 -20 -20 -20 -20 -20 -20 -20 -20 -20 -20 -20
-20 -20 -20 -20 -20 -20 -20 -20 -20 -20 -20 -20 -20 -20 -20 -20 -20 -20 -20 -20 -20 -20 -20 -20 -20 -20 -20 -20 -20 -20 -20 -20 -20 -20 -20 -20 -20 -20 -20 -20 -20 -20 -20 -20 -20 -20 -20 -20 -20 -20 -20 -20 -20 -20
-20 -20 -20 -20 -20 -20 -20 -20 -20 -20 -20 -20 -20 -20 -20 -20 -20 -20 -20 -20 -20 -20 -20 -20 -20 -20 -20 -20 -20 -20 -20 -20 -20 -20 -20 -20 -20 -20 -20 -20 -20 -20 -20 -20 -20 -20 -20 -20 -20 -20 -20 -20 -20 -20
-20 -20 -20 -20 -20 -20 -20 -20 -20 -20 -20 -20 -20 -20 -20 -20 -20 -20 -20 -20 -20 -20 -20 -20 -20 -20 -20 -20 -20 -20 -20 -20 -20 -19 -3 -0 -0 -4 -20 -20 -20 -20 -20 -20 -20 -20 -20 -20 -20 -20 -20 -20 -20 -20

GFSWCAN_prec_radar_084.txt.gz
Reflectivity
34 26 35 34 35 33 23 21 14 19 -20 -20 2 -4 -16 -20 -20 -20 -17 -20 -20 -20 -20 -20 -20 -20 -20 -20 -20 -20 -20 -20 -20 -13 -20 -20 -13 -2 1 -2 22 18 18 4 15 13 5 -20 -20 -20 -20 -20 -20 -20
31 22 10 35 38 24 27 31 19 14 -4 -13 -16 -16 -20 -20 -20 -20 -20 -12 -20 -20 -20 -20 -20 -20 -20 -20 -20 -19 -20 -20 -20 -20 -20 -20 -20 -20 -20 2 -20 14 -17 13 -17 -20 -20 -20 -20 -20 -20 -20 -20 -20
33 26 24 22 37 32 30 25 24 18 -0 -16 -12 -2 -20 -20 -20 -20 -7 -0 -20 -20 -20 -20 -20 -20 -20 -20 -20 -20 -20 -20 -20 -20 -20 -20 -3 -8 -20 2 -20 -10 20 2 -20 -20 -20 -20 -20 -20 -20 -20 -20 -20
28 26 35 10 32 35 30 28 18 22 22 7 5 -19 -20 -20 -20 -20 10 -2 -20 -15 -20 -20 -20 -20 -20 -20 -20 -20 -20 -20 -20 -18 -2 -10 -11 -19 -20 -20 -20 -20 -19 1 -14 1 -20 -20 -20 -20 -20 -20 -20 -20
28 18 34 23 30 39 36 29 25 30 26 0 -18 -20 -20 -20 -20 -3 16 -12 -20 -20 -20 -20 -20 -20 -20 -20 -20 -20 -20 -20 -6 -3 5 1 -15 -20 -20 -20 -20 -20 -20 -16 9 24 -20 -20 -20 -20 -20 -20 -20 -20
26 7 31 18 31 37 38 28 30 30 16 12 -12 -20 -20 -11 -20 10 9 -10 -20 -20 -20 -20 -20 -20 -20 -20 -20 -20 -20 -2 10 8 -1 5 -20 -20 -20 -20 -20 -20 -20 -20 -20 -20 -18 -20 -20 -20 -20 -20 -20 -20
19 20 22 30 25 33 32 29 30 26 7 15 3 9 14 3 -18 14 -10 -20 -20 -20 -20 -20 -20 -20 -20 -20 -20 -20 -12 9 8 5 10 1 -7 -13 3 -20 -20 -20 -13 -20 -20 -20 -15 -4 -20 -20 -20 -20 -20 -20
22 28 23 33 33 30 31 28 31 27 15 20 17 17 14 -20 8 22 -2 -14 -20 -20 -20 -20 -20 -20 -20 -20 -3 -20 -5 6 7 -11 7 4 -7 4 -2 -20 -20 -20 5 5 -19 -20 20 -16 -20 -20 -20 -20 -20 -20
25 31 25 21 29 33 27 27 30 25 21 16 13 -11 -20 -17 27 14 -9 1 -20 -20 -20 -20 -20 -20 -20 -20 -4 13 12 -6 -20 2 -17 3 -20 -4 -9 -20 -20 -20 -17 -16 -20 -17 4 -20 -20 -20 -20 -20 -20 -20
30 29 28 27 35 34 30 30 -1 20 25 14 2 -11 -19 18 22 -17 -8 -19 -20 -14 -20 -20 -20 -20 -20 -20 -20 -10 6 -7 -17 -6 -19 5 -20 -20 17 17 -5 -20 -20 -20 -20 -20 -5 -20 -20 -20 -20 -20 -20 -20
30 29 29 31 31 32 30 17 1 26 23 6 -2 1 16 27 9 -6 -13 -20 -18 -20 -18 -20 -20 -20 -20 -20 -20 -20 -0 -20 -20 -20 -14 -20 -20 20 31 15 -20 -20 -20 -20 -20 -20 -11 4 -11 -17 -20 -20 -20 -20
33 31 26 33 30 31 30 12 16 15 11 10 -10 13 24 16 -3 -20 -20 -14 -20 -20 -20 -20 -20 -20 -20 -15 -11 -20 -8 -13 -19 -20 -5 -20 -14 6 20 25 -17 -20 -20 -20 -7 13 -12 -17 -0 19 -6 -20 -20 -20
32 34 28 25 31 34 20 17 21 19 10 -14 -19 14 20 5 -20 -20 -20 -20 -20 -20 -20 -20 -5 -17 7 5 -10 -3 1 -19 -15 -20 -20 -20 -19 -20 -8 17 27 -6 -2 -7 18 8 -0 13 -2 4 -8 -19 -20 -20
37 35 19 31 34 13 -3 17 14 1 -19 -9 13 19 11 -5 -20 -20 -20 -20 -20 -20 -20 -17 -20 -4 -13 -3 -7 7 -20 18 12 -20 -20 -20 -20 -20 -18 25 22 19 4 -8 -17 -18 -19 -16 -19 -18 -16 -14 -20 -20
37 35 36 31 17 14 11 7 0 4 -8 18 20 11 -3 -20 -20 -20 -20 -20 -20 -20 -20 -20 -7 -20 8 2 -14 -13 -20 -20 -20 -20 -20 -20 -20 -20 -20 -5 24 25 20 21 14 23 24 21 19 -12 -20 -18 -19 -20
29 31 23 19 17 8 5 7 7 15 29 17 9 -1 -20 -20 -20 -20 -20 -20 -20 -20 -20 -20 -20 -13 -16 -14 -19 -20 -20 -20 -20 -20 -20 -20 -20 -20 -20 11 15 23 27 22 22 5 -17 -14 -10 -20 -20 -20 -20 -20
26 25 20 9 0 6 10 16 24 25 20 10 -11 -20 -20 -20 -20 -20 -20 -20 -20 -20 -20 -20 -20 -20 -20 -20 -20 -20 -20 -20 -20 -20 -20 -20 -20 -20 -20 4 27 21 28 34 25 15 -17 -20 -20 -20 -20 -20 -20 -20
18 17 19 20 23 26 34 34 27 15 3 -14 -20 -20 -20 -20 -20 -20 -20 -20 -20 -20 -20 -20 -20 -20 -20 -20 -20 -20 -20 -20 -20 -20 -20 -20 -20 -20 -20 -20 21 29 25 27 14 8 -8 -20 -20 -20 -20 -20 -20 -20
34 34 33 35 35 28 21 13 3 -16 -20 -20 -20 -20 -20 -20 -20 -20 -20 -20 -20 -20 -20 -20 -20 -20 -20 -20 -20 -20 -20 -20 -20 -20 -20 -20 -20 -20 -20 -20 -18 -2 -1 1 16 21 7 -20 -20 -20 -20 -20 -20 -20
34 33 33 26 7 -5 -17 -20 -20 -20 -20 -15 -20 -20 -20 -20 -20 -20 -20 -20 -20 -20 -20 -20 -20 -20 -20 -20 -20 -20 -20 -20 -20 -20 -20 -20 -20 -20 -20 -20 -20 -20 -13 -11 -20 -20 -20 -20 -20 -20 -20 -20 -20 -20
25 14 14 -3 -20 -20 -20 -20 -20 -20 -9 -19 -20 -20 -20 -20 -20 -20 -20 -20 -19 -20 -20 -20 -20 -20 -20 -20 -20 -20 -20 -20 -20 -20 -20 -20 -20 -20 -20 -20 -20 -20 -20 -20 -20 -20 -20 -20 -20 -20 -20 -20 -20 -20
29 19 -0 -20 -20 -20 -20 -20 -19 -19 -20 -20 -20 -20 -20 -20 -20 -20 -20 -20 -20 -20 -20 -20 -20 -20 -20 -20 -20 -20 -20 -20 -20 -20 -20 -20 -20 -20 -20 -20 -20 -20 -20 -20 -20 -20 -20 -20 -20 -20 -20 -20 -20 -20
2 4 -7 -14 -20 -20 -20 -20 -20 -20 -20 -20 -20 -20 -20 -20 -20 -20 -20 -20 -20 -20 -20 -20 -20 -20 -20 -20 -20 -20 -20 -20 -20 -20 -20 -20 -20 -20 -20 -20 -20 -20 -20 -20 -20 -20 -20 -20 -20 -20 -20 -20 -20 -20
4 11 -3 -20 -20 -17 -13 -19 -20 -20 -20 -20 -20 -20 -20 -20 -20 -20 -20 -20 -20 -20 -20 -20 -20 -20 -20 -20 -20 -20 -20 -20 -20 -20 -20 -20 -20 -20 -20 -20 -20 -20 -20 -20 -20 -20 -20 -20 -20 -20 -20 -20 -20 -20
22 1 -20 -20 -17 -16 -15 -19 -20 -20 -20 -20 -20 -20 -20 -20 -20 -20 -20 -20 -20 -20 -20 -20 -20 -20 -20 -20 -20 -20 -20 -20 -20 -20 -20 -20 -20 -20 -20 -20 -20 -20 -20 -20 -20 -20 -20 -20 -20 -20 -20 -20 -20 -20
-20 -20 -20 -20 -20 -20 -20 -20 -20 -20 -20 -20 -20 -20 -20 -20 -20 -20 -20 -20 -20 -20 -20 -20 -20 -20 -20 -20 -20 -20 -20 -20 -20 -20 -20 -20 -20 -20 -20 -20 -20 -20 -20 -20 -20 -20 -20 -20 -20 -20 -20 -20 -20 -20
-20 -20 -20 -20 -20 -20 -20 -20 -20 -20 -20 -20 -20 -20 -20 -20 -20 -20 -20 -20 -20 -20 -20 -20 -20 -20 -20 -20 -20 -20 -20 -20 -20 -20 -20 -20 -20 -20 -20 -20 -20 -20 -20 -20 -20 -20 -20 -20 -20 -20 -20 -20 -20 -20
-20 -20 -20 -20 -20 -20 -20 -20 -20 -20 -20 -20 -20 -20 -20 -20 -20 -20 -20 -20 -20 -20 -20 -20 -20 -20 -20 -20 -20 -20 -20 -20 -20 -20 -20 -20 -20 -20 -20 -20 -20 -20 -20 -20 -20 -20 -20 -20 -20 -20 -20 -20 -20 -20
-20 -20 -20 -20 -20 -20 -20 -20 -20 -20 -20 -20 -20 -20 -20 -20 -20 -20 -20 -20 -20 -20 -20 -20 -20 -20 -20 -20 -20 -20 -20 -20 -20 -20 -20 -20 -20 -20 -20 -20 -20 -20 -20 -20 -20 -20 -20 -20 -20 -20 -20 -20 -20 -20
-20 -20 -20 -20 -20 -20 -20 -20 -20 -20 -20 -20 -20 -20 -20 -20 -20 -20 -20 -20 -20 -20 -20 -20 -20 -20 -20 -20 -20 -20 -20 -20 -20 -20 -20 -20 -20 -20 -20 -20 -20 -20 -20 -20 -20 -20 -20 -20 -20 -20 -20 -20 -20 -20
-20 -20 -20 -20 -20 -20 -20 -20 -20 -20 -20 -20 -20 -20 -20 -20 -20 -20 -20 -20 -20 -20 -20 -20 -20 -20 -20 -20 -20 -20 -20 -20 -20 -20 -20 -20 -20 -20 -20 -20 -20 -20 -20 -20 -20 -20 -20 -20 -20 -20 -20 -20 -20 -20
-20 -20 -20 -20 -20 -20 -20 -20 -20 -20 -20 -20 -20 -20 -20 -20 -20 -20 -20 -20 -20 -20 -20 -20 -20 -20 -20 -20 -20 -20 -20 -20 -20 -20 -20 -20 -20 -20 -20 -20 -20 -20 -20 -20 -20 -20 -20 -20 -20 -20 -20 -20 -20 -20
-20 -20 -20 -20 -20 -20 -20 -20 -20 -20 -20 -20 -20 -20 -20 -20 -20 -20 -20 -20 -20 -20 -20 -20 -20 -20 -20 -20 -20 -20 -20 -20 -20 -20 -6 -4 0 1 -8 -15 -20 -20 -20 -20 -20 -20 -20 -20 -20 -20 -20 -20 -20 -20

GFSWCAN_prec_radar_090.txt.gz
Reflectivity
-1 11 -7 13 3 11 35 37 39 32 34 32 20 11 23 30 13 -16 -4 -20 -20 -20 -20 -20 -20 -20 -20 -20 -20 -20 -20 -20 -20 -20 -20 -20 -20 -20 -20 -15 -2 -20 -12 -2 -5 15 -14 -20 -20 -20 -20 -20 -20 -20
-11 -8 -5 16 11 24 29 24 31 34 33 28 14 23 25 27 -9 -20 -20 -20 -20 -20 -20 -20 -20 -20 -20 -20 -20 -20 -20 -20 -20 -20 -20 -20 -20 -20 -20 -20 -20 -6 -17 -16 11 -10 -20 -20 -20 -20 -20 -20 -20 -7
10 9 4 10 9 26 30 32 30 32 30 33 32 23 12 5 -20 -20 -20 -20 -20 -20 -20 -20 -20 -20 -20 -20 -20 -20 -20 -20 -20 -20 -20 -20 -20 -20 -20 -20 -20 -20 -20 -20 -20 -15 22 -20 -20 -20 -20 -20 -20 -20
12 12 15 4 19 25 37 39 34 34 34 32 17 11 11 -7 -20 -20 -14 -20 -20 -20 -20 -20 -20 -20 -20 -20 -20 -20 -20 -20 -20 -20 -17 -20 -20 -20 -20 -20 -20 -20 -20 -20 -20 -20 -20 -20 -20 -20 -20 -20 -20 -20
7 12 12 -16 15 32 35 31 35 34 34 30 19 8 -10 -20 2 5 -18 -20 -20 -20 -20 -20 -20 -20 -20 -20 -20 -20 -20 -20 -19 -17 -20 -20 -20 -20 -20 -20 -20 -20 -20 -20 -20 -20 -20 -20 -20 -20 -20 -20 -20 -20
3 9 4 -20 1 32 35 28 33 33 36 30 16 2 -8 -0 5 -18 -20 -20 -20 -20 -20 -20 -20 -20 -20 -20 -20 -20 -20 -20 -20 -20 -20 -2 -20 -20 -6 -20 -20 -20 -20 -20 -20 -20 -20 -20 6 -13 -20 -20 -20 -20
1 -1 -18 0 25 35 36 29 32 28 32 31 22 17 10 10 -17 -20 -16 -2 -11 -20 -20 -20 -20 -20 -20 -20 -20 -17 -20 -3 -11 -1 -17 -16 -8 -17 -11 -19 -20 -20 -20 -20 -20 -20 -20 -20 10 -10 -20 -20 -20 -20
-16 -4 -20 20 29 37 35 33 33 30 31 30 17 20 22 13 -20 -20 -20 -1 -20 -20 -20 -20 -20 -20 -20 -13 -8 -11 3 -15 -17 -8 -9 -10 -10 -16 -9 -20 -20 -18 -0 -20 -20 -20 -20 -20 -1 20 -18 -20 -20 -20
-12 -13 -20 9 25 38 34 34 33 26 31 28 27 25 15 11 -15 -10 -6 -16 -20 -20 -20 -20 -20 -20 -20 -20 -6 -16 -7 -7 -14 -4 3 2 -20 -1 -20 -20 2 22 6 1 -20 -20 -20 -19 -20 -20 -12 -20 -20 -20
-20 -20 -1 25 29 35 30 32 29 29 31 33 31 25 17 4 -20 3 -3 -20 -20 -20 -20 -20 -20 -20 -20 -20 -5 1 -19 -4 -7 -20 -11 -20 -20 -20 -20 -20 -5 -4 11 4 -20 -20 -20 -20 -20 -20 -13 -20 -20 -20
-20 4 25 27 36 35 32 30 31 29 31 32 25 27 9 0 0 15 5 -18 -20 -20 -20 -20 -20 -20 -20 -20 -20 -19 -14 -2 -20 -20 -20 -20 -20 -20 -20 -20 -20 -9 14 -6 -20 -20 -20 -20 -15 -13 16 -16 -20 -20
-3 22 28 36 31 30 29 28 24 28 27 19 17 11 11 -1 -17 7 -10 -20 -20 -20 -20 -20 -20 -20 -20 -20 -20 -13 -20 -15 -20 -20 -18 -20 -20 -19 -20 -20 -20 -15 6 -12 -20 -17 8 -8 -11 13 20 3 -14 -8
16 28 33 34 29 30 26 15 24 8 13 27 26 18 8 2 5 -17 -19 -0 -12 -20 -20 -20 -20 -20 -20 -0 -20 -20 -17 -18 -19 -20 -20 -20 -20 -20 -20 -5 7 -20 -13 -17 -20 -18 -18 -12 15 16 15 22 34 31
24 26 32 29 30 27 25 29 25 25 29 27 10 -9 6 -8 -20 4 10 -7 -20 -20 -20 -20 -20 -11 -3 -10 -3 -20 -19 -8 -6 -5 -19 -20 -20 -20 -20 -20 -20 -20 -18 0 0 -12 10 18 18 29 26 8 -2 -20
28 31 31 33 31 29 27 22 20 22 27 18 7 2 -19 2 8 13 1 -19 -20 -20 -20 -20 -20 -20 -13 -8 -16 -13 4 -20 -20 -20 -20 -20 -20 -20 -20 -20 -20 -15 -20 -18 2 12 10 8 -2 -20 -20 -20 -20 -20
30 31 33 33 30 28 26 28 30 28 23 11 4 3 8 3 11 3 -19 -20 -20 -20 -20 -20 -20 -20 -20 -20 -19 -20 -20 -20 -20 -20 -20 -20 -20 -20 -20 -20 -20 9 7 -20 -20 -20 -20 -20 -20 -20 -20 -20 -20 -20
36 37 35 31 28 32 34 31 27 17 12 7 -9 3 12 15 7 -5 -11 -20 -20 -20 -20 -20 -20 -20 -20 -20 -20 -6 -20 -20 -20 -20 -20 -20 -20 -20 -20 -20 -12 16 12 -20 -20 -13 -20 -20 1 -7 -20 -20 -20 -20
34 36 32 35 33 36 31 26 18 21 8 -13 0 18 20 11 2 -3 -16 -20 -20 -20 -20 -20 -20 -20 -20 -20 -20 -20 -20 -5 -20 -20 -20 -20 -20 -20 -20 -20 -20 8 -18 3 -20 -20 -18 6 -11 -20 -15 -6 -20 -20
31 34 32 30 33 24 25 13 13 -1 -4 13 17 16 9 -3 -16 -20 -20 -20 -20 -20 -20 -20 -20 -20 -20 -20 -20 -20 -20 -20 -20 -20 -20 -20 -20 -20 -20 -20 -20 -20 -13 -2 -20 -20 -20 -20 -7 -8 -15 -20 -20 -20
34 32 37 37 24 6 7 10 22 10 15 16 13 9 -2 -11 -20 -20 -20 -20 -20 -20 -20 -20 -20 -20 -20 -20 -20 -20 -20 -20 -20 -20 -20 -20 -20 -20 -20 -20 -20 -20 -20 -20 -20 -20 -20 -20 -20 -20 -19 -18 -20 -20
37 34 27 18 26 21 19 17 17 15 11 6 5 3 -8 -20 -5 -1 -5 -20 -20 -20 -20 -20 -20 -20 -20 -20 -20 -20 -20 -20 -20 -20 -20 -20 -20 -20 -20 -20 -20 -20 -20 -20 -20 -20 -20 -20 -20 -20 -20 -20 -20 -20
29 22 29 32 25 21 20 17 14 7 3 -0 -12 -20 -20 -20 -20 -20 -20 -20 -20 -20 -20 -20 -20 -20 -20 -20 -20 -20 -20 -20 -20 -20 -20 -20 -20 -20 -20 -20 -20 -20 -20 -20 -20 -20 -20 -20 -20 -20 -20 -20 -20 -20
31 31 30 26 19 15 12 8 5 -2 -20 -20 -20 -20 -20 -20 -20 -20 -20 -20 -20 -20 -20 -20 -20 -20 -20 -20 -20 -20 -20 -20 -20 -20 -20 -20 -20 -20 -20 -20 -20 -20 -20 -20 -20 -20 -20 -20 -20 -20 -20 -20 -20 -20
28 23 20 16 8 -0 -12 -20 -20 -20 -20 -20 -20 -20 -20 -20 -20 -20 -20 -20 -20 -20 -20 -20 -20 -20 -20 -20 -20 -20 -20 -20 -20 -20 -20 -20 -20 -20 -20 -20 -20 -20 -20 -20 -20 -20 -20 -20 -20 -20 -20 -20 -20 -20
16 17 13 5 -9 -20 -20 -20 -20 -20 -20 -20 -20 -20 -20 -20 -20 -20 -20 -20 -20 -20 -20 -20 -20 -20 -20 -20 -20 -20 -20 -20 -20 -20 -20 -20 -20 -20 -20 -20 -20 -20 -20 -20 -20 -20 -20 -20 -20 -20 -20 -20 -20 -20
9 -0 -16 -20 -20 -20 -20 -20 -20 -20 -20 -20 -20 -20 -20 -20 -20 -20 -20 -20 -20 -20 -20 -20 -20 -20 -20 -20 -20 -20 -20 -20 -20 -20 -20 -20 -20 -20 -20 -20 -20 -20 -20 -20 -20 -20 -20 -20 -20 -20 -20 -20 -20 -20
-20 -20 -20 -20 -19 -12 -14 -12 -15 -20 -20 -20 -20 -20 -20 -20 -20 -20 -20 -20 -20 -20 -20 -20 -20 -20 -20 -20 -20 -20 -20 -20 -20 -20 -20 -20 -20 -20 -20 -20 -20 -20 -20 -20 -20 -20 -20 -20 -20 -20 -20 -20 -20 -20
-20 -20 -9 -8 -5 -2 -9 -20 -20 -20 -20 -20 -20 -20 -20 -20 -20 -20 -20 -20 -20 -20 -20 -20 -20 -20 -20 -20 -20 -20 -20 -20 -20 -20 -20 -20 -20 -20 -20 -20 -20 -20 -20 -20 -20 -20 -20 -20 -20 -20 -20 -20 -20 -20
-18 -12 -20 -20 -20 -20 -20 -20 -20 -20 -20 -20 -20 -20 -20 -20 -20 -20 -20 -20 -20 -20 -20 -20 -20 -20 -20 -20 -20 -20 -20 -20 -20 -20 -20 -20 -20 -20 -20 -20 -20 -20 -20 -20 -20 -20 -20 -20 -20 -20 -20 -20 -20 -20
-2 -18 -20 -20 -20 -20 -20 -20 -20 -20 -20 -20 -20 -20 -20 -20 -20 -20 -20 -20 -20 -20 -20 -20 -20 -20 -20 -20 -20 -20 -20 -20 -20 -20 -20 -20 -20 -20 -20 -20 -20 -20 -20 -20 -20 -20 -20 -20 -20 -20 -20 -20 -20 -20
-20 -20 -20 -20 -20 -20 -20 -20 -20 -20 -20 -20 -20 -20 -20 -20 -20 -20 -20 -20 -20 -20 -20 -20 -20 -20 -20 -20 -20 -20 -20 -20 -20 -20 -20 -20 -20 -20 -20 -20 -20 -20 -20 -20 -20 -20 -20 -20 -20 -20 -20 -20 -20 -20
-20 -20 -20 -20 -20 -20 -20 -20 -20 -20 -20 -20 -20 -20 -20 -20 -20 -20 -20 -20 -20 -20 -20 -20 -20 -20 -20 -20 -20 -20 -20 -20 -20 -20 -20 -20 -20 -20 -20 -20 -20 -20 -20 -20 -20 -20 -20 -20 -20 -20 -20 -20 -20 -20
-20 -20 -20 -20 -20 -20 -20 -20 -20 -20 -20 -20 -20 -20 -20 -20 -20 -20 -20 -20 -20 -20 -20 -20 -20 -20 -20 -20 -20 -20 -20 -20 -20 -20 -15 -14 -0 -3 -20 -20 -20 -20 -20 -20 -20 -20 -20 -20 -20 -20 -20 -20 -20 -20

GFSWCAN_prec_radar_093.txt.gz
Reflectivity
-16 -12 -20 10 -20 -20 -20 -6 21 -11 23 31 38 34 3 -5 10 22 16 -11 -20 -20 -20 -20 -20 -20 -20 -20 -20 -20 -20 -20 -20 -20 -20 -20 -20 -20 -20 -20 -20 -20 -20 -19 -6 -7 -20 -20 -20 -20 -20 -20 -20 -20
-20 -17 -20 13 -20 -20 -19 15 -3 17 26 31 34 33 9 15 11 7 27 -13 -20 -20 -20 -20 -20 -20 -20 -20 -20 -20 -20 -20 -20 -20 -20 -20 -20 -20 -20 -20 -20 -20 -19 -17 26 -20 -8 -20 -6 -20 -20 -20 -20 -20
5 -20 -18 9 -20 -20 -6 17 -1 24 35 34 29 29 -2 17 11 29 25 -20 -20 -20 -20 -20 -20 -20 -20 -20 -20 -20 -20 -20 -20 -20 -20 -20 -20 -20 -20 -20 -20 -20 -20 -20 -20 -20 -20 40 22 -20 -20 -20 -20 -20
-13 -20 -1 1 -20 -17 24 19 19 36 30 31 25 27 22 9 29 23 -20 -20 -20 -20 -20 -20 -20 -20 -20 -20 -20 -20 -20 -20 -20 -20 -20 -20 -20 -20 -20 -20 -20 -20 -20 -20 -20 -20 -20 -20 -3 -17 -20 -20 -20 -20
6 -20 2 -6 -16 12 25 29 38 36 32 30 24 22 22 32 15 -20 -20 -20 -20 -20 -20 -20 -20 -20 -20 -20 -20 -20 -20 -20 -20 -20 -20 -20 -20 -20 -20 -20 -20 -20 -20 -20 -20 -20 -20 -20 -20 -20 -20 -20 -20 -20
17 -19 4 -20 -1 8 26 30 33 33 34 29 29 32 30 28 -1 -20 -20 -20 -20 -20 -20 -20 -20 -20 -20 -20 -20 -20 -20 -20 -20 -20 -20 -20 -20 -20 -20 -20 -20 -20 -20 -20 -20 -20 -20 -20 -20 -20 -20 -19 -20 -20
7 -0 -20 -20 -20 10 28 19 21 33 30 29 33 25 30 15 8 -6 -20 -16 -20 -20 -20 -20 -20 -20 -20 -20 -20 -20 -20 -20 -20 -20 -20 -20 -20 -20 -20 -20 -20 -20 -20 -20 -18 -4 -20 -20 -20 -20 5 27 -15 -19
10 -20 -20 -20 -18 11 24 24 30 33 32 34 28 30 21 9 -12 -20 -17 -18 -20 -20 -20 -20 -20 -20 -20 -20 -13 -10 -11 -20 -10 -20 -7 -20 -20 -18 -14 -20 -20 -20 -20 -20 -20 -20 -20 -20 -20 -20 -20 13 12 -20
-6 -20 -20 -20 6 11 29 24 35 36 27 28 31 26 16 8 -19 -20 -20 -20 -20 -20 -20 -20 -20 -20 -20 -20 -18 -19 -20 -20 -20 -19 -1 -2 -20 -5 -20 -20 -20 -1 10 1 -20 -20 -20 -20 -20 -20 -7 26 25 -7
-20 -20 -20 -5 14 26 19 24 35 32 27 29 26 26 21 -3 6 4 -16 -20 -20 -20 -20 -20 -20 -20 -20 -20 -2 -18 -20 -6 -20 -20 -13 -20 -20 -20 -20 -20 -20 -20 -5 -11 -6 -20 -20 -20 -20 -20 2 -3 20 30
-20 -20 -15 22 34 27 29 31 35 27 27 25 17 7 12 2 -9 -5 -20 -20 -20 -20 -20 -20 -20 -20 -20 -20 -20 -20 -20 -20 -20 -20 -20 -20 -20 -20 -20 -20 -18 -20 -12 3 -6 -19 -20 -20 -16 -12 10 -7 17 5
-20 -20 16 27 33 26 27 29 29 19 19 27 10 3 13 13 -16 -20 -19 -20 -20 -20 -20 -20 -20 -20 -20 -20 -20 -20 -20 -15 -20 -20 -20 -20 -20 -20 -20 -20 7 8 -16 -2 -3 10 10 16 22 15 6 4 25 24
-20 5 21 26 31 20 18 23 20 -0 12 14 29 26 14 -6 -20 -20 -20 -20 -20 -20 -20 -20 -20 -20 -20 -20 -20 -20 -20 -20 -18 -18 -20 -20 -20 -20 -20 -20 -20 -19 -1 -10 4 -5 -13 -19 19 5 -0 7 14 11
7 22 20 31 20 19 21 24 21 23 16 29 10 -8 -6 -1 -20 -20 0 -16 -20 -20 -20 -20 -20 -20 -8 -20 -20 -20 -20 -17 -20 -20 -20 -20 -20 -20 -20 -20 -20 -17 -16 -14 -3 1 -7 6 -19 -7 9 29 25 4
24 27 34 31 29 28 26 22 23 20 28 14 -11 3 -4 -20 -20 10 10 -6 -20 -20 -20 -20 -20 -20 -20 -20 -20 -19 -8 -20 -20 -20 -20 -20 -20 -20 -20 -20 -20 -19 -20 -20 -15 -7 -3 -4 -11 -20 -20 -20 -1 -12
25 34 35 34 29 27 30 31 31 30 30 19 10 0 -20 -15 10 13 8 -19 -20 -20 -20 -20 -20 -20 -20 -20 -15 -20 -20 -20 -20 -20 -20 -20 -20 -20 -20 -20 -20 -20 -20 -20 -20 -20 -20 -20 -20 -20 -20 -20 -20 -20
38 37 37 30 33 32 29 29 29 30 21 12 3 4 11 17 17 10 -16 -20 -20 -20 -20 -20 -20 -20 -20 -20 -20 -20 -20 -20 -20 -20 -20 -20 -20 -20 -20 -20 -20 -20 -15 -20 -20 -20 -20 -20 -20 -9 2 5 -3 -20
36 35 30 31 29 31 33 29 31 20 9 -12 -3 11 18 17 10 -8 -20 -20 -20 -20 -20 -20 -20 -20 -20 -20 -20 -20 -20 -18 -20 -20 -20 -20 -20 -20 -20 -20 -20 -18 -20 -7 4 -4 -14 -20 -20 -7 -7 -8 -14 -19
25 22 20 18 7 24 28 24 19 -0 -15 1 18 20 17 9 -3 -18 -13 -18 -20 -20 -20 -20 -20 -20 -20 -20 -20 -20 -20 -20 -20 -20 -20 -20 -20 -20 -20 -20 -20 -20 -20 -11 -20 -20 -19 -6 -7 -7 8 12 7 -17
28 25 22 25 28 31 16 14 16 -9 10 17 22 19 9 4 3 -17 -20 -20 -20 -20 -20 -20 -20 -20 -20 -20 -20 -20 -20 -20 -20 -20 -20 -20 -20 -20 -20 -20 -20 -20 -20 -20 -20 -20 -20 -20 -20 -20 -20 -16 -8 -17
35 39 38 36 32 14 3 10 7 12 17 22 20 13 5 -11 -20 -20 -5 -20 -20 -20 -20 -20 -20 -20 -20 -20 -20 -20 -20 -20 -20 -20 -20 -20 -20 -20 -20 -20 -20 -20 -20 -20 -20 -20 -20 -20 -20 -20 -20 -20 -20 -20
38 35 32 30 19 16 16 10 15 22 21 19 13 6 -11 -19 -20 5 -19 -20 -20 -20 -20 -20 -20 -20 -20 -20 -20 -20 -20 -20 -20 -20 -20 -20 -20 -20 -20 -20 -20 -20 -20 -20 -20 -20 -20 -20 -20 -20 -20 -20 -20 -20
34 32 31 30 23 22 23 20 21 19 15 10 0 -9 -7 -12 -20 -20 -20 -20 -20 -20 -20 -20 -20 -20 -20 -20 -20 -20 -20 -20 -20 -20 -20 -20 -20 -20 -20 -20 -20 -20 -20 -20 -20 -20 -20 -20 -20 -20 -20 -20 -20 -20
32 28 26 24 23 20 15 11 6 2 2 -2 -9 -19 -20 -20 -20 -20 -20 -20 -20 -20 -20 -20 -20 -20 -20 -20 -20 -20 -20 -20 -20 -20 -20 -20 -20 -20 -20 -20 -20 -20 -20 -20 -20 -20 -20 -20 -20 -20 -20 -20 -20 -20
25 21 19 16 10 5 -4 -9 -11 -18 -20 -20 -20 -20 -20 -20 -20 -20 -20 -20 -20 -20 -20 -20 -20 -20 -20 -20 -20 -20 -20 -20 -20 -20 -20 -20 -20 -20 -20 -20 -20 -20 -20 -20 -20 -20 -20 -20 -20 -20 -20 -20 -20 -20
12 0 -14 -20 -20 -20 -15 -20 -20 -20 -20 -20 -20 -20 -20 -20 -20 -20 -20 -20 -20 -20 -20 -20 -20 -20 -20 -20 -20 -20 -20 -20 -20 -20 -20 -20 -20 -20 -20 -20 -20 -20 -20 -20 -20 -20 -20 -20 -20 -20 -20 -20 -20 -20
-3 -20 -20 -20 -20 -20 -20 -20 -20 -20 -20 -20 -20 -20 -20 -20 -20 -20 -20 -20 -20 -20 -20 -20 -20 -20 -20 -20 -20 -20 -20 -20 -20 -20 -20 -20 -20 -20 -20 -20 -20 -20 -20 -20 -20 -20 -20 -20 -20 -20 -20 -20 -20 -20
-14 -20 -16 -4 -6 -13 -20 -12 -20 -20 -20 -20 -20 -20 -20 -20 -20 -20 -20 -20 -20 -20 -20 -20 -20 -20 -20 -20 -20 -20 -20 -20 -20 -20 -20 -20 -20 -20 -20 -20 -20 -20 -20 -20 -20 -20 -20 -20 -20 -20 -20 -20 -20 -20
-20 -20 -18 -14 -7 -20 -20 -20 -20 -20 -20 -20 -20 -20 -20 -20 -20 -20 -20 -20 -20 -20 -20 -20 -20 -20 -20 -20 -20 -20 -20 -20 -20 -20 -20 -20 -20 -20 -20 -20 -20 -20 -20 -20 -20 -20 -20 -20 -20 -20 -20 -20 -20 -20
-20 -20 -20 -20 -20 -20 -20 -20 -20 -20 -20 -20 -20 -20 -20 -20 -20 -20 -20 -20 -20 -20 -20 -20 -20 -20 -20 -20 -20 -20 -20 -20 -20 -20 -20 -20 -20 -20 -20 -20 -20 -20 -20 -20 -20 -20 -20 -20 -20 -20 -20 -20 -20 -20
-9 -20 -20 -20 -20 -20 -20 -20 -20 -20 -20 -20 -20 -20 -20 -20 -20 -20 -20 -20 -20 -20 -20 -20 -20 -20 -20 -20 -20 -20 -20 -20 -20 -20 -20 -20 -20 -20 -20 -20 -20 -20 -20 -20 -20 -20 -20 -20 -20 -20 -20 -20 -20 -20
-20 -20 -20 -20 -20 -20 -20 -20 -20 -20 -20 -20 -20 -20 -20 -20 -20 -20 -20 -20 -20 -20 -20 -20 -20 -20 -20 -20 -20 -20 -20 -20 -20 -20 -20 -20 -20 -20 -20 -20 -20 -20 -20 -20 -20 -20 -20 -20 -20 -20 -20 -20 -20 -20
-20 -20 -20 -20 -20 -20 -20 -20 -20 -20 -20 -20 -20 -20 -20 -20 -20 -20 -20 -20 -20 -20 -20 -20 -20 -20 -20 -20 -20 -20 -20 -20 -20 -20 -20 -13 -3 -3 -20 -20 -20 -20 -20 -20 -20 -20 -20 -20 -20 -20 -20 -20 -20 -20

GFSWCAN_prec_radar_096.txt.gz
Reflectivity
8 0 12 1 -15 1 5 -14 -14 -8 9 19 33 31 23 34 2 5 12 8 21 -9 -14 -20 -20 -20 -20 -20 -20 -20 -20 -20 -20 -20 -20 -20 -20 -20 -20 -20 -20 -20 -20 -20 -19 -15 -20 -20 -20 -20 -20 -20 -20 -20
2 7 3 -2 -4 1 11 -20 -10 -18 -7 30 36 33 33 30 -3 11 20 4 9 -11 -20 -20 -20 -20 -20 -20 -20 -20 -20 -20 -20 -20 -20 -20 -20 -20 -20 -20 -20 -20 -18 -2 -20 -20 -20 -20 -20 -20 -20 -20 -20 -20
6 5 -1 12 -4 -20 2 -20 -20 -19 14 16 28 26 36 20 -19 10 20 23 10 -20 -20 -20 -20 -20 -20 -20 -20 -20 -20 -20 -20 -20 -20 -20 -20 -20 -20 -20 -20 -20 -20 -20 -20 -20 -20 -20 -20 35 10 -20 -20 -20
9 4 -4 13 -0 -20 -20 -20 -18 -20 -6 23 29 32 26 33 7 14 24 25 -2 -20 -20 -20 -20 -20 -20 -20 -20 -20 -20 -20 -20 -20 -20 -20 -20 -20 -20 -20 -20 -20 -20 -20 -20 -20 -20 -20 -20 -20 30 20 -20 -20
15 6 1 11 -10 -20 -20 -20 -20 -18 26 19 28 28 28 5 9 22 17 15 -1 -20 -20 -20 -20 -20 -20 -20 -20 -20 -20 -20 -20 -20 -20 -20 -20 -20 -20 -20 -20 -20 -20 -20 -20 -20 -20 -20 -20 -20 -20 18 22 -20
15 10 6 12 -19 -20 -10 11 -12 16 20 21 30 27 23 12 17 14 15 9 -19 -20 -20 -20 -20 -20 -20 -20 -20 -20 -20 -20 -20 -20 -20 -20 -20 -20 -20 -20 -20 -20 -20 -20 -20 -20 -20 -20 -20 -20 -20 -20 -9 -0
22 15 4 8 -20 -20 9 11 33 26 25 14 24 27 29 17 11 5 7 14 4 -20 -20 -20 -20 -20 -20 -20 -20 -20 -20 -20 -20 -20 -20 -20 -20 -20 -20 -20 -20 -20 -20 -20 -20 -2 -19 -20 -20 -20 -20 -20 -20 15
19 14 4 9 -20 -18 1 17 36 20 21 24 31 32 30 30 15 10 15 3 -20 -20 -20 -20 -20 -20 -20 -20 -14 -20 -20 -20 -20 -20 -20 -20 -20 -20 -20 -20 -20 -20 -16 -20 -20 -20 -10 -20 -20 -20 -20 -20 1 -0
16 10 9 1 -20 -18 -3 25 27 24 32 31 35 32 30 31 17 23 18 -19 -20 -20 -20 -20 -20 -20 -20 -6 -20 -8 -20 -20 -20 -20 -20 -20 -20 -17 -20 -20 -20 -20 -10 -0 -19 -20 -20 -20 -20 -20 -20 -20 -2 24
9 7 15 -20 -17 12 25 26 27 25 29 32 32 30 11 2 28 26 -10 -20 -20 -20 -20 -20 -20 -20 -20 -20 -4 -20 -20 -20 -20 -20 -20 -20 -20 -20 -20 -20 -20 -20 -20 -4 -20 -20 -20 -20 -20 -20 -18 -19 -11 28
10 6 -20 -20 5 27 32 18 20 28 30 33 29 8 11 29 26 6 -20 -20 -20 -20 -20 -20 -20 -20 -20 -20 -20 -20 -20 -20 -20 -20 -20 -20 -20 -20 -20 -20 -20 -9 -20 -3 -1 8 -15 -20 -5 -1 13 19 19 5
-6 -20 -20 -20 25 35 20 19 23 25 30 19 13 21 31 23 5 -20 -20 -20 -20 -20 -20 -20 -20 -20 -20 -20 -20 -11 -20 -14 -20 -20 -20 -20 -20 -20 -20 -20 -20 -20 -20 -14 2 4 -8 -9 8 14 18 14 20 15
-20 -16 3 -6 29 34 11 20 13 24 28 27 24 20 10 -18 -20 -20 -20 -20 -20 -20 -20 -20 -20 -20 -20 -20 -20 -20 -20 -20 -20 -20 -20 -20 -20 -20 -20 -20 -20 -20 -20 -17 -1 6 -14 -20 -18 -2 26 21 25 26
-12 15 28 29 22 23 24 32 32 32 23 24 12 10 -1 -20 -20 -20 -20 -20 -20 -20 -20 -20 -20 -20 -20 -20 -20 -20 -20 -19 -20 -20 -20 -20 -20 -20 -20 -20 -20 -20 -20 -20 14 4 -15 -16 -16 -0 21 23 24 19
14 23 37 34 23 29 31 33 30 29 27 -18 -20 -20 -20 -20 -20 -20 -20 -20 -20 -20 -20 -20 -20 -20 -20 -20 -20 -20 -11 -20 -20 -20 -20 -20 -20 -20 -20 -20 -20 -20 -11 -19 -19 -14 -11 -6 -14 -20 -20 -20 -20 -20
17 31 32 35 31 35 35 32 33 32 22 -2 -18 -20 -20 -20 -20 -20 -20 -20 -20 -20 -20 -20 -20 -20 -20 -20 -20 -20 -20 -20 -20 -20 -20 -20 -20 -20 -20 -20 -20 -20 -5 -4 -20 -20 -20 -20 -20 -20 -20 -20 -20 -20
35 36 30 32 36 34 35 33 29 28 16 -11 -20 -20 -20 -20 -13 -3 -7 -20 -20 -20 -20 -20 -20 -20 -20 -20 -20 -20 -20 -20 -20 -20 -20 -20 -20 -20 -20 -20 -20 -20 -20 -19 -4 -12 -10 -20 -20 -20 -20 -20 -19 3
32 35 33 34 32 31 29 31 33 22 9 -20 -20 -2 4 11 5 2 -17 -20 -20 -20 -20 -20 -20 -20 -20 -20 -20 -20 -20 -20 -20 -20 -20 -20 -20 -20 -20 -20 -20 -18 -20 -20 -12 1 -17 -4 -20 -19 -17 -13 -20 3
32 28 29 29 18 28 31 27 24 -7 -18 -18 5 15 16 13 -1 -9 -8 -20 -20 -20 -20 -20 -20 -20 -20 -20 -20 -20 -20 -20 -20 -20 -20 -20 -20 -20 -20 -20 -20 -20 -20 -20 -20 -20 -20 -20 -20 -20 -20 -11 3 18
21 27 29 32 34 30 14 14 13 -12 0 12 14 19 16 4 -14 -20 -20 -20 -20 -20 -20 -20 -20 -20 -20 -20 -20 -20 -20 -20 -20 -20 -20 -20 -20 -20 -20 -20 -20 -20 -20 -20 -20 -20 -20 -20 -20 -20 -20 -20 -20 -19
34 37 36 34 28 15 3 -6 -20 4 9 15 19 17 10 8 7 -9 -19 -20 -20 -20 -20 -20 -20 -20 -20 -20 -20 -20 -20 -20 -20 -20 -20 -20 -20 -20 -20 -20 -20 -20 -20 -20 -20 -20 -20 -20 -20 -20 -20 -20 -20 -20
35 32 27 27 16 16 13 9 14 11 10 17 18 14 11 7 0 -7 -20 -20 -20 -20 -20 -20 -20 -20 -20 -20 -20 -20 -20 -20 -20 -20 -20 -20 -20 -20 -20 -20 -20 -20 -20 -20 -20 -20 -20 -20 -20 -20 -20 -20 -20 -20
27 30 33 30 24 19 16 14 17 16 20 22 21 13 4 -1 -13 -20 -20 -20 -20 -20 -20 -20 -20 -20 -20 -20 -20 -20 -20 -20 -20 -20 -20 -20 -20 -20 -20 -20 -20 -20 -20 -20 -20 -20 -20 -20 -20 -20 -20 -20 -20 -20
32 29 27 25 21 15 12 10 11 16 17 14 12 7 -0 -3 -8 -20 -20 -20 -20 -20 -20 -20 -20 -20 -20 -20 -20 -20 -20 -20 -20 -20 -20 -20 -20 -20 -20 -20 -20 -20 -20 -20 -20 -20 -20 -20 -20 -20 -20 -20 -20 -20
32 27 24 21 15 10 8 12 18 18 15 13 12 8 -1 -17 -20 -20 -20 -20 -20 -20 -20 -20 -20 -20 -20 -20 -20 -20 -20 -20 -20 -20 -20 -20 -20 -20 -20 -20 -20 -20 -20 -20 -20 -20 -20 -20 -20 -20 -20 -20 -20 -20
20 12 6 0 -5 -5 9 13 11 11 9 6 -9 -20 -20 -20 -20 -20 -20 -20 -20 -20 -20 -20 -20 -20 -20 -20 -20 -20 -20 -20 -20 -20 -20 -20 -20 -20 -20 -20 -20 -20 -20 -20 -20 -20 -20 -20 -20 -20 -20 -20 -20 -20
11 -12 -20 -20 -20 -15 -2 4 3 2 -5 -15 -20 -20 -20 -20 -20 -20 -20 -20 -20 -20 -20 -20 -20 -20 -20 -20 -20 -20 -20 -20 -20 -20 -20 -20 -20 -20 -20 -20 -20 -20 -20 -20 -20 -20 -20 -20 -20 -20 -20 -20 -20 -20
-12 -20 -9 -3 -3 -4 -3 -9 -14 -7 -20 -20 -20 -20 -20 -20 -20 -20 -20 -20 -20 -20 -20 -20 -20 -20 -20 -20 -20 -20 -20 -20 -20 -20 -20 -20 -20 -20 -20 -20 -20 -20 -20 -20 -20 -20 -20 -20 -20 -20 -20 -20 -20 -20
-9 -17 -16 -9 -12 -16 -9 -15 -19 -20 -20 -20 -20 -20 -20 -20 -20 -20 -20 -20 -20 -20 -20 -20 -20 -20 -20 -20 -20 -20 -20 -20 -20 -20 -20 -20 -20 -20 -20 -20 -20 -20 -20 -20 -20 -20 -20 -20 -20 -20 -20 -20 -20 -20
-16 -15 -5 -6 -17 -20 -20 -20 -19 -20 -20 -20 -20 -20 -20 -20 -20 -20 -20 -20 -20 -20 -20 -20 -20 -20 -20 -20 -20 -20 -20 -20 -20 -20 -20 -20 -20 -20 -20 -20 -20 -20 -20 -20 -20 -20 -20 -20 -20 -20 -20 -20 -20 -20
-20 -20 -14 -20 -20 -20 -20 -20 -20 -20 -20 -20 -20 -20 -20 -20 -20 -20 -20 -20 -20 -20 -20 -20 -20 -20 -20 -20 -20 -20 -20 -20 -20 -20 -20 -20 -20 -20 -20 -20 -20 -20 -20 -20 -20 -20 -20 -20 -20 -20 -20 -20 -20 -20
-13 -20 -20 -20 -20 -20 -20 -20 -20 -20 -20 -20 -20 -20 -20 -20 -20 -20 -20 -20 -20 -20 -20 -20 -20 -20 -20 -20 -20 -20 -20 -20 -20 -20 -20 -20 -20 -20 -20 -20 -20 -20 -20 -20 -20 -20 -20 -20 -20 -20 -20 -20 -20 -20
-3 -7 -20 -20 -20 -20 -20 -20 -20 -20 -20 -20 -20 -20 -20 -20 -20 -20 -20 -20 -20 -20 -20 -20 -20 -20 -20 -20 -20 -20 -20 -20 -20 -20 -15 -14 -5 -3 -20 -20 -20 -20 -20 -20 -20 -20 -20 -20 -20 -20 -20 -20 -20 -20

GFSWCAN_prec_radar_102.txt.gz
Reflectivity
-20 -12 8 4 14 14 11 12 -20 9 -20 -20 12 29 33 21 26 19 7 -19 2 -8 -20 -20 -20 -20 -20 -20 -20 -20 -20 -20 -20 -20 -20 -20 -20 -20 -20 -20 -20 -20 -20 -20 -20 -20 -20 -20 -20 -20 -20 -20 -20 -20
-20 -19 -6 6 15 16 6 12 -8 4 -20 -20 11 22 26 24 26 12 -4 -4 6 -20 -20 -20 -20 -20 -20 -20 -20 -20 -20 -20 -20 -20 -20 -20 -20 -20 -20 -20 -20 -20 -20 -20 -20 -20 -20 -20 -20 -20 -20 -20 -20 -20
-20 -20 -4 8 16 17 5 7 8 -14 -20 -20 -7 23 22 30 27 22 -15 2 -0 1 -20 -20 -20 -20 -20 -20 -20 -20 -20 -20 -20 -20 -20 -20 -20 -20 -20 -20 -20 -20 -20 -20 -20 -20 -20 -20 -20 -20 -20 -20 -20 -20
-12 -6 5 4 15 17 15 5 0 -2 -20 -20 3 21 20 25 24 5 -7 -6 -8 -1 -20 -20 -20 -20 -20 -20 -20 -20 -20 -20 -20 -20 -20 -20 -20 -20 -20 -20 -20 -20 -20 -20 -20 -20 -20 -20 -20 -20 -20 -20 -20 -20
5 9 6 6 14 16 11 12 -16 3 -20 -18 17 13 22 24 19 2 -7 -11 9 0 -19 -20 -20 -20 -20 -20 -20 -20 -20 -20 -20 -20 -20 -20 -20 -20 -20 -20 -20 -20 -20 -20 -20 -20 -20 -20 -20 -20 -20 -20 -20 -20
16 19 9 10 10 19 16 -19 -20 -2 -20 -13 7 15 26 26 19 -0 -1 -20 -20 -20 -20 -20 -20 -20 -20 -20 -20 -20 -20 -20 -20 -20 -20 -20 -20 -20 -20 -20 -20 -20 -20 -20 -20 -20 -20 -20 -20 -20 -20 -20 -20 -20
11 10 2 10 1 15 -14 -20 -20 2 -20 7 19 17 25 25 19 1 -17 3 -20 -10 -3 -20 -20 5 -18 -20 -20 -20 -20 -20 -20 -20 -20 -20 -20 -20 -20 -20 -20 -20 -20 -20 -20 -20 -20 -20 -20 -20 -20 -20 -20 -20
13 13 12 14 16 6 -19 -20 -20 -8 -14 11 21 26 28 32 31 17 6 9 -3 -12 6 -17 -9 -8 -20 -20 -20 -20 -20 -20 -20 -20 -20 -20 -20 -20 -20 -20 -20 -20 -20 -20 -20 -20 -20 -20 -20 -20 -20 -20 -20 -9
12 -12 17 19 19 -2 -20 -20 -20 -4 3 28 31 27 26 28 31 29 9 13 -4 0 -5 -19 -20 -20 -20 -20 -20 -20 -20 -20 -20 -20 -20 -20 -20 -20 -20 -20 -20 -20 -20 -20 -20 -20 -20 -20 -20 -20 -20 -16 3 -10
8 17 19 25 21 -9 11 -20 -5 -9 35 27 18 22 27 22 16 16 13 15 8 6 -20 -20 -20 -20 -20 -20 -20 -20 -20 -20 -20 -20 -20 -20 -20 -20 -20 -20 -20 -20 -20 -20 -20 -20 -20 -20 -20 -20 -20 -12 12 12
12 16 21 25 -18 11 12 14 -3 38 31 26 28 13 17 24 25 12 10 9 3 -13 -20 -20 -20 -20 -20 -20 -20 -20 -20 -20 -20 -20 -20 -20 -20 -20 -20 -20 -20 -20 -20 -20 -20 -20 -9 -20 -20 -20 1 -8 3 -5
7 16 19 -1 12 16 8 6 33 29 35 19 9 17 6 26 27 16 12 -8 -17 -20 -20 -20 -20 -20 -20 -20 -20 -11 -20 -20 -20 -20 -20 -20 -20 -20 -20 -20 -20 -20 -20 -20 -20 -20 -20 -9 -20 -20 -18 -11 3 -15
0 6 15 5 5 -20 20 23 27 32 25 8 -6 4 18 17 8 -17 -19 -20 -20 -20 -20 -20 -20 -20 -20 -20 -20 -20 -20 -20 -20 -20 -20 -20 -20 -20 -20 -20 -20 -20 -20 -20 -20 -20 -20 -17 -7 -20 -20 -20 -20 -20
12 15 19 10 17 21 36 41 36 27 14 -14 -8 -6 -7 -6 -20 -20 -20 -20 -12 2 8 -20 -20 -20 -20 -20 -20 -20 -20 -20 -3 -20 -20 -20 -20 -20 -20 -20 -20 -20 -20 -20 -20 -20 -20 -20 -7 -20 -20 -20 -20 -20
16 9 -14 17 4 32 35 36 32 27 16 2 -15 -18 -20 -20 -20 -20 -20 -18 10 2 -17 -20 -20 -20 -20 -20 -20 -20 -16 -20 -20 -20 -20 -20 -20 -20 -20 -20 -20 -20 -20 -20 -20 -20 -20 -20 -20 -20 -20 -20 -20 -20
-7 -16 -20 -6 26 27 36 36 29 25 8 -20 -20 -20 -20 -20 -20 -20 -20 11 5 -20 -20 -20 -20 -20 -20 -20 -20 -20 -20 -20 -20 -20 -20 -20 -20 -20 -20 -20 -20 -20 -20 -6 -20 -20 -20 -20 -20 -20 -20 -20 -20 -20
-20 -19 9 8 29 35 30 31 27 22 8 -7 -20 -20 -20 -1 -16 -20 -14 -0 -20 -20 -20 -20 -20 -20 -20 -20 -20 -20 -20 -20 -20 -20 -20 -20 -20 -20 -20 -20 -20 -20 -20 -20 -20 -20 -20 -20 -20 -20 -20 -20 -20 -20
-0 23 28 32 34 32 33 28 20 11 5 -8 -20 -20 -20 -17 -20 -4 -13 -20 -20 -20 -20 -20 -20 -20 -20 -20 -20 -20 -20 -20 -20 -20 -20 -20 -20 -20 -20 -20 -20 -20 -20 -20 -20 -20 -20 -15 -20 -20 -20 -20 -14 -20
5 14 31 31 25 31 29 24 21 -2 -11 -18 -19 -5 2 14 14 5 -20 -20 -20 -20 -20 -20 -20 -20 -20 -20 -20 -20 -20 -20 -20 -20 -20 -20 -20 -20 -20 -20 -20 -20 -20 -20 -20 -20 -20 -20 -20 -20 -20 -20 -20 -20
13 5 11 16 32 31 11 15 16 -19 -20 -8 8 14 19 17 18 5 -20 -20 -20 -20 -20 -20 -20 -20 -20 -20 -20 -20 -20 -20 -20 -20 -20 -20 -20 -20 -20 -20 -20 -20 -20 -20 -20 2 -20 -20 -20 -20 -20 -20 -20 -20
37 28 21 28 29 20 11 -18 -20 -18 1 13 13 19 20 21 17 -8 -20 -20 -20 -20 -20 -20 -20 -20 -20 -20 -20 -20 -20 -20 -20 -20 -20 -20 -20 -20 -20 -20 -20 -20 -20 -20 -20 -20 -20 -20 -20 -20 -20 -20 -20 -20
31 30 31 27 25 20 9 -20 -20 -15 3 12 14 8 6 9 5 4 1 -18 -20 -20 -20 -20 -20 -20 -20 -20 -20 -20 -20 -20 -20 -20 -20 -20 -20 -20 -20 -20 -20 -20 -20 -20 -20 -20 -20 -20 -20 -20 -20 -20 -20 -20
20 20 30 29 19 13 9 -4 -4 10 12 13 15 11 11 7 -9 -6 -20 -20 -20 -20 -20 -20 -20 -20 -20 -20 -20 -20 -20 -20 -20 -20 -20 -20 -20 -20 -20 -20 -20 -20 -20 -20 -20 -20 -20 -20 -20 -20 -20 -20 -20 -20
19 29 24 19 16 6 2 7 11 15 14 15 15 12 -0 -12 -6 -15 -20 -20 -20 -20 -20 -20 -20 -20 -20 -20 -20 -20 -20 -20 -20 -20 -20 -20 -20 -20 -20 -20 -20 -20 -20 -20 -20 -20 -20 -20 -20 -20 -20 -20 -20 -20
27 21 19 15 -1 -20 -20 -20 -2 8 9 10 6 2 -1 -14 -20 -20 -20 -20 -20 -20 -20 -20 -20 -20 -20 -20 -20 -20 -20 -20 -20 -20 -20 -20 -20 -20 -20 -20 -20 -20 -20 -20 -20 -20 -20 -20 -20 -20 -20 -20 -20 -20
13 4 -0 -9 -20 -20 -20 -6 -1 6 1 8 6 6 8 6 -6 -20 -18 1 -20 -20 -20 -20 -20 -20 -20 -20 -20 -20 -20 -20 -20 -20 -20 -20 -20 -20 -20 -20 -20 -20 -20 -20 -20 -20 -20 -20 -20 -20 -20 -20 -20 -20
-1 -18 -20 -17 3 -17 -15 0 5 -2 6 4 -5 1 6 3 -19 -20 -14 -20 -20 -20 -20 -20 -20 -20 -20 -20 -20 -20 -20 -20 -20 -20 -20 -20 -20 -20 -20 -20 -20 -20 -20 -20 -20 -20 -20 -20 -20 -20 -20 -20 -20 -20
-18 -20 -20 -2 8 11 10 12 10 10 11 4 10 11 6 -19 -20 -19 -9 -19 -20 -20 -20 -20 -20 -20 -20 -20 -20 -20 -20 -20 -20 -20 -20 -20 -20 -20 -20 -20 -20 -20 -20 -20 -20 -20 -20 -20 -20 -20 -20 -20 -20 -20
-20 -20 -18 -6 4 10 9 8 6 4 -10 -1 4 2 -20 -20 -20 -20 -20 -20 -20 -20 -20 -20 -20 -20 -20 -20 -20 -20 -20 -20 -20 -20 -20 -20 -20 -20 -20 -20 -20 -20 -20 -20 -20 -20 -20 -20 -20 -17 -20 -20 -20 -20
-20 -20 -18 1 3 1 -4 -16 -20 -20 -20 -2 2 -14 -20 -20 -20 -20 -20 -20 -20 -20 -20 -20 -20 -20 -20 -20 -20 -20 -20 -20 -20 -20 -20 -20 -20 -20 -20 -20 -20 -20 -20 -20 -20 -20 -20 -20 -20 -20 -20 -20 -20 -20
5 1 -7 -2 -7 -7 -2 6 4 4 -6 -19 -20 -20 -20 -20 -20 -20 -20 -20 -20 -20 -20 -20 -20 -20 -20 -20 -20 -20 -20 -20 -20 -20 -20 -20 -20 -20 -20 -20 -20 -20 -20 -20 -20 -20 -20 -20 -20 -20 -20 -20 -20 -20
5 2 3 4 6 8 6 3 -1 -4 -7 -8 -20 -20 -20 -20 -20 -20 -20 -20 -20 -20 -20 -20 -20 -20 -20 -20 -20 -20 -20 -20 -20 -20 -20 -20 -20 -20 -20 -20 -20 -20 -20 -20 -20 -20 -20 -20 -20 -20 -20 -20 -20 -20
-19 -9 -19 -6 -0 -9 -19 -20 -20 -20 -20 -20 -20 -20 -20 -20 -20 -20 -20 -20 -20 -20 -20 -20 -20 -20 -20 -20 -20 -20 -20 -20 -20 -20 -20 -20 -20 -20 -20 -20 -20 -20 -20 -20 -20 -20 -20 -20 -20 -20 -20 -20 -20 -20

GFSWCAN_prec_radar_108.txt.gz
Reflectivity
-13 5 -6 8 9 -20 -20 -19 5 8 -20 -20 -20 -20 -19 17 13 10 -20 -20 -20 -20 -20 -20 -20 -20 -19 -3 -20 -20 -20 -20 -20 -20 -20 -20 -20 -20 -20 -20 -20 -20 -20 -20 -20 -20 -20 -20 -20 -20 -20 -20 -20 -20
-10 2 1 8 -20 -20 -20 -20 6 6 10 -20 -20 -20 -19 9 17 -3 -20 -20 -20 -20 -20 -20 -20 -20 -20 -20 -20 -20 -20 -20 -20 -20 -20 -20 -20 -20 -20 -20 -20 -20 -20 -20 -20 -20 -20 -20 -20 -20 -20 -20 -20 -20
2 -4 1 -3 -20 -20 -13 -20 1 6 10 -20 -20 -20 6 -11 -8 -20 -20 -20 -20 -20 -20 -20 -20 -20 -20 -20 -20 -20 -20 -20 -20 -20 -20 -20 -20 -20 -20 -20 -20 -20 -20 -20 -20 -20 -20 -20 -20 -20 -20 -20 -20 -20
-5 -8 -13 -20 -20 -20 -6 -3 -5 6 11 -20 -20 -20 13 5 8 -18 -20 -20 -20 -20 -20 -20 -20 -20 -20 -20 -20 -20 -20 -20 -20 -20 -20 -20 -20 -20 -20 -20 -20 -20 -20 -20 -20 -20 -20 -20 -20 -20 -20 -20 -20 -20
-3 -20 -20 -20 -20 -20 -5 8 -9 10 9 -20 -20 -20 11 9 -20 -19 -20 -20 -20 -20 -20 -20 -20 -20 -20 -20 -20 -20 -20 -20 -20 -20 -20 -20 -20 -20 -20 -20 -20 -20 -20 -20 -20 -20 -20 -20 -20 -20 -20 -20 -20 -20
-11 -20 -20 -20 -20 -20 1 10 -4 3 11 -0 -20 -20 12 13 6 -11 2 0 -20 -20 -20 -20 -20 -20 -20 -20 -20 -20 -20 -20 -20 -20 -20 -20 -20 -20 -20 -20 -20 -20 -20 -20 -20 -20 -20 -20 -20 -20 -20 -20 -20 -20
-8 -20 -20 -20 -20 -18 4 -3 -20 -20 5 -20 -20 -20 13 16 20 23 22 -5 -20 -20 -20 -20 -20 -20 -20 -20 -20 -20 -20 -20 -20 -20 -20 -20 -20 -20 -20 -20 -20 -20 -20 -20 -20 -20 -20 -20 -20 -20 -20 -20 -20 -20
-20 -20 -20 -9 -20 5 7 -1 3 -20 -20 -20 -20 -20 8 26 21 27 20 -20 -20 -20 -20 -20 -20 -20 -20 -20 -20 -20 -20 -20 -20 -20 -20 -20 -20 -20 -20 -20 -20 -20 -20 -20 -20 -20 -20 -20 -20 -20 -20 -20 -20 -20
-20 -5 2 9 9 -7 -9 -9 8 -20 14 11 -2 20 23 30 25 17 20 2 -20 -20 -20 -20 -20 -20 -20 -20 -20 -20 -20 -20 -20 -20 -20 -20 -20 -20 -20 -20 -20 -20 -20 -20 -20 -20 -20 -20 -20 -20 -20 0 -16 -20
-6 4 6 1 -15 -18 -4 15 16 18 15 15 22 -2 29 29 27 -11 20 17 13 11 -20 -20 -20 -20 -20 -20 -20 -20 -20 -20 -20 -20 -20 -20 -20 -20 -20 -20 -20 -20 -20 -20 -20 -20 -20 -20 -20 -20 -20 3 -20 -20
-5 -13 -0 8 8 9 10 14 20 18 21 20 13 -1 24 29 27 17 32 23 1 -7 -20 -20 -20 -20 -20 -20 -20 -20 -20 -20 -20 -20 -20 -20 -20 -20 -20 -20 -20 -20 -20 -20 -20 -20 -20 -20 -20 -20 -20 8 -18 -20
-4 1 2 5 8 15 14 16 19 17 15 29 -18 11 37 39 33 27 22 9 -2 -20 -20 -20 -20 -20 -20 -20 -20 -20 -20 -17 -20 -20 -20 -20 -20 -20 -20 -20 -20 -20 -20 -20 -20 -20 -20 -20 -20 -20 -17 0 -11 -4
-20 -20 -20 -20 -7 -5 14 20 27 24 26 13 -0 30 29 29 22 15 -3 -20 -20 -20 -20 -20 -20 -20 -20 -20 -20 -20 -20 -20 -20 -20 -20 -20 -20 -20 -20 -20 -20 -20 -20 -20 -20 -20 -20 -20 -14 -11 -4 -5 -5 -20
-20 -20 -20 -19 -20 9 20 20 35 32 23 5 21 27 22 15 -3 -20 -20 -20 -20 -20 -18 -6 -20 -8 -20 -20 -20 -20 -20 -20 -20 -20 -20 -20 -20 -20 -20 -20 -20 -20 -20 -20 -20 -20 -20 -10 -5 -20 -20 -20 -20 -20
-20 -20 -6 -6 2 20 22 34 38 30 20 4 31 22 12 -12 -20 -20 -20 -20 -20 7 3 -20 -20 -20 -20 -6 -20 -20 -17 -20 -20 -20 -20 -20 -20 -20 -20 -20 -20 -20 -20 -20 -20 -20 -20 -20 -20 -20 -20 -20 -20 -20
-20 20 -2 17 16 15 34 35 33 28 15 25 21 12 -11 -20 -20 -20 -20 -20 6 5 -17 -20 -19 -12 -20 -20 -20 -20 -20 -20 -20 -20 -20 -20 -20 -20 -20 -20 -20 -20 -20 -20 -20 -20 -20 -20 -20 -20 -20 -20 -20 -20
-3 -2 21 22 16 24 30 32 28 5 27 30 9 -20 -20 -20 -9 -19 -4 1 1 -20 -20 -20 -20 -20 -20 -20 -20 -20 -20 -20 -20 -20 -20 -20 -20 -20 -20 -20 -20 -20 -20 -20 -20 -20 -20 -20 -20 -20 -20 -20 -20 -20
-20 9 23 21 26 37 32 27 22 18 13 17 2 -20 -20 -10 10 -10 8 6 -18 -20 -20 -20 -20 -20 -20 -20 -20 -20 -20 -20 -20 -20 -20 -20 -20 -20 -20 -20 -20 -20 -20 -20 -20 -20 -20 -20 -20 -20 -20 -20 -20 -20
-15 25 32 31 30 23 22 27 18 26 29 27 -12 -14 -10 -20 -3 11 14 7 -20 -20 -20 -20 -20 -20 -20 -20 -20 -20 -20 -20 -20 -20 -20 -20 -20 -20 -20 -20 -20 -20 -20 -20 -20 -20 -20 -20 -20 -20 -20 -20 -20 -20
32 26 25 19 -1 -18 18 20 37 27 5 20 -20 1 12 -20 -10 9 3 -13 -20 -20 -20 -20 -20 -20 -20 -20 -20 -20 -20 -20 -20 -20 -20 -20 -20 -20 -20 -20 -20 -20 -20 -20 -20 -3 -20 -20 -20 -20 -20 -20 -20 -20
32 35 7 0 9 22 14 19 22 17 -0 15 -17 -4 21 2 7 8 -1 -8 -20 -20 -20 -20 -20 -20 -20 -20 -20 -20 -20 -20 -20 -20 -20 -20 -20 -20 -20 -20 -20 -20 -20 -20 -20 -15 -3 -20 -20 -20 -20 -20 -20 -20
34 35 33 23 24 23 23 1 5 5 -16 1 -3 -16 12 19 20 15 10 7 -20 -20 -20 -20 -20 -20 -20 -20 -20 -20 -20 -20 -20 -20 -20 -20 -20 -20 -20 -20 -20 -20 -20 -20 -20 -20 -20 -20 -20 -20 -20 -20 -20 -20
10 29 29 29 24 18 4 -5 -19 5 17 1 -19 -20 12 18 12 15 17 1 -20 -20 -20 -20 -20 -20 -20 -20 -20 -20 -20 -20 -20 -20 -20 -20 -20 -20 -20 -20 -20 -20 -20 -20 -20 -20 -20 -20 -20 -20 -20 -20 -20 -20
14 15 22 20 20 14 -5 -13 -20 -19 6 14 5 7 -4 7 11 13 -3 -20 -20 -19 -18 -3 -8 -19 -20 -20 -20 -20 -20 -20 -20 -20 -20 -20 -20 -20 -20 -20 -20 -20 -20 -20 -20 -20 -20 -20 -20 -20 -20 -20 -20 -20
24 22 21 22 11 2 -20 -20 -20 -20 -20 -20 -19 3 10 15 10 -10 -20 -9 -20 -20 -9 5 4 5 -7 -7 -11 -20 -18 -20 -20 -20 -20 -20 -20 -20 -20 -20 -20 -20 -20 -20 -20 -20 -20 -20 -20 -20 -20 -20 -20 -20
22 20 18 -7 -20 -20 -20 -20 -19 -19 -20 6 10 11 12 3 8 3 -20 -20 -20 -20 -20 -4 8 5 -17 -20 -14 -20 -20 -20 -20 -20 -20 -20 -20 -20 -20 -20 -20 -20 -20 -20 -20 -20 -20 -20 -20 -20 -20 -20 -20 -20
14 -16 -20 -20 -20 -20 -20 -20 -18 -10 6 -2 -0 -3 3 8 -1 -20 -20 -20 -20 -20 -20 -20 -17 -10 5 -4 -20 -5 -14 -20 -20 -20 -20 -20 -20 -20 -20 -20 -20 -20 -20 -20 -20 -20 -20 -20 -20 -20 -20 -20 -20 -20
-20 -20 -20 -20 -20 -20 -20 -20 -20 -9 13 11 7 5 -3 -20 -20 -20 -20 -20 -20 -20 -20 -20 -7 -11 -20 -20 -20 -20 -20 -20 -20 -20 -20 -20 -20 -20 -20 -20 -20 -20 -20 -20 -20 -20 -20 -20 -20 -20 -20 -20 -20 -20
-20 -20 -20 -20 -20 -20 -20 -20 -20 -20 -10 -3 -20 -20 -20 -20 -20 -20 -20 -20 -20 -20 -19 -17 -20 -20 -20 -20 -20 -20 -20 -20 -20 -20 -20 -20 -20 -20 -20 -20 -20 -20 -20 -20 -20 -20 -20 -20 -20 -20 -20 -20 -20 -20
-20 -20 -20 -13 -20 -20 -20 -20 -17 -15 -0 5 14 12 7 -6 -20 -20 -20 -20 -20 -20 -20 -17 -13 -20 -20 -20 -20 -20 -20 -20 -20 -20 -20 -20 -20 -20 -20 -20 -20 -20 -20 -20 -20 -20 -20 -20 -20 -20 -20 -20 -20 -20
4 -1 3 9 5 1 11 13 12 12 11 10 6 -3 -12 -4 -18 -20 -20 -20 -20 -20 -20 -13 -15 -20 -20 -20 -20 -20 -20 -20 -20 -20 -20 -20 -20 -20 -20 -20 -20 -20 -20 -20 -20 -20 -20 -20 -20 -20 -20 -20 -20 -20
12 9 6 8 11 14 13 10 11 5 2 2 -3 -17 -11 -20 -20 -20 -20 -20 -20 -20 -20 -16 -20 -20 -20 -20 -20 -20 -20 -20 -20 -20 -20 -20 -20 -20 -20 -20 -20 -20 -20 -20 -20 -20 -20 -20 -20 -20 -20 -20 -20 -20
14 14 13 12 9 6 7 5 -4 -3 -7 -20 -20 -20 -20 -20 -20 -20 -20 -20 -20 -20 -20 -20 -19 -20 -20 -20 -20 -20 -20 -20 -20 -20 -20 -20 -20 -20 -20 -20 -20 -20 -20 -20 -20 -20 -20 -20 -20 -20 -20 -20 -20 -20

GFSWCAN_prec_radar_111.txt.gz
Reflectivity
-20 -1 -20 7 8 17 -18 -20 -20 -20 -20 -20 -20 -20 -20 2 -8 6 -17 -3 -20 -20 -20 -20 -20 -20 -20 -20 -20 -20 -20 -20 -20 -20 -20 -20 -20 -20 -20 -20 -20 -20 -20 -20 -20 -20 -20 -20 -20 -20 -20 -20 -20 -20
-20 -10 -8 4 -6 6 2 -20 -20 -20 -20 -20 -20 -20 -20 4 22 24 -20 -3 -19 -20 -20 -20 -20 -20 -20 -20 -20 -20 -20 -20 -20 -20 -20 -20 -20 -20 -20 -20 -20 -20 -20 -20 -20 -20 -20 -20 -20 -20 -20 -20 -20 -20
-20 -7 1 2 -2 -20 6 -20 -20 -16 -20 -20 -20 -20 -20 2 14 14 -19 -20 -20 -20 -20 -20 -20 -20 -20 -20 -20 -20 -20 -20 -20 -20 -20 -20 -20 -20 -20 -20 -20 -20 -20 -20 -20 -20 -20 -20 -20 -20 -20 -20 -20 -20
-20 -6 -2 2 -2 -20 3 -20 -20 -15 -20 -20 -20 -20 -19 -0 15 5 -20 -20 -20 -20 -20 -20 -20 -20 -20 -20 -20 -20 -20 -20 -20 -20 -20 -20 -20 -20 -20 -20 -20 -20 -20 -20 -20 -20 -20 -20 -20 -20 -20 -20 -20 -20
2 -4 -8 3 -2 -15 -20 -20 -20 -5 -3 -20 -20 -20 -20 15 -0 -6 -20 -20 -20 -20 -20 -20 -20 -20 -20 -20 -20 -20 -20 -20 -20 -20 -20 -20 -20 -20 -20 -20 -20 -20 -20 -20 -20 -20 -20 -20 -20 -20 -20 -20 -20 -20
15 3 0 1 -5 4 -20 -20 -20 -20 1 -20 -1 -16 -20 9 14 -20 -14 -20 -20 -20 -20 -20 -20 -20 -20 -20 -20 -20 -20 -20 -20 -20 -20 -20 -20 -20 -20 -20 -20 -20 -20 -20 -20 -20 -20 -20 -20 -20 -20 -20 -20 -20
14 13 -20 -14 6 11 -20 -20 -12 -20 -6 -15 -20 -16 -14 -11 11 5 2 -14 -1 -20 -20 -20 -20 -20 -20 -20 -20 -20 -20 -20 -20 -20 -20 -20 -20 -20 -20 -20 -20 -20 -20 -20 -20 -20 -20 -20 -20 -20 -20 -20 -20 -20
13 9 -18 8 11 -6 -20 -20 -17 -20 -20 12 -20 -2 11 10 16 23 -11 -20 -20 -20 -20 -20 -20 -20 -20 -20 -20 -20 -20 -20 -20 -20 -20 -20 -20 -20 -20 -20 -20 -20 -20 -20 -20 -20 -20 -20 -20 -20 -20 -20 -20 -20
9 4 8 12 -20 -19 -20 -20 -1 -1 6 -14 -20 16 -11 -11 18 20 28 10 -11 22 -6 -20 -20 -20 -20 -20 -20 -20 -20 -20 -20 -20 -20 -20 -20 -20 -20 -20 -20 -20 -20 -20 -20 -20 -20 -20 -20 -20 -20 -20 -9 -20
12 17 12 2 5 -20 -20 -20 11 -20 13 -20 20 26 15 12 -1 10 23 27 22 29 -6 -20 -20 -20 -20 -20 -20 -20 -20 -20 -20 -20 -20 -20 -20 -20 -20 -20 -20 -20 -20 -20 -20 -20 -20 -20 -20 -20 -20 -20 -5 -14
19 19 18 14 -19 -3 5 -1 7 -11 19 18 19 30 -6 14 -14 19 26 29 23 25 5 -20 -20 -20 -20 -20 -20 -20 -20 -20 -20 -20 -20 -20 -20 -20 -20 -20 -20 -20 -20 -20 -20 -20 -20 -20 -20 -20 -20 -20 -19 -13
8 8 5 -8 1 3 -1 -19 5 18 2 13 17 30 20 20 22 15 21 23 10 -20 -20 -20 -20 -20 -20 -20 -20 -20 -20 -20 -20 -20 -20 -20 -20 -20 -20 -20 -20 -20 -20 -20 -20 -20 -20 -20 -20 -20 -20 -20 -13 -2
10 7 -20 2 14 8 1 8 17 19 30 16 27 33 13 15 6 15 6 4 -20 -20 -20 -20 -20 -20 -20 -20 -20 -20 -20 -20 -20 -20 -20 -20 -20 -20 -20 -20 -20 -20 -20 -20 -20 -20 -20 -20 -20 -20 -20 -13 3 -14
18 8 2 -16 6 13 20 17 18 19 33 28 26 21 5 5 -17 9 -20 -20 -20 -20 -20 -20 -20 -20 -18 -18 -20 -20 -20 -20 -20 -20 -20 -20 -20 -20 -20 -20 -20 -20 -20 -20 -20 -20 -20 -20 -20 -20 -20 -20 -20 -20
-20 -19 7 5 -4 -6 16 15 20 32 33 30 26 17 14 -16 -19 -20 -20 -20 -20 -20 -20 -20 1 7 -8 -12 -20 -20 -20 -20 -20 -20 -20 -20 -20 -20 -20 -20 -20 -20 -20 -20 -20 -20 -20 -20 -20 -20 -20 -20 -20 -20
-1 12 16 7 5 12 14 -0 14 30 36 31 20 16 2 -13 -12 -20 -20 -20 -20 -20 -20 -7 19 12 -8 -4 -19 -20 -20 -20 -11 -20 -20 -20 -20 -20 -20 -20 -20 -20 -20 -20 -20 -20 -19 -13 -20 -20 -20 -20 -20 -20
-0 -17 -20 -20 -20 15 21 27 38 31 37 27 17 -7 -3 -20 -20 17 -20 -20 -20 -20 -6 6 10 -7 -20 -20 -20 -20 -20 -12 16 -18 -20 -20 -20 -20 -20 -20 -20 -20 -20 -20 -20 -20 -20 -20 -20 -20 -20 -20 -20 -20
-20 -19 -13 -7 14 29 34 33 34 28 25 23 12 -20 8 31 -17 8 22 -0 -20 -4 6 2 -11 -20 -20 -20 -20 -11 -14 -14 -3 -20 -20 -20 -20 -20 -20 -20 -20 -20 -20 -20 -20 -20 -20 -20 -20 -20 -20 -20 -20 -20
-20 -13 20 28 19 26 33 28 35 14 10 0 -7 -13 -20 9 10 -16 18 17 -13 16 17 -6 -20 -20 -20 -20 -19 -14 -17 -20 -20 -20 -20 -20 -20 -20 -20 -20 -20 -20 -20 -20 -20 -20 -20 -20 -20 -20 -20 -20 -20 -20
-11 18 27 18 -8 10 13 21 12 1 -20 -18 4 14 24 7 -2 15 6 28 3 13 21 1 -20 -20 -20 -2 -15 -20 -20 -20 -20 -20 -20 -20 -20 -20 -20 -20 -20 -20 -20 -20 -20 -20 -20 -20 -20 -20 -20 -20 -20 -20
23 24 34 30 26 28 14 5 -9 -20 -20 -20 6 14 24 17 -5 -18 5 18 22 18 5 -19 -20 9 9 -13 -20 -20 -20 -20 -20 -20 -20 -20 -20 -20 -20 -20 -20 -20 -20 -20 -20 -17 -12 -20 -20 -20 -20 -20 -20 -20
39 30 28 17 6 -11 3 -16 -20 -20 -20 2 7 25 23 13 1 4 19 23 19 14 5 -6 10 7 -14 -20 -20 -20 -20 -20 -20 -20 -20 -20 -20 -20 -20 -20 -20 -20 -20 -20 -20 -20 -20 -20 -20 -20 -20 -20 -20 -20
33 24 22 27 12 -18 10 23 11 21 6 -1 19 24 23 11 12 7 5 2 17 18 15 16 15 9 -5 -20 -20 -12 -13 -9 -20 -20 -20 -20 -20 -20 -20 -20 -20 -20 -20 -20 -20 -20 -20 -20 -20 -20 -20 -20 -20 -20
17 30 23 6 4 12 9 17 21 22 27 25 18 4 11 -2 9 18 15 3 9 13 14 17 15 4 -7 -19 -20 -20 -20 -14 -20 -20 -20 -20 -20 -20 -20 -20 -20 -20 -20 -20 -20 -20 -20 -20 -20 -20 -20 -20 -20 -20
27 24 19 -1 4 22 16 14 5 -6 5 -4 11 15 5 20 17 9 -3 5 18 24 25 23 11 -16 -20 -16 -9 -12 -12 -18 -19 -12 -18 -20 -20 -20 -20 -20 -20 -20 -20 -20 -20 -20 -20 -20 -20 -20 -20 -20 -20 -20
23 23 18 12 -17 -10 -17 -20 -20 -12 -2 -7 -20 -11 13 6 -1 -19 -19 13 15 12 13 6 -18 -15 -14 -20 -9 -8 6 11 7 6 -1 -20 -20 -20 -20 -20 -20 -20 -20 -20 -20 -20 -20 -20 -20 -20 -20 -20 -20 -20
14 2 14 9 -20 -20 -20 -20 -20 -20 -20 -20 -20 -20 -20 -20 -15 -18 3 3 -4 6 14 12 8 6 8 7 8 12 14 14 12 3 -12 -20 -20 -20 -20 -20 -20 -20 -20 -20 -20 -20 -20 -20 -20 -20 -20 -20 -20 -20
21 9 -20 -20 -20 -20 -20 -20 -20 -20 -20 -20 -20 -20 -20 -20 -7 6 7 5 13 12 14 12 -13 -20 -8 -3 2 5 6 3 5 -1 -20 -20 -20 -20 -20 -20 -20 -20 -20 -20 -20 -20 -20 -20 -20 -20 -20 -20 -20 -20
-17 -20 -20 -20 -20 -20 -20 -20 -20 -20 -20 -20 -20 -20 -20 -20 -16 -0 0 9 6 1 -5 -20 6 10 -6 -4 -0 1 0 4 -1 -4 -15 -20 -20 -20 -20 -20 -20 -20 -20 -20 -20 -20 -20 -20 -20 -20 -20 -20 -20 -20
-20 -20 -20 -20 -20 -20 -20 -20 -20 -20 -20 -20 -20 -20 -20 -20 -20 -19 -19 -17 -19 -6 -14 -18 11 9 7 11 11 6 -6 -9 -16 -11 -20 -20 -20 -20 -20 -20 -20 -20 -20 -20 -20 -20 -16 -20 -20 -20 -20 -20 -20 -20
-20 -20 -20 -20 -20 -20 -20 -20 -20 -20 -20 -19 -5 11 2 -13 -16 -20 -19 -19 -5 -2 -19 -10 6 8 9 2 -12 -7 -6 -12 -17 -20 -20 -20 -20 -20 -20 -20 -20 -20 -20 -20 -20 -20 -20 -20 -20 -20 -20 -20 -20 -20
-20 -20 -20 -20 -20 -10 -9 -12 -3 4 10 12 11 4 5 3 2 -20 -12 -8 3 11 12 9 3 -5 -20 -20 -18 -20 -20 -20 -20 -20 -20 -20 -20 -20 -20 -20 -20 -20 -20 -20 -20 -20 -20 -20 -20 -20 -20 -20 -20 -20
-20 -7 -3 1 12 15 11 5 7 4 1 3 -5 -10 -11 -20 -14 -19 -20 -20 -16 -18 -15 -10 -11 -12 -8 -2 -2 -8 -20 -20 -20 -20 -20 -20 -20 -20 -20 -20 -20 -20 -20 -20 -20 -20 -20 -20 -20 -20 -20 -20 -20 -20

GFSWCAN_prec_radar_114.txt.gz
Reflectivity
2 6 -15 7 12 9 -2 -13 -20 -20 -20 -20 -20 -20 -20 -20 -1 -20 -20 -20 5 -20 -20 -20 -20 -20 -20 -20 -20 -20 -20 -20 -20 -20 -20 -20 -20 -20 -20 -20 -20 -20 -20 -20 -20 -20 -20 -20 -20 -20 -20 -20 -20 -20
-4 5 -20 -11 11 10 -4 -7 -19 -20 -20 -20 -20 -20 -20 -20 4 12 -19 9 22 -2 -20 -20 -20 -20 -20 -20 -20 -20 -20 -20 -20 -20 -20 -20 -20 -20 -20 -20 -20 -20 -20 -20 -20 -20 -20 -20 -20 -20 -20 -20 -20 -20
-1 5 -18 -10 5 13 2 -1 -2 -20 -20 -20 -20 -20 -20 -20 6 12 -20 -15 5 10 -18 -20 -20 -20 -20 -20 -20 -20 -20 -20 -20 -20 -20 -20 -20 -20 -20 -20 -20 -20 -20 -20 -20 -20 -20 -20 -20 -20 -20 -20 -20 -20
6 2 1 -1 6 5 -20 14 -13 -20 -20 -20 -20 -20 -20 -20 5 15 -20 -20 -10 -20 -20 -20 -20 -20 -20 -20 -20 -20 -20 -20 -20 -20 -20 -20 -20 -20 -20 -20 -20 -20 -20 -20 -20 -20 -20 -20 -20 -20 -20 -20 -20 -20
10 4 3 -3 4 3 -6 12 8 -20 -20 -20 -20 -20 7 -20 4 15 -10 -20 -20 -20 -20 -20 -20 -20 -20 -20 -20 -20 -20 -20 -20 -20 -20 -20 -20 -20 -20 -20 -20 -20 -20 -20 -20 -20 -20 -20 -20 -20 -20 -20 -20 -20
-14 10 13 16 5 6 10 9 7 -20 -20 -20 -20 -20 -20 -20 -5 -5 1 3 -20 -20 -20 -20 -20 -20 -20 -20 -20 -20 -20 -20 -20 -20 -20 -20 -20 -20 -20 -20 -20 -20 -20 -20 -20 -20 -20 -20 -20 -20 -20 -20 -20 -20
11 12 11 20 13 7 10 6 15 -10 -20 -20 -20 -20 -20 -16 -16 -3 0 -9 -20 -20 -18 -4 -20 -20 -20 -20 -20 -20 -20 -20 -20 -20 -20 -20 -20 -20 -20 -20 -20 -20 -20 -20 -20 -20 -20 -20 -20 -20 -20 -20 -20 -20
27 13 19 22 21 14 16 7 9 -18 -20 -19 -4 16 -1 10 -20 -11 -7 6 -20 -20 7 15 -19 -20 -20 -20 -20 -20 -20 -20 -20 -20 -20 -20 -20 -20 -20 -20 -20 -20 -20 -20 -20 -20 -20 -20 -20 -20 -20 -20 -20 -20
10 15 15 19 25 22 21 23 16 14 -20 -20 -20 11 20 18 -17 -18 -20 16 -2 -19 5 5 -20 -20 -20 -20 -20 -20 -20 -20 -20 -20 -20 -20 -20 -20 -20 -20 -20 -20 -20 -20 -20 -20 -20 -20 -20 -20 -20 -20 -20 -20
18 24 21 25 29 27 27 29 28 26 12 5 17 18 17 -17 -20 -20 -20 21 29 28 27 -20 -20 -20 -20 -20 -20 -20 -20 -20 -20 -20 -20 -20 -20 -20 -20 -20 -20 -20 -20 -20 -20 -20 -20 -20 -20 -20 -20 -20 -20 -20
24 22 23 26 27 31 32 29 28 21 15 14 17 15 -6 -20 -10 -19 -9 4 17 13 21 -20 -20 -20 -20 -20 -20 -20 -20 -20 -20 -20 -20 -20 -20 -20 -20 -20 -20 -20 -20 -20 -20 -20 -20 -20 -20 -20 -20 -20 -20 -20
27 21 17 24 26 31 35 33 30 23 3 -20 -3 16 18 27 0 -1 5 -12 1 -19 -20 -20 -20 -20 -20 -20 -20 -20 -20 -20 -20 -20 -20 -20 -20 -20 -20 -20 -20 -20 -20 -20 -20 -20 -20 -20 -20 -20 -20 -20 -20 -20
25 29 24 25 28 32 34 35 31 20 7 -2 19 26 16 13 0 9 -9 7 -20 -20 -20 -20 -20 -20 -20 -20 -20 5 -8 -20 -20 -20 -20 -20 -20 -20 -20 -20 -20 -20 -20 -20 -20 -20 -20 -20 -20 -20 -20 -20 -20 -20
25 26 29 30 32 35 34 34 31 26 16 26 19 17 0 -6 -20 -20 -20 -20 -20 -20 -20 -20 -20 -20 -20 -20 -16 11 -4 -20 -20 -20 -20 -13 -20 -20 -20 -20 -20 -20 -20 -20 -20 -20 -20 -20 -20 -20 -20 -20 -20 -20
31 33 33 32 34 36 35 29 28 29 27 25 12 -1 -15 -20 -20 -20 -20 -20 -20 -20 -20 -20 -20 -20 -20 -18 -16 9 2 -20 -20 -20 -4 11 -20 -20 -20 -20 -20 -20 -20 -20 -20 -20 -20 -20 -20 -20 -20 -20 -20 -20
39 35 37 35 36 32 29 27 29 33 32 16 5 -0 -13 -20 -20 -20 -20 -20 -20 -20 -20 -20 -20 -11 8 -13 -17 -20 -20 -20 -20 -14 15 9 -20 -20 -20 -20 -20 -20 -20 -20 -20 -20 -20 -20 -20 -20 -20 -20 -20 -20
39 35 30 28 32 30 28 31 36 38 24 23 -4 -16 -20 -20 -20 -20 -20 -20 -20 -20 -20 -20 -20 -19 -20 -20 -20 -20 -20 -20 -20 6 25 12 -20 -20 -20 -20 -20 -20 -20 -20 -20 -20 -20 -20 -20 -20 -20 -20 -20 -20
36 28 26 33 31 28 31 34 32 25 20 20 2 -18 -20 -20 -20 -20 -20 -20 -20 -11 17 -17 -17 -20 -20 -20 -20 -20 -20 -11 12 16 16 13 5 -20 -20 -20 -20 -20 -20 -20 -20 -20 -20 -20 -20 -20 -20 -20 -20 -20
28 22 31 26 19 25 28 25 27 19 13 -1 -18 -20 -20 -20 -20 -20 -20 -20 -20 -4 16 -14 24 18 -20 -20 -20 -20 -18 5 12 13 13 9 -3 -20 -20 -20 -20 -20 -20 -20 -20 -20 -20 -20 -20 -20 -20 -20 -20 -20
30 24 10 9 8 21 18 20 27 13 10 14 1 -20 -20 -20 -20 -20 -20 -20 -5 16 32 15 -10 -0 -19 -20 -20 -20 -12 4 3 1 -5 -4 8 4 -20 -20 -20 -20 -20 -20 -20 -20 -20 -20 -20 -20 -20 -20 -20 -20
18 12 19 27 27 25 21 12 15 17 13 2 -18 -20 -20 -20 -20 -20 -20 -13 10 15 20 17 0 -20 6 12 -20 -6 -17 -18 -11 3 5 12 17 6 -20 -20 -20 -20 -20 -20 -20 -20 -20 -20 -20 -20 -20 -20 -20 -20
32 26 31 22 21 16 0 -10 -20 -20 -13 -13 -18 -20 -20 -20 -20 -18 -20 -5 -1 22 -6 5 10 -14 7 5 -2 -5 -13 -19 -18 -17 6 5 -2 -5 -10 -20 -20 -20 -20 -20 -20 -20 -20 -20 -20 -20 -20 -20 -20 -20
24 19 25 26 11 7 9 -20 -20 -20 -16 -13 -20 -20 -20 -20 -20 -20 -20 -20 -19 -3 10 26 29 11 1 8 4 -2 5 10 8 -3 15 11 14 9 -12 -15 -20 -20 -20 -20 -20 -20 -20 -20 -20 -20 -20 -20 -20 -20
18 25 18 19 15 -2 -20 -20 -20 -20 -20 -20 -20 -20 -20 -20 -13 -15 -20 -20 -20 -0 18 29 21 28 25 13 5 2 9 6 12 10 9 17 10 10 6 -14 -20 -20 -20 -20 -20 -20 -20 -20 -20 -20 -20 -20 -20 -20
27 20 22 22 14 -20 -20 -20 -7 7 -20 -20 -18 -14 -19 -5 -8 4 -6 -6 9 9 14 19 21 24 27 32 27 20 9 2 -1 -2 6 9 11 6 0 4 -1 -12 -20 -14 -20 -20 -20 -20 -20 -20 -20 -20 -20 -20
20 15 7 -4 -20 -20 -20 -20 -20 -20 -2 9 10 3 9 15 12 12 -3 -3 10 15 4 7 14 17 20 25 22 12 6 -18 -17 -2 0 -2 6 14 14 11 7 -3 -3 -6 -20 -20 -20 -20 -20 -20 -20 -20 -20 -20
17 18 -12 -20 -20 -20 -4 15 -6 2 16 -3 1 3 -4 15 18 3 -16 -18 -14 -1 7 1 6 15 15 14 -2 2 -2 -16 -19 -20 -8 9 16 15 14 12 2 -0 -16 -20 -20 -20 -20 -20 -20 -20 -20 -20 -20 -20
-4 -11 -20 -20 -20 -20 -20 -20 -20 -20 -20 -20 -20 -20 -20 -20 -20 -20 -20 -20 -7 0 -8 14 32 25 14 -14 -20 -20 -19 -13 -18 4 16 18 13 13 9 1 -0 -18 -20 -20 -20 -20 -20 -20 -20 -20 -20 -20 -20 -20
-20 -20 -20 -20 -20 -20 -20 -20 -20 -20 -20 -20 -20 -20 -20 -20 -20 -20 -20 -20 5 15 20 22 23 18 11 -3 1 -20 -19 -5 6 12 14 13 8 5 4 -2 -20 -20 -20 -20 -20 -20 -20 -20 -20 -20 -20 -20 -20 -20
-20 -20 -20 -20 -20 -20 -20 -20 -20 -20 -20 -20 -20 -20 -20 -20 -20 -20 -20 -10 9 18 21 21 21 16 11 9 6 3 -2 8 13 13 6 -2 2 2 -13 -20 -20 -20 -20 -20 -20 -20 -12 -20 -20 -20 -20 -20 -20 -20
-20 -20 -20 -20 -20 -20 -20 -20 -18 -20 -20 -20 -20 -20 -20 -20 -20 -20 -17 -0 -1 12 20 21 19 15 10 9 7 5 8 13 11 4 1 5 -2 -19 -20 -20 -20 -20 -20 -20 -20 -20 -20 -20 -20 -20 -20 -20 -20 -20
-20 -20 -20 -20 -20 -20 -20 -20 -20 -20 -20 -20 -20 -20 -20 -20 -20 -20 -8 -16 -1 13 19 21 17 20 22 20 16 17 18 9 1 -5 -3 -15 -20 -20 -20 -20 -20 -20 -20 -20 -20 -20 -20 -20 -20 -20 -20 -20 -20 -20
-20 -20 -20 -20 -20 -20 -20 -20 -20 -20 -20 -20 -20 -20 -20 -11 -2 -17 -16 -15 5 14 16 18 20 21 19 16 12 2 -1 -0 0 -10 -20 -20 -20 -20 -20 -20 -20 -20 -20 -20 -20 -20 -20 -20 -20 -20 -20 -20 -20 -20

GFSWCAN_prec_radar_117.txt.gz
Reflectivity
15 18 18 7 -1 -1 -18 -20 -20 -20 -20 -20 -20 -20 -20 -20 -20 -20 -20 -20 -20 -20 -20 -20 -20 -20 -20 -20 -20 -20 -20 -20 -20 -20 -20 -20 -20 -20 -20 -20 -20 -20 -20 -20 -20 -20 -20 -20 -20 -20 -20 -20 -20 -20
25 11 17 8 -15 7 6 -20 10 -20 -20 -20 -20 -20 -20 -20 -20 -20 -20 -20 -20 -20 -20 -20 -20 -20 -20 -20 -20 -20 -20 -20 -20 -20 -20 -20 -20 -20 -20 -20 -20 -20 -20 -20 -20 -20 -20 -20 -20 -20 -20 -20 -20 -20
15 19 15 17 -4 -1 -20 -20 9 -2 -20 -20 -20 -20 -20 -20 -20 1 -20 -20 0 4 -20 -20 -20 -20 -20 -20 -20 -20 -20 -20 -20 -20 -20 -20 -20 -20 -20 -20 -20 -20 -20 -20 -20 -20 -20 -20 -20 -20 -20 -20 -20 -20
-20 12 20 19 8 8 -20 -10 -17 -20 -20 -20 -20 -20 -20 -20 -20 17 -20 -20 -20 -20 -20 -20 -20 -20 -20 -20 -20 -20 -20 -20 -20 -20 -20 -20 -20 -20 -20 -20 -20 -20 -20 -20 -20 -20 -20 -20 -20 -20 -20 -20 -20 -20
12 6 14 20 18 17 -7 3 13 11 -20 -20 -20 -20 -20 -20 -20 17 -20 -20 -20 -20 -20 -20 -20 -20 -20 -20 -20 -20 -20 -20 -20 -20 -20 -20 -20 -20 -20 -20 -20 -20 -20 -20 -20 -20 -20 -20 -20 -20 -20 -20 -20 -20
23 9 11 21 21 28 21 16 15 17 3 -20 -20 -20 -20 10 13 -12 0 -20 -14 7 -20 -20 -20 -20 -20 -20 -20 -20 -20 -20 -20 -20 -20 -20 -20 -20 -20 -20 -20 -20 -20 -20 -20 -20 -20 -20 -20 -20 -20 -20 -20 -20
-8 11 24 23 25 29 34 31 22 17 15 -6 -19 -20 -20 3 -20 1 -5 -15 -20 -3 1 -20 -20 -20 -20 -20 -20 -20 -20 -20 -20 -20 -20 -20 -20 -20 -20 -20 -20 -20 -20 -20 -20 -20 -20 -20 -20 -20 -20 -20 -20 -20
17 3 9 9 23 25 31 35 32 26 18 -5 -7 -17 -20 15 -20 -20 -8 15 6 -17 -17 -20 -20 -20 -20 -20 -20 -20 -20 -20 -20 -20 -20 -20 -20 -20 -20 -20 -20 -20 -20 -20 -20 -20 -20 -20 -20 -20 -20 -20 -20 -20
24 23 7 2 18 24 33 35 36 35 31 21 6 8 13 -15 -20 -20 -20 3 20 2 9 23 -20 -20 -20 -20 -20 -20 -20 -20 -20 -20 -20 -20 -20 -20 -18 -20 -20 -20 -20 -20 -20 -20 -20 -20 -20 -20 -20 -20 -20 -20
13 26 6 22 18 22 30 34 36 37 32 16 20 -3 -1 -17 -18 -2 7 -18 24 30 30 -6 -20 -20 -20 -20 -20 -20 -20 -20 -20 -20 -20 -20 -20 -17 -19 -20 -20 -20 -20 -20 -20 -20 -20 -20 -20 -20 -20 -20 -20 -20
4 17 22 25 24 21 32 34 36 38 32 32 28 23 -20 -19 -1 15 10 -18 -18 4 9 -8 -15 -20 -20 -20 -20 -20 -20 -20 -20 -20 -20 -20 -20 2 -1 -20 -20 -20 -20 -20 -20 -20 -20 -20 -20 -20 -20 -20 -20 -20
30 32 30 26 29 29 34 32 36 34 34 26 6 12 20 26 24 9 2 -18 -20 -20 -15 -13 -19 -20 -20 -20 -20 -20 -20 -20 -20 -20 -20 -20 -18 7 1 -20 -20 -20 -20 -20 -20 -20 -20 -20 -20 -20 -20 -20 -20 -20
33 30 27 24 27 31 37 36 36 32 34 32 32 31 20 17 5 7 -11 -3 -20 -20 -19 -2 -15 -20 -20 -20 -20 -20 -20 -20 -20 -20 -20 -20 -20 3 8 -20 -20 -20 -20 -20 -20 -20 -20 -20 -20 -20 -20 -20 -20 -20
28 35 31 33 39 38 39 39 39 38 35 34 24 18 8 8 -19 -18 -19 -20 -20 -20 -20 -20 -20 -20 -20 -20 -20 -20 -20 -20 -20 -20 -20 -20 -17 4 12 -13 -20 -20 -20 -20 -20 -20 -20 -20 -20 -20 -20 -20 -20 -20
26 30 33 34 34 40 39 38 40 36 35 27 22 11 1 -20 -0 -11 -20 -20 -20 -20 -20 4 4 -20 -19 -20 -20 -20 -20 -20 -20 -20 -20 -20 -14 0 4 -16 -20 -20 -20 -20 -20 -20 -20 -20 -20 -20 -20 -20 -20 -20
26 31 37 40 39 41 38 40 40 36 33 24 18 -4 -20 3 4 -20 -20 -20 -20 -20 1 4 -2 -18 -3 -13 -20 -20 -20 -20 -20 -20 -20 -20 -3 -2 7 -12 -20 -20 -20 -20 -20 -20 -20 -20 -20 -20 -20 -20 -20 -20
39 41 37 36 36 40 40 41 40 34 29 18 4 -6 -20 -20 -20 -20 -20 -20 -8 1 1 1 -15 -20 -20 -20 -20 -20 -20 -20 -20 -20 -20 -20 -1 1 10 1 -20 -20 -20 -20 -20 -20 -20 -20 -20 -20 -20 -20 -20 -20
41 37 31 32 34 39 41 40 35 25 15 -5 -18 -1 -10 -20 -20 -20 -20 3 7 -9 -20 -20 -20 -20 -20 -20 -20 -20 -20 -20 -20 -20 -20 -20 -4 -7 3 10 -18 -20 -20 -20 -20 -20 -20 -20 -20 -20 -20 -20 -20 -20
38 29 38 37 40 40 37 31 29 15 2 -12 -12 -20 -20 -20 -20 -13 7 1 -13 -20 -20 -20 -20 -20 -20 -20 -20 -20 -20 -20 -20 -20 -20 -20 -11 -9 -11 6 -14 -20 -20 -20 -20 -20 -20 -20 -20 -20 -20 -20 -20 -20
36 37 36 40 38 36 27 24 29 9 -0 -14 -20 -20 -20 -20 -14 -2 -18 -20 -20 -20 -20 -20 -20 -20 -20 -20 -20 -20 -19 -10 -20 -20 -20 -20 -8 -0 4 11 -3 -20 -20 -20 -20 -20 -20 -20 -20 -20 -20 -20 -20 -20
37 39 39 40 38 34 27 19 13 7 -0 -20 -20 -20 -8 -5 -20 -20 -20 -20 -20 -20 -20 -20 -20 -20 -20 -20 -20 -4 2 -15 0 0 -11 5 17 19 1 10 3 -20 -20 -20 -20 -20 -20 -20 -20 -20 -20 -20 -20 -20
33 38 41 41 27 23 15 7 -4 -19 -20 -20 -15 3 -8 -20 -20 -20 -20 -20 -18 -20 -20 -20 -20 -20 -20 -20 -20 -20 -1 1 -13 -17 -7 13 8 -17 3 17 8 4 -5 -20 -20 -20 -20 -20 -20 -20 -20 -20 -20 -20
33 35 29 29 22 18 18 10 1 -9 -20 -6 -20 -20 -16 -19 -20 -18 -9 -14 -20 -20 -20 -20 -20 -20 -20 -20 -20 -20 -8 21 11 14 10 7 -6 -20 -6 12 10 -3 -20 -20 -20 -20 -20 -20 -20 -20 -20 -20 -20 -20
28 33 25 22 16 8 7 9 -7 -19 -20 -17 -19 -17 -15 -20 -20 -20 -20 -20 -20 -20 -20 -20 -20 -20 -20 -20 -20 -20 -20 -12 15 7 11 12 0 -7 7 9 2 -18 -8 -11 -10 -17 -20 -20 -16 -11 -20 -20 -20 -20
30 24 23 19 8 -18 -20 -16 -10 -20 -20 -20 -20 -20 -20 -20 -20 -20 -20 -20 -20 -20 -20 -20 -19 -8 -3 6 15 21 13 13 12 10 12 16 -6 4 1 6 9 5 -3 -20 -19 -5 6 10 7 -16 -20 -20 -20 -20
15 7 -3 -12 -19 -20 -20 -20 -20 -20 -20 -20 -20 -20 -20 -20 -20 -20 -20 -20 -20 -20 -20 -17 -19 -20 -17 -2 11 19 20 19 16 9 7 6 5 11 8 -3 -2 -3 5 9 7 12 13 6 -14 -20 -20 -20 -20 -20
10 -11 -18 -19 -20 -20 -20 -20 -20 -20 -20 -20 -20 -20 -20 -19 -20 -20 -20 -20 -20 -15 -2 -4 3 4 12 26 23 25 22 29 17 12 3 1 9 5 1 -17 2 11 10 10 12 9 1 -17 -20 -20 -20 -20 -20 -20
10 -16 -20 -20 -20 -20 -20 -20 -20 -20 -20 -20 -20 -20 -20 -20 -20 -11 -20 -20 -20 -20 -20 -9 2 22 23 22 22 23 22 21 15 -3 -1 3 -6 0 12 13 11 10 12 9 5 -6 -20 -20 -20 -20 -20 -20 -20 -20
-20 -20 -20 -20 -20 -20 -20 -20 -20 -20 -20 -20 -20 -20 -20 -20 -20 -20 -20 -20 5 1 3 6 10 17 23 23 25 24 22 16 1 -17 3 4 14 13 4 8 10 11 8 2 -20 -20 -20 -20 -20 -20 -20 -20 -20 -20
-20 -20 -20 -20 -20 -20 -20 -20 -20 -20 -20 -20 -20 -20 -20 -20 -20 -20 -20 -20 -20 -5 9 15 17 18 17 19 16 16 18 18 17 10 -10 -20 -13 6 5 9 11 7 -6 -20 -20 -20 -20 -20 -20 -20 -20 -20 -20 -20
-20 -20 -20 -20 -20 -20 -20 -20 -20 -20 -20 -20 -20 -20 -20 -20 -20 -20 -20 -20 -10 5 17 19 20 22 22 21 18 17 18 15 10 2 10 4 3 10 10 7 3 -16 -20 -20 -20 -20 -20 -20 -20 -20 -20 -20 -20 -20
-20 -20 -20 -20 -20 -20 -20 -20 -20 -20 -20 -20 -20 -20 -20 -20 -20 -20 -20 -20 -17 5 18 19 19 22 23 20 21 20 16 5 -4 7 5 2 4 5 4 -2 -20 -20 -20 -20 -20 -20 -20 -20 -20 -20 -20 -20 -20 -20
-20 -19 -20 -20 -20 -20 -20 -20 -20 -20 -20 -20 -20 -20 -20 -20 -20 -20 -20 -20 -14 -7 13 19 20 23 21 21 15 9 8 17 19 11 10 7 -1 -11 -20 -20 -20 -20 -20 -20 -20 -20 -20 -20 -20 -20 -20 -20 -20 -20

GFSWCAN_prec_radar_120.txt.gz
Reflectivity
10 12 13 -13 -20 -20 -20 -20 -20 7 11 -20 -20 -20 -20 -20 -20 -20 -20 -20 -20 -20 -20 -20 -20 -20 -20 -20 -20 -20 -20 -20 -20 -20 -20 -20 -20 -20 -20 -20 -20 -20 -20 -20 -20 -20 -20 -20 -20 -20 -20 -20 -20 -20
15 13 13 11 -7 -20 -20 -20 -20 6 15 -20 -20 -20 -20 -20 -20 -20 -20 -20 -20 -20 -20 -20 -20 -20 -20 -20 -20 -20 -20 -20 -20 -20 -20 -20 -20 -20 -20 -20 -20 -20 -20 -20 -20 -20 -20 -20 -20 -20 -20 -20 -20 -20
14 15 12 15 11 -12 -20 0 -12 -4 -9 -16 -20 -20 -20 -20 -20 -20 -20 -20 -20 -20 -20 -20 -20 -20 -20 -20 -20 -20 -20 -20 -20 -20 -20 -20 -20 -20 -20 -20 -20 -20 -20 -20 -20 -20 -20 -20 -20 -20 -20 -20 -20 -20
8 15 21 18 16 16 3 6 13 -7 -20 -6 -20 -20 -20 -20 -20 2 -20 -20 -20 -20 -20 -20 -20 -20 -20 -20 -20 -20 -20 -20 -20 -20 -20 -20 -20 -20 -20 -20 -20 -20 -20 -20 -20 -20 -20 -20 -20 -20 -20 -20 -20 -20
-2 1 11 19 26 19 12 -2 21 10 -3 -7 -20 -20 -20 -16 -20 -4 -20 -20 -20 -20 -20 -20 -20 -20 -20 -20 -20 -20 -20 -20 -20 -20 -20 -20 -20 -20 -20 -20 -20 -20 -20 -20 -20 -20 -20 -20 -20 -20 -20 -20 -20 -20
5 5 19 12 20 26 21 18 6 20 26 2 -2 -9 -20 -5 11 -17 -10 -18 -20 -20 -20 -20 -20 -20 -20 -20 -20 -20 -20 -20 -20 -20 -20 -20 -20 -20 -20 -20 -20 -20 -20 -20 -20 -20 -20 -20 -20 -20 -20 -20 -20 -20
-20 4 -3 18 16 25 28 25 22 20 27 31 23 11 8 7 -16 -17 -20 -20 -20 -16 12 -20 -20 -20 -20 -20 -20 -20 -20 -20 -20 -20 -20 -20 -20 -20 -20 -13 -17 -20 -20 -20 -20 -20 -20 -20 -20 -20 -20 -20 -20 -20
2 -8 6 -1 20 23 29 27 28 32 33 35 35 34 16 16 -3 -7 -14 -20 -20 -11 -5 -15 -20 -20 -20 -20 -20 -20 -20 -20 -20 -20 -20 -20 -20 -20 -20 2 3 -20 -20 -20 -20 -20 -20 -20 -20 -20 -20 -20 -20 -20
3 5 9 12 4 28 27 27 30 32 35 36 37 35 24 26 8 2 6 -12 1 -14 7 22 -20 -20 -20 -20 -20 -20 -20 -20 -20 -20 -20 -20 -20 -20 -20 -5 12 -6 -20 -20 -20 -20 -20 -20 -20 -20 -20 -20 -20 -20
4 9 13 13 17 26 35 27 30 39 38 39 35 39 37 26 12 18 15 -10 19 29 28 3 -20 -20 -20 -20 -9 -11 -20 -20 -20 -20 -20 -20 -20 -20 -20 -16 0 1 -20 -20 -20 -20 -20 -20 -20 -20 -20 -20 -20 -20
9 3 9 16 18 23 34 31 31 39 39 38 37 37 26 15 29 32 19 -5 -16 -2 6 0 -20 1 -20 -16 -19 -14 -18 -20 -20 -20 -20 -20 -20 -20 -20 -20 -18 -20 -20 -20 -20 -20 -20 -20 -20 -20 -20 -20 -20 -20
3 17 24 19 25 26 29 38 39 40 37 36 30 26 28 33 31 23 17 -2 -6 -19 -20 -2 -5 -7 -17 -4 11 -1 -20 -20 -20 -20 -20 -20 -20 -20 -20 -20 -17 -20 -20 -20 -20 -20 -20 -20 -20 -20 -20 -20 -20 -20
16 18 27 18 27 30 33 38 37 38 38 35 34 30 30 26 17 3 -10 -2 -20 -14 -7 15 15 17 12 -1 3 -8 -20 -20 -20 -20 -20 -20 -20 -20 -20 -20 -12 -20 -20 -20 -20 -20 -20 -20 -20 -20 -20 -20 -20 -20
11 8 21 20 28 31 35 42 41 35 38 36 31 29 23 20 -12 -20 -20 -20 -4 -3 -14 8 10 2 -20 -17 -15 -14 -20 -20 -20 -20 -20 -20 -20 -20 -20 -20 -8 -20 -20 -20 -20 -20 -20 -20 -20 -20 -20 -20 -20 -20
28 35 23 23 33 34 38 42 39 34 36 33 33 30 26 14 -15 -20 -20 -6 19 12 -4 8 17 11 -18 -20 -20 -20 -20 -20 -20 -20 -20 -20 -20 -20 -20 -20 -20 -20 -20 -20 -4 -6 -20 -20 -20 -20 -20 -20 -20 -20
23 24 29 29 34 36 39 37 32 34 35 32 31 19 -13 -20 -19 6 5 8 10 11 16 20 16 2 -20 -20 -20 -20 -20 -20 -20 -20 -20 -20 -20 -20 -20 -20 -19 -20 -20 -17 -17 7 -18 -20 -20 -20 -20 -20 -20 -20
27 37 34 37 38 39 38 40 39 34 32 31 24 24 -9 -13 2 12 8 -0 12 16 16 3 -18 -20 -20 -20 -20 -20 -20 -20 -20 -20 -20 -20 -20 -20 -20 -20 -20 2 3 -20 -20 -1 -4 -20 -20 -20 -20 -20 -20 -20
38 36 29 30 40 40 41 36 36 31 31 26 17 0 -20 -20 -11 10 -4 -11 3 14 17 11 -9 -20 -20 -20 -20 -20 -20 -20 -20 -20 -20 -20 -20 -20 -20 -20 -20 -20 -20 -20 -20 3 1 -20 -20 -20 -20 -20 -20 -20
39 27 32 36 39 39 34 32 29 26 19 6 -18 -20 -20 -11 11 10 5 18 19 13 5 -20 -20 -20 -20 -20 -20 -20 -20 -20 -20 -20 -20 -20 -20 -20 -20 -20 -20 -20 -20 -20 -20 -20 -11 -8 -20 -20 -20 -20 -20 -20
34 32 35 37 34 35 29 26 31 15 0 -18 -20 -20 6 9 1 8 14 23 13 -12 -20 -20 -20 -20 -20 -20 -20 -20 -20 -20 -20 -20 -20 -20 -20 -20 -20 -20 -20 -20 -20 1 1 -20 -20 -17 -15 -20 -20 -20 -20 -20
35 36 36 39 38 37 27 23 20 19 16 8 6 -14 -20 -18 -3 5 8 16 18 11 -18 -20 -20 -20 -20 -20 -20 -20 -20 -20 -20 -20 -20 -20 -20 -20 -20 -20 -20 -18 25 17 11 -7 -4 -3 -19 -20 -20 -20 -20 -20
35 37 37 37 31 28 23 18 6 1 1 -0 2 11 14 15 17 17 19 19 6 -20 -20 -20 -20 -20 -20 -20 -20 -20 -20 -20 -20 -20 -20 -20 -20 -20 -20 -20 0 -5 18 19 17 10 -1 -20 -20 -20 -20 -20 -20 -20
31 32 32 29 27 21 18 10 -1 -6 -9 -1 -8 -2 -1 -5 -7 -0 10 -7 -20 -20 -20 -20 -20 -20 -20 -20 -20 -20 -20 -20 -20 -20 -20 -20 -20 -20 -17 -16 11 13 13 17 -9 -7 -19 -20 -20 -20 -20 -20 -20 -17
28 33 26 22 18 8 15 16 1 -3 -10 3 8 8 7 -1 3 -1 -19 -20 -20 -20 -20 -20 -20 -20 -20 -20 -20 -20 -20 -20 -20 -20 -20 -20 -20 -6 2 -12 -19 5 19 -14 -13 -3 -8 -20 -20 -20 -20 -10 5 6
30 24 21 19 12 -3 -12 -17 -18 -20 -16 -6 4 13 7 -15 -20 -20 -20 -20 -20 -20 -20 -20 -20 -20 -20 -20 -20 -20 -20 -20 -20 -20 -20 -20 9 16 20 12 15 18 10 -20 -8 -17 -20 -20 -20 -13 8 9 7 -11
17 16 13 2 -9 -20 -20 -20 -20 -20 5 16 16 6 -19 -20 -20 -20 -20 -20 -20 -20 -20 -20 -20 -20 -20 -20 -20 -20 -20 -14 -13 -18 -20 -20 -20 18 20 13 16 14 6 -1 -15 -19 -19 -20 7 11 10 3 -20 -20
13 -6 -16 -20 -20 -20 -20 -20 -20 2 8 2 -18 -20 -20 -20 -20 -20 -20 -20 -20 -20 -20 -20 -20 -20 -20 -20 -20 -14 -16 6 12 2 -4 3 -5 7 -5 -1 -8 9 10 3 -9 2 12 14 14 6 -15 -20 -20 -20
1 -20 -20 -20 -20 -20 -20 -18 -3 -1 -12 -20 -20 -20 -20 -20 -20 -20 -20 -20 -20 -20 -20 -20 -20 -20 -20 -18 8 20 14 16 19 22 22 6 12 8 10 11 20 12 -1 10 13 12 14 11 -10 -20 -20 -20 -20 -20
-20 -20 -20 -19 -4 1 2 -12 -20 -20 -20 -20 -20 -20 -20 -20 -20 -20 -20 -20 -20 -20 -20 -20 -19 -16 -13 6 16 14 10 8 15 22 10 -0 -1 15 13 7 10 9 8 11 12 12 2 -20 -20 -20 -20 -20 -20 -20
-20 -20 -6 -2 -3 -16 -20 -20 -20 -20 -20 -20 -20 -20 -20 -20 -20 -20 -20 -20 -20 -20 -20 -20 2 13 16 17 19 19 17 17 12 8 10 10 11 12 11 8 10 8 9 11 7 -5 -20 -20 -20 -20 -20 -20 -20 -20
-14 -20 -20 -20 -20 -20 -20 -20 -20 -20 -20 -20 -20 -20 -20 -20 -20 -20 -20 -20 -20 -20 -20 -19 -1 5 14 15 16 17 17 19 22 18 18 20 16 7 5 -1 2 9 10 2 -11 -20 -20 -20 -20 -20 -20 -20 -20 -20
-20 -20 -20 -20 -20 -20 -20 -20 -20 -20 -20 -20 -20 -20 -20 -20 -20 -20 -20 -20 -20 -20 -20 -13 -3 14 19 21 23 24 23 19 15 15 19 11 3 9 5 5 10 7 -1 -12 -20 -20 -20 -20 -20 -20 -20 -20 -20 -20
-20 -20 -20 -20 -20 -20 -20 -20 -20 -20 -20 -20 -20 -20 -20 -20 -20 -20 -20 -20 -20 -20 -20 -18 5 16 19 16 13 19 21 18 11 9 8 13 11 6 7 8 6 -0 -14 -20 -20 -20 -20 -20 -20 -20 -20 -20 -20 -20

GFSWCAN_prec_radar_123.txt.gz
Reflectivity
-20 -20 9 15 -20 -20 -20 1 -20 -15 -15 -19 -20 -20 -20 -20 -20 -20 -20 -20 -20 -20 -20 -20 -20 -20 -20 -20 -20 -20 -20 -20 -20 -20 -20 -20 -20 -20 -20 -20 -20 -20 -20 -20 -20 -20 -20 -20 -20 -20 -20 -20 -20 -20
-20 -20 4 7 -1 5 -20 3 7 -9 -20 9 -20 -20 -20 -20 -20 -20 -20 -20 -20 -20 -20 -20 -20 -20 -20 -20 -20 -20 -20 -20 -20 -20 -20 -20 -20 -20 -20 -20 -20 -20 -20 -20 -20 -20 -20 -20 -20 -20 -20 -20 -20 -20
-20 -20 -20 -20 -2 -1 -1 -17 13 7 9 10 9 -19 -20 -20 -20 -20 -20 -20 -20 -20 -20 -20 -20 -20 -20 -20 -20 -20 -20 -20 -20 -20 -20 -20 -20 -20 -20 -20 -20 -20 -20 -20 -20 -20 -20 -20 -20 -20 -20 -20 -20 -20
-20 -20 -20 -20 -20 -9 8 9 -9 15 15 18 15 15 -8 -20 -12 -17 -20 -20 -20 -20 -20 -20 -20 -20 -20 -20 -20 -20 -20 -20 -20 -20 -20 -20 -20 -20 -20 -20 -20 -20 -20 -20 -20 -20 -20 -20 -20 -20 -20 -20 -20 -20
-3 -20 -20 -20 6 -12 4 8 16 10 11 12 22 26 13 1 -17 -13 -20 -20 -20 -20 -20 -20 -20 -20 -20 -20 -20 -20 -20 -20 -20 -20 -20 -20 -20 -20 -20 -20 -20 -20 -20 -20 -20 -20 -20 -20 -20 -20 -20 -20 -20 -20
14 -20 -20 -20 -20 7 2 10 16 25 22 18 23 30 32 31 21 12 -19 -20 -20 -20 13 -19 -20 -20 -20 -20 -20 -20 -20 -20 -20 -20 -20 -20 -20 -20 -20 -20 -19 -15 -20 -20 -20 -20 -20 -20 -20 -20 -20 -20 -20 -20
16 -3 -20 -16 -10 -3 8 11 19 19 24 27 27 35 35 34 29 13 -6 0 -8 -20 4 -9 -20 -20 -20 -20 -20 -20 -20 -20 -20 -20 -20 -20 -20 -20 -20 -20 -11 12 10 -20 -20 -20 -20 -20 -20 -20 -20 -20 -20 -20
10 18 13 5 -0 1 13 13 18 20 23 28 33 39 38 36 32 32 9 -2 1 -14 -3 -12 -20 -20 -20 -20 -20 -20 -20 -20 -20 -20 -20 -20 -20 -20 -20 -20 -19 -19 -2 -13 -20 -20 -20 -20 -20 -20 -20 -20 -20 -20
-20 4 8 8 1 14 7 16 20 24 31 36 39 41 38 37 35 25 23 30 20 12 -4 11 -20 -20 -20 -20 -20 -20 -20 -20 -20 -20 -20 -20 -20 -20 -20 -20 -20 -20 -20 -20 -20 -20 -20 -20 -20 -20 -20 -20 -20 -20
-20 9 3 9 11 -18 3 13 28 27 36 41 42 41 38 34 26 8 30 38 37 33 27 -7 -20 -20 -20 -18 -19 -20 -20 -20 -20 -20 -20 -20 -20 -20 -19 -18 -20 -20 -20 -20 -20 -20 -20 -20 -20 -20 -20 -20 -20 -20
-16 -20 7 5 5 11 8 15 26 35 42 42 39 37 35 29 27 32 26 25 22 7 4 -1 -18 -20 2 4 -1 -2 -19 -20 -20 -20 -20 -20 -20 -20 -20 -20 -20 -20 -20 -20 -20 -20 -20 -20 -20 -20 -20 -20 -20 -20
-20 -11 3 15 -8 17 1 23 25 38 40 38 35 36 36 34 31 25 23 14 4 -17 -17 -17 12 8 13 17 19 6 -11 -20 -20 -20 -20 -20 -20 -20 -20 -20 -20 -20 -20 -20 -20 -20 -20 -20 -20 -20 -20 -20 -20 -20
-1 -3 -20 17 18 28 9 22 33 38 38 38 38 34 31 30 24 21 9 -2 -20 -20 -18 -10 9 18 12 13 17 -10 -20 -20 -20 -20 -20 -20 -20 -20 -20 -20 -20 -20 -20 -20 -20 -20 -20 -20 -20 -20 -20 -20 -20 -20
-7 5 -17 5 25 22 24 23 37 40 38 35 32 32 27 25 17 5 -5 -19 -20 -19 4 21 22 -8 -13 -9 4 -12 -20 -20 -20 -20 -20 -17 -20 -20 -20 -20 -20 -20 -20 -20 -20 -20 -20 -20 -20 -20 -20 -20 -20 -20
1 17 16 15 17 29 25 29 41 37 34 34 33 31 26 13 -15 -14 -4 8 -15 -20 -16 -4 9 -13 1 19 8 -10 -20 -20 -20 -20 -20 -20 -20 -20 -20 -20 -20 -20 -20 -20 -20 -20 -20 -20 -20 -20 -20 -20 -20 -20
1 18 13 9 -13 24 36 37 42 32 28 33 33 29 20 3 -20 -20 -20 -20 -20 -20 -11 15 18 17 7 1 6 -15 -20 -20 -20 -20 -20 -20 -20 -20 -20 -20 -20 -20 -20 -20 -20 -20 -20 -20 -20 -20 -20 -20 -20 -20
8 11 11 7 -17 17 31 39 43 35 32 32 32 26 12 -16 -5 -14 9 11 -7 12 17 17 18 14 13 15 -15 -20 -20 -20 -20 -20 -20 -20 -20 -20 -20 -20 -20 -20 -20 -20 -20 -20 -20 -20 -20 -20 -5 -5 -20 -20
8 -20 -17 -8 23 16 32 37 37 33 30 28 22 3 -17 -20 -20 -20 -13 9 11 23 24 13 6 15 9 -9 -20 -20 -20 -20 -20 -20 -20 -20 -20 -20 -20 -20 -20 -20 -20 -20 -20 -20 -20 -20 -20 -20 -20 5 -18 -20
12 9 25 30 41 40 39 37 34 29 27 22 9 -19 -20 -20 -20 10 9 7 10 11 21 23 23 20 2 -20 -20 -20 -20 -20 -20 -20 -20 -20 -20 -20 -20 -20 -20 -20 -20 -20 -20 -20 -20 -20 -20 -20 -18 -1 9 -19
14 26 32 33 41 37 29 28 34 21 12 3 -15 -17 -20 -20 -20 -20 -4 20 24 28 25 17 1 -20 -20 -20 -20 -20 -20 -20 -20 -20 -20 -20 -20 -20 -20 -20 -20 -20 -20 -20 -20 -20 -20 -20 -20 -20 -20 7 16 8
26 33 35 38 38 37 28 23 19 14 9 -16 -20 -20 -20 -20 9 20 25 28 28 19 21 -8 -19 -20 -11 -20 -20 -20 -20 -20 -20 -20 -20 -20 -20 -20 -20 -20 -20 -20 -20 -20 -20 -20 -20 -20 -20 -20 -20 -7 5 1
36 33 39 37 32 30 26 22 9 9 10 1 -16 2 9 14 16 14 17 19 18 15 -20 -20 -5 13 -4 -20 -20 -20 -20 -20 -20 -20 -20 -20 -20 -20 -20 -20 -20 -20 -20 -20 -20 -20 -17 11 11 -3 -14 -2 -10 -5
43 37 33 30 29 26 22 12 2 5 12 19 13 9 9 2 -0 2 17 16 16 -17 -0 11 5 -11 -20 -20 -20 -20 -20 -20 -20 -20 -20 -20 -20 -20 -20 -20 -20 -20 -20 -20 -20 -7 15 3 -19 -12 -2 -6 -20 -20
37 34 30 27 21 14 9 7 -7 -7 15 18 15 12 -2 -8 6 18 18 4 -19 -12 2 6 2 -20 -20 -20 -20 -20 -20 -20 -20 -20 -20 -20 -20 -20 -20 -20 -20 -20 -20 -20 8 21 21 -12 -2 1 6 -1 -20 -20
32 29 24 16 7 -2 -8 -19 -11 -4 11 12 3 7 0 7 13 13 1 -20 -9 16 10 -15 -20 -20 -20 -20 -20 -20 -20 -20 -20 -20 -20 -20 -20 -20 -20 -20 -20 -9 7 2 20 13 7 -3 8 5 -11 -20 -20 -18
26 18 10 -17 -20 -20 -20 -20 -20 -20 -15 -19 -19 -8 -2 9 6 -1 -20 2 9 -10 -20 -20 -20 -20 -20 -20 -20 -20 -20 -20 -20 -20 -20 -20 -20 -20 -20 -20 -20 10 24 26 19 9 4 3 4 0 -11 2 11 8
1 -19 -20 -20 -20 -20 -20 -20 -2 9 3 -6 -3 -13 -11 -17 -16 -20 3 5 -19 -20 -20 -20 -20 -20 -20 -20 -20 -20 -20 -20 -20 -20 -18 -20 -20 -20 -20 -20 -9 14 26 23 17 15 10 5 2 13 16 13 4 5
-20 -20 -20 -20 -20 -20 -20 -20 -7 2 -10 -20 -20 -20 -19 -19 -20 7 -7 -20 -20 -20 -20 -20 -20 -20 -20 -20 -20 -20 -20 -20 -20 -20 -20 -9 -20 -20 -20 -15 8 23 21 12 10 6 -1 12 15 14 11 6 3 -14
-20 -20 -20 -20 -20 -20 -20 -20 -20 -20 -20 -20 -19 -20 -20 -20 -20 -20 -20 -20 -20 -20 -20 -20 -20 -20 -20 -20 -20 -20 -20 -19 -18 -1 -6 -20 -16 -1 -1 -0 15 12 15 0 13 17 14 14 15 6 2 -3 -11 -13
-20 -20 -20 -20 -20 -20 -20 -14 -12 -13 -15 -19 -20 -20 -20 -20 -20 -20 -20 -20 -20 -20 -20 -20 -20 -20 -20 -20 -20 -18 2 13 13 9 -0 -20 -13 -12 -14 7 14 11 12 15 11 18 18 10 3 2 -4 -12 -17 -20
-20 -20 -20 -20 -20 -20 -20 -20 -18 -20 -20 -20 -20 -20 -20 -20 -20 -20 -20 -20 -20 -20 -20 -20 -20 -20 -20 -20 -20 -19 -16 -15 -4 11 -0 4 16 10 16 14 10 9 8 7 0 13 11 -13 -8 -7 -10 -20 -20 -20
-20 -20 -20 -20 -20 -20 -20 -20 -20 -20 -20 -20 -20 -20 -20 -20 -20 -20 -20 -20 -20 -20 -20 -20 -20 -20 -20 -20 -20 -8 -15 -6 -16 -6 10 14 10 13 13 11 9 7 7 17 16 -3 -8 -6 -8 -12 -20 -20 -20 -20
-14 -13 -16 -20 -20 -20 -20 -20 -20 -20 -20 -20 -20 -20 -20 -20 -20 -20 -20 -20 -20 -20 -20 -20 -20 -20 -20 -20 -20 -20 -20 -6 5 9 14 17 9 -1 6 8 13 18 17 5 -0 -11 -10 -15 -20 -20 -20 -20 -20 -20

GFSWCAN_prec_radar_126.txt.gz
Reflectivity
11 13 10 15 5 -6 -20 11 12 -10 -20 -20 -20 -8 -2 -20 -20 -20 -20 -20 -20 -20 -20 -20 -20 -20 -20 -20 -20 -20 -20 -20 -20 -20 -20 -20 -20 -20 -20 -20 -20 -20 -20 -20 -20 -20 -20 -20 -20 -20 -20 -20 -20 -20
-1 3 12 12 14 -19 -6 4 17 9 -20 -20 -20 -20 7 13 -12 -20 -20 -20 -20 -20 -20 -20 -20 -20 -20 -20 -20 -20 -20 -20 -20 -20 -20 -20 -20 -20 -20 -20 -20 -20 -20 -20 -20 -20 -20 -20 -20 -20 -20 -20 -20 -20
-2 -1 -2 2 10 9 1 1 14 22 13 -17 -20 -9 -15 8 11 -14 -20 -20 -20 -20 -20 -20 -20 -20 -20 -20 -20 -20 -20 -20 -20 -20 -20 -20 -20 -20 -20 -20 -20 -20 -20 -20 -20 -20 -20 -20 -20 -20 -20 -20 -20 -20
9 -17 -3 6 7 -10 1 11 13 18 27 20 5 10 14 23 20 16 -9 -20 -20 -20 -20 -20 -20 -20 -20 -20 -20 -20 -20 -20 -20 -20 -20 -20 -20 -20 -20 -20 -20 -20 -20 -20 -20 -20 -20 -20 -20 -20 -20 -20 -20 -20
5 15 7 9 4 -2 -3 -13 13 18 27 25 26 22 17 26 30 29 22 -19 -20 -20 -20 -20 -20 -20 -20 -20 -20 -20 -20 -20 -20 -20 -20 -20 -20 -20 -20 -20 -20 -20 -20 -20 -20 -20 -20 -20 -20 -20 -20 -20 -20 -20
2 10 -11 11 8 -10 6 2 -4 11 21 27 28 28 29 31 32 31 29 0 -7 14 7 -16 -20 -20 -20 -20 -20 -20 -20 -20 -20 -20 -20 -20 -20 -20 -20 -20 -20 -20 -20 -20 -20 -20 -20 -20 -20 -20 -20 -20 -20 -20
-20 -20 -20 -18 9 22 3 10 4 5 9 28 28 34 35 34 38 28 16 11 3 21 28 12 -20 -20 -20 -20 -20 -20 -20 -20 -20 -20 -20 -20 -20 -20 -20 -20 -20 -20 -20 -20 -20 -20 -20 -20 -20 -20 -20 -20 -20 -20
-20 -20 -20 -20 -16 5 15 12 17 13 19 23 30 37 37 39 41 36 30 28 26 20 25 8 -20 -20 -20 -1 5 -13 -20 -20 -20 -20 -20 -20 -20 -20 -20 -20 -20 -20 -20 -20 -20 -20 -20 -20 -20 -20 -20 -20 -20 -20
-20 -20 -20 -20 -20 -11 -4 27 23 18 22 28 32 41 42 40 40 35 26 18 31 24 28 15 -20 -20 -20 -20 4 17 8 -20 -20 -20 -20 -20 -20 -20 -20 -20 -20 -20 -20 -20 -20 -20 -20 -20 -20 -20 -20 -20 -20 -20
-20 -20 -20 -20 -20 -20 -0 -9 0 21 25 29 39 42 35 37 29 20 27 39 39 34 17 8 -18 -20 -20 -20 6 16 17 7 -20 -20 -20 -20 -20 -20 -20 -20 -20 -20 -20 -20 -20 -20 -20 -20 -20 -20 -20 -20 -20 -20
-20 -20 -20 -20 -20 -20 -20 -4 14 14 26 39 42 36 39 34 32 36 29 29 28 17 13 -5 -19 -19 -14 -12 19 20 14 9 -5 -20 -20 -20 -20 -20 -20 -19 -20 -20 -20 -20 -20 -20 -20 -20 -20 -20 -20 -20 -20 -20
-8 -20 -20 -20 -20 -4 1 -16 -12 14 31 29 36 34 41 39 31 28 25 19 12 -13 -6 2 -17 -19 -6 2 18 14 16 19 8 -20 -20 -20 -9 -15 -20 -20 -20 -20 -20 -20 -20 -20 -20 -20 -20 -20 -20 -20 -20 -18
-20 -6 -20 -20 -20 -20 -20 -6 -3 -10 32 37 33 30 32 32 29 26 17 3 -5 -20 1 -13 9 8 5 20 23 22 18 -6 -20 -20 -20 -20 -19 -20 -20 -20 -20 -20 -20 -20 -20 -20 -20 -20 -20 -20 -20 -20 -20 -20
2 -20 -20 -20 -20 -6 -18 -15 -20 23 36 35 31 29 27 29 27 16 1 -6 -7 -20 -20 -10 15 23 25 21 20 16 6 3 -5 -20 -20 -8 -20 -20 -20 -20 -20 -20 -20 -20 -20 -20 -20 -20 -20 -20 -20 -20 -20 -20
-6 15 -20 -20 -20 -20 -20 -17 -2 21 35 28 31 28 24 17 7 7 -4 -10 -12 -12 -20 -11 16 17 15 16 9 0 6 -4 -16 -20 -9 -5 -20 -20 -20 -20 -20 -20 -20 -20 -20 -20 -20 -20 -20 -20 -20 -20 -20 -20
13 19 -18 -20 -20 -20 5 -10 2 26 43 35 23 31 22 -7 -20 -20 -20 -20 -20 -20 -14 -2 21 21 17 14 14 7 -1 -20 -20 8 19 -2 -20 -20 -20 -20 -20 -20 -20 -20 -20 -20 -20 -20 -20 -20 -20 -20 -20 -20
-0 7 -20 -20 -13 6 14 14 33 34 29 33 30 27 28 -4 -20 -20 -20 -20 -20 -2 7 -4 19 18 11 10 2 -20 -20 -13 -11 17 16 -17 -20 -20 -20 -20 -20 -20 -20 -20 -20 -20 -20 -20 -20 -20 -20 -20 -20 -20
11 -20 -20 -20 -15 13 7 22 34 29 31 25 29 24 8 -10 -20 -20 -20 -20 -20 -20 8 -6 12 19 13 -4 -20 -20 -16 -14 10 18 12 -20 -20 -20 -20 -20 -20 -20 -20 -20 -20 -20 -20 -20 -20 -20 -20 -20 -20 -20
-20 -20 -20 -18 22 26 24 23 24 30 26 22 22 0 -20 -20 -20 -20 -20 -20 -10 -14 14 20 22 19 -1 -19 -20 -18 -18 7 14 7 -19 -20 -20 -20 -20 -20 -20 -20 -20 -20 -20 -20 -20 -20 -20 -20 -20 -20 -20 -20
17 -1 -20 18 25 33 25 20 21 26 25 16 14 11 15 -7 -15 -20 -20 -3 14 21 23 22 7 -20 -20 -20 -13 -14 -2 -5 -18 -20 -20 -20 -20 -20 -20 -20 -20 -20 -20 -20 -20 -20 -20 -20 -20 -20 -20 -20 -20 -20
17 -18 -20 26 20 23 32 25 23 18 11 8 -15 -20 8 -14 -11 -20 -19 6 22 34 27 1 -18 -20 -20 -20 -18 2 12 -18 -20 -20 -20 -20 -20 -20 -20 -20 -20 -20 -20 -20 -20 -20 -20 -20 -20 -20 -20 -20 -20 -20
-12 -14 24 11 27 28 26 21 15 1 -14 -13 -17 -14 -3 -2 7 9 20 26 29 17 -20 -20 -20 -20 -20 -16 -6 -2 -18 -20 -20 -20 -20 -20 -20 -20 -20 -20 -20 -20 -20 -20 -20 -20 -20 -20 -20 -20 -20 -20 -20 -20
21 21 30 25 29 29 19 11 5 0 -19 8 -4 8 14 3 -12 1 16 18 17 -16 -20 -20 -20 -12 12 9 -18 -20 -20 -19 -20 -20 -16 -20 -20 -20 -20 -20 -20 -20 -20 -20 -20 -20 -20 -20 -20 -20 -18 -14 -20 -20
27 22 19 23 28 23 16 11 10 -6 5 15 15 16 10 11 17 12 7 -18 -20 -20 7 13 9 4 -7 -20 -20 -20 -20 -20 -20 -20 -20 -20 -20 -20 -20 -20 -20 -20 -20 -20 -20 -20 -20 -20 -3 1 14 16 11 10
26 23 20 23 20 14 -5 -20 5 4 -7 5 1 12 11 7 7 7 -3 -20 -12 12 11 -0 -20 -20 -20 -20 -20 -20 -20 -20 -20 -20 -20 -20 -20 -20 -20 -20 -20 -20 -20 -20 -20 -20 -16 -1 1 10 17 18 15 5
27 17 8 1 -8 -19 -20 -20 -20 -20 -16 -7 -9 -3 -14 -16 4 4 -17 -20 3 3 -17 -20 -20 -20 -20 -19 -20 -20 -20 -20 -20 -20 -20 -20 -20 -20 -20 -20 -20 -20 -20 -20 -20 12 19 19 18 19 22 17 5 -13
18 6 -6 -17 -13 -20 3 10 14 15 13 7 4 3 11 11 1 -20 -20 -16 4 -1 -19 -20 -20 -20 -20 -20 -20 -20 -20 -20 -20 -20 -20 -20 -20 -20 -20 -20 -20 -20 -20 -15 4 13 11 13 22 23 16 8 -5 -5
3 -19 -20 -20 -4 7 7 11 14 12 6 -18 -17 -15 -5 -9 -20 -20 -20 -20 -17 -20 -20 -20 -20 -20 -20 -20 -20 -20 -20 -20 -20 -20 -20 -20 -20 -20 -20 -20 -20 -20 -20 -20 6 8 8 17 18 8 2 7 11 14
-8 8 6 -3 9 11 9 1 -6 -19 -10 6 10 9 -4 -20 -20 -16 -17 -20 -20 -20 -20 -20 -20 -20 -20 -20 -20 -20 -20 -20 -20 -20 -20 -20 -20 -20 -20 -20 -20 -20 -20 -3 -1 -9 9 10 -4 4 10 10 4 1
-12 -20 -10 -1 -3 -19 -9 -3 -7 -2 -16 -20 -10 -6 -17 -20 -20 -20 -20 -20 -20 -20 -20 -20 -20 -20 -20 -20 -20 -20 -19 -20 -18 -20 -20 -20 -8 5 -13 -20 -20 -20 -20 -20 2 14 3 5 7 11 8 4 3 -4
-20 -20 -20 -20 -20 -20 -20 -20 -20 -20 -20 -20 -20 -20 -20 -20 -20 -20 -20 -20 -20 -20 -20 -20 -20 -20 -20 -20 -20 -20 -20 -18 -16 -7 -18 -3 -3 -13 -20 -20 -20 -20 -20 -20 -16 7 7 7 6 4 -0 -1 -1 -8
-11 -20 -20 -20 -20 -20 -20 -20 -20 -20 -20 -20 -20 -20 -20 -20 -20 -20 -20 -20 -20 -20 -20 -20 -20 -20 -20 -20 -20 -20 -20 -20 -13 -18 -20 -6 -7 -20 -19 -20 -10 -11 -20 -7 10 8 7 -6 -6 -4 -9 -7 -19 -20
-20 -20 -20 -20 -20 -20 -20 -20 -20 -20 -20 -20 -20 -20 -20 -20 -20 -20 -20 -20 -20 -20 -20 -20 -20 -20 -20 -20 -20 -20 -20 -20 -20 -20 -1 4 -3 3 -4 -17 -16 5 11 11 -0 -7 -17 -16 -6 -3 -10 -20 -20 -20